<?xml version="1.0" encoding="UTF-8" standalone="no" ?>
<gpx xmlns="http://www.topografix.com/GPX/1/1" xmlns:xsi="http://www.w3.org/2001/XMLSchema-instance" xsi:schemaLocation="http://www.topografix.com/GPX/1/1 http://www.topografix.com/GPX/1/1/gpx.xsd" version="1.1" creator="VisuGPX - https://www.visugpx.com">
  <metadata>
    <name>Pic des redouneilles</name>
    <desc><![CDATA[Pic des redouneilles]]></desc>
  </metadata>
  <trk>
    <name><![CDATA[Rando-course]]></name>
    <cmt><![CDATA[Redouneilles]]></cmt>
    <trkseg>
      <trkpt lat="42.7305" lon="1.54984">
        <ele>920.11889648438</ele>
        <time>2012-06-10T06:05:38Z</time>
      </trkpt>
      <trkpt lat="42.73051" lon="1.54985">
        <ele>920.11889648438</ele>
        <time>2012-06-10T06:05:39Z</time>
      </trkpt>
      <trkpt lat="42.73053" lon="1.54981">
        <ele>925.40625</ele>
        <time>2012-06-10T06:05:44Z</time>
      </trkpt>
      <trkpt lat="42.73052" lon="1.5497">
        <ele>927.3291015625</ele>
        <time>2012-06-10T06:05:53Z</time>
      </trkpt>
      <trkpt lat="42.73051" lon="1.54964">
        <ele>928.77099609375</ele>
        <time>2012-06-10T06:05:58Z</time>
      </trkpt>
      <trkpt lat="42.73048" lon="1.54957">
        <ele>929.73217773438</ele>
        <time>2012-06-10T06:06:03Z</time>
      </trkpt>
      <trkpt lat="42.73043" lon="1.54951">
        <ele>930.69360351562</ele>
        <time>2012-06-10T06:06:12Z</time>
      </trkpt>
      <trkpt lat="42.73037" lon="1.5494">
        <ele>933.0966796875</ele>
        <time>2012-06-10T06:06:21Z</time>
      </trkpt>
      <trkpt lat="42.73032" lon="1.54935">
        <ele>933.57739257812</ele>
        <time>2012-06-10T06:06:27Z</time>
      </trkpt>
      <trkpt lat="42.73027" lon="1.54928">
        <ele>935.98071289062</ele>
        <time>2012-06-10T06:06:33Z</time>
      </trkpt>
      <trkpt lat="42.73018" lon="1.54918">
        <ele>946.07470703125</ele>
        <time>2012-06-10T06:06:42Z</time>
      </trkpt>
      <trkpt lat="42.73017" lon="1.54922">
        <ele>947.03588867188</ele>
        <time>2012-06-10T06:06:46Z</time>
      </trkpt>
      <trkpt lat="42.73014" lon="1.54931">
        <ele>943.67138671875</ele>
        <time>2012-06-10T06:06:53Z</time>
      </trkpt>
      <trkpt lat="42.73013" lon="1.54938">
        <ele>942.2294921875</ele>
        <time>2012-06-10T06:06:58Z</time>
      </trkpt>
      <trkpt lat="42.73013" lon="1.5495">
        <ele>940.78735351562</ele>
        <time>2012-06-10T06:07:05Z</time>
      </trkpt>
      <trkpt lat="42.73011" lon="1.54962">
        <ele>940.78735351562</ele>
        <time>2012-06-10T06:07:13Z</time>
      </trkpt>
      <trkpt lat="42.73009" lon="1.54964">
        <ele>940.30688476562</ele>
        <time>2012-06-10T06:07:15Z</time>
      </trkpt>
      <trkpt lat="42.73005" lon="1.54967">
        <ele>939.82592773438</ele>
        <time>2012-06-10T06:07:22Z</time>
      </trkpt>
      <trkpt lat="42.73001" lon="1.54972">
        <ele>940.78735351562</ele>
        <time>2012-06-10T06:07:29Z</time>
      </trkpt>
      <trkpt lat="42.72999" lon="1.54972">
        <ele>941.26806640625</ele>
        <time>2012-06-10T06:07:34Z</time>
      </trkpt>
      <trkpt lat="42.72997" lon="1.54974">
        <ele>943.67138671875</ele>
        <time>2012-06-10T06:07:40Z</time>
      </trkpt>
      <trkpt lat="42.72998" lon="1.54978">
        <ele>946.55541992188</ele>
        <time>2012-06-10T06:07:45Z</time>
      </trkpt>
      <trkpt lat="42.72998" lon="1.54981">
        <ele>949.919921875</ele>
        <time>2012-06-10T06:07:50Z</time>
      </trkpt>
      <trkpt lat="42.72997" lon="1.54986">
        <ele>952.8037109375</ele>
        <time>2012-06-10T06:07:58Z</time>
      </trkpt>
      <trkpt lat="42.72999" lon="1.5499">
        <ele>952.8037109375</ele>
        <time>2012-06-10T06:08:05Z</time>
      </trkpt>
      <trkpt lat="42.72997" lon="1.5499">
        <ele>953.76513671875</ele>
        <time>2012-06-10T06:08:10Z</time>
      </trkpt>
      <trkpt lat="42.72993" lon="1.54986">
        <ele>955.20703125</ele>
        <time>2012-06-10T06:08:16Z</time>
      </trkpt>
      <trkpt lat="42.72989" lon="1.54984">
        <ele>953.28442382812</ele>
        <time>2012-06-10T06:08:21Z</time>
      </trkpt>
      <trkpt lat="42.72985" lon="1.54981">
        <ele>953.28442382812</ele>
        <time>2012-06-10T06:08:28Z</time>
      </trkpt>
      <trkpt lat="42.72981" lon="1.54977">
        <ele>953.28442382812</ele>
        <time>2012-06-10T06:08:34Z</time>
      </trkpt>
      <trkpt lat="42.72978" lon="1.54973">
        <ele>955.68774414062</ele>
        <time>2012-06-10T06:08:39Z</time>
      </trkpt>
      <trkpt lat="42.72976" lon="1.54967">
        <ele>955.68774414062</ele>
        <time>2012-06-10T06:08:44Z</time>
      </trkpt>
      <trkpt lat="42.72973" lon="1.54961">
        <ele>958.09130859375</ele>
        <time>2012-06-10T06:08:50Z</time>
      </trkpt>
      <trkpt lat="42.72969" lon="1.54959">
        <ele>961.45581054688</ele>
        <time>2012-06-10T06:08:55Z</time>
      </trkpt>
      <trkpt lat="42.72966" lon="1.54957">
        <ele>960.97509765625</ele>
        <time>2012-06-10T06:09:01Z</time>
      </trkpt>
      <trkpt lat="42.72963" lon="1.54955">
        <ele>961.9365234375</ele>
        <time>2012-06-10T06:09:07Z</time>
      </trkpt>
      <trkpt lat="42.72961" lon="1.54952">
        <ele>960.013671875</ele>
        <time>2012-06-10T06:09:12Z</time>
      </trkpt>
      <trkpt lat="42.7296" lon="1.54949">
        <ele>959.533203125</ele>
        <time>2012-06-10T06:09:19Z</time>
      </trkpt>
      <trkpt lat="42.72959" lon="1.54944">
        <ele>958.57177734375</ele>
        <time>2012-06-10T06:09:26Z</time>
      </trkpt>
      <trkpt lat="42.72953" lon="1.54936">
        <ele>960.49438476562</ele>
        <time>2012-06-10T06:09:34Z</time>
      </trkpt>
      <trkpt lat="42.72946" lon="1.54931">
        <ele>960.013671875</ele>
        <time>2012-06-10T06:09:44Z</time>
      </trkpt>
      <trkpt lat="42.72943" lon="1.54927">
        <ele>963.37841796875</ele>
        <time>2012-06-10T06:09:49Z</time>
      </trkpt>
      <trkpt lat="42.72936" lon="1.54923">
        <ele>963.37841796875</ele>
        <time>2012-06-10T06:09:57Z</time>
      </trkpt>
      <trkpt lat="42.72932" lon="1.54918">
        <ele>964.8203125</ele>
        <time>2012-06-10T06:10:03Z</time>
      </trkpt>
      <trkpt lat="42.7293" lon="1.54911">
        <ele>966.74291992188</ele>
        <time>2012-06-10T06:10:08Z</time>
      </trkpt>
      <trkpt lat="42.72928" lon="1.54908">
        <ele>969.14624023438</ele>
        <time>2012-06-10T06:10:11Z</time>
      </trkpt>
      <trkpt lat="42.72922" lon="1.54903">
        <ele>970.107421875</ele>
        <time>2012-06-10T06:10:19Z</time>
      </trkpt>
      <trkpt lat="42.72917" lon="1.54898">
        <ele>968.66552734375</ele>
        <time>2012-06-10T06:10:26Z</time>
      </trkpt>
      <trkpt lat="42.72913" lon="1.54896">
        <ele>968.18481445312</ele>
        <time>2012-06-10T06:10:31Z</time>
      </trkpt>
      <trkpt lat="42.72908" lon="1.54899">
        <ele>970.58813476562</ele>
        <time>2012-06-10T06:10:37Z</time>
      </trkpt>
      <trkpt lat="42.72902" lon="1.54897">
        <ele>970.58813476562</ele>
        <time>2012-06-10T06:10:44Z</time>
      </trkpt>
      <trkpt lat="42.72896" lon="1.54899">
        <ele>972.99169921875</ele>
        <time>2012-06-10T06:10:50Z</time>
      </trkpt>
      <trkpt lat="42.7289" lon="1.549">
        <ele>978.75952148438</ele>
        <time>2012-06-10T06:10:57Z</time>
      </trkpt>
      <trkpt lat="42.72883" lon="1.54903">
        <ele>980.20141601562</ele>
        <time>2012-06-10T06:11:05Z</time>
      </trkpt>
      <trkpt lat="42.72879" lon="1.54908">
        <ele>977.31762695312</ele>
        <time>2012-06-10T06:11:12Z</time>
      </trkpt>
      <trkpt lat="42.72876" lon="1.54909">
        <ele>975.39477539062</ele>
        <time>2012-06-10T06:11:16Z</time>
      </trkpt>
      <trkpt lat="42.72872" lon="1.54908">
        <ele>976.35620117188</ele>
        <time>2012-06-10T06:11:22Z</time>
      </trkpt>
      <trkpt lat="42.72867" lon="1.54911">
        <ele>977.31762695312</ele>
        <time>2012-06-10T06:11:28Z</time>
      </trkpt>
      <trkpt lat="42.72861" lon="1.54912">
        <ele>978.75952148438</ele>
        <time>2012-06-10T06:11:35Z</time>
      </trkpt>
      <trkpt lat="42.72854" lon="1.54914">
        <ele>982.1240234375</ele>
        <time>2012-06-10T06:11:44Z</time>
      </trkpt>
      <trkpt lat="42.7285" lon="1.54914">
        <ele>983.56591796875</ele>
        <time>2012-06-10T06:11:50Z</time>
      </trkpt>
      <trkpt lat="42.72847" lon="1.54918">
        <ele>984.52734375</ele>
        <time>2012-06-10T06:11:56Z</time>
      </trkpt>
      <trkpt lat="42.72843" lon="1.54922">
        <ele>985.00805664062</ele>
        <time>2012-06-10T06:12:03Z</time>
      </trkpt>
      <trkpt lat="42.72839" lon="1.54925">
        <ele>986.44995117188</ele>
        <time>2012-06-10T06:12:09Z</time>
      </trkpt>
      <trkpt lat="42.72836" lon="1.54927">
        <ele>987.89184570312</ele>
        <time>2012-06-10T06:12:15Z</time>
      </trkpt>
      <trkpt lat="42.72831" lon="1.5493">
        <ele>987.89184570312</ele>
        <time>2012-06-10T06:12:22Z</time>
      </trkpt>
      <trkpt lat="42.72826" lon="1.54933">
        <ele>989.333984375</ele>
        <time>2012-06-10T06:12:28Z</time>
      </trkpt>
      <trkpt lat="42.72823" lon="1.54934">
        <ele>988.853515625</ele>
        <time>2012-06-10T06:12:30Z</time>
      </trkpt>
      <trkpt lat="42.72815" lon="1.54937">
        <ele>990.29541015625</ele>
        <time>2012-06-10T06:12:39Z</time>
      </trkpt>
      <trkpt lat="42.72809" lon="1.54943">
        <ele>994.62109375</ele>
        <time>2012-06-10T06:12:46Z</time>
      </trkpt>
      <trkpt lat="42.72807" lon="1.54943">
        <ele>995.58251953125</ele>
        <time>2012-06-10T06:12:48Z</time>
      </trkpt>
      <trkpt lat="42.72802" lon="1.54942">
        <ele>996.5439453125</ele>
        <time>2012-06-10T06:12:52Z</time>
      </trkpt>
      <trkpt lat="42.728" lon="1.54943">
        <ele>994.140625</ele>
        <time>2012-06-10T06:12:54Z</time>
      </trkpt>
      <trkpt lat="42.72794" lon="1.54941">
        <ele>997.50512695312</ele>
        <time>2012-06-10T06:13:02Z</time>
      </trkpt>
      <trkpt lat="42.72789" lon="1.54939">
        <ele>998.94702148438</ele>
        <time>2012-06-10T06:13:08Z</time>
      </trkpt>
      <trkpt lat="42.72785" lon="1.54939">
        <ele>1001.3503417969</ele>
        <time>2012-06-10T06:13:12Z</time>
      </trkpt>
      <trkpt lat="42.72779" lon="1.5494">
        <ele>999.427734375</ele>
        <time>2012-06-10T06:13:17Z</time>
      </trkpt>
      <trkpt lat="42.72772" lon="1.54942">
        <ele>999.90844726562</ele>
        <time>2012-06-10T06:13:23Z</time>
      </trkpt>
      <trkpt lat="42.72766" lon="1.54942">
        <ele>998.94702148438</ele>
        <time>2012-06-10T06:13:30Z</time>
      </trkpt>
      <trkpt lat="42.7276" lon="1.54937">
        <ele>995.58251953125</ele>
        <time>2012-06-10T06:13:37Z</time>
      </trkpt>
      <trkpt lat="42.72754" lon="1.54934">
        <ele>996.06323242188</ele>
        <time>2012-06-10T06:13:43Z</time>
      </trkpt>
      <trkpt lat="42.72747" lon="1.54937">
        <ele>995.58251953125</ele>
        <time>2012-06-10T06:13:51Z</time>
      </trkpt>
      <trkpt lat="42.72742" lon="1.54938">
        <ele>997.0244140625</ele>
        <time>2012-06-10T06:13:56Z</time>
      </trkpt>
      <trkpt lat="42.72734" lon="1.54936">
        <ele>993.65991210938</ele>
        <time>2012-06-10T06:14:04Z</time>
      </trkpt>
      <trkpt lat="42.72734" lon="1.54937">
        <ele>993.17919921875</ele>
        <time>2012-06-10T06:14:05Z</time>
      </trkpt>
      <trkpt lat="42.72728" lon="1.54937">
        <ele>996.06323242188</ele>
        <time>2012-06-10T06:14:11Z</time>
      </trkpt>
      <trkpt lat="42.72725" lon="1.54937">
        <ele>996.5439453125</ele>
        <time>2012-06-10T06:14:15Z</time>
      </trkpt>
      <trkpt lat="42.72718" lon="1.54937">
        <ele>995.10180664062</ele>
        <time>2012-06-10T06:14:22Z</time>
      </trkpt>
      <trkpt lat="42.72715" lon="1.54937">
        <ele>997.50512695312</ele>
        <time>2012-06-10T06:14:27Z</time>
      </trkpt>
      <trkpt lat="42.72704" lon="1.54939">
        <ele>1007.1184082031</ele>
        <time>2012-06-10T06:14:39Z</time>
      </trkpt>
      <trkpt lat="42.727" lon="1.54939">
        <ele>1006.1569824219</ele>
        <time>2012-06-10T06:14:46Z</time>
      </trkpt>
      <trkpt lat="42.72697" lon="1.54939">
        <ele>1004.7150878906</ele>
        <time>2012-06-10T06:14:51Z</time>
      </trkpt>
      <trkpt lat="42.72691" lon="1.5494">
        <ele>1005.6765136719</ele>
        <time>2012-06-10T06:14:58Z</time>
      </trkpt>
      <trkpt lat="42.72686" lon="1.54941">
        <ele>1006.1569824219</ele>
        <time>2012-06-10T06:15:03Z</time>
      </trkpt>
      <trkpt lat="42.72681" lon="1.54943">
        <ele>1008.5603027344</ele>
        <time>2012-06-10T06:15:10Z</time>
      </trkpt>
      <trkpt lat="42.72676" lon="1.54945">
        <ele>1009.5217285156</ele>
        <time>2012-06-10T06:15:15Z</time>
      </trkpt>
      <trkpt lat="42.72673" lon="1.54945">
        <ele>1007.1184082031</ele>
        <time>2012-06-10T06:15:19Z</time>
      </trkpt>
      <trkpt lat="42.72668" lon="1.54946">
        <ele>1005.6765136719</ele>
        <time>2012-06-10T06:15:25Z</time>
      </trkpt>
      <trkpt lat="42.72663" lon="1.54948">
        <ele>1006.1569824219</ele>
        <time>2012-06-10T06:15:32Z</time>
      </trkpt>
      <trkpt lat="42.72659" lon="1.54948">
        <ele>1004.7150878906</ele>
        <time>2012-06-10T06:15:38Z</time>
      </trkpt>
      <trkpt lat="42.72656" lon="1.54947">
        <ele>1006.1569824219</ele>
        <time>2012-06-10T06:15:42Z</time>
      </trkpt>
      <trkpt lat="42.72651" lon="1.54948">
        <ele>1007.5991210938</ele>
        <time>2012-06-10T06:15:48Z</time>
      </trkpt>
      <trkpt lat="42.72647" lon="1.54947">
        <ele>1011.9250488281</ele>
        <time>2012-06-10T06:15:54Z</time>
      </trkpt>
      <trkpt lat="42.72642" lon="1.54947">
        <ele>1012.8862304688</ele>
        <time>2012-06-10T06:16:00Z</time>
      </trkpt>
      <trkpt lat="42.72638" lon="1.54947">
        <ele>1014.328125</ele>
        <time>2012-06-10T06:16:05Z</time>
      </trkpt>
      <trkpt lat="42.72632" lon="1.54948">
        <ele>1016.2507324219</ele>
        <time>2012-06-10T06:16:11Z</time>
      </trkpt>
      <trkpt lat="42.72627" lon="1.54948">
        <ele>1020.0961914062</ele>
        <time>2012-06-10T06:16:17Z</time>
      </trkpt>
      <trkpt lat="42.72623" lon="1.54946">
        <ele>1020.0961914062</ele>
        <time>2012-06-10T06:16:22Z</time>
      </trkpt>
      <trkpt lat="42.72618" lon="1.54946">
        <ele>1018.6540527344</ele>
        <time>2012-06-10T06:16:27Z</time>
      </trkpt>
      <trkpt lat="42.72614" lon="1.54946">
        <ele>1017.6926269531</ele>
        <time>2012-06-10T06:16:31Z</time>
      </trkpt>
      <trkpt lat="42.72611" lon="1.54947">
        <ele>1016.7314453125</ele>
        <time>2012-06-10T06:16:34Z</time>
      </trkpt>
      <trkpt lat="42.72605" lon="1.54949">
        <ele>1017.2121582031</ele>
        <time>2012-06-10T06:16:41Z</time>
      </trkpt>
      <trkpt lat="42.72602" lon="1.5495">
        <ele>1016.2507324219</ele>
        <time>2012-06-10T06:16:45Z</time>
      </trkpt>
      <trkpt lat="42.72599" lon="1.5495">
        <ele>1017.2121582031</ele>
        <time>2012-06-10T06:16:49Z</time>
      </trkpt>
      <trkpt lat="42.72595" lon="1.54952">
        <ele>1018.6540527344</ele>
        <time>2012-06-10T06:16:54Z</time>
      </trkpt>
      <trkpt lat="42.72591" lon="1.54953">
        <ele>1015.7702636719</ele>
        <time>2012-06-10T06:16:58Z</time>
      </trkpt>
      <trkpt lat="42.72588" lon="1.54956">
        <ele>1017.6926269531</ele>
        <time>2012-06-10T06:17:02Z</time>
      </trkpt>
      <trkpt lat="42.72582" lon="1.54955">
        <ele>1024.9028320312</ele>
        <time>2012-06-10T06:17:09Z</time>
      </trkpt>
      <trkpt lat="42.72575" lon="1.54953">
        <ele>1025.8640136719</ele>
        <time>2012-06-10T06:17:15Z</time>
      </trkpt>
      <trkpt lat="42.72568" lon="1.54955">
        <ele>1024.4221191406</ele>
        <time>2012-06-10T06:17:23Z</time>
      </trkpt>
      <trkpt lat="42.72565" lon="1.54954">
        <ele>1028.2673339844</ele>
        <time>2012-06-10T06:17:28Z</time>
      </trkpt>
      <trkpt lat="42.72559" lon="1.54954">
        <ele>1027.7866210938</ele>
        <time>2012-06-10T06:17:34Z</time>
      </trkpt>
      <trkpt lat="42.72554" lon="1.54954">
        <ele>1024.9028320312</ele>
        <time>2012-06-10T06:17:39Z</time>
      </trkpt>
      <trkpt lat="42.7255" lon="1.54956">
        <ele>1019.6154785156</ele>
        <time>2012-06-10T06:17:43Z</time>
      </trkpt>
      <trkpt lat="42.72545" lon="1.54957">
        <ele>1022.4995117188</ele>
        <time>2012-06-10T06:17:49Z</time>
      </trkpt>
      <trkpt lat="42.7254" lon="1.54959">
        <ele>1030.1899414062</ele>
        <time>2012-06-10T06:17:54Z</time>
      </trkpt>
      <trkpt lat="42.72535" lon="1.54959">
        <ele>1035.4770507812</ele>
        <time>2012-06-10T06:18:01Z</time>
      </trkpt>
      <trkpt lat="42.72527" lon="1.54956">
        <ele>1034.9965820312</ele>
        <time>2012-06-10T06:18:10Z</time>
      </trkpt>
      <trkpt lat="42.72525" lon="1.54955">
        <ele>1034.03515625</ele>
        <time>2012-06-10T06:18:14Z</time>
      </trkpt>
      <trkpt lat="42.7252" lon="1.54956">
        <ele>1036.9191894531</ele>
        <time>2012-06-10T06:18:20Z</time>
      </trkpt>
      <trkpt lat="42.72517" lon="1.54956">
        <ele>1035.4770507812</ele>
        <time>2012-06-10T06:18:26Z</time>
      </trkpt>
      <trkpt lat="42.72517" lon="1.54955">
        <ele>1035.4770507812</ele>
        <time>2012-06-10T06:18:27Z</time>
      </trkpt>
      <trkpt lat="42.72513" lon="1.54951">
        <ele>1035.9577636719</ele>
        <time>2012-06-10T06:18:32Z</time>
      </trkpt>
      <trkpt lat="42.7251" lon="1.54949">
        <ele>1037.3999023438</ele>
        <time>2012-06-10T06:18:36Z</time>
      </trkpt>
      <trkpt lat="42.72506" lon="1.54947">
        <ele>1039.3225097656</ele>
        <time>2012-06-10T06:18:41Z</time>
      </trkpt>
      <trkpt lat="42.72502" lon="1.54946">
        <ele>1041.7258300781</ele>
        <time>2012-06-10T06:18:45Z</time>
      </trkpt>
      <trkpt lat="42.72498" lon="1.54946">
        <ele>1044.6096191406</ele>
        <time>2012-06-10T06:18:50Z</time>
      </trkpt>
      <trkpt lat="42.72494" lon="1.54945">
        <ele>1039.8032226562</ele>
        <time>2012-06-10T06:18:55Z</time>
      </trkpt>
      <trkpt lat="42.72489" lon="1.54945">
        <ele>1040.2839355469</ele>
        <time>2012-06-10T06:19:00Z</time>
      </trkpt>
      <trkpt lat="42.72483" lon="1.54947">
        <ele>1041.2451171875</ele>
        <time>2012-06-10T06:19:07Z</time>
      </trkpt>
      <trkpt lat="42.72478" lon="1.54946">
        <ele>1047.4936523438</ele>
        <time>2012-06-10T06:19:13Z</time>
      </trkpt>
      <trkpt lat="42.72473" lon="1.54946">
        <ele>1047.9743652344</ele>
        <time>2012-06-10T06:19:19Z</time>
      </trkpt>
      <trkpt lat="42.72469" lon="1.54946">
        <ele>1047.0129394531</ele>
        <time>2012-06-10T06:19:24Z</time>
      </trkpt>
      <trkpt lat="42.72466" lon="1.54947">
        <ele>1048.935546875</ele>
        <time>2012-06-10T06:19:29Z</time>
      </trkpt>
      <trkpt lat="42.72463" lon="1.54949">
        <ele>1047.4936523438</ele>
        <time>2012-06-10T06:19:34Z</time>
      </trkpt>
      <trkpt lat="42.7246" lon="1.54949">
        <ele>1045.5710449219</ele>
        <time>2012-06-10T06:19:38Z</time>
      </trkpt>
      <trkpt lat="42.72457" lon="1.5495">
        <ele>1046.0517578125</ele>
        <time>2012-06-10T06:19:43Z</time>
      </trkpt>
      <trkpt lat="42.72454" lon="1.54953">
        <ele>1046.5324707031</ele>
        <time>2012-06-10T06:19:48Z</time>
      </trkpt>
      <trkpt lat="42.72451" lon="1.54955">
        <ele>1045.0903320312</ele>
        <time>2012-06-10T06:19:53Z</time>
      </trkpt>
      <trkpt lat="42.72448" lon="1.54957">
        <ele>1046.0517578125</ele>
        <time>2012-06-10T06:19:58Z</time>
      </trkpt>
      <trkpt lat="42.72444" lon="1.54959">
        <ele>1047.4936523438</ele>
        <time>2012-06-10T06:20:04Z</time>
      </trkpt>
      <trkpt lat="42.7244" lon="1.54962">
        <ele>1050.3776855469</ele>
        <time>2012-06-10T06:20:11Z</time>
      </trkpt>
      <trkpt lat="42.72436" lon="1.54965">
        <ele>1052.3002929688</ele>
        <time>2012-06-10T06:20:18Z</time>
      </trkpt>
      <trkpt lat="42.72433" lon="1.54969">
        <ele>1054.2231445312</ele>
        <time>2012-06-10T06:20:23Z</time>
      </trkpt>
      <trkpt lat="42.72429" lon="1.54971">
        <ele>1054.7036132812</ele>
        <time>2012-06-10T06:20:29Z</time>
      </trkpt>
      <trkpt lat="42.72425" lon="1.54974">
        <ele>1055.6650390625</ele>
        <time>2012-06-10T06:20:34Z</time>
      </trkpt>
      <trkpt lat="42.72422" lon="1.54977">
        <ele>1054.2231445312</ele>
        <time>2012-06-10T06:20:39Z</time>
      </trkpt>
      <trkpt lat="42.72418" lon="1.5498">
        <ele>1055.1843261719</ele>
        <time>2012-06-10T06:20:45Z</time>
      </trkpt>
      <trkpt lat="42.72414" lon="1.54982">
        <ele>1055.1843261719</ele>
        <time>2012-06-10T06:20:49Z</time>
      </trkpt>
      <trkpt lat="42.72411" lon="1.54985">
        <ele>1055.6650390625</ele>
        <time>2012-06-10T06:20:54Z</time>
      </trkpt>
      <trkpt lat="42.72408" lon="1.5499">
        <ele>1056.1455078125</ele>
        <time>2012-06-10T06:21:00Z</time>
      </trkpt>
      <trkpt lat="42.72406" lon="1.54994">
        <ele>1056.1455078125</ele>
        <time>2012-06-10T06:21:06Z</time>
      </trkpt>
      <trkpt lat="42.72404" lon="1.54998">
        <ele>1055.6650390625</ele>
        <time>2012-06-10T06:21:10Z</time>
      </trkpt>
      <trkpt lat="42.72401" lon="1.55002">
        <ele>1053.26171875</ele>
        <time>2012-06-10T06:21:17Z</time>
      </trkpt>
      <trkpt lat="42.72398" lon="1.55007">
        <ele>1057.5876464844</ele>
        <time>2012-06-10T06:21:22Z</time>
      </trkpt>
      <trkpt lat="42.72395" lon="1.55012">
        <ele>1060.9521484375</ele>
        <time>2012-06-10T06:21:27Z</time>
      </trkpt>
      <trkpt lat="42.72394" lon="1.55018">
        <ele>1063.35546875</ele>
        <time>2012-06-10T06:21:32Z</time>
      </trkpt>
      <trkpt lat="42.72393" lon="1.55024">
        <ele>1062.8747558594</ele>
        <time>2012-06-10T06:21:38Z</time>
      </trkpt>
      <trkpt lat="42.72393" lon="1.5503">
        <ele>1064.3166503906</ele>
        <time>2012-06-10T06:21:43Z</time>
      </trkpt>
      <trkpt lat="42.72392" lon="1.55037">
        <ele>1065.2780761719</ele>
        <time>2012-06-10T06:21:49Z</time>
      </trkpt>
      <trkpt lat="42.72391" lon="1.55046">
        <ele>1066.2392578125</ele>
        <time>2012-06-10T06:21:57Z</time>
      </trkpt>
      <trkpt lat="42.72388" lon="1.55053">
        <ele>1068.6428222656</ele>
        <time>2012-06-10T06:22:04Z</time>
      </trkpt>
      <trkpt lat="42.72386" lon="1.55058">
        <ele>1072.96875</ele>
        <time>2012-06-10T06:22:10Z</time>
      </trkpt>
      <trkpt lat="42.72383" lon="1.55061">
        <ele>1071.5266113281</ele>
        <time>2012-06-10T06:22:15Z</time>
      </trkpt>
      <trkpt lat="42.7238" lon="1.55061">
        <ele>1073.9299316406</ele>
        <time>2012-06-10T06:22:19Z</time>
      </trkpt>
      <trkpt lat="42.72378" lon="1.55065">
        <ele>1074.4106445312</ele>
        <time>2012-06-10T06:22:24Z</time>
      </trkpt>
      <trkpt lat="42.72375" lon="1.55069">
        <ele>1073.9299316406</ele>
        <time>2012-06-10T06:22:30Z</time>
      </trkpt>
      <trkpt lat="42.72372" lon="1.55072">
        <ele>1075.3718261719</ele>
        <time>2012-06-10T06:22:35Z</time>
      </trkpt>
      <trkpt lat="42.72368" lon="1.55077">
        <ele>1075.8525390625</ele>
        <time>2012-06-10T06:22:42Z</time>
      </trkpt>
      <trkpt lat="42.72366" lon="1.55082">
        <ele>1075.8525390625</ele>
        <time>2012-06-10T06:22:47Z</time>
      </trkpt>
      <trkpt lat="42.72366" lon="1.55085">
        <ele>1076.3332519531</ele>
        <time>2012-06-10T06:22:52Z</time>
      </trkpt>
      <trkpt lat="42.72372" lon="1.55081">
        <ele>1077.2946777344</ele>
        <time>2012-06-10T06:22:59Z</time>
      </trkpt>
      <trkpt lat="42.72375" lon="1.55077">
        <ele>1078.255859375</ele>
        <time>2012-06-10T06:23:04Z</time>
      </trkpt>
      <trkpt lat="42.7238" lon="1.55073">
        <ele>1078.7365722656</ele>
        <time>2012-06-10T06:23:11Z</time>
      </trkpt>
      <trkpt lat="42.72383" lon="1.5507">
        <ele>1079.6977539062</ele>
        <time>2012-06-10T06:23:15Z</time>
      </trkpt>
      <trkpt lat="42.72387" lon="1.55069">
        <ele>1081.1398925781</ele>
        <time>2012-06-10T06:23:20Z</time>
      </trkpt>
      <trkpt lat="42.72387" lon="1.55075">
        <ele>1080.6591796875</ele>
        <time>2012-06-10T06:23:25Z</time>
      </trkpt>
      <trkpt lat="42.72385" lon="1.55078">
        <ele>1082.1010742188</ele>
        <time>2012-06-10T06:23:29Z</time>
      </trkpt>
      <trkpt lat="42.72382" lon="1.55084">
        <ele>1080.6591796875</ele>
        <time>2012-06-10T06:23:35Z</time>
      </trkpt>
      <trkpt lat="42.72381" lon="1.55088">
        <ele>1080.6591796875</ele>
        <time>2012-06-10T06:23:39Z</time>
      </trkpt>
      <trkpt lat="42.72379" lon="1.55091">
        <ele>1082.5817871094</ele>
        <time>2012-06-10T06:23:44Z</time>
      </trkpt>
      <trkpt lat="42.72376" lon="1.55098">
        <ele>1084.9853515625</ele>
        <time>2012-06-10T06:23:51Z</time>
      </trkpt>
      <trkpt lat="42.72372" lon="1.55105">
        <ele>1085.4658203125</ele>
        <time>2012-06-10T06:23:59Z</time>
      </trkpt>
      <trkpt lat="42.72369" lon="1.5511">
        <ele>1087.3884277344</ele>
        <time>2012-06-10T06:24:06Z</time>
      </trkpt>
      <trkpt lat="42.72367" lon="1.55113">
        <ele>1086.9077148438</ele>
        <time>2012-06-10T06:24:11Z</time>
      </trkpt>
      <trkpt lat="42.72366" lon="1.5512">
        <ele>1087.3884277344</ele>
        <time>2012-06-10T06:24:17Z</time>
      </trkpt>
      <trkpt lat="42.72362" lon="1.55127">
        <ele>1086.9077148438</ele>
        <time>2012-06-10T06:24:25Z</time>
      </trkpt>
      <trkpt lat="42.72361" lon="1.5513">
        <ele>1088.3498535156</ele>
        <time>2012-06-10T06:24:29Z</time>
      </trkpt>
      <trkpt lat="42.72359" lon="1.55133">
        <ele>1089.7917480469</ele>
        <time>2012-06-10T06:24:33Z</time>
      </trkpt>
      <trkpt lat="42.72358" lon="1.55138">
        <ele>1089.3110351562</ele>
        <time>2012-06-10T06:24:37Z</time>
      </trkpt>
      <trkpt lat="42.72357" lon="1.5514">
        <ele>1088.8305664062</ele>
        <time>2012-06-10T06:24:40Z</time>
      </trkpt>
      <trkpt lat="42.72355" lon="1.55146">
        <ele>1089.7917480469</ele>
        <time>2012-06-10T06:24:48Z</time>
      </trkpt>
      <trkpt lat="42.72352" lon="1.55153">
        <ele>1092.1950683594</ele>
        <time>2012-06-10T06:24:55Z</time>
      </trkpt>
      <trkpt lat="42.72351" lon="1.5516">
        <ele>1094.5981445312</ele>
        <time>2012-06-10T06:25:02Z</time>
      </trkpt>
      <trkpt lat="42.72347" lon="1.55165">
        <ele>1097.0014648438</ele>
        <time>2012-06-10T06:25:09Z</time>
      </trkpt>
      <trkpt lat="42.72345" lon="1.55168">
        <ele>1098.443359375</ele>
        <time>2012-06-10T06:25:14Z</time>
      </trkpt>
      <trkpt lat="42.72342" lon="1.5517">
        <ele>1100.3664550781</ele>
        <time>2012-06-10T06:25:20Z</time>
      </trkpt>
      <trkpt lat="42.7234" lon="1.55172">
        <ele>1102.76953125</ele>
        <time>2012-06-10T06:25:24Z</time>
      </trkpt>
      <trkpt lat="42.72334" lon="1.55176">
        <ele>1105.6535644531</ele>
        <time>2012-06-10T06:25:31Z</time>
      </trkpt>
      <trkpt lat="42.72331" lon="1.55179">
        <ele>1107.0954589844</ele>
        <time>2012-06-10T06:25:35Z</time>
      </trkpt>
      <trkpt lat="42.72328" lon="1.55184">
        <ele>1110.9406738281</ele>
        <time>2012-06-10T06:25:43Z</time>
      </trkpt>
      <trkpt lat="42.72324" lon="1.55189">
        <ele>1118.6313476562</ele>
        <time>2012-06-10T06:25:51Z</time>
      </trkpt>
      <trkpt lat="42.7232" lon="1.55194">
        <ele>1119.1120605469</ele>
        <time>2012-06-10T06:25:58Z</time>
      </trkpt>
      <trkpt lat="42.72318" lon="1.55197">
        <ele>1118.1506347656</ele>
        <time>2012-06-10T06:26:02Z</time>
      </trkpt>
      <trkpt lat="42.72315" lon="1.55201">
        <ele>1121.9958496094</ele>
        <time>2012-06-10T06:26:09Z</time>
      </trkpt>
      <trkpt lat="42.72311" lon="1.55205">
        <ele>1124.8798828125</ele>
        <time>2012-06-10T06:26:16Z</time>
      </trkpt>
      <trkpt lat="42.72307" lon="1.55207">
        <ele>1126.3217773438</ele>
        <time>2012-06-10T06:26:21Z</time>
      </trkpt>
      <trkpt lat="42.72304" lon="1.55211">
        <ele>1125.8410644531</ele>
        <time>2012-06-10T06:26:26Z</time>
      </trkpt>
      <trkpt lat="42.72301" lon="1.55214">
        <ele>1125.3603515625</ele>
        <time>2012-06-10T06:26:31Z</time>
      </trkpt>
      <trkpt lat="42.72298" lon="1.55216">
        <ele>1125.8410644531</ele>
        <time>2012-06-10T06:26:36Z</time>
      </trkpt>
      <trkpt lat="42.72292" lon="1.55218">
        <ele>1129.2055664062</ele>
        <time>2012-06-10T06:26:43Z</time>
      </trkpt>
      <trkpt lat="42.72289" lon="1.55222">
        <ele>1131.1284179688</ele>
        <time>2012-06-10T06:26:49Z</time>
      </trkpt>
      <trkpt lat="42.72285" lon="1.55225">
        <ele>1130.6477050781</ele>
        <time>2012-06-10T06:26:55Z</time>
      </trkpt>
      <trkpt lat="42.72281" lon="1.55226">
        <ele>1133.5317382812</ele>
        <time>2012-06-10T06:27:00Z</time>
      </trkpt>
      <trkpt lat="42.72278" lon="1.55229">
        <ele>1134.4931640625</ele>
        <time>2012-06-10T06:27:06Z</time>
      </trkpt>
      <trkpt lat="42.72274" lon="1.55232">
        <ele>1134.4931640625</ele>
        <time>2012-06-10T06:27:13Z</time>
      </trkpt>
      <trkpt lat="42.72271" lon="1.55236">
        <ele>1134.4931640625</ele>
        <time>2012-06-10T06:27:20Z</time>
      </trkpt>
      <trkpt lat="42.72267" lon="1.5524">
        <ele>1134.4931640625</ele>
        <time>2012-06-10T06:27:29Z</time>
      </trkpt>
      <trkpt lat="42.72264" lon="1.55241">
        <ele>1135.9350585938</ele>
        <time>2012-06-10T06:27:34Z</time>
      </trkpt>
      <trkpt lat="42.72258" lon="1.55245">
        <ele>1141.2221679688</ele>
        <time>2012-06-10T06:27:42Z</time>
      </trkpt>
      <trkpt lat="42.72256" lon="1.55249">
        <ele>1141.7028808594</ele>
        <time>2012-06-10T06:27:46Z</time>
      </trkpt>
      <trkpt lat="42.72253" lon="1.55252">
        <ele>1141.2221679688</ele>
        <time>2012-06-10T06:27:51Z</time>
      </trkpt>
      <trkpt lat="42.72251" lon="1.55255">
        <ele>1141.2221679688</ele>
        <time>2012-06-10T06:27:55Z</time>
      </trkpt>
      <trkpt lat="42.72248" lon="1.55257">
        <ele>1140.7414550781</ele>
        <time>2012-06-10T06:27:59Z</time>
      </trkpt>
      <trkpt lat="42.72245" lon="1.55258">
        <ele>1144.5866699219</ele>
        <time>2012-06-10T06:28:03Z</time>
      </trkpt>
      <trkpt lat="42.72241" lon="1.55262">
        <ele>1145.0673828125</ele>
        <time>2012-06-10T06:28:08Z</time>
      </trkpt>
      <trkpt lat="42.72237" lon="1.55266">
        <ele>1144.1062011719</ele>
        <time>2012-06-10T06:28:14Z</time>
      </trkpt>
      <trkpt lat="42.72235" lon="1.55268">
        <ele>1142.6643066406</ele>
        <time>2012-06-10T06:28:18Z</time>
      </trkpt>
      <trkpt lat="42.72229" lon="1.55271">
        <ele>1147.9514160156</ele>
        <time>2012-06-10T06:28:25Z</time>
      </trkpt>
      <trkpt lat="42.72225" lon="1.55274">
        <ele>1148.9128417969</ele>
        <time>2012-06-10T06:28:32Z</time>
      </trkpt>
      <trkpt lat="42.72221" lon="1.55277">
        <ele>1148.9128417969</ele>
        <time>2012-06-10T06:28:38Z</time>
      </trkpt>
      <trkpt lat="42.72219" lon="1.55281">
        <ele>1147.9514160156</ele>
        <time>2012-06-10T06:28:43Z</time>
      </trkpt>
      <trkpt lat="42.72217" lon="1.55287">
        <ele>1149.3935546875</ele>
        <time>2012-06-10T06:28:49Z</time>
      </trkpt>
      <trkpt lat="42.72215" lon="1.5529">
        <ele>1146.9899902344</ele>
        <time>2012-06-10T06:28:53Z</time>
      </trkpt>
      <trkpt lat="42.72214" lon="1.55297">
        <ele>1146.5095214844</ele>
        <time>2012-06-10T06:28:59Z</time>
      </trkpt>
      <trkpt lat="42.72211" lon="1.55299">
        <ele>1147.470703125</ele>
        <time>2012-06-10T06:29:04Z</time>
      </trkpt>
      <trkpt lat="42.72209" lon="1.55303">
        <ele>1148.9128417969</ele>
        <time>2012-06-10T06:29:08Z</time>
      </trkpt>
      <trkpt lat="42.72207" lon="1.55307">
        <ele>1150.3549804688</ele>
        <time>2012-06-10T06:29:12Z</time>
      </trkpt>
      <trkpt lat="42.72206" lon="1.5531">
        <ele>1151.3161621094</ele>
        <time>2012-06-10T06:29:16Z</time>
      </trkpt>
      <trkpt lat="42.72203" lon="1.55314">
        <ele>1152.7580566406</ele>
        <time>2012-06-10T06:29:22Z</time>
      </trkpt>
      <trkpt lat="42.722" lon="1.55316">
        <ele>1153.2387695312</ele>
        <time>2012-06-10T06:29:26Z</time>
      </trkpt>
      <trkpt lat="42.72197" lon="1.55318">
        <ele>1153.2387695312</ele>
        <time>2012-06-10T06:29:32Z</time>
      </trkpt>
      <trkpt lat="42.72194" lon="1.55321">
        <ele>1155.1613769531</ele>
        <time>2012-06-10T06:29:39Z</time>
      </trkpt>
      <trkpt lat="42.72191" lon="1.55325">
        <ele>1157.083984375</ele>
        <time>2012-06-10T06:29:45Z</time>
      </trkpt>
      <trkpt lat="42.72188" lon="1.55328">
        <ele>1158.0454101562</ele>
        <time>2012-06-10T06:29:51Z</time>
      </trkpt>
      <trkpt lat="42.72186" lon="1.55331">
        <ele>1159.0065917969</ele>
        <time>2012-06-10T06:30:03Z</time>
      </trkpt>
      <trkpt lat="42.72188" lon="1.55331">
        <ele>1158.5258789062</ele>
        <time>2012-06-10T06:30:14Z</time>
      </trkpt>
      <trkpt lat="42.72189" lon="1.5533">
        <ele>1157.083984375</ele>
        <time>2012-06-10T06:30:24Z</time>
      </trkpt>
      <trkpt lat="42.7219" lon="1.55329">
        <ele>1157.083984375</ele>
        <time>2012-06-10T06:30:50Z</time>
      </trkpt>
      <trkpt lat="42.72189" lon="1.5533">
        <ele>1155.6420898438</ele>
        <time>2012-06-10T06:31:04Z</time>
      </trkpt>
      <trkpt lat="42.72189" lon="1.55332">
        <ele>1154.6806640625</ele>
        <time>2012-06-10T06:31:12Z</time>
      </trkpt>
      <trkpt lat="42.72187" lon="1.55334">
        <ele>1155.6420898438</ele>
        <time>2012-06-10T06:31:19Z</time>
      </trkpt>
      <trkpt lat="42.72189" lon="1.55337">
        <ele>1156.1225585938</ele>
        <time>2012-06-10T06:31:25Z</time>
      </trkpt>
      <trkpt lat="42.72189" lon="1.55341">
        <ele>1159.4873046875</ele>
        <time>2012-06-10T06:31:31Z</time>
      </trkpt>
      <trkpt lat="42.72187" lon="1.55343">
        <ele>1161.4099121094</ele>
        <time>2012-06-10T06:31:38Z</time>
      </trkpt>
      <trkpt lat="42.72184" lon="1.55345">
        <ele>1160.4484863281</ele>
        <time>2012-06-10T06:31:47Z</time>
      </trkpt>
      <trkpt lat="42.7218" lon="1.55345">
        <ele>1160.4484863281</ele>
        <time>2012-06-10T06:31:52Z</time>
      </trkpt>
      <trkpt lat="42.72177" lon="1.55348">
        <ele>1159.4873046875</ele>
        <time>2012-06-10T06:31:57Z</time>
      </trkpt>
      <trkpt lat="42.72173" lon="1.55351">
        <ele>1161.890625</ele>
        <time>2012-06-10T06:32:03Z</time>
      </trkpt>
      <trkpt lat="42.72172" lon="1.55355">
        <ele>1163.8129882812</ele>
        <time>2012-06-10T06:32:10Z</time>
      </trkpt>
      <trkpt lat="42.72172" lon="1.55358">
        <ele>1165.2553710938</ele>
        <time>2012-06-10T06:32:17Z</time>
      </trkpt>
      <trkpt lat="42.72174" lon="1.55361">
        <ele>1167.6584472656</ele>
        <time>2012-06-10T06:32:24Z</time>
      </trkpt>
      <trkpt lat="42.72171" lon="1.55365">
        <ele>1167.1779785156</ele>
        <time>2012-06-10T06:32:30Z</time>
      </trkpt>
      <trkpt lat="42.72168" lon="1.55369">
        <ele>1167.1779785156</ele>
        <time>2012-06-10T06:32:37Z</time>
      </trkpt>
      <trkpt lat="42.72166" lon="1.55372">
        <ele>1166.2165527344</ele>
        <time>2012-06-10T06:32:44Z</time>
      </trkpt>
      <trkpt lat="42.72162" lon="1.55372">
        <ele>1168.6198730469</ele>
        <time>2012-06-10T06:32:50Z</time>
      </trkpt>
      <trkpt lat="42.72159" lon="1.55373">
        <ele>1171.0231933594</ele>
        <time>2012-06-10T06:32:56Z</time>
      </trkpt>
      <trkpt lat="42.72157" lon="1.55376">
        <ele>1171.984375</ele>
        <time>2012-06-10T06:33:01Z</time>
      </trkpt>
      <trkpt lat="42.72155" lon="1.55379">
        <ele>1172.9458007812</ele>
        <time>2012-06-10T06:33:05Z</time>
      </trkpt>
      <trkpt lat="42.72155" lon="1.55381">
        <ele>1173.9069824219</ele>
        <time>2012-06-10T06:33:11Z</time>
      </trkpt>
      <trkpt lat="42.72154" lon="1.55386">
        <ele>1175.3488769531</ele>
        <time>2012-06-10T06:33:16Z</time>
      </trkpt>
      <trkpt lat="42.72151" lon="1.55392">
        <ele>1176.791015625</ele>
        <time>2012-06-10T06:33:22Z</time>
      </trkpt>
      <trkpt lat="42.72147" lon="1.55396">
        <ele>1177.2717285156</ele>
        <time>2012-06-10T06:33:29Z</time>
      </trkpt>
      <trkpt lat="42.72145" lon="1.55399">
        <ele>1178.2329101562</ele>
        <time>2012-06-10T06:33:32Z</time>
      </trkpt>
      <trkpt lat="42.72144" lon="1.55402">
        <ele>1179.1940917969</ele>
        <time>2012-06-10T06:33:37Z</time>
      </trkpt>
      <trkpt lat="42.7214" lon="1.55403">
        <ele>1178.7136230469</ele>
        <time>2012-06-10T06:33:42Z</time>
      </trkpt>
      <trkpt lat="42.72136" lon="1.55405">
        <ele>1177.7521972656</ele>
        <time>2012-06-10T06:33:47Z</time>
      </trkpt>
      <trkpt lat="42.72131" lon="1.55408">
        <ele>1179.1940917969</ele>
        <time>2012-06-10T06:33:53Z</time>
      </trkpt>
      <trkpt lat="42.72127" lon="1.5541">
        <ele>1179.1940917969</ele>
        <time>2012-06-10T06:34:00Z</time>
      </trkpt>
      <trkpt lat="42.72122" lon="1.55412">
        <ele>1179.6748046875</ele>
        <time>2012-06-10T06:34:07Z</time>
      </trkpt>
      <trkpt lat="42.72117" lon="1.55415">
        <ele>1181.59765625</ele>
        <time>2012-06-10T06:34:14Z</time>
      </trkpt>
      <trkpt lat="42.72113" lon="1.55416">
        <ele>1183.5202636719</ele>
        <time>2012-06-10T06:34:20Z</time>
      </trkpt>
      <trkpt lat="42.72107" lon="1.55418">
        <ele>1184.0009765625</ele>
        <time>2012-06-10T06:34:27Z</time>
      </trkpt>
      <trkpt lat="42.72102" lon="1.5542">
        <ele>1186.404296875</ele>
        <time>2012-06-10T06:34:35Z</time>
      </trkpt>
      <trkpt lat="42.72098" lon="1.55422">
        <ele>1189.7687988281</ele>
        <time>2012-06-10T06:34:41Z</time>
      </trkpt>
      <trkpt lat="42.72094" lon="1.55424">
        <ele>1191.69140625</ele>
        <time>2012-06-10T06:34:47Z</time>
      </trkpt>
      <trkpt lat="42.72088" lon="1.55426">
        <ele>1191.69140625</ele>
        <time>2012-06-10T06:34:54Z</time>
      </trkpt>
      <trkpt lat="42.72084" lon="1.55426">
        <ele>1193.1333007812</ele>
        <time>2012-06-10T06:34:59Z</time>
      </trkpt>
      <trkpt lat="42.72081" lon="1.55427">
        <ele>1195.0559082031</ele>
        <time>2012-06-10T06:35:04Z</time>
      </trkpt>
      <trkpt lat="42.72079" lon="1.55428">
        <ele>1194.5751953125</ele>
        <time>2012-06-10T06:35:08Z</time>
      </trkpt>
      <trkpt lat="42.72076" lon="1.55429">
        <ele>1196.4982910156</ele>
        <time>2012-06-10T06:35:12Z</time>
      </trkpt>
      <trkpt lat="42.72073" lon="1.55429">
        <ele>1196.017578125</ele>
        <time>2012-06-10T06:35:17Z</time>
      </trkpt>
      <trkpt lat="42.72066" lon="1.55431">
        <ele>1199.3820800781</ele>
        <time>2012-06-10T06:35:25Z</time>
      </trkpt>
      <trkpt lat="42.72062" lon="1.55433">
        <ele>1201.7854003906</ele>
        <time>2012-06-10T06:35:31Z</time>
      </trkpt>
      <trkpt lat="42.72056" lon="1.55435">
        <ele>1202.2658691406</ele>
        <time>2012-06-10T06:35:39Z</time>
      </trkpt>
      <trkpt lat="42.72051" lon="1.55438">
        <ele>1203.7080078125</ele>
        <time>2012-06-10T06:35:47Z</time>
      </trkpt>
      <trkpt lat="42.72047" lon="1.55438">
        <ele>1204.6691894531</ele>
        <time>2012-06-10T06:35:53Z</time>
      </trkpt>
      <trkpt lat="42.72043" lon="1.55443">
        <ele>1205.6306152344</ele>
        <time>2012-06-10T06:35:59Z</time>
      </trkpt>
      <trkpt lat="42.72039" lon="1.55449">
        <ele>1205.6306152344</ele>
        <time>2012-06-10T06:36:06Z</time>
      </trkpt>
      <trkpt lat="42.72035" lon="1.55452">
        <ele>1205.1499023438</ele>
        <time>2012-06-10T06:36:12Z</time>
      </trkpt>
      <trkpt lat="42.72031" lon="1.55453">
        <ele>1205.1499023438</ele>
        <time>2012-06-10T06:36:18Z</time>
      </trkpt>
      <trkpt lat="42.72028" lon="1.55455">
        <ele>1206.591796875</ele>
        <time>2012-06-10T06:36:23Z</time>
      </trkpt>
      <trkpt lat="42.72022" lon="1.55456">
        <ele>1208.5144042969</ele>
        <time>2012-06-10T06:36:30Z</time>
      </trkpt>
      <trkpt lat="42.72018" lon="1.55456">
        <ele>1209.4758300781</ele>
        <time>2012-06-10T06:36:36Z</time>
      </trkpt>
      <trkpt lat="42.72013" lon="1.55456">
        <ele>1211.3984375</ele>
        <time>2012-06-10T06:36:42Z</time>
      </trkpt>
      <trkpt lat="42.72006" lon="1.55457">
        <ele>1213.3212890625</ele>
        <time>2012-06-10T06:36:51Z</time>
      </trkpt>
      <trkpt lat="42.72001" lon="1.55459">
        <ele>1215.724609375</ele>
        <time>2012-06-10T06:36:58Z</time>
      </trkpt>
      <trkpt lat="42.71996" lon="1.55461">
        <ele>1216.205078125</ele>
        <time>2012-06-10T06:37:05Z</time>
      </trkpt>
      <trkpt lat="42.71991" lon="1.55464">
        <ele>1217.6469726562</ele>
        <time>2012-06-10T06:37:12Z</time>
      </trkpt>
      <trkpt lat="42.71987" lon="1.55467">
        <ele>1218.1276855469</ele>
        <time>2012-06-10T06:37:17Z</time>
      </trkpt>
      <trkpt lat="42.71983" lon="1.5547">
        <ele>1218.6083984375</ele>
        <time>2012-06-10T06:37:23Z</time>
      </trkpt>
      <trkpt lat="42.7198" lon="1.55474">
        <ele>1218.6083984375</ele>
        <time>2012-06-10T06:37:29Z</time>
      </trkpt>
      <trkpt lat="42.71974" lon="1.55476">
        <ele>1218.6083984375</ele>
        <time>2012-06-10T06:37:36Z</time>
      </trkpt>
      <trkpt lat="42.71969" lon="1.55477">
        <ele>1220.0502929688</ele>
        <time>2012-06-10T06:37:42Z</time>
      </trkpt>
      <trkpt lat="42.71963" lon="1.55477">
        <ele>1220.5310058594</ele>
        <time>2012-06-10T06:37:50Z</time>
      </trkpt>
      <trkpt lat="42.71958" lon="1.55476">
        <ele>1222.4536132812</ele>
        <time>2012-06-10T06:37:56Z</time>
      </trkpt>
      <trkpt lat="42.71951" lon="1.55475">
        <ele>1222.9343261719</ele>
        <time>2012-06-10T06:38:04Z</time>
      </trkpt>
      <trkpt lat="42.71947" lon="1.55476">
        <ele>1223.4150390625</ele>
        <time>2012-06-10T06:38:10Z</time>
      </trkpt>
      <trkpt lat="42.71943" lon="1.55474">
        <ele>1225.8181152344</ele>
        <time>2012-06-10T06:38:15Z</time>
      </trkpt>
      <trkpt lat="42.71938" lon="1.55474">
        <ele>1226.7795410156</ele>
        <time>2012-06-10T06:38:20Z</time>
      </trkpt>
      <trkpt lat="42.71932" lon="1.55473">
        <ele>1228.7023925781</ele>
        <time>2012-06-10T06:38:27Z</time>
      </trkpt>
      <trkpt lat="42.71926" lon="1.55476">
        <ele>1230.1442871094</ele>
        <time>2012-06-10T06:38:35Z</time>
      </trkpt>
      <trkpt lat="42.7192" lon="1.55474">
        <ele>1232.0668945312</ele>
        <time>2012-06-10T06:38:42Z</time>
      </trkpt>
      <trkpt lat="42.71915" lon="1.55475">
        <ele>1234.4702148438</ele>
        <time>2012-06-10T06:38:48Z</time>
      </trkpt>
      <trkpt lat="42.7191" lon="1.55474">
        <ele>1237.3540039062</ele>
        <time>2012-06-10T06:38:54Z</time>
      </trkpt>
      <trkpt lat="42.71905" lon="1.55474">
        <ele>1238.3154296875</ele>
        <time>2012-06-10T06:39:02Z</time>
      </trkpt>
      <trkpt lat="42.71901" lon="1.55473">
        <ele>1238.7961425781</ele>
        <time>2012-06-10T06:39:07Z</time>
      </trkpt>
      <trkpt lat="42.71898" lon="1.55473">
        <ele>1240.7185058594</ele>
        <time>2012-06-10T06:39:12Z</time>
      </trkpt>
      <trkpt lat="42.71895" lon="1.55478">
        <ele>1244.0834960938</ele>
        <time>2012-06-10T06:39:19Z</time>
      </trkpt>
      <trkpt lat="42.719" lon="1.55483">
        <ele>1245.525390625</ele>
        <time>2012-06-10T06:39:26Z</time>
      </trkpt>
      <trkpt lat="42.71903" lon="1.55486">
        <ele>1246.0061035156</ele>
        <time>2012-06-10T06:39:31Z</time>
      </trkpt>
      <trkpt lat="42.71908" lon="1.5549">
        <ele>1246.0061035156</ele>
        <time>2012-06-10T06:39:37Z</time>
      </trkpt>
      <trkpt lat="42.71911" lon="1.55493">
        <ele>1246.0061035156</ele>
        <time>2012-06-10T06:39:42Z</time>
      </trkpt>
      <trkpt lat="42.71917" lon="1.55495">
        <ele>1246.4868164062</ele>
        <time>2012-06-10T06:39:48Z</time>
      </trkpt>
      <trkpt lat="42.71919" lon="1.555">
        <ele>1247.4479980469</ele>
        <time>2012-06-10T06:39:54Z</time>
      </trkpt>
      <trkpt lat="42.71914" lon="1.55501">
        <ele>1247.4479980469</ele>
        <time>2012-06-10T06:40:00Z</time>
      </trkpt>
      <trkpt lat="42.71909" lon="1.55501">
        <ele>1248.8898925781</ele>
        <time>2012-06-10T06:40:07Z</time>
      </trkpt>
      <trkpt lat="42.71905" lon="1.55502">
        <ele>1250.33203125</ele>
        <time>2012-06-10T06:40:13Z</time>
      </trkpt>
      <trkpt lat="42.719" lon="1.55503">
        <ele>1250.33203125</ele>
        <time>2012-06-10T06:40:20Z</time>
      </trkpt>
      <trkpt lat="42.71896" lon="1.55504">
        <ele>1250.33203125</ele>
        <time>2012-06-10T06:40:27Z</time>
      </trkpt>
      <trkpt lat="42.71891" lon="1.55505">
        <ele>1252.7351074219</ele>
        <time>2012-06-10T06:40:34Z</time>
      </trkpt>
      <trkpt lat="42.71886" lon="1.55505">
        <ele>1253.6965332031</ele>
        <time>2012-06-10T06:40:40Z</time>
      </trkpt>
      <trkpt lat="42.7188" lon="1.55507">
        <ele>1252.2543945312</ele>
        <time>2012-06-10T06:40:46Z</time>
      </trkpt>
      <trkpt lat="42.71875" lon="1.55507">
        <ele>1252.7351074219</ele>
        <time>2012-06-10T06:40:52Z</time>
      </trkpt>
      <trkpt lat="42.7187" lon="1.55509">
        <ele>1252.2543945312</ele>
        <time>2012-06-10T06:40:59Z</time>
      </trkpt>
      <trkpt lat="42.71865" lon="1.55509">
        <ele>1252.2543945312</ele>
        <time>2012-06-10T06:41:05Z</time>
      </trkpt>
      <trkpt lat="42.7186" lon="1.55509">
        <ele>1255.1384277344</ele>
        <time>2012-06-10T06:41:11Z</time>
      </trkpt>
      <trkpt lat="42.71856" lon="1.55508">
        <ele>1258.9836425781</ele>
        <time>2012-06-10T06:41:17Z</time>
      </trkpt>
      <trkpt lat="42.71851" lon="1.55507">
        <ele>1258.0224609375</ele>
        <time>2012-06-10T06:41:23Z</time>
      </trkpt>
      <trkpt lat="42.71844" lon="1.55506">
        <ele>1258.9836425781</ele>
        <time>2012-06-10T06:41:30Z</time>
      </trkpt>
      <trkpt lat="42.71838" lon="1.55505">
        <ele>1260.42578125</ele>
        <time>2012-06-10T06:41:36Z</time>
      </trkpt>
      <trkpt lat="42.71836" lon="1.55505">
        <ele>1259.9448242188</ele>
        <time>2012-06-10T06:41:38Z</time>
      </trkpt>
      <trkpt lat="42.71827" lon="1.55504">
        <ele>1261.8679199219</ele>
        <time>2012-06-10T06:41:48Z</time>
      </trkpt>
      <trkpt lat="42.71821" lon="1.55501">
        <ele>1263.3098144531</ele>
        <time>2012-06-10T06:41:55Z</time>
      </trkpt>
      <trkpt lat="42.71814" lon="1.55499">
        <ele>1266.1936035156</ele>
        <time>2012-06-10T06:42:03Z</time>
      </trkpt>
      <trkpt lat="42.71809" lon="1.55496">
        <ele>1267.1550292969</ele>
        <time>2012-06-10T06:42:09Z</time>
      </trkpt>
      <trkpt lat="42.71806" lon="1.55496">
        <ele>1267.1550292969</ele>
        <time>2012-06-10T06:42:14Z</time>
      </trkpt>
      <trkpt lat="42.71801" lon="1.55494">
        <ele>1268.1162109375</ele>
        <time>2012-06-10T06:42:20Z</time>
      </trkpt>
      <trkpt lat="42.71797" lon="1.55491">
        <ele>1270.51953125</ele>
        <time>2012-06-10T06:42:26Z</time>
      </trkpt>
      <trkpt lat="42.71793" lon="1.55487">
        <ele>1275.806640625</ele>
        <time>2012-06-10T06:42:32Z</time>
      </trkpt>
      <trkpt lat="42.71789" lon="1.55481">
        <ele>1279.1713867188</ele>
        <time>2012-06-10T06:42:38Z</time>
      </trkpt>
      <trkpt lat="42.71785" lon="1.55476">
        <ele>1279.6520996094</ele>
        <time>2012-06-10T06:42:45Z</time>
      </trkpt>
      <trkpt lat="42.7178" lon="1.55473">
        <ele>1280.1328125</ele>
        <time>2012-06-10T06:42:51Z</time>
      </trkpt>
      <trkpt lat="42.71777" lon="1.5547">
        <ele>1280.1328125</ele>
        <time>2012-06-10T06:42:55Z</time>
      </trkpt>
      <trkpt lat="42.71773" lon="1.55464">
        <ele>1278.6909179688</ele>
        <time>2012-06-10T06:43:02Z</time>
      </trkpt>
      <trkpt lat="42.71768" lon="1.5546">
        <ele>1278.2102050781</ele>
        <time>2012-06-10T06:43:09Z</time>
      </trkpt>
      <trkpt lat="42.71765" lon="1.55457">
        <ele>1278.6909179688</ele>
        <time>2012-06-10T06:43:14Z</time>
      </trkpt>
      <trkpt lat="42.7176" lon="1.55454">
        <ele>1278.6909179688</ele>
        <time>2012-06-10T06:43:20Z</time>
      </trkpt>
      <trkpt lat="42.71756" lon="1.55449">
        <ele>1280.6135253906</ele>
        <time>2012-06-10T06:43:27Z</time>
      </trkpt>
      <trkpt lat="42.71752" lon="1.55445">
        <ele>1281.0942382812</ele>
        <time>2012-06-10T06:43:34Z</time>
      </trkpt>
      <trkpt lat="42.71748" lon="1.55441">
        <ele>1280.1328125</ele>
        <time>2012-06-10T06:43:41Z</time>
      </trkpt>
      <trkpt lat="42.71745" lon="1.55438">
        <ele>1280.1328125</ele>
        <time>2012-06-10T06:43:47Z</time>
      </trkpt>
      <trkpt lat="42.71742" lon="1.55436">
        <ele>1281.0942382812</ele>
        <time>2012-06-10T06:43:51Z</time>
      </trkpt>
      <trkpt lat="42.71738" lon="1.55434">
        <ele>1282.0554199219</ele>
        <time>2012-06-10T06:43:57Z</time>
      </trkpt>
      <trkpt lat="42.71735" lon="1.55431">
        <ele>1282.5361328125</ele>
        <time>2012-06-10T06:44:02Z</time>
      </trkpt>
      <trkpt lat="42.7173" lon="1.5543">
        <ele>1284.4587402344</ele>
        <time>2012-06-10T06:44:08Z</time>
      </trkpt>
      <trkpt lat="42.71726" lon="1.55427">
        <ele>1286.3813476562</ele>
        <time>2012-06-10T06:44:15Z</time>
      </trkpt>
      <trkpt lat="42.71724" lon="1.55425">
        <ele>1288.7846679688</ele>
        <time>2012-06-10T06:44:20Z</time>
      </trkpt>
      <trkpt lat="42.71722" lon="1.55423">
        <ele>1291.6684570312</ele>
        <time>2012-06-10T06:44:24Z</time>
      </trkpt>
      <trkpt lat="42.7172" lon="1.55421">
        <ele>1294.0720214844</ele>
        <time>2012-06-10T06:44:28Z</time>
      </trkpt>
      <trkpt lat="42.7172" lon="1.55417">
        <ele>1298.3977050781</ele>
        <time>2012-06-10T06:44:32Z</time>
      </trkpt>
      <trkpt lat="42.7172" lon="1.55411">
        <ele>1302.2429199219</ele>
        <time>2012-06-10T06:44:37Z</time>
      </trkpt>
      <trkpt lat="42.71719" lon="1.55406">
        <ele>1306.5688476562</ele>
        <time>2012-06-10T06:44:40Z</time>
      </trkpt>
      <trkpt lat="42.71716" lon="1.55399">
        <ele>1311.3757324219</ele>
        <time>2012-06-10T06:44:46Z</time>
      </trkpt>
      <trkpt lat="42.71712" lon="1.55401">
        <ele>1314.740234375</ele>
        <time>2012-06-10T06:44:50Z</time>
      </trkpt>
      <trkpt lat="42.71709" lon="1.55404">
        <ele>1317.1435546875</ele>
        <time>2012-06-10T06:44:54Z</time>
      </trkpt>
      <trkpt lat="42.71706" lon="1.55408">
        <ele>1320.5080566406</ele>
        <time>2012-06-10T06:44:59Z</time>
      </trkpt>
      <trkpt lat="42.71703" lon="1.55412">
        <ele>1325.3146972656</ele>
        <time>2012-06-10T06:45:04Z</time>
      </trkpt>
      <trkpt lat="42.71701" lon="1.55415">
        <ele>1330.1213378906</ele>
        <time>2012-06-10T06:45:08Z</time>
      </trkpt>
      <trkpt lat="42.71699" lon="1.55421">
        <ele>1338.2924804688</ele>
        <time>2012-06-10T06:45:12Z</time>
      </trkpt>
      <trkpt lat="42.71698" lon="1.55426">
        <ele>1348.3862304688</ele>
        <time>2012-06-10T06:45:16Z</time>
      </trkpt>
      <trkpt lat="42.71696" lon="1.55435">
        <ele>1364.7287597656</ele>
        <time>2012-06-10T06:45:22Z</time>
      </trkpt>
      <trkpt lat="42.71696" lon="1.5544">
        <ele>1375.3032226562</ele>
        <time>2012-06-10T06:45:23Z</time>
      </trkpt>
      <trkpt lat="42.71694" lon="1.55452">
        <ele>1394.0490722656</ele>
        <time>2012-06-10T06:45:31Z</time>
      </trkpt>
      <trkpt lat="42.71692" lon="1.55462">
        <ele>1410.3913574219</ele>
        <time>2012-06-10T06:45:37Z</time>
      </trkpt>
      <trkpt lat="42.7169" lon="1.55468">
        <ele>1418.0817871094</ele>
        <time>2012-06-10T06:45:41Z</time>
      </trkpt>
      <trkpt lat="42.71688" lon="1.55469">
        <ele>1417.1206054688</ele>
        <time>2012-06-10T06:45:45Z</time>
      </trkpt>
      <trkpt lat="42.71686" lon="1.55473">
        <ele>1420.4853515625</ele>
        <time>2012-06-10T06:45:52Z</time>
      </trkpt>
      <trkpt lat="42.71683" lon="1.55474">
        <ele>1415.6787109375</ele>
        <time>2012-06-10T06:45:57Z</time>
      </trkpt>
      <trkpt lat="42.71677" lon="1.55472">
        <ele>1398.3747558594</ele>
        <time>2012-06-10T06:46:03Z</time>
      </trkpt>
      <trkpt lat="42.71674" lon="1.5547">
        <ele>1387.3195800781</ele>
        <time>2012-06-10T06:46:07Z</time>
      </trkpt>
      <trkpt lat="42.71672" lon="1.55467">
        <ele>1372.4194335938</ele>
        <time>2012-06-10T06:46:11Z</time>
      </trkpt>
      <trkpt lat="42.71669" lon="1.55466">
        <ele>1352.2314453125</ele>
        <time>2012-06-10T06:46:17Z</time>
      </trkpt>
      <trkpt lat="42.71666" lon="1.55462">
        <ele>1335.8891601562</ele>
        <time>2012-06-10T06:46:23Z</time>
      </trkpt>
      <trkpt lat="42.71664" lon="1.55459">
        <ele>1327.7180175781</ele>
        <time>2012-06-10T06:46:30Z</time>
      </trkpt>
      <trkpt lat="42.71661" lon="1.5546">
        <ele>1324.8342285156</ele>
        <time>2012-06-10T06:46:38Z</time>
      </trkpt>
      <trkpt lat="42.7166" lon="1.55464">
        <ele>1323.3920898438</ele>
        <time>2012-06-10T06:46:44Z</time>
      </trkpt>
      <trkpt lat="42.71657" lon="1.55466">
        <ele>1320.9887695312</ele>
        <time>2012-06-10T06:46:49Z</time>
      </trkpt>
      <trkpt lat="42.71655" lon="1.55469">
        <ele>1320.02734375</ele>
        <time>2012-06-10T06:46:54Z</time>
      </trkpt>
      <trkpt lat="42.71655" lon="1.55474">
        <ele>1322.9113769531</ele>
        <time>2012-06-10T06:47:01Z</time>
      </trkpt>
      <trkpt lat="42.71655" lon="1.55479">
        <ele>1322.9113769531</ele>
        <time>2012-06-10T06:47:07Z</time>
      </trkpt>
      <trkpt lat="42.71653" lon="1.55484">
        <ele>1321.9499511719</ele>
        <time>2012-06-10T06:47:13Z</time>
      </trkpt>
      <trkpt lat="42.71653" lon="1.55486">
        <ele>1321.9499511719</ele>
        <time>2012-06-10T06:47:17Z</time>
      </trkpt>
      <trkpt lat="42.71651" lon="1.55492">
        <ele>1321.4692382812</ele>
        <time>2012-06-10T06:47:23Z</time>
      </trkpt>
      <trkpt lat="42.71651" lon="1.55498">
        <ele>1322.4306640625</ele>
        <time>2012-06-10T06:47:29Z</time>
      </trkpt>
      <trkpt lat="42.71652" lon="1.55503">
        <ele>1324.353515625</ele>
        <time>2012-06-10T06:47:36Z</time>
      </trkpt>
      <trkpt lat="42.71652" lon="1.55508">
        <ele>1323.8725585938</ele>
        <time>2012-06-10T06:47:42Z</time>
      </trkpt>
      <trkpt lat="42.71653" lon="1.55512">
        <ele>1325.7954101562</ele>
        <time>2012-06-10T06:47:48Z</time>
      </trkpt>
      <trkpt lat="42.71656" lon="1.55517">
        <ele>1333.4858398438</ele>
        <time>2012-06-10T06:47:55Z</time>
      </trkpt>
      <trkpt lat="42.71658" lon="1.5552">
        <ele>1336.3698730469</ele>
        <time>2012-06-10T06:48:00Z</time>
      </trkpt>
      <trkpt lat="42.71662" lon="1.55523">
        <ele>1345.5024414062</ele>
        <time>2012-06-10T06:48:07Z</time>
      </trkpt>
      <trkpt lat="42.71666" lon="1.55525">
        <ele>1350.7895507812</ele>
        <time>2012-06-10T06:48:14Z</time>
      </trkpt>
      <trkpt lat="42.71668" lon="1.55519">
        <ele>1355.5961914062</ele>
        <time>2012-06-10T06:48:20Z</time>
      </trkpt>
      <trkpt lat="42.71666" lon="1.55512">
        <ele>1357.9997558594</ele>
        <time>2012-06-10T06:48:27Z</time>
      </trkpt>
      <trkpt lat="42.71662" lon="1.55504">
        <ele>1362.8061523438</ele>
        <time>2012-06-10T06:48:33Z</time>
      </trkpt>
      <trkpt lat="42.71658" lon="1.55493">
        <ele>1363.7673339844</ele>
        <time>2012-06-10T06:48:41Z</time>
      </trkpt>
      <trkpt lat="42.71657" lon="1.55491">
        <ele>1363.7673339844</ele>
        <time>2012-06-10T06:48:43Z</time>
      </trkpt>
      <trkpt lat="42.71654" lon="1.55485">
        <ele>1361.8449707031</ele>
        <time>2012-06-10T06:48:50Z</time>
      </trkpt>
      <trkpt lat="42.71651" lon="1.55479">
        <ele>1360.8835449219</ele>
        <time>2012-06-10T06:48:56Z</time>
      </trkpt>
      <trkpt lat="42.71651" lon="1.55475">
        <ele>1358.9609375</ele>
        <time>2012-06-10T06:49:01Z</time>
      </trkpt>
      <trkpt lat="42.71651" lon="1.55471">
        <ele>1357.5190429688</ele>
        <time>2012-06-10T06:49:06Z</time>
      </trkpt>
      <trkpt lat="42.71648" lon="1.55467">
        <ele>1357.0383300781</ele>
        <time>2012-06-10T06:49:11Z</time>
      </trkpt>
      <trkpt lat="42.71646" lon="1.55465">
        <ele>1357.0383300781</ele>
        <time>2012-06-10T06:49:16Z</time>
      </trkpt>
      <trkpt lat="42.71642" lon="1.55466">
        <ele>1356.0769042969</ele>
        <time>2012-06-10T06:49:22Z</time>
      </trkpt>
      <trkpt lat="42.71639" lon="1.55469">
        <ele>1354.634765625</ele>
        <time>2012-06-10T06:49:27Z</time>
      </trkpt>
      <trkpt lat="42.71636" lon="1.55473">
        <ele>1353.6735839844</ele>
        <time>2012-06-10T06:49:33Z</time>
      </trkpt>
      <trkpt lat="42.71634" lon="1.55479">
        <ele>1352.2314453125</ele>
        <time>2012-06-10T06:49:39Z</time>
      </trkpt>
      <trkpt lat="42.71631" lon="1.55489">
        <ele>1350.3090820312</ele>
        <time>2012-06-10T06:49:47Z</time>
      </trkpt>
      <trkpt lat="42.71629" lon="1.55499">
        <ele>1348.8669433594</ele>
        <time>2012-06-10T06:49:56Z</time>
      </trkpt>
      <trkpt lat="42.71628" lon="1.55507">
        <ele>1348.3862304688</ele>
        <time>2012-06-10T06:50:03Z</time>
      </trkpt>
      <trkpt lat="42.71628" lon="1.55515">
        <ele>1348.8669433594</ele>
        <time>2012-06-10T06:50:10Z</time>
      </trkpt>
      <trkpt lat="42.71628" lon="1.55524">
        <ele>1348.8669433594</ele>
        <time>2012-06-10T06:50:16Z</time>
      </trkpt>
      <trkpt lat="42.71629" lon="1.5553">
        <ele>1349.34765625</ele>
        <time>2012-06-10T06:50:21Z</time>
      </trkpt>
      <trkpt lat="42.71636" lon="1.55537">
        <ele>1357.0383300781</ele>
        <time>2012-06-10T06:50:28Z</time>
      </trkpt>
      <trkpt lat="42.71637" lon="1.55539">
        <ele>1362.3254394531</ele>
        <time>2012-06-10T06:50:35Z</time>
      </trkpt>
      <trkpt lat="42.71636" lon="1.55537">
        <ele>1363.7673339844</ele>
        <time>2012-06-10T06:50:40Z</time>
      </trkpt>
      <trkpt lat="42.71633" lon="1.55532">
        <ele>1364.7287597656</ele>
        <time>2012-06-10T06:50:45Z</time>
      </trkpt>
      <trkpt lat="42.71632" lon="1.55527">
        <ele>1368.0932617188</ele>
        <time>2012-06-10T06:50:51Z</time>
      </trkpt>
      <trkpt lat="42.71629" lon="1.55524">
        <ele>1366.6513671875</ele>
        <time>2012-06-10T06:50:56Z</time>
      </trkpt>
      <trkpt lat="42.71627" lon="1.5552">
        <ele>1367.6125488281</ele>
        <time>2012-06-10T06:51:02Z</time>
      </trkpt>
      <trkpt lat="42.71629" lon="1.55515">
        <ele>1370.4965820312</ele>
        <time>2012-06-10T06:51:08Z</time>
      </trkpt>
      <trkpt lat="42.71627" lon="1.5551">
        <ele>1372.4194335938</ele>
        <time>2012-06-10T06:51:13Z</time>
      </trkpt>
      <trkpt lat="42.71627" lon="1.55507">
        <ele>1376.7453613281</ele>
        <time>2012-06-10T06:51:18Z</time>
      </trkpt>
      <trkpt lat="42.71625" lon="1.55507">
        <ele>1377.2260742188</ele>
        <time>2012-06-10T06:51:24Z</time>
      </trkpt>
      <trkpt lat="42.71623" lon="1.55511">
        <ele>1376.7453613281</ele>
        <time>2012-06-10T06:51:30Z</time>
      </trkpt>
      <trkpt lat="42.71622" lon="1.55516">
        <ele>1377.2260742188</ele>
        <time>2012-06-10T06:51:36Z</time>
      </trkpt>
      <trkpt lat="42.71623" lon="1.55519">
        <ele>1378.66796875</ele>
        <time>2012-06-10T06:51:40Z</time>
      </trkpt>
      <trkpt lat="42.71621" lon="1.55523">
        <ele>1378.1872558594</ele>
        <time>2012-06-10T06:51:45Z</time>
      </trkpt>
      <trkpt lat="42.71618" lon="1.55528">
        <ele>1376.7453613281</ele>
        <time>2012-06-10T06:51:50Z</time>
      </trkpt>
      <trkpt lat="42.71614" lon="1.55533">
        <ele>1375.3032226562</ele>
        <time>2012-06-10T06:51:56Z</time>
      </trkpt>
      <trkpt lat="42.71612" lon="1.55538">
        <ele>1374.8227539062</ele>
        <time>2012-06-10T06:52:02Z</time>
      </trkpt>
      <trkpt lat="42.7161" lon="1.55542">
        <ele>1374.8227539062</ele>
        <time>2012-06-10T06:52:08Z</time>
      </trkpt>
      <trkpt lat="42.71608" lon="1.55545">
        <ele>1374.8227539062</ele>
        <time>2012-06-10T06:52:13Z</time>
      </trkpt>
      <trkpt lat="42.71606" lon="1.55549">
        <ele>1375.3032226562</ele>
        <time>2012-06-10T06:52:18Z</time>
      </trkpt>
      <trkpt lat="42.71603" lon="1.55552">
        <ele>1375.7839355469</ele>
        <time>2012-06-10T06:52:23Z</time>
      </trkpt>
      <trkpt lat="42.716" lon="1.55555">
        <ele>1376.7453613281</ele>
        <time>2012-06-10T06:52:29Z</time>
      </trkpt>
      <trkpt lat="42.71597" lon="1.55557">
        <ele>1378.1872558594</ele>
        <time>2012-06-10T06:52:34Z</time>
      </trkpt>
      <trkpt lat="42.71594" lon="1.55559">
        <ele>1379.1484375</ele>
        <time>2012-06-10T06:52:40Z</time>
      </trkpt>
      <trkpt lat="42.7159" lon="1.55563">
        <ele>1379.6291503906</ele>
        <time>2012-06-10T06:52:47Z</time>
      </trkpt>
      <trkpt lat="42.71586" lon="1.55566">
        <ele>1380.5905761719</ele>
        <time>2012-06-10T06:52:58Z</time>
      </trkpt>
      <trkpt lat="42.7158" lon="1.55573">
        <ele>1386.8388671875</ele>
        <time>2012-06-10T06:53:06Z</time>
      </trkpt>
      <trkpt lat="42.71576" lon="1.55577">
        <ele>1394.5295410156</ele>
        <time>2012-06-10T06:53:14Z</time>
      </trkpt>
      <trkpt lat="42.71576" lon="1.55579">
        <ele>1401.7395019531</ele>
        <time>2012-06-10T06:53:21Z</time>
      </trkpt>
      <trkpt lat="42.71576" lon="1.55581">
        <ele>1407.98828125</ele>
        <time>2012-06-10T06:53:27Z</time>
      </trkpt>
      <trkpt lat="42.71577" lon="1.55584">
        <ele>1414.2365722656</ele>
        <time>2012-06-10T06:53:33Z</time>
      </trkpt>
      <trkpt lat="42.71572" lon="1.55588">
        <ele>1413.275390625</ele>
        <time>2012-06-10T06:53:41Z</time>
      </trkpt>
      <trkpt lat="42.71569" lon="1.55591">
        <ele>1414.2365722656</ele>
        <time>2012-06-10T06:53:46Z</time>
      </trkpt>
      <trkpt lat="42.71565" lon="1.55594">
        <ele>1414.2365722656</ele>
        <time>2012-06-10T06:53:52Z</time>
      </trkpt>
      <trkpt lat="42.71562" lon="1.55599">
        <ele>1416.6398925781</ele>
        <time>2012-06-10T06:53:57Z</time>
      </trkpt>
      <trkpt lat="42.71556" lon="1.55607">
        <ele>1422.888671875</ele>
        <time>2012-06-10T06:54:06Z</time>
      </trkpt>
      <trkpt lat="42.71553" lon="1.5561">
        <ele>1426.2531738281</ele>
        <time>2012-06-10T06:54:10Z</time>
      </trkpt>
      <trkpt lat="42.71547" lon="1.55614">
        <ele>1427.2145996094</ele>
        <time>2012-06-10T06:54:15Z</time>
      </trkpt>
      <trkpt lat="42.7154" lon="1.55618">
        <ele>1424.8112792969</ele>
        <time>2012-06-10T06:54:20Z</time>
      </trkpt>
      <trkpt lat="42.71536" lon="1.55618">
        <ele>1417.1206054688</ele>
        <time>2012-06-10T06:54:28Z</time>
      </trkpt>
      <trkpt lat="42.71533" lon="1.55622">
        <ele>1413.755859375</ele>
        <time>2012-06-10T06:54:34Z</time>
      </trkpt>
      <trkpt lat="42.71527" lon="1.55617">
        <ele>1410.3913574219</ele>
        <time>2012-06-10T06:54:42Z</time>
      </trkpt>
      <trkpt lat="42.71523" lon="1.55613">
        <ele>1409.4301757812</ele>
        <time>2012-06-10T06:54:48Z</time>
      </trkpt>
      <trkpt lat="42.71518" lon="1.55611">
        <ele>1408.46875</ele>
        <time>2012-06-10T06:54:54Z</time>
      </trkpt>
      <trkpt lat="42.71512" lon="1.55609">
        <ele>1407.98828125</ele>
        <time>2012-06-10T06:55:01Z</time>
      </trkpt>
      <trkpt lat="42.71507" lon="1.55607">
        <ele>1407.98828125</ele>
        <time>2012-06-10T06:55:07Z</time>
      </trkpt>
      <trkpt lat="42.71499" lon="1.55606">
        <ele>1407.98828125</ele>
        <time>2012-06-10T06:55:15Z</time>
      </trkpt>
      <trkpt lat="42.71494" lon="1.55608">
        <ele>1408.46875</ele>
        <time>2012-06-10T06:55:23Z</time>
      </trkpt>
      <trkpt lat="42.71488" lon="1.55606">
        <ele>1409.4301757812</ele>
        <time>2012-06-10T06:55:29Z</time>
      </trkpt>
      <trkpt lat="42.71482" lon="1.55601">
        <ele>1410.3913574219</ele>
        <time>2012-06-10T06:55:36Z</time>
      </trkpt>
      <trkpt lat="42.71479" lon="1.55598">
        <ele>1410.8720703125</ele>
        <time>2012-06-10T06:55:40Z</time>
      </trkpt>
      <trkpt lat="42.71476" lon="1.55595">
        <ele>1408.9494628906</ele>
        <time>2012-06-10T06:55:44Z</time>
      </trkpt>
      <trkpt lat="42.71469" lon="1.55599">
        <ele>1409.4301757812</ele>
        <time>2012-06-10T06:55:51Z</time>
      </trkpt>
      <trkpt lat="42.71468" lon="1.55602">
        <ele>1410.3913574219</ele>
        <time>2012-06-10T06:55:53Z</time>
      </trkpt>
      <trkpt lat="42.71464" lon="1.55609">
        <ele>1411.3527832031</ele>
        <time>2012-06-10T06:56:00Z</time>
      </trkpt>
      <trkpt lat="42.7146" lon="1.55615">
        <ele>1411.3527832031</ele>
        <time>2012-06-10T06:56:05Z</time>
      </trkpt>
      <trkpt lat="42.71458" lon="1.55619">
        <ele>1412.3139648438</ele>
        <time>2012-06-10T06:56:09Z</time>
      </trkpt>
      <trkpt lat="42.71456" lon="1.55624">
        <ele>1413.275390625</ele>
        <time>2012-06-10T06:56:14Z</time>
      </trkpt>
      <trkpt lat="42.71452" lon="1.55629">
        <ele>1413.755859375</ele>
        <time>2012-06-10T06:56:20Z</time>
      </trkpt>
      <trkpt lat="42.71447" lon="1.55635">
        <ele>1414.7172851562</ele>
        <time>2012-06-10T06:56:26Z</time>
      </trkpt>
      <trkpt lat="42.71445" lon="1.55639">
        <ele>1414.7172851562</ele>
        <time>2012-06-10T06:56:29Z</time>
      </trkpt>
      <trkpt lat="42.71442" lon="1.55645">
        <ele>1415.1979980469</ele>
        <time>2012-06-10T06:56:35Z</time>
      </trkpt>
      <trkpt lat="42.71438" lon="1.55651">
        <ele>1416.1591796875</ele>
        <time>2012-06-10T06:56:41Z</time>
      </trkpt>
      <trkpt lat="42.71436" lon="1.55654">
        <ele>1417.6010742188</ele>
        <time>2012-06-10T06:56:45Z</time>
      </trkpt>
      <trkpt lat="42.71434" lon="1.55659">
        <ele>1417.6010742188</ele>
        <time>2012-06-10T06:56:51Z</time>
      </trkpt>
      <trkpt lat="42.71431" lon="1.55663">
        <ele>1418.5625</ele>
        <time>2012-06-10T06:56:55Z</time>
      </trkpt>
      <trkpt lat="42.71429" lon="1.5567">
        <ele>1418.0817871094</ele>
        <time>2012-06-10T06:57:01Z</time>
      </trkpt>
      <trkpt lat="42.71425" lon="1.55677">
        <ele>1418.0817871094</ele>
        <time>2012-06-10T06:57:07Z</time>
      </trkpt>
      <trkpt lat="42.71424" lon="1.55678">
        <ele>1418.0817871094</ele>
        <time>2012-06-10T06:57:08Z</time>
      </trkpt>
      <trkpt lat="42.7142" lon="1.55686">
        <ele>1419.5239257812</ele>
        <time>2012-06-10T06:57:13Z</time>
      </trkpt>
      <trkpt lat="42.71413" lon="1.55691">
        <ele>1421.4465332031</ele>
        <time>2012-06-10T06:57:20Z</time>
      </trkpt>
      <trkpt lat="42.71406" lon="1.55696">
        <ele>1421.9272460938</ele>
        <time>2012-06-10T06:57:26Z</time>
      </trkpt>
      <trkpt lat="42.71404" lon="1.55699">
        <ele>1421.9272460938</ele>
        <time>2012-06-10T06:57:29Z</time>
      </trkpt>
      <trkpt lat="42.714" lon="1.55702">
        <ele>1422.4079589844</ele>
        <time>2012-06-10T06:57:35Z</time>
      </trkpt>
      <trkpt lat="42.71397" lon="1.55699">
        <ele>1423.8498535156</ele>
        <time>2012-06-10T06:57:41Z</time>
      </trkpt>
      <trkpt lat="42.71394" lon="1.557">
        <ele>1424.3305664062</ele>
        <time>2012-06-10T06:57:47Z</time>
      </trkpt>
      <trkpt lat="42.71387" lon="1.55699">
        <ele>1425.2917480469</ele>
        <time>2012-06-10T06:57:54Z</time>
      </trkpt>
      <trkpt lat="42.71384" lon="1.557">
        <ele>1425.7724609375</ele>
        <time>2012-06-10T06:58:00Z</time>
      </trkpt>
      <trkpt lat="42.71379" lon="1.55704">
        <ele>1425.7724609375</ele>
        <time>2012-06-10T06:58:06Z</time>
      </trkpt>
      <trkpt lat="42.71375" lon="1.55706">
        <ele>1425.7724609375</ele>
        <time>2012-06-10T06:58:09Z</time>
      </trkpt>
      <trkpt lat="42.7137" lon="1.55711">
        <ele>1422.888671875</ele>
        <time>2012-06-10T06:58:15Z</time>
      </trkpt>
      <trkpt lat="42.71367" lon="1.55713">
        <ele>1421.9272460938</ele>
        <time>2012-06-10T06:58:18Z</time>
      </trkpt>
      <trkpt lat="42.71362" lon="1.55716">
        <ele>1424.3305664062</ele>
        <time>2012-06-10T06:58:22Z</time>
      </trkpt>
      <trkpt lat="42.71358" lon="1.55723">
        <ele>1423.8498535156</ele>
        <time>2012-06-10T06:58:27Z</time>
      </trkpt>
      <trkpt lat="42.71349" lon="1.55723">
        <ele>1425.7724609375</ele>
        <time>2012-06-10T06:58:32Z</time>
      </trkpt>
      <trkpt lat="42.7134" lon="1.55724">
        <ele>1423.8498535156</ele>
        <time>2012-06-10T06:58:38Z</time>
      </trkpt>
      <trkpt lat="42.71336" lon="1.55726">
        <ele>1422.888671875</ele>
        <time>2012-06-10T06:58:40Z</time>
      </trkpt>
      <trkpt lat="42.71331" lon="1.55729">
        <ele>1422.4079589844</ele>
        <time>2012-06-10T06:58:44Z</time>
      </trkpt>
      <trkpt lat="42.71325" lon="1.55729">
        <ele>1427.2145996094</ele>
        <time>2012-06-10T06:58:51Z</time>
      </trkpt>
      <trkpt lat="42.71316" lon="1.55726">
        <ele>1435.3854980469</ele>
        <time>2012-06-10T06:58:58Z</time>
      </trkpt>
      <trkpt lat="42.71314" lon="1.55726">
        <ele>1437.3083496094</ele>
        <time>2012-06-10T06:58:59Z</time>
      </trkpt>
      <trkpt lat="42.71309" lon="1.55721">
        <ele>1444.9987792969</ele>
        <time>2012-06-10T06:59:03Z</time>
      </trkpt>
      <trkpt lat="42.71304" lon="1.55722">
        <ele>1450.7666015625</ele>
        <time>2012-06-10T06:59:09Z</time>
      </trkpt>
      <trkpt lat="42.71303" lon="1.55722">
        <ele>1451.2473144531</ele>
        <time>2012-06-10T06:59:10Z</time>
      </trkpt>
      <trkpt lat="42.713" lon="1.55722">
        <ele>1455.5734863281</ele>
        <time>2012-06-10T06:59:15Z</time>
      </trkpt>
      <trkpt lat="42.71295" lon="1.55724">
        <ele>1452.689453125</ele>
        <time>2012-06-10T06:59:21Z</time>
      </trkpt>
      <trkpt lat="42.71291" lon="1.55728">
        <ele>1451.2473144531</ele>
        <time>2012-06-10T06:59:26Z</time>
      </trkpt>
      <trkpt lat="42.71286" lon="1.5573">
        <ele>1451.2473144531</ele>
        <time>2012-06-10T06:59:29Z</time>
      </trkpt>
      <trkpt lat="42.71278" lon="1.55734">
        <ele>1453.6508789062</ele>
        <time>2012-06-10T06:59:35Z</time>
      </trkpt>
      <trkpt lat="42.71277" lon="1.55735">
        <ele>1453.6508789062</ele>
        <time>2012-06-10T06:59:37Z</time>
      </trkpt>
      <trkpt lat="42.71271" lon="1.55741">
        <ele>1451.7280273438</ele>
        <time>2012-06-10T06:59:44Z</time>
      </trkpt>
      <trkpt lat="42.71265" lon="1.55744">
        <ele>1450.7666015625</ele>
        <time>2012-06-10T06:59:51Z</time>
      </trkpt>
      <trkpt lat="42.71259" lon="1.5575">
        <ele>1451.2473144531</ele>
        <time>2012-06-10T06:59:58Z</time>
      </trkpt>
      <trkpt lat="42.71253" lon="1.55754">
        <ele>1451.7280273438</ele>
        <time>2012-06-10T07:00:04Z</time>
      </trkpt>
      <trkpt lat="42.71246" lon="1.5576">
        <ele>1452.689453125</ele>
        <time>2012-06-10T07:00:12Z</time>
      </trkpt>
      <trkpt lat="42.71242" lon="1.55762">
        <ele>1453.1701660156</ele>
        <time>2012-06-10T07:00:16Z</time>
      </trkpt>
      <trkpt lat="42.7124" lon="1.55765">
        <ele>1453.6508789062</ele>
        <time>2012-06-10T07:00:19Z</time>
      </trkpt>
      <trkpt lat="42.71231" lon="1.55769">
        <ele>1455.5734863281</ele>
        <time>2012-06-10T07:00:26Z</time>
      </trkpt>
      <trkpt lat="42.71228" lon="1.55771">
        <ele>1455.5734863281</ele>
        <time>2012-06-10T07:00:29Z</time>
      </trkpt>
      <trkpt lat="42.71226" lon="1.55776">
        <ele>1455.0927734375</ele>
        <time>2012-06-10T07:00:33Z</time>
      </trkpt>
      <trkpt lat="42.71219" lon="1.55783">
        <ele>1455.5734863281</ele>
        <time>2012-06-10T07:00:39Z</time>
      </trkpt>
      <trkpt lat="42.71217" lon="1.55786">
        <ele>1455.5734863281</ele>
        <time>2012-06-10T07:00:42Z</time>
      </trkpt>
      <trkpt lat="42.71213" lon="1.55786">
        <ele>1456.0539550781</ele>
        <time>2012-06-10T07:00:46Z</time>
      </trkpt>
      <trkpt lat="42.71209" lon="1.55785">
        <ele>1457.0153808594</ele>
        <time>2012-06-10T07:00:49Z</time>
      </trkpt>
      <trkpt lat="42.71206" lon="1.5579">
        <ele>1458.4572753906</ele>
        <time>2012-06-10T07:00:54Z</time>
      </trkpt>
      <trkpt lat="42.71199" lon="1.55794">
        <ele>1458.9379882812</ele>
        <time>2012-06-10T07:00:59Z</time>
      </trkpt>
      <trkpt lat="42.71191" lon="1.558">
        <ele>1459.8991699219</ele>
        <time>2012-06-10T07:01:03Z</time>
      </trkpt>
      <trkpt lat="42.71188" lon="1.55806">
        <ele>1460.8605957031</ele>
        <time>2012-06-10T07:01:08Z</time>
      </trkpt>
      <trkpt lat="42.7118" lon="1.55808">
        <ele>1460.3798828125</ele>
        <time>2012-06-10T07:01:15Z</time>
      </trkpt>
      <trkpt lat="42.71177" lon="1.55814">
        <ele>1459.8991699219</ele>
        <time>2012-06-10T07:01:19Z</time>
      </trkpt>
      <trkpt lat="42.71175" lon="1.5582">
        <ele>1459.8991699219</ele>
        <time>2012-06-10T07:01:23Z</time>
      </trkpt>
      <trkpt lat="42.71171" lon="1.55819">
        <ele>1461.3413085938</ele>
        <time>2012-06-10T07:01:28Z</time>
      </trkpt>
      <trkpt lat="42.71164" lon="1.5582">
        <ele>1461.8220214844</ele>
        <time>2012-06-10T07:01:35Z</time>
      </trkpt>
      <trkpt lat="42.71161" lon="1.55824">
        <ele>1462.3024902344</ele>
        <time>2012-06-10T07:01:39Z</time>
      </trkpt>
      <trkpt lat="42.71155" lon="1.55829">
        <ele>1461.8220214844</ele>
        <time>2012-06-10T07:01:45Z</time>
      </trkpt>
      <trkpt lat="42.71151" lon="1.55832">
        <ele>1462.783203125</ele>
        <time>2012-06-10T07:01:49Z</time>
      </trkpt>
      <trkpt lat="42.71147" lon="1.55835">
        <ele>1465.1865234375</ele>
        <time>2012-06-10T07:01:53Z</time>
      </trkpt>
      <trkpt lat="42.71137" lon="1.55841">
        <ele>1469.9931640625</ele>
        <time>2012-06-10T07:02:02Z</time>
      </trkpt>
      <trkpt lat="42.71135" lon="1.55842">
        <ele>1470.9545898438</ele>
        <time>2012-06-10T07:02:04Z</time>
      </trkpt>
      <trkpt lat="42.71131" lon="1.55849">
        <ele>1471.9157714844</ele>
        <time>2012-06-10T07:02:10Z</time>
      </trkpt>
      <trkpt lat="42.71128" lon="1.55853">
        <ele>1471.9157714844</ele>
        <time>2012-06-10T07:02:13Z</time>
      </trkpt>
      <trkpt lat="42.71122" lon="1.55857">
        <ele>1472.396484375</ele>
        <time>2012-06-10T07:02:18Z</time>
      </trkpt>
      <trkpt lat="42.71119" lon="1.55859">
        <ele>1473.3579101562</ele>
        <time>2012-06-10T07:02:22Z</time>
      </trkpt>
      <trkpt lat="42.71113" lon="1.55863">
        <ele>1474.7998046875</ele>
        <time>2012-06-10T07:02:28Z</time>
      </trkpt>
      <trkpt lat="42.71109" lon="1.5587">
        <ele>1475.7609863281</ele>
        <time>2012-06-10T07:02:34Z</time>
      </trkpt>
      <trkpt lat="42.711" lon="1.55874">
        <ele>1477.203125</ele>
        <time>2012-06-10T07:02:42Z</time>
      </trkpt>
      <trkpt lat="42.71092" lon="1.55877">
        <ele>1478.6450195312</ele>
        <time>2012-06-10T07:02:48Z</time>
      </trkpt>
      <trkpt lat="42.71091" lon="1.55877">
        <ele>1478.6450195312</ele>
        <time>2012-06-10T07:02:49Z</time>
      </trkpt>
      <trkpt lat="42.71085" lon="1.55882">
        <ele>1479.1254882812</ele>
        <time>2012-06-10T07:02:53Z</time>
      </trkpt>
      <trkpt lat="42.71082" lon="1.55884">
        <ele>1480.0869140625</ele>
        <time>2012-06-10T07:02:56Z</time>
      </trkpt>
      <trkpt lat="42.71078" lon="1.55888">
        <ele>1481.0483398438</ele>
        <time>2012-06-10T07:03:01Z</time>
      </trkpt>
      <trkpt lat="42.71074" lon="1.55892">
        <ele>1481.5288085938</ele>
        <time>2012-06-10T07:03:08Z</time>
      </trkpt>
      <trkpt lat="42.71067" lon="1.55898">
        <ele>1482.490234375</ele>
        <time>2012-06-10T07:03:15Z</time>
      </trkpt>
      <trkpt lat="42.71063" lon="1.55903">
        <ele>1482.970703125</ele>
        <time>2012-06-10T07:03:20Z</time>
      </trkpt>
      <trkpt lat="42.71054" lon="1.55907">
        <ele>1482.970703125</ele>
        <time>2012-06-10T07:03:26Z</time>
      </trkpt>
      <trkpt lat="42.71045" lon="1.55912">
        <ele>1484.4130859375</ele>
        <time>2012-06-10T07:03:31Z</time>
      </trkpt>
      <trkpt lat="42.71038" lon="1.55915">
        <ele>1486.3356933594</ele>
        <time>2012-06-10T07:03:35Z</time>
      </trkpt>
      <trkpt lat="42.71032" lon="1.55912">
        <ele>1486.8161621094</ele>
        <time>2012-06-10T07:03:40Z</time>
      </trkpt>
      <trkpt lat="42.71027" lon="1.55912">
        <ele>1487.296875</ele>
        <time>2012-06-10T07:03:42Z</time>
      </trkpt>
      <trkpt lat="42.71022" lon="1.55913">
        <ele>1487.296875</ele>
        <time>2012-06-10T07:03:45Z</time>
      </trkpt>
      <trkpt lat="42.71018" lon="1.55917">
        <ele>1487.7775878906</ele>
        <time>2012-06-10T07:03:52Z</time>
      </trkpt>
      <trkpt lat="42.71014" lon="1.55922">
        <ele>1488.7390136719</ele>
        <time>2012-06-10T07:03:59Z</time>
      </trkpt>
      <trkpt lat="42.71012" lon="1.55928">
        <ele>1490.1809082031</ele>
        <time>2012-06-10T07:04:05Z</time>
      </trkpt>
      <trkpt lat="42.71013" lon="1.55933">
        <ele>1490.6613769531</ele>
        <time>2012-06-10T07:04:09Z</time>
      </trkpt>
      <trkpt lat="42.71012" lon="1.55937">
        <ele>1491.6228027344</ele>
        <time>2012-06-10T07:04:14Z</time>
      </trkpt>
      <trkpt lat="42.7101" lon="1.5594">
        <ele>1492.5842285156</ele>
        <time>2012-06-10T07:04:18Z</time>
      </trkpt>
      <trkpt lat="42.71009" lon="1.55944">
        <ele>1493.5454101562</ele>
        <time>2012-06-10T07:04:23Z</time>
      </trkpt>
      <trkpt lat="42.71007" lon="1.55948">
        <ele>1494.0261230469</ele>
        <time>2012-06-10T07:04:29Z</time>
      </trkpt>
      <trkpt lat="42.71001" lon="1.55952">
        <ele>1495.4680175781</ele>
        <time>2012-06-10T07:04:36Z</time>
      </trkpt>
      <trkpt lat="42.70997" lon="1.55958">
        <ele>1496.4294433594</ele>
        <time>2012-06-10T07:04:42Z</time>
      </trkpt>
      <trkpt lat="42.70993" lon="1.5596">
        <ele>1496.9099121094</ele>
        <time>2012-06-10T07:04:46Z</time>
      </trkpt>
      <trkpt lat="42.70988" lon="1.55964">
        <ele>1497.390625</ele>
        <time>2012-06-10T07:04:50Z</time>
      </trkpt>
      <trkpt lat="42.70979" lon="1.55976">
        <ele>1497.8713378906</ele>
        <time>2012-06-10T07:04:59Z</time>
      </trkpt>
      <trkpt lat="42.70975" lon="1.55983">
        <ele>1497.390625</ele>
        <time>2012-06-10T07:05:05Z</time>
      </trkpt>
      <trkpt lat="42.70968" lon="1.55988">
        <ele>1497.390625</ele>
        <time>2012-06-10T07:05:11Z</time>
      </trkpt>
      <trkpt lat="42.70964" lon="1.55994">
        <ele>1497.8713378906</ele>
        <time>2012-06-10T07:05:16Z</time>
      </trkpt>
      <trkpt lat="42.70959" lon="1.56001">
        <ele>1498.3518066406</ele>
        <time>2012-06-10T07:05:22Z</time>
      </trkpt>
      <trkpt lat="42.70956" lon="1.56004">
        <ele>1497.8713378906</ele>
        <time>2012-06-10T07:05:25Z</time>
      </trkpt>
      <trkpt lat="42.70954" lon="1.56008">
        <ele>1496.9099121094</ele>
        <time>2012-06-10T07:05:33Z</time>
      </trkpt>
      <trkpt lat="42.70951" lon="1.56014">
        <ele>1496.9099121094</ele>
        <time>2012-06-10T07:05:38Z</time>
      </trkpt>
      <trkpt lat="42.70949" lon="1.56018">
        <ele>1496.9099121094</ele>
        <time>2012-06-10T07:05:41Z</time>
      </trkpt>
      <trkpt lat="42.70942" lon="1.56027">
        <ele>1497.8713378906</ele>
        <time>2012-06-10T07:05:49Z</time>
      </trkpt>
      <trkpt lat="42.70938" lon="1.56032">
        <ele>1498.3518066406</ele>
        <time>2012-06-10T07:05:53Z</time>
      </trkpt>
      <trkpt lat="42.70933" lon="1.56044">
        <ele>1498.8325195312</ele>
        <time>2012-06-10T07:06:01Z</time>
      </trkpt>
      <trkpt lat="42.70929" lon="1.56056">
        <ele>1498.8325195312</ele>
        <time>2012-06-10T07:06:08Z</time>
      </trkpt>
      <trkpt lat="42.70924" lon="1.56068">
        <ele>1499.3132324219</ele>
        <time>2012-06-10T07:06:16Z</time>
      </trkpt>
      <trkpt lat="42.70919" lon="1.56074">
        <ele>1499.7939453125</ele>
        <time>2012-06-10T07:06:21Z</time>
      </trkpt>
      <trkpt lat="42.70911" lon="1.56077">
        <ele>1500.2749023438</ele>
        <time>2012-06-10T07:06:29Z</time>
      </trkpt>
      <trkpt lat="42.7091" lon="1.56079">
        <ele>1500.2749023438</ele>
        <time>2012-06-10T07:06:30Z</time>
      </trkpt>
      <trkpt lat="42.70905" lon="1.56089">
        <ele>1500.2749023438</ele>
        <time>2012-06-10T07:06:38Z</time>
      </trkpt>
      <trkpt lat="42.709" lon="1.56096">
        <ele>1500.7553710938</ele>
        <time>2012-06-10T07:06:44Z</time>
      </trkpt>
      <trkpt lat="42.70894" lon="1.56096">
        <ele>1501.2360839844</ele>
        <time>2012-06-10T07:06:51Z</time>
      </trkpt>
      <trkpt lat="42.70889" lon="1.56094">
        <ele>1501.2360839844</ele>
        <time>2012-06-10T07:06:58Z</time>
      </trkpt>
      <trkpt lat="42.70883" lon="1.56096">
        <ele>1502.6779785156</ele>
        <time>2012-06-10T07:07:04Z</time>
      </trkpt>
      <trkpt lat="42.70879" lon="1.56098">
        <ele>1504.6005859375</ele>
        <time>2012-06-10T07:07:09Z</time>
      </trkpt>
      <trkpt lat="42.70877" lon="1.56099">
        <ele>1506.0424804688</ele>
        <time>2012-06-10T07:07:15Z</time>
      </trkpt>
      <trkpt lat="42.70873" lon="1.56099">
        <ele>1505.5620117188</ele>
        <time>2012-06-10T07:07:29Z</time>
      </trkpt>
      <trkpt lat="42.70868" lon="1.56103">
        <ele>1505.5620117188</ele>
        <time>2012-06-10T07:07:36Z</time>
      </trkpt>
      <trkpt lat="42.70861" lon="1.56107">
        <ele>1505.0812988281</ele>
        <time>2012-06-10T07:07:43Z</time>
      </trkpt>
      <trkpt lat="42.7086" lon="1.56108">
        <ele>1505.5620117188</ele>
        <time>2012-06-10T07:07:44Z</time>
      </trkpt>
      <trkpt lat="42.70854" lon="1.56116">
        <ele>1506.0424804688</ele>
        <time>2012-06-10T07:07:52Z</time>
      </trkpt>
      <trkpt lat="42.7085" lon="1.56123">
        <ele>1507.4846191406</ele>
        <time>2012-06-10T07:07:58Z</time>
      </trkpt>
      <trkpt lat="42.70844" lon="1.56133">
        <ele>1507.9653320312</ele>
        <time>2012-06-10T07:08:05Z</time>
      </trkpt>
      <trkpt lat="42.70843" lon="1.56134">
        <ele>1507.9653320312</ele>
        <time>2012-06-10T07:08:06Z</time>
      </trkpt>
      <trkpt lat="42.70836" lon="1.56143">
        <ele>1508.4458007812</ele>
        <time>2012-06-10T07:08:14Z</time>
      </trkpt>
      <trkpt lat="42.7083" lon="1.56149">
        <ele>1508.4458007812</ele>
        <time>2012-06-10T07:08:20Z</time>
      </trkpt>
      <trkpt lat="42.7082" lon="1.56149">
        <ele>1508.9265136719</ele>
        <time>2012-06-10T07:08:28Z</time>
      </trkpt>
      <trkpt lat="42.70813" lon="1.56148">
        <ele>1509.8876953125</ele>
        <time>2012-06-10T07:08:35Z</time>
      </trkpt>
      <trkpt lat="42.70807" lon="1.56153">
        <ele>1510.3684082031</ele>
        <time>2012-06-10T07:08:42Z</time>
      </trkpt>
      <trkpt lat="42.70803" lon="1.56158">
        <ele>1511.810546875</ele>
        <time>2012-06-10T07:08:46Z</time>
      </trkpt>
      <trkpt lat="42.70799" lon="1.56161">
        <ele>1512.291015625</ele>
        <time>2012-06-10T07:08:50Z</time>
      </trkpt>
      <trkpt lat="42.70789" lon="1.56159">
        <ele>1513.2524414062</ele>
        <time>2012-06-10T07:08:59Z</time>
      </trkpt>
      <trkpt lat="42.70784" lon="1.56161">
        <ele>1514.2136230469</ele>
        <time>2012-06-10T07:09:03Z</time>
      </trkpt>
      <trkpt lat="42.70777" lon="1.56161">
        <ele>1515.6557617188</ele>
        <time>2012-06-10T07:09:10Z</time>
      </trkpt>
      <trkpt lat="42.70774" lon="1.56161">
        <ele>1516.1364746094</ele>
        <time>2012-06-10T07:09:13Z</time>
      </trkpt>
      <trkpt lat="42.70769" lon="1.56163">
        <ele>1517.0979003906</ele>
        <time>2012-06-10T07:09:20Z</time>
      </trkpt>
      <trkpt lat="42.70762" lon="1.56164">
        <ele>1517.5783691406</ele>
        <time>2012-06-10T07:09:27Z</time>
      </trkpt>
      <trkpt lat="42.70756" lon="1.56165">
        <ele>1518.0590820312</ele>
        <time>2012-06-10T07:09:34Z</time>
      </trkpt>
      <trkpt lat="42.7075" lon="1.56166">
        <ele>1519.0205078125</ele>
        <time>2012-06-10T07:09:40Z</time>
      </trkpt>
      <trkpt lat="42.70742" lon="1.56169">
        <ele>1520.4624023438</ele>
        <time>2012-06-10T07:09:47Z</time>
      </trkpt>
      <trkpt lat="42.70734" lon="1.56172">
        <ele>1522.3850097656</ele>
        <time>2012-06-10T07:09:53Z</time>
      </trkpt>
      <trkpt lat="42.70725" lon="1.56175">
        <ele>1522.8657226562</ele>
        <time>2012-06-10T07:10:01Z</time>
      </trkpt>
      <trkpt lat="42.70723" lon="1.56176">
        <ele>1522.8657226562</ele>
        <time>2012-06-10T07:10:05Z</time>
      </trkpt>
      <trkpt lat="42.70718" lon="1.56183">
        <ele>1523.8269042969</ele>
        <time>2012-06-10T07:10:11Z</time>
      </trkpt>
      <trkpt lat="42.70716" lon="1.56187">
        <ele>1524.7883300781</ele>
        <time>2012-06-10T07:10:15Z</time>
      </trkpt>
      <trkpt lat="42.70713" lon="1.56197">
        <ele>1526.7109375</ele>
        <time>2012-06-10T07:10:22Z</time>
      </trkpt>
      <trkpt lat="42.70709" lon="1.56206">
        <ele>1527.6721191406</ele>
        <time>2012-06-10T07:10:29Z</time>
      </trkpt>
      <trkpt lat="42.70706" lon="1.56214">
        <ele>1529.1140136719</ele>
        <time>2012-06-10T07:10:36Z</time>
      </trkpt>
      <trkpt lat="42.70703" lon="1.56221">
        <ele>1530.5561523438</ele>
        <time>2012-06-10T07:10:42Z</time>
      </trkpt>
      <trkpt lat="42.70701" lon="1.56226">
        <ele>1531.5173339844</ele>
        <time>2012-06-10T07:10:47Z</time>
      </trkpt>
      <trkpt lat="42.70699" lon="1.56231">
        <ele>1531.998046875</ele>
        <time>2012-06-10T07:10:51Z</time>
      </trkpt>
      <trkpt lat="42.70694" lon="1.56237">
        <ele>1532.9594726562</ele>
        <time>2012-06-10T07:10:57Z</time>
      </trkpt>
      <trkpt lat="42.70691" lon="1.56244">
        <ele>1533.9208984375</ele>
        <time>2012-06-10T07:11:03Z</time>
      </trkpt>
      <trkpt lat="42.70689" lon="1.56249">
        <ele>1534.4016113281</ele>
        <time>2012-06-10T07:11:08Z</time>
      </trkpt>
      <trkpt lat="42.70688" lon="1.56254">
        <ele>1535.3627929688</ele>
        <time>2012-06-10T07:11:13Z</time>
      </trkpt>
      <trkpt lat="42.70685" lon="1.56257">
        <ele>1536.8046875</ele>
        <time>2012-06-10T07:11:18Z</time>
      </trkpt>
      <trkpt lat="42.70681" lon="1.56262">
        <ele>1538.7275390625</ele>
        <time>2012-06-10T07:11:24Z</time>
      </trkpt>
      <trkpt lat="42.70678" lon="1.56266">
        <ele>1540.6499023438</ele>
        <time>2012-06-10T07:11:28Z</time>
      </trkpt>
      <trkpt lat="42.70675" lon="1.56267">
        <ele>1541.1306152344</ele>
        <time>2012-06-10T07:11:32Z</time>
      </trkpt>
      <trkpt lat="42.70672" lon="1.56269">
        <ele>1541.611328125</ele>
        <time>2012-06-10T07:11:38Z</time>
      </trkpt>
      <trkpt lat="42.70671" lon="1.56271">
        <ele>1541.611328125</ele>
        <time>2012-06-10T07:11:43Z</time>
      </trkpt>
      <trkpt lat="42.7067" lon="1.56279">
        <ele>1541.611328125</ele>
        <time>2012-06-10T07:11:50Z</time>
      </trkpt>
      <trkpt lat="42.70667" lon="1.56285">
        <ele>1541.611328125</ele>
        <time>2012-06-10T07:11:55Z</time>
      </trkpt>
      <trkpt lat="42.70663" lon="1.56295">
        <ele>1542.5727539062</ele>
        <time>2012-06-10T07:12:02Z</time>
      </trkpt>
      <trkpt lat="42.7066" lon="1.56299">
        <ele>1542.5727539062</ele>
        <time>2012-06-10T07:12:09Z</time>
      </trkpt>
      <trkpt lat="42.70657" lon="1.56302">
        <ele>1542.0920410156</ele>
        <time>2012-06-10T07:12:14Z</time>
      </trkpt>
      <trkpt lat="42.70652" lon="1.56307">
        <ele>1542.5727539062</ele>
        <time>2012-06-10T07:12:20Z</time>
      </trkpt>
      <trkpt lat="42.70648" lon="1.5631">
        <ele>1542.5727539062</ele>
        <time>2012-06-10T07:12:25Z</time>
      </trkpt>
      <trkpt lat="42.70644" lon="1.56315">
        <ele>1542.5727539062</ele>
        <time>2012-06-10T07:12:30Z</time>
      </trkpt>
      <trkpt lat="42.70637" lon="1.56324">
        <ele>1542.5727539062</ele>
        <time>2012-06-10T07:12:37Z</time>
      </trkpt>
      <trkpt lat="42.70631" lon="1.56329">
        <ele>1542.5727539062</ele>
        <time>2012-06-10T07:12:43Z</time>
      </trkpt>
      <trkpt lat="42.70625" lon="1.56336">
        <ele>1542.5727539062</ele>
        <time>2012-06-10T07:12:50Z</time>
      </trkpt>
      <trkpt lat="42.70623" lon="1.56339">
        <ele>1542.5727539062</ele>
        <time>2012-06-10T07:12:53Z</time>
      </trkpt>
      <trkpt lat="42.70617" lon="1.56343">
        <ele>1542.5727539062</ele>
        <time>2012-06-10T07:12:59Z</time>
      </trkpt>
      <trkpt lat="42.70609" lon="1.56349">
        <ele>1542.5727539062</ele>
        <time>2012-06-10T07:13:07Z</time>
      </trkpt>
      <trkpt lat="42.70602" lon="1.56354">
        <ele>1542.5727539062</ele>
        <time>2012-06-10T07:13:13Z</time>
      </trkpt>
      <trkpt lat="42.70597" lon="1.56359">
        <ele>1542.0920410156</ele>
        <time>2012-06-10T07:13:19Z</time>
      </trkpt>
      <trkpt lat="42.70592" lon="1.56363">
        <ele>1542.5727539062</ele>
        <time>2012-06-10T07:13:24Z</time>
      </trkpt>
      <trkpt lat="42.70592" lon="1.56364">
        <ele>1543.0532226562</ele>
        <time>2012-06-10T07:13:35Z</time>
      </trkpt>
      <trkpt lat="42.70589" lon="1.56368">
        <ele>1543.0532226562</ele>
        <time>2012-06-10T07:13:43Z</time>
      </trkpt>
      <trkpt lat="42.70587" lon="1.56372">
        <ele>1543.0532226562</ele>
        <time>2012-06-10T07:13:48Z</time>
      </trkpt>
      <trkpt lat="42.70582" lon="1.56378">
        <ele>1543.0532226562</ele>
        <time>2012-06-10T07:13:54Z</time>
      </trkpt>
      <trkpt lat="42.70579" lon="1.56383">
        <ele>1543.0532226562</ele>
        <time>2012-06-10T07:13:59Z</time>
      </trkpt>
      <trkpt lat="42.70576" lon="1.56386">
        <ele>1543.5339355469</ele>
        <time>2012-06-10T07:14:03Z</time>
      </trkpt>
      <trkpt lat="42.70572" lon="1.56392">
        <ele>1543.5339355469</ele>
        <time>2012-06-10T07:14:09Z</time>
      </trkpt>
      <trkpt lat="42.70567" lon="1.56397">
        <ele>1543.5339355469</ele>
        <time>2012-06-10T07:14:16Z</time>
      </trkpt>
      <trkpt lat="42.70563" lon="1.56403">
        <ele>1544.0146484375</ele>
        <time>2012-06-10T07:14:20Z</time>
      </trkpt>
      <trkpt lat="42.70559" lon="1.56408">
        <ele>1544.9758300781</ele>
        <time>2012-06-10T07:14:26Z</time>
      </trkpt>
      <trkpt lat="42.70555" lon="1.56413">
        <ele>1545.4565429688</ele>
        <time>2012-06-10T07:14:32Z</time>
      </trkpt>
      <trkpt lat="42.70551" lon="1.5642">
        <ele>1545.9372558594</ele>
        <time>2012-06-10T07:14:39Z</time>
      </trkpt>
      <trkpt lat="42.70547" lon="1.56425">
        <ele>1546.41796875</ele>
        <time>2012-06-10T07:14:44Z</time>
      </trkpt>
      <trkpt lat="42.70544" lon="1.56429">
        <ele>1546.41796875</ele>
        <time>2012-06-10T07:14:49Z</time>
      </trkpt>
      <trkpt lat="42.70541" lon="1.56434">
        <ele>1547.3791503906</ele>
        <time>2012-06-10T07:14:54Z</time>
      </trkpt>
      <trkpt lat="42.70539" lon="1.56439">
        <ele>1547.3791503906</ele>
        <time>2012-06-10T07:14:59Z</time>
      </trkpt>
      <trkpt lat="42.70536" lon="1.56445">
        <ele>1547.3791503906</ele>
        <time>2012-06-10T07:15:05Z</time>
      </trkpt>
      <trkpt lat="42.70533" lon="1.5645">
        <ele>1547.8598632812</ele>
        <time>2012-06-10T07:15:10Z</time>
      </trkpt>
      <trkpt lat="42.7053" lon="1.56459">
        <ele>1549.3020019531</ele>
        <time>2012-06-10T07:15:17Z</time>
      </trkpt>
      <trkpt lat="42.70528" lon="1.56467">
        <ele>1549.7827148438</ele>
        <time>2012-06-10T07:15:23Z</time>
      </trkpt>
      <trkpt lat="42.70527" lon="1.56478">
        <ele>1551.224609375</ele>
        <time>2012-06-10T07:15:32Z</time>
      </trkpt>
      <trkpt lat="42.70525" lon="1.56485">
        <ele>1551.7053222656</ele>
        <time>2012-06-10T07:15:38Z</time>
      </trkpt>
      <trkpt lat="42.70523" lon="1.56491">
        <ele>1552.6665039062</ele>
        <time>2012-06-10T07:15:44Z</time>
      </trkpt>
      <trkpt lat="42.70522" lon="1.565">
        <ele>1554.1086425781</ele>
        <time>2012-06-10T07:15:51Z</time>
      </trkpt>
      <trkpt lat="42.7052" lon="1.56508">
        <ele>1556.51171875</ele>
        <time>2012-06-10T07:15:57Z</time>
      </trkpt>
      <trkpt lat="42.70516" lon="1.56516">
        <ele>1557.9538574219</ele>
        <time>2012-06-10T07:16:04Z</time>
      </trkpt>
      <trkpt lat="42.70514" lon="1.5652">
        <ele>1558.4343261719</ele>
        <time>2012-06-10T07:16:07Z</time>
      </trkpt>
      <trkpt lat="42.7051" lon="1.56529">
        <ele>1559.8762207031</ele>
        <time>2012-06-10T07:16:14Z</time>
      </trkpt>
      <trkpt lat="42.70509" lon="1.56532">
        <ele>1559.8762207031</ele>
        <time>2012-06-10T07:16:16Z</time>
      </trkpt>
      <trkpt lat="42.70504" lon="1.56539">
        <ele>1560.3569335938</ele>
        <time>2012-06-10T07:16:22Z</time>
      </trkpt>
      <trkpt lat="42.70501" lon="1.56543">
        <ele>1560.3569335938</ele>
        <time>2012-06-10T07:16:26Z</time>
      </trkpt>
      <trkpt lat="42.70494" lon="1.56549">
        <ele>1560.8376464844</ele>
        <time>2012-06-10T07:16:32Z</time>
      </trkpt>
      <trkpt lat="42.70486" lon="1.56556">
        <ele>1560.3569335938</ele>
        <time>2012-06-10T07:16:39Z</time>
      </trkpt>
      <trkpt lat="42.7048" lon="1.56561">
        <ele>1560.3569335938</ele>
        <time>2012-06-10T07:16:44Z</time>
      </trkpt>
      <trkpt lat="42.70476" lon="1.56568">
        <ele>1560.8376464844</ele>
        <time>2012-06-10T07:16:50Z</time>
      </trkpt>
      <trkpt lat="42.70473" lon="1.56577">
        <ele>1561.318359375</ele>
        <time>2012-06-10T07:16:57Z</time>
      </trkpt>
      <trkpt lat="42.7047" lon="1.56585">
        <ele>1561.7990722656</ele>
        <time>2012-06-10T07:17:02Z</time>
      </trkpt>
      <trkpt lat="42.70468" lon="1.5659">
        <ele>1561.7990722656</ele>
        <time>2012-06-10T07:17:05Z</time>
      </trkpt>
      <trkpt lat="42.70464" lon="1.56601">
        <ele>1561.7990722656</ele>
        <time>2012-06-10T07:17:13Z</time>
      </trkpt>
      <trkpt lat="42.70461" lon="1.56608">
        <ele>1560.8376464844</ele>
        <time>2012-06-10T07:17:19Z</time>
      </trkpt>
      <trkpt lat="42.70457" lon="1.56616">
        <ele>1560.8376464844</ele>
        <time>2012-06-10T07:17:26Z</time>
      </trkpt>
      <trkpt lat="42.70455" lon="1.56619">
        <ele>1561.318359375</ele>
        <time>2012-06-10T07:17:28Z</time>
      </trkpt>
      <trkpt lat="42.70454" lon="1.56622">
        <ele>1561.318359375</ele>
        <time>2012-06-10T07:17:31Z</time>
      </trkpt>
      <trkpt lat="42.70447" lon="1.56633">
        <ele>1561.7990722656</ele>
        <time>2012-06-10T07:17:39Z</time>
      </trkpt>
      <trkpt lat="42.70441" lon="1.56642">
        <ele>1562.2795410156</ele>
        <time>2012-06-10T07:17:46Z</time>
      </trkpt>
      <trkpt lat="42.70437" lon="1.56648">
        <ele>1562.7602539062</ele>
        <time>2012-06-10T07:17:51Z</time>
      </trkpt>
      <trkpt lat="42.70436" lon="1.56649">
        <ele>1562.7602539062</ele>
        <time>2012-06-10T07:17:52Z</time>
      </trkpt>
      <trkpt lat="42.70431" lon="1.56655">
        <ele>1563.2409667969</ele>
        <time>2012-06-10T07:17:58Z</time>
      </trkpt>
      <trkpt lat="42.7043" lon="1.56656">
        <ele>1563.2409667969</ele>
        <time>2012-06-10T07:17:59Z</time>
      </trkpt>
      <trkpt lat="42.70425" lon="1.5666">
        <ele>1564.2023925781</ele>
        <time>2012-06-10T07:18:05Z</time>
      </trkpt>
      <trkpt lat="42.7042" lon="1.56667">
        <ele>1564.2023925781</ele>
        <time>2012-06-10T07:18:11Z</time>
      </trkpt>
      <trkpt lat="42.70412" lon="1.56676">
        <ele>1564.6831054688</ele>
        <time>2012-06-10T07:18:19Z</time>
      </trkpt>
      <trkpt lat="42.70407" lon="1.56684">
        <ele>1565.64453125</ele>
        <time>2012-06-10T07:18:26Z</time>
      </trkpt>
      <trkpt lat="42.70402" lon="1.56693">
        <ele>1566.125</ele>
        <time>2012-06-10T07:18:33Z</time>
      </trkpt>
      <trkpt lat="42.70399" lon="1.56703">
        <ele>1567.0864257812</ele>
        <time>2012-06-10T07:18:40Z</time>
      </trkpt>
      <trkpt lat="42.70396" lon="1.56711">
        <ele>1567.5668945312</ele>
        <time>2012-06-10T07:18:47Z</time>
      </trkpt>
      <trkpt lat="42.70391" lon="1.56718">
        <ele>1568.5283203125</ele>
        <time>2012-06-10T07:18:53Z</time>
      </trkpt>
      <trkpt lat="42.70388" lon="1.56725">
        <ele>1569.9702148438</ele>
        <time>2012-06-10T07:19:00Z</time>
      </trkpt>
      <trkpt lat="42.70386" lon="1.5673">
        <ele>1571.8928222656</ele>
        <time>2012-06-10T07:19:06Z</time>
      </trkpt>
      <trkpt lat="42.70383" lon="1.56737">
        <ele>1571.8928222656</ele>
        <time>2012-06-10T07:19:12Z</time>
      </trkpt>
      <trkpt lat="42.70382" lon="1.56744">
        <ele>1573.3349609375</ele>
        <time>2012-06-10T07:19:19Z</time>
      </trkpt>
      <trkpt lat="42.70384" lon="1.5675">
        <ele>1574.2961425781</ele>
        <time>2012-06-10T07:19:25Z</time>
      </trkpt>
      <trkpt lat="42.70386" lon="1.56758">
        <ele>1578.1413574219</ele>
        <time>2012-06-10T07:19:32Z</time>
      </trkpt>
      <trkpt lat="42.70387" lon="1.56766">
        <ele>1580.0642089844</ele>
        <time>2012-06-10T07:19:40Z</time>
      </trkpt>
      <trkpt lat="42.70387" lon="1.56769">
        <ele>1581.9868164062</ele>
        <time>2012-06-10T07:19:45Z</time>
      </trkpt>
      <trkpt lat="42.70385" lon="1.56773">
        <ele>1581.0256347656</ele>
        <time>2012-06-10T07:19:50Z</time>
      </trkpt>
      <trkpt lat="42.70383" lon="1.56778">
        <ele>1580.544921875</ele>
        <time>2012-06-10T07:19:56Z</time>
      </trkpt>
      <trkpt lat="42.70382" lon="1.56782">
        <ele>1581.5061035156</ele>
        <time>2012-06-10T07:20:02Z</time>
      </trkpt>
      <trkpt lat="42.7038" lon="1.56785">
        <ele>1581.9868164062</ele>
        <time>2012-06-10T07:20:06Z</time>
      </trkpt>
      <trkpt lat="42.70378" lon="1.56789">
        <ele>1582.4675292969</ele>
        <time>2012-06-10T07:20:11Z</time>
      </trkpt>
      <trkpt lat="42.70375" lon="1.56792">
        <ele>1583.9094238281</ele>
        <time>2012-06-10T07:20:17Z</time>
      </trkpt>
      <trkpt lat="42.70368" lon="1.568">
        <ele>1584.8708496094</ele>
        <time>2012-06-10T07:20:26Z</time>
      </trkpt>
      <trkpt lat="42.70363" lon="1.56807">
        <ele>1584.8708496094</ele>
        <time>2012-06-10T07:20:33Z</time>
      </trkpt>
      <trkpt lat="42.7036" lon="1.56811">
        <ele>1584.3901367188</ele>
        <time>2012-06-10T07:20:38Z</time>
      </trkpt>
      <trkpt lat="42.70358" lon="1.56819">
        <ele>1583.9094238281</ele>
        <time>2012-06-10T07:20:44Z</time>
      </trkpt>
      <trkpt lat="42.70356" lon="1.56825">
        <ele>1583.9094238281</ele>
        <time>2012-06-10T07:20:50Z</time>
      </trkpt>
      <trkpt lat="42.70355" lon="1.56833">
        <ele>1581.9868164062</ele>
        <time>2012-06-10T07:20:57Z</time>
      </trkpt>
      <trkpt lat="42.70356" lon="1.56842">
        <ele>1582.4675292969</ele>
        <time>2012-06-10T07:21:03Z</time>
      </trkpt>
      <trkpt lat="42.70356" lon="1.56852">
        <ele>1581.5061035156</ele>
        <time>2012-06-10T07:21:09Z</time>
      </trkpt>
      <trkpt lat="42.70356" lon="1.56861">
        <ele>1581.9868164062</ele>
        <time>2012-06-10T07:21:15Z</time>
      </trkpt>
      <trkpt lat="42.70355" lon="1.56871">
        <ele>1581.9868164062</ele>
        <time>2012-06-10T07:21:22Z</time>
      </trkpt>
      <trkpt lat="42.70353" lon="1.56881">
        <ele>1584.8708496094</ele>
        <time>2012-06-10T07:21:30Z</time>
      </trkpt>
      <trkpt lat="42.70353" lon="1.56886">
        <ele>1583.9094238281</ele>
        <time>2012-06-10T07:21:34Z</time>
      </trkpt>
      <trkpt lat="42.70351" lon="1.56895">
        <ele>1583.9094238281</ele>
        <time>2012-06-10T07:21:40Z</time>
      </trkpt>
      <trkpt lat="42.7035" lon="1.56897">
        <ele>1583.9094238281</ele>
        <time>2012-06-10T07:21:42Z</time>
      </trkpt>
      <trkpt lat="42.70347" lon="1.56906">
        <ele>1582.9479980469</ele>
        <time>2012-06-10T07:21:49Z</time>
      </trkpt>
      <trkpt lat="42.70344" lon="1.56916">
        <ele>1582.9479980469</ele>
        <time>2012-06-10T07:21:56Z</time>
      </trkpt>
      <trkpt lat="42.70338" lon="1.56926">
        <ele>1584.3901367188</ele>
        <time>2012-06-10T07:22:04Z</time>
      </trkpt>
      <trkpt lat="42.70337" lon="1.56939">
        <ele>1583.4287109375</ele>
        <time>2012-06-10T07:22:11Z</time>
      </trkpt>
      <trkpt lat="42.70335" lon="1.5695">
        <ele>1582.9479980469</ele>
        <time>2012-06-10T07:22:17Z</time>
      </trkpt>
      <trkpt lat="42.70332" lon="1.56956">
        <ele>1582.4675292969</ele>
        <time>2012-06-10T07:22:21Z</time>
      </trkpt>
      <trkpt lat="42.70325" lon="1.56959">
        <ele>1580.544921875</ele>
        <time>2012-06-10T07:22:26Z</time>
      </trkpt>
      <trkpt lat="42.70323" lon="1.5696">
        <ele>1580.544921875</ele>
        <time>2012-06-10T07:22:27Z</time>
      </trkpt>
      <trkpt lat="42.7032" lon="1.56961">
        <ele>1581.5061035156</ele>
        <time>2012-06-10T07:22:30Z</time>
      </trkpt>
      <trkpt lat="42.70316" lon="1.56968">
        <ele>1582.4675292969</ele>
        <time>2012-06-10T07:22:36Z</time>
      </trkpt>
      <trkpt lat="42.70311" lon="1.56979">
        <ele>1583.4287109375</ele>
        <time>2012-06-10T07:22:45Z</time>
      </trkpt>
      <trkpt lat="42.70306" lon="1.56985">
        <ele>1583.9094238281</ele>
        <time>2012-06-10T07:22:51Z</time>
      </trkpt>
      <trkpt lat="42.70301" lon="1.56994">
        <ele>1584.3901367188</ele>
        <time>2012-06-10T07:22:59Z</time>
      </trkpt>
      <trkpt lat="42.70299" lon="1.56997">
        <ele>1584.8708496094</ele>
        <time>2012-06-10T07:23:05Z</time>
      </trkpt>
      <trkpt lat="42.70297" lon="1.57005">
        <ele>1585.3513183594</ele>
        <time>2012-06-10T07:23:12Z</time>
      </trkpt>
      <trkpt lat="42.70297" lon="1.57007">
        <ele>1585.83203125</ele>
        <time>2012-06-10T07:23:18Z</time>
      </trkpt>
      <trkpt lat="42.70293" lon="1.57013">
        <ele>1585.3513183594</ele>
        <time>2012-06-10T07:23:30Z</time>
      </trkpt>
      <trkpt lat="42.70285" lon="1.57023">
        <ele>1585.3513183594</ele>
        <time>2012-06-10T07:23:35Z</time>
      </trkpt>
      <trkpt lat="42.7028" lon="1.57036">
        <ele>1585.83203125</ele>
        <time>2012-06-10T07:23:40Z</time>
      </trkpt>
      <trkpt lat="42.70279" lon="1.57052">
        <ele>1585.83203125</ele>
        <time>2012-06-10T07:23:46Z</time>
      </trkpt>
      <trkpt lat="42.70276" lon="1.57067">
        <ele>1585.3513183594</ele>
        <time>2012-06-10T07:23:51Z</time>
      </trkpt>
      <trkpt lat="42.70275" lon="1.57081">
        <ele>1586.3127441406</ele>
        <time>2012-06-10T07:23:56Z</time>
      </trkpt>
      <trkpt lat="42.70274" lon="1.57084">
        <ele>1585.83203125</ele>
        <time>2012-06-10T07:23:57Z</time>
      </trkpt>
      <trkpt lat="42.70273" lon="1.57099">
        <ele>1584.8708496094</ele>
        <time>2012-06-10T07:24:02Z</time>
      </trkpt>
      <trkpt lat="42.70272" lon="1.57112">
        <ele>1584.3901367188</ele>
        <time>2012-06-10T07:24:07Z</time>
      </trkpt>
      <trkpt lat="42.70274" lon="1.57125">
        <ele>1583.4287109375</ele>
        <time>2012-06-10T07:24:15Z</time>
      </trkpt>
      <trkpt lat="42.70274" lon="1.57135">
        <ele>1583.9094238281</ele>
        <time>2012-06-10T07:24:21Z</time>
      </trkpt>
      <trkpt lat="42.70271" lon="1.57146">
        <ele>1585.83203125</ele>
        <time>2012-06-10T07:24:28Z</time>
      </trkpt>
      <trkpt lat="42.7027" lon="1.57157">
        <ele>1586.3127441406</ele>
        <time>2012-06-10T07:24:36Z</time>
      </trkpt>
      <trkpt lat="42.70269" lon="1.57164">
        <ele>1585.3513183594</ele>
        <time>2012-06-10T07:24:41Z</time>
      </trkpt>
      <trkpt lat="42.70266" lon="1.57174">
        <ele>1585.3513183594</ele>
        <time>2012-06-10T07:24:47Z</time>
      </trkpt>
      <trkpt lat="42.70262" lon="1.57183">
        <ele>1585.3513183594</ele>
        <time>2012-06-10T07:24:53Z</time>
      </trkpt>
      <trkpt lat="42.70258" lon="1.57195">
        <ele>1583.4287109375</ele>
        <time>2012-06-10T07:25:02Z</time>
      </trkpt>
      <trkpt lat="42.70253" lon="1.57204">
        <ele>1581.9868164062</ele>
        <time>2012-06-10T07:25:09Z</time>
      </trkpt>
      <trkpt lat="42.70248" lon="1.5721">
        <ele>1581.5061035156</ele>
        <time>2012-06-10T07:25:14Z</time>
      </trkpt>
      <trkpt lat="42.70246" lon="1.57212">
        <ele>1580.544921875</ele>
        <time>2012-06-10T07:25:16Z</time>
      </trkpt>
      <trkpt lat="42.70244" lon="1.57213">
        <ele>1580.544921875</ele>
        <time>2012-06-10T07:25:18Z</time>
      </trkpt>
      <trkpt lat="42.7024" lon="1.57216">
        <ele>1580.0642089844</ele>
        <time>2012-06-10T07:25:23Z</time>
      </trkpt>
      <trkpt lat="42.70233" lon="1.57224">
        <ele>1579.5832519531</ele>
        <time>2012-06-10T07:25:30Z</time>
      </trkpt>
      <trkpt lat="42.70232" lon="1.57225">
        <ele>1579.5832519531</ele>
        <time>2012-06-10T07:25:31Z</time>
      </trkpt>
      <trkpt lat="42.70228" lon="1.57227">
        <ele>1581.0256347656</ele>
        <time>2012-06-10T07:25:35Z</time>
      </trkpt>
      <trkpt lat="42.70225" lon="1.57228">
        <ele>1581.0256347656</ele>
        <time>2012-06-10T07:25:37Z</time>
      </trkpt>
      <trkpt lat="42.70217" lon="1.57228">
        <ele>1581.9868164062</ele>
        <time>2012-06-10T07:25:45Z</time>
      </trkpt>
      <trkpt lat="42.70215" lon="1.57228">
        <ele>1582.4675292969</ele>
        <time>2012-06-10T07:25:47Z</time>
      </trkpt>
      <trkpt lat="42.70212" lon="1.57229">
        <ele>1582.9479980469</ele>
        <time>2012-06-10T07:25:55Z</time>
      </trkpt>
      <trkpt lat="42.7021" lon="1.57231">
        <ele>1584.3901367188</ele>
        <time>2012-06-10T07:25:57Z</time>
      </trkpt>
      <trkpt lat="42.70208" lon="1.57237">
        <ele>1584.8708496094</ele>
        <time>2012-06-10T07:26:01Z</time>
      </trkpt>
      <trkpt lat="42.70202" lon="1.57246">
        <ele>1584.8708496094</ele>
        <time>2012-06-10T07:26:08Z</time>
      </trkpt>
      <trkpt lat="42.702" lon="1.5725">
        <ele>1584.8708496094</ele>
        <time>2012-06-10T07:26:11Z</time>
      </trkpt>
      <trkpt lat="42.70195" lon="1.57255">
        <ele>1584.8708496094</ele>
        <time>2012-06-10T07:26:17Z</time>
      </trkpt>
      <trkpt lat="42.70193" lon="1.5726">
        <ele>1584.8708496094</ele>
        <time>2012-06-10T07:26:21Z</time>
      </trkpt>
      <trkpt lat="42.70184" lon="1.57268">
        <ele>1585.3513183594</ele>
        <time>2012-06-10T07:26:29Z</time>
      </trkpt>
      <trkpt lat="42.70183" lon="1.57269">
        <ele>1585.3513183594</ele>
        <time>2012-06-10T07:26:31Z</time>
      </trkpt>
      <trkpt lat="42.70178" lon="1.57277">
        <ele>1585.83203125</ele>
        <time>2012-06-10T07:26:37Z</time>
      </trkpt>
      <trkpt lat="42.70178" lon="1.57278">
        <ele>1585.83203125</ele>
        <time>2012-06-10T07:26:38Z</time>
      </trkpt>
      <trkpt lat="42.70177" lon="1.57282">
        <ele>1585.83203125</ele>
        <time>2012-06-10T07:26:41Z</time>
      </trkpt>
      <trkpt lat="42.70175" lon="1.5729">
        <ele>1587.2739257812</ele>
        <time>2012-06-10T07:26:46Z</time>
      </trkpt>
      <trkpt lat="42.7017" lon="1.573">
        <ele>1587.7546386719</ele>
        <time>2012-06-10T07:26:52Z</time>
      </trkpt>
      <trkpt lat="42.70167" lon="1.57304">
        <ele>1587.7546386719</ele>
        <time>2012-06-10T07:26:55Z</time>
      </trkpt>
      <trkpt lat="42.7016" lon="1.57309">
        <ele>1587.7546386719</ele>
        <time>2012-06-10T07:27:01Z</time>
      </trkpt>
      <trkpt lat="42.70158" lon="1.57313">
        <ele>1587.2739257812</ele>
        <time>2012-06-10T07:27:04Z</time>
      </trkpt>
      <trkpt lat="42.70155" lon="1.57321">
        <ele>1586.7932128906</ele>
        <time>2012-06-10T07:27:09Z</time>
      </trkpt>
      <trkpt lat="42.70148" lon="1.57325">
        <ele>1586.3127441406</ele>
        <time>2012-06-10T07:27:16Z</time>
      </trkpt>
      <trkpt lat="42.70139" lon="1.57332">
        <ele>1584.3901367188</ele>
        <time>2012-06-10T07:27:21Z</time>
      </trkpt>
      <trkpt lat="42.70132" lon="1.57337">
        <ele>1583.4287109375</ele>
        <time>2012-06-10T07:27:26Z</time>
      </trkpt>
      <trkpt lat="42.70129" lon="1.57339">
        <ele>1583.4287109375</ele>
        <time>2012-06-10T07:27:31Z</time>
      </trkpt>
      <trkpt lat="42.70124" lon="1.57343">
        <ele>1582.9479980469</ele>
        <time>2012-06-10T07:27:36Z</time>
      </trkpt>
      <trkpt lat="42.70121" lon="1.57344">
        <ele>1583.4287109375</ele>
        <time>2012-06-10T07:27:38Z</time>
      </trkpt>
      <trkpt lat="42.70113" lon="1.57344">
        <ele>1585.3513183594</ele>
        <time>2012-06-10T07:27:44Z</time>
      </trkpt>
      <trkpt lat="42.70104" lon="1.57348">
        <ele>1585.3513183594</ele>
        <time>2012-06-10T07:27:49Z</time>
      </trkpt>
      <trkpt lat="42.701" lon="1.57348">
        <ele>1585.83203125</ele>
        <time>2012-06-10T07:27:51Z</time>
      </trkpt>
      <trkpt lat="42.70094" lon="1.57348">
        <ele>1586.3127441406</ele>
        <time>2012-06-10T07:27:55Z</time>
      </trkpt>
      <trkpt lat="42.70087" lon="1.57355">
        <ele>1587.2739257812</ele>
        <time>2012-06-10T07:27:59Z</time>
      </trkpt>
      <trkpt lat="42.70085" lon="1.57358">
        <ele>1587.7546386719</ele>
        <time>2012-06-10T07:28:01Z</time>
      </trkpt>
      <trkpt lat="42.70078" lon="1.57361">
        <ele>1589.1965332031</ele>
        <time>2012-06-10T07:28:07Z</time>
      </trkpt>
      <trkpt lat="42.70072" lon="1.57362">
        <ele>1590.6384277344</ele>
        <time>2012-06-10T07:28:11Z</time>
      </trkpt>
      <trkpt lat="42.70066" lon="1.5737">
        <ele>1590.1579589844</ele>
        <time>2012-06-10T07:28:16Z</time>
      </trkpt>
      <trkpt lat="42.70061" lon="1.57379">
        <ele>1590.6384277344</ele>
        <time>2012-06-10T07:28:24Z</time>
      </trkpt>
      <trkpt lat="42.70058" lon="1.57383">
        <ele>1591.5998535156</ele>
        <time>2012-06-10T07:28:31Z</time>
      </trkpt>
      <trkpt lat="42.70053" lon="1.57383">
        <ele>1592.0805664062</ele>
        <time>2012-06-10T07:28:36Z</time>
      </trkpt>
      <trkpt lat="42.7005" lon="1.57382">
        <ele>1592.5612792969</ele>
        <time>2012-06-10T07:28:39Z</time>
      </trkpt>
      <trkpt lat="42.70042" lon="1.57382">
        <ele>1593.0417480469</ele>
        <time>2012-06-10T07:28:46Z</time>
      </trkpt>
      <trkpt lat="42.70039" lon="1.57384">
        <ele>1593.0417480469</ele>
        <time>2012-06-10T07:28:48Z</time>
      </trkpt>
      <trkpt lat="42.70035" lon="1.57383">
        <ele>1593.0417480469</ele>
        <time>2012-06-10T07:28:54Z</time>
      </trkpt>
      <trkpt lat="42.70033" lon="1.57385">
        <ele>1592.5612792969</ele>
        <time>2012-06-10T07:29:00Z</time>
      </trkpt>
      <trkpt lat="42.70029" lon="1.57388">
        <ele>1593.0417480469</ele>
        <time>2012-06-10T07:29:05Z</time>
      </trkpt>
      <trkpt lat="42.70025" lon="1.5739">
        <ele>1593.5224609375</ele>
        <time>2012-06-10T07:29:09Z</time>
      </trkpt>
      <trkpt lat="42.70022" lon="1.57391">
        <ele>1593.5224609375</ele>
        <time>2012-06-10T07:29:12Z</time>
      </trkpt>
      <trkpt lat="42.70012" lon="1.57398">
        <ele>1594.9643554688</ele>
        <time>2012-06-10T07:29:19Z</time>
      </trkpt>
      <trkpt lat="42.70006" lon="1.57401">
        <ele>1594.0031738281</ele>
        <time>2012-06-10T07:29:25Z</time>
      </trkpt>
      <trkpt lat="42.70005" lon="1.57401">
        <ele>1594.0031738281</ele>
        <time>2012-06-10T07:29:26Z</time>
      </trkpt>
      <trkpt lat="42.7" lon="1.57403">
        <ele>1594.4836425781</ele>
        <time>2012-06-10T07:29:31Z</time>
      </trkpt>
      <trkpt lat="42.69994" lon="1.57405">
        <ele>1594.0031738281</ele>
        <time>2012-06-10T07:29:36Z</time>
      </trkpt>
      <trkpt lat="42.69987" lon="1.57407">
        <ele>1594.4836425781</ele>
        <time>2012-06-10T07:29:42Z</time>
      </trkpt>
      <trkpt lat="42.69981" lon="1.57409">
        <ele>1595.4450683594</ele>
        <time>2012-06-10T07:29:47Z</time>
      </trkpt>
      <trkpt lat="42.69971" lon="1.57414">
        <ele>1595.4450683594</ele>
        <time>2012-06-10T07:29:54Z</time>
      </trkpt>
      <trkpt lat="42.69963" lon="1.57418">
        <ele>1595.4450683594</ele>
        <time>2012-06-10T07:30:01Z</time>
      </trkpt>
      <trkpt lat="42.69955" lon="1.57421">
        <ele>1595.4450683594</ele>
        <time>2012-06-10T07:30:09Z</time>
      </trkpt>
      <trkpt lat="42.69954" lon="1.57421">
        <ele>1595.4450683594</ele>
        <time>2012-06-10T07:30:10Z</time>
      </trkpt>
      <trkpt lat="42.69949" lon="1.57425">
        <ele>1594.9643554688</ele>
        <time>2012-06-10T07:30:16Z</time>
      </trkpt>
      <trkpt lat="42.69947" lon="1.57425">
        <ele>1594.9643554688</ele>
        <time>2012-06-10T07:30:18Z</time>
      </trkpt>
      <trkpt lat="42.69938" lon="1.57426">
        <ele>1594.0031738281</ele>
        <time>2012-06-10T07:30:25Z</time>
      </trkpt>
      <trkpt lat="42.69934" lon="1.57426">
        <ele>1593.0417480469</ele>
        <time>2012-06-10T07:30:28Z</time>
      </trkpt>
      <trkpt lat="42.6992" lon="1.57427">
        <ele>1592.5612792969</ele>
        <time>2012-06-10T07:30:35Z</time>
      </trkpt>
      <trkpt lat="42.69914" lon="1.5743">
        <ele>1593.0417480469</ele>
        <time>2012-06-10T07:30:39Z</time>
      </trkpt>
      <trkpt lat="42.69906" lon="1.57431">
        <ele>1592.5612792969</ele>
        <time>2012-06-10T07:30:45Z</time>
      </trkpt>
      <trkpt lat="42.69901" lon="1.57433">
        <ele>1592.5612792969</ele>
        <time>2012-06-10T07:30:50Z</time>
      </trkpt>
      <trkpt lat="42.69894" lon="1.57432">
        <ele>1592.5612792969</ele>
        <time>2012-06-10T07:30:56Z</time>
      </trkpt>
      <trkpt lat="42.69891" lon="1.57434">
        <ele>1592.0805664062</ele>
        <time>2012-06-10T07:30:59Z</time>
      </trkpt>
      <trkpt lat="42.69888" lon="1.57437">
        <ele>1592.0805664062</ele>
        <time>2012-06-10T07:31:02Z</time>
      </trkpt>
      <trkpt lat="42.6988" lon="1.57442">
        <ele>1591.5998535156</ele>
        <time>2012-06-10T07:31:10Z</time>
      </trkpt>
      <trkpt lat="42.69879" lon="1.57443">
        <ele>1591.5998535156</ele>
        <time>2012-06-10T07:31:11Z</time>
      </trkpt>
      <trkpt lat="42.69876" lon="1.57447">
        <ele>1591.5998535156</ele>
        <time>2012-06-10T07:31:15Z</time>
      </trkpt>
      <trkpt lat="42.69872" lon="1.57451">
        <ele>1592.0805664062</ele>
        <time>2012-06-10T07:31:21Z</time>
      </trkpt>
      <trkpt lat="42.69867" lon="1.57452">
        <ele>1592.0805664062</ele>
        <time>2012-06-10T07:31:28Z</time>
      </trkpt>
      <trkpt lat="42.69862" lon="1.57448">
        <ele>1592.0805664062</ele>
        <time>2012-06-10T07:31:34Z</time>
      </trkpt>
      <trkpt lat="42.69862" lon="1.57447">
        <ele>1592.0805664062</ele>
        <time>2012-06-10T07:31:40Z</time>
      </trkpt>
      <trkpt lat="42.69861" lon="1.57456">
        <ele>1592.0805664062</ele>
        <time>2012-06-10T07:31:47Z</time>
      </trkpt>
      <trkpt lat="42.69858" lon="1.57458">
        <ele>1592.0805664062</ele>
        <time>2012-06-10T07:31:50Z</time>
      </trkpt>
      <trkpt lat="42.69851" lon="1.57462">
        <ele>1592.0805664062</ele>
        <time>2012-06-10T07:31:58Z</time>
      </trkpt>
      <trkpt lat="42.69845" lon="1.57462">
        <ele>1592.5612792969</ele>
        <time>2012-06-10T07:32:03Z</time>
      </trkpt>
      <trkpt lat="42.69842" lon="1.57462">
        <ele>1593.0417480469</ele>
        <time>2012-06-10T07:32:12Z</time>
      </trkpt>
      <trkpt lat="42.69842" lon="1.57462">
        <ele>1593.5224609375</ele>
        <time>2012-06-10T07:32:17Z</time>
      </trkpt>
      <trkpt lat="42.69845" lon="1.57466">
        <ele>1593.0417480469</ele>
        <time>2012-06-10T07:32:22Z</time>
      </trkpt>
      <trkpt lat="42.69845" lon="1.57473">
        <ele>1593.5224609375</ele>
        <time>2012-06-10T07:32:28Z</time>
      </trkpt>
      <trkpt lat="42.69843" lon="1.57481">
        <ele>1594.4836425781</ele>
        <time>2012-06-10T07:32:34Z</time>
      </trkpt>
      <trkpt lat="42.69842" lon="1.57485">
        <ele>1594.9643554688</ele>
        <time>2012-06-10T07:32:39Z</time>
      </trkpt>
      <trkpt lat="42.6984" lon="1.5749">
        <ele>1595.4450683594</ele>
        <time>2012-06-10T07:32:44Z</time>
      </trkpt>
      <trkpt lat="42.69836" lon="1.57495">
        <ele>1596.8872070312</ele>
        <time>2012-06-10T07:32:50Z</time>
      </trkpt>
      <trkpt lat="42.69834" lon="1.57496">
        <ele>1596.8872070312</ele>
        <time>2012-06-10T07:32:52Z</time>
      </trkpt>
      <trkpt lat="42.69828" lon="1.57502">
        <ele>1597.3679199219</ele>
        <time>2012-06-10T07:32:58Z</time>
      </trkpt>
      <trkpt lat="42.69821" lon="1.57505">
        <ele>1598.8098144531</ele>
        <time>2012-06-10T07:33:07Z</time>
      </trkpt>
      <trkpt lat="42.69819" lon="1.57503">
        <ele>1598.8098144531</ele>
        <time>2012-06-10T07:33:13Z</time>
      </trkpt>
      <trkpt lat="42.69816" lon="1.575">
        <ele>1598.8098144531</ele>
        <time>2012-06-10T07:33:18Z</time>
      </trkpt>
      <trkpt lat="42.69812" lon="1.57499">
        <ele>1599.2905273438</ele>
        <time>2012-06-10T07:33:24Z</time>
      </trkpt>
      <trkpt lat="42.69809" lon="1.57497">
        <ele>1599.7712402344</ele>
        <time>2012-06-10T07:33:28Z</time>
      </trkpt>
      <trkpt lat="42.69804" lon="1.57499">
        <ele>1601.6938476562</ele>
        <time>2012-06-10T07:33:34Z</time>
      </trkpt>
      <trkpt lat="42.69799" lon="1.57505">
        <ele>1602.6550292969</ele>
        <time>2012-06-10T07:33:40Z</time>
      </trkpt>
      <trkpt lat="42.69793" lon="1.5751">
        <ele>1603.6164550781</ele>
        <time>2012-06-10T07:33:49Z</time>
      </trkpt>
      <trkpt lat="42.69793" lon="1.57512">
        <ele>1604.5776367188</ele>
        <time>2012-06-10T07:33:57Z</time>
      </trkpt>
      <trkpt lat="42.69788" lon="1.57517">
        <ele>1605.0583496094</ele>
        <time>2012-06-10T07:34:05Z</time>
      </trkpt>
      <trkpt lat="42.69784" lon="1.57519">
        <ele>1606.01953125</ele>
        <time>2012-06-10T07:34:12Z</time>
      </trkpt>
      <trkpt lat="42.6978" lon="1.57522">
        <ele>1607.4616699219</ele>
        <time>2012-06-10T07:34:17Z</time>
      </trkpt>
      <trkpt lat="42.69779" lon="1.57522">
        <ele>1607.4616699219</ele>
        <time>2012-06-10T07:34:23Z</time>
      </trkpt>
      <trkpt lat="42.69775" lon="1.57523">
        <ele>1606.9809570312</ele>
        <time>2012-06-10T07:34:32Z</time>
      </trkpt>
      <trkpt lat="42.69767" lon="1.57523">
        <ele>1606.01953125</ele>
        <time>2012-06-10T07:34:38Z</time>
      </trkpt>
      <trkpt lat="42.69763" lon="1.57526">
        <ele>1605.5390625</ele>
        <time>2012-06-10T07:34:42Z</time>
      </trkpt>
      <trkpt lat="42.69758" lon="1.57528">
        <ele>1605.0583496094</ele>
        <time>2012-06-10T07:34:49Z</time>
      </trkpt>
      <trkpt lat="42.69759" lon="1.5753">
        <ele>1604.5776367188</ele>
        <time>2012-06-10T07:34:54Z</time>
      </trkpt>
      <trkpt lat="42.69756" lon="1.57533">
        <ele>1606.01953125</ele>
        <time>2012-06-10T07:34:59Z</time>
      </trkpt>
      <trkpt lat="42.69748" lon="1.57531">
        <ele>1605.5390625</ele>
        <time>2012-06-10T07:35:07Z</time>
      </trkpt>
      <trkpt lat="42.69746" lon="1.5753">
        <ele>1605.0583496094</ele>
        <time>2012-06-10T07:35:14Z</time>
      </trkpt>
      <trkpt lat="42.6974" lon="1.57526">
        <ele>1604.5776367188</ele>
        <time>2012-06-10T07:35:21Z</time>
      </trkpt>
      <trkpt lat="42.69734" lon="1.57526">
        <ele>1603.1357421875</ele>
        <time>2012-06-10T07:35:26Z</time>
      </trkpt>
      <trkpt lat="42.69728" lon="1.57525">
        <ele>1602.1743164062</ele>
        <time>2012-06-10T07:35:31Z</time>
      </trkpt>
      <trkpt lat="42.6972" lon="1.57524">
        <ele>1601.6938476562</ele>
        <time>2012-06-10T07:35:38Z</time>
      </trkpt>
      <trkpt lat="42.69716" lon="1.57522">
        <ele>1601.2131347656</ele>
        <time>2012-06-10T07:35:42Z</time>
      </trkpt>
      <trkpt lat="42.69714" lon="1.5752">
        <ele>1600.251953125</ele>
        <time>2012-06-10T07:35:45Z</time>
      </trkpt>
      <trkpt lat="42.6971" lon="1.57519">
        <ele>1599.7712402344</ele>
        <time>2012-06-10T07:35:50Z</time>
      </trkpt>
      <trkpt lat="42.69709" lon="1.57519">
        <ele>1599.2905273438</ele>
        <time>2012-06-10T07:35:51Z</time>
      </trkpt>
      <trkpt lat="42.69705" lon="1.57518">
        <ele>1598.8098144531</ele>
        <time>2012-06-10T07:35:55Z</time>
      </trkpt>
      <trkpt lat="42.69701" lon="1.57518">
        <ele>1597.3679199219</ele>
        <time>2012-06-10T07:35:59Z</time>
      </trkpt>
      <trkpt lat="42.69695" lon="1.57517">
        <ele>1595.92578125</ele>
        <time>2012-06-10T07:36:02Z</time>
      </trkpt>
      <trkpt lat="42.69687" lon="1.57516">
        <ele>1594.4836425781</ele>
        <time>2012-06-10T07:36:08Z</time>
      </trkpt>
      <trkpt lat="42.69685" lon="1.57515">
        <ele>1594.0031738281</ele>
        <time>2012-06-10T07:36:10Z</time>
      </trkpt>
      <trkpt lat="42.69677" lon="1.57514">
        <ele>1594.4836425781</ele>
        <time>2012-06-10T07:36:17Z</time>
      </trkpt>
      <trkpt lat="42.69674" lon="1.57515">
        <ele>1595.4450683594</ele>
        <time>2012-06-10T07:36:20Z</time>
      </trkpt>
      <trkpt lat="42.6967" lon="1.57517">
        <ele>1595.4450683594</ele>
        <time>2012-06-10T07:36:24Z</time>
      </trkpt>
      <trkpt lat="42.69667" lon="1.57523">
        <ele>1595.92578125</ele>
        <time>2012-06-10T07:36:29Z</time>
      </trkpt>
      <trkpt lat="42.69661" lon="1.57529">
        <ele>1596.8872070312</ele>
        <time>2012-06-10T07:36:35Z</time>
      </trkpt>
      <trkpt lat="42.69657" lon="1.57528">
        <ele>1596.8872070312</ele>
        <time>2012-06-10T07:36:39Z</time>
      </trkpt>
      <trkpt lat="42.69655" lon="1.57528">
        <ele>1596.8872070312</ele>
        <time>2012-06-10T07:36:48Z</time>
      </trkpt>
      <trkpt lat="42.69652" lon="1.57528">
        <ele>1597.3679199219</ele>
        <time>2012-06-10T07:36:54Z</time>
      </trkpt>
      <trkpt lat="42.69647" lon="1.57529">
        <ele>1596.8872070312</ele>
        <time>2012-06-10T07:36:59Z</time>
      </trkpt>
      <trkpt lat="42.69644" lon="1.57529">
        <ele>1597.3679199219</ele>
        <time>2012-06-10T07:37:04Z</time>
      </trkpt>
      <trkpt lat="42.69639" lon="1.57529">
        <ele>1597.3679199219</ele>
        <time>2012-06-10T07:37:10Z</time>
      </trkpt>
      <trkpt lat="42.69632" lon="1.57529">
        <ele>1596.8872070312</ele>
        <time>2012-06-10T07:37:16Z</time>
      </trkpt>
      <trkpt lat="42.69623" lon="1.57528">
        <ele>1596.8872070312</ele>
        <time>2012-06-10T07:37:24Z</time>
      </trkpt>
      <trkpt lat="42.69615" lon="1.57524">
        <ele>1597.3679199219</ele>
        <time>2012-06-10T07:37:32Z</time>
      </trkpt>
      <trkpt lat="42.69608" lon="1.57517">
        <ele>1597.3679199219</ele>
        <time>2012-06-10T07:37:39Z</time>
      </trkpt>
      <trkpt lat="42.696" lon="1.57514">
        <ele>1596.8872070312</ele>
        <time>2012-06-10T07:37:46Z</time>
      </trkpt>
      <trkpt lat="42.6959" lon="1.57509">
        <ele>1596.8872070312</ele>
        <time>2012-06-10T07:37:54Z</time>
      </trkpt>
      <trkpt lat="42.69584" lon="1.57505">
        <ele>1595.92578125</ele>
        <time>2012-06-10T07:38:00Z</time>
      </trkpt>
      <trkpt lat="42.69579" lon="1.57498">
        <ele>1594.9643554688</ele>
        <time>2012-06-10T07:38:06Z</time>
      </trkpt>
      <trkpt lat="42.69574" lon="1.57487">
        <ele>1597.3679199219</ele>
        <time>2012-06-10T07:38:14Z</time>
      </trkpt>
      <trkpt lat="42.69572" lon="1.57476">
        <ele>1599.2905273438</ele>
        <time>2012-06-10T07:38:21Z</time>
      </trkpt>
      <trkpt lat="42.69571" lon="1.57475">
        <ele>1599.7712402344</ele>
        <time>2012-06-10T07:38:22Z</time>
      </trkpt>
      <trkpt lat="42.69571" lon="1.5747">
        <ele>1601.2131347656</ele>
        <time>2012-06-10T07:38:26Z</time>
      </trkpt>
      <trkpt lat="42.69566" lon="1.57467">
        <ele>1603.1357421875</ele>
        <time>2012-06-10T07:38:33Z</time>
      </trkpt>
      <trkpt lat="42.69563" lon="1.57462">
        <ele>1604.5776367188</ele>
        <time>2012-06-10T07:38:38Z</time>
      </trkpt>
      <trkpt lat="42.69562" lon="1.57458">
        <ele>1605.0583496094</ele>
        <time>2012-06-10T07:38:40Z</time>
      </trkpt>
      <trkpt lat="42.69561" lon="1.57452">
        <ele>1605.5390625</ele>
        <time>2012-06-10T07:38:45Z</time>
      </trkpt>
      <trkpt lat="42.69556" lon="1.57447">
        <ele>1606.5002441406</ele>
        <time>2012-06-10T07:38:53Z</time>
      </trkpt>
      <trkpt lat="42.69552" lon="1.57448">
        <ele>1607.4616699219</ele>
        <time>2012-06-10T07:38:58Z</time>
      </trkpt>
      <trkpt lat="42.69547" lon="1.57448">
        <ele>1608.9035644531</ele>
        <time>2012-06-10T07:39:04Z</time>
      </trkpt>
      <trkpt lat="42.69543" lon="1.57448">
        <ele>1609.8647460938</ele>
        <time>2012-06-10T07:39:10Z</time>
      </trkpt>
      <trkpt lat="42.69538" lon="1.57446">
        <ele>1611.3068847656</ele>
        <time>2012-06-10T07:39:15Z</time>
      </trkpt>
      <trkpt lat="42.69534" lon="1.57441">
        <ele>1612.2683105469</ele>
        <time>2012-06-10T07:39:21Z</time>
      </trkpt>
      <trkpt lat="42.69531" lon="1.57435">
        <ele>1613.2297363281</ele>
        <time>2012-06-10T07:39:27Z</time>
      </trkpt>
      <trkpt lat="42.69525" lon="1.57427">
        <ele>1613.2297363281</ele>
        <time>2012-06-10T07:39:36Z</time>
      </trkpt>
      <trkpt lat="42.69523" lon="1.57424">
        <ele>1613.2297363281</ele>
        <time>2012-06-10T07:39:39Z</time>
      </trkpt>
      <trkpt lat="42.69516" lon="1.57415">
        <ele>1614.6716308594</ele>
        <time>2012-06-10T07:39:48Z</time>
      </trkpt>
      <trkpt lat="42.69512" lon="1.57409">
        <ele>1614.1909179688</ele>
        <time>2012-06-10T07:39:53Z</time>
      </trkpt>
      <trkpt lat="42.69505" lon="1.57404">
        <ele>1614.6716308594</ele>
        <time>2012-06-10T07:40:00Z</time>
      </trkpt>
      <trkpt lat="42.69498" lon="1.57399">
        <ele>1615.6330566406</ele>
        <time>2012-06-10T07:40:07Z</time>
      </trkpt>
      <trkpt lat="42.69494" lon="1.57394">
        <ele>1615.6330566406</ele>
        <time>2012-06-10T07:40:12Z</time>
      </trkpt>
      <trkpt lat="42.69489" lon="1.57387">
        <ele>1616.1135253906</ele>
        <time>2012-06-10T07:40:19Z</time>
      </trkpt>
      <trkpt lat="42.69487" lon="1.57386">
        <ele>1616.5942382812</ele>
        <time>2012-06-10T07:40:21Z</time>
      </trkpt>
      <trkpt lat="42.69482" lon="1.57377">
        <ele>1616.5942382812</ele>
        <time>2012-06-10T07:40:29Z</time>
      </trkpt>
      <trkpt lat="42.69477" lon="1.57374">
        <ele>1618.0361328125</ele>
        <time>2012-06-10T07:40:35Z</time>
      </trkpt>
      <trkpt lat="42.69473" lon="1.57373">
        <ele>1618.9975585938</ele>
        <time>2012-06-10T07:40:40Z</time>
      </trkpt>
      <trkpt lat="42.69468" lon="1.57369">
        <ele>1619.9587402344</ele>
        <time>2012-06-10T07:40:46Z</time>
      </trkpt>
      <trkpt lat="42.69462" lon="1.57364">
        <ele>1620.9201660156</ele>
        <time>2012-06-10T07:40:53Z</time>
      </trkpt>
      <trkpt lat="42.69458" lon="1.57359">
        <ele>1621.8813476562</ele>
        <time>2012-06-10T07:40:59Z</time>
      </trkpt>
      <trkpt lat="42.69453" lon="1.57355">
        <ele>1622.3620605469</ele>
        <time>2012-06-10T07:41:06Z</time>
      </trkpt>
      <trkpt lat="42.69448" lon="1.5735">
        <ele>1623.3234863281</ele>
        <time>2012-06-10T07:41:12Z</time>
      </trkpt>
      <trkpt lat="42.69446" lon="1.57345">
        <ele>1624.2846679688</ele>
        <time>2012-06-10T07:41:16Z</time>
      </trkpt>
      <trkpt lat="42.69442" lon="1.57338">
        <ele>1624.7653808594</ele>
        <time>2012-06-10T07:41:23Z</time>
      </trkpt>
      <trkpt lat="42.69437" lon="1.57333">
        <ele>1625.7265625</ele>
        <time>2012-06-10T07:41:29Z</time>
      </trkpt>
      <trkpt lat="42.69434" lon="1.57329">
        <ele>1626.2072753906</ele>
        <time>2012-06-10T07:41:33Z</time>
      </trkpt>
      <trkpt lat="42.69434" lon="1.57325">
        <ele>1626.2072753906</ele>
        <time>2012-06-10T07:41:36Z</time>
      </trkpt>
      <trkpt lat="42.69431" lon="1.57319">
        <ele>1626.2072753906</ele>
        <time>2012-06-10T07:41:41Z</time>
      </trkpt>
      <trkpt lat="42.69429" lon="1.57314">
        <ele>1626.6879882812</ele>
        <time>2012-06-10T07:41:45Z</time>
      </trkpt>
      <trkpt lat="42.69424" lon="1.57308">
        <ele>1626.6879882812</ele>
        <time>2012-06-10T07:41:52Z</time>
      </trkpt>
      <trkpt lat="42.69423" lon="1.57303">
        <ele>1626.6879882812</ele>
        <time>2012-06-10T07:41:55Z</time>
      </trkpt>
      <trkpt lat="42.69423" lon="1.57294">
        <ele>1626.6879882812</ele>
        <time>2012-06-10T07:42:01Z</time>
      </trkpt>
      <trkpt lat="42.69424" lon="1.57293">
        <ele>1625.7265625</ele>
        <time>2012-06-10T07:42:10Z</time>
      </trkpt>
      <trkpt lat="42.69423" lon="1.57288">
        <ele>1626.6879882812</ele>
        <time>2012-06-10T07:42:16Z</time>
      </trkpt>
      <trkpt lat="42.69424" lon="1.5728">
        <ele>1627.1687011719</ele>
        <time>2012-06-10T07:42:23Z</time>
      </trkpt>
      <trkpt lat="42.69425" lon="1.57272">
        <ele>1627.1687011719</ele>
        <time>2012-06-10T07:42:29Z</time>
      </trkpt>
      <trkpt lat="42.69423" lon="1.57268">
        <ele>1627.6491699219</ele>
        <time>2012-06-10T07:42:37Z</time>
      </trkpt>
      <trkpt lat="42.6942" lon="1.57267">
        <ele>1628.6108398438</ele>
        <time>2012-06-10T07:42:44Z</time>
      </trkpt>
      <trkpt lat="42.69419" lon="1.57266">
        <ele>1630.5334472656</ele>
        <time>2012-06-10T07:42:50Z</time>
      </trkpt>
      <trkpt lat="42.69423" lon="1.57266">
        <ele>1632.4560546875</ele>
        <time>2012-06-10T07:42:58Z</time>
      </trkpt>
      <trkpt lat="42.69423" lon="1.57261">
        <ele>1632.9365234375</ele>
        <time>2012-06-10T07:43:03Z</time>
      </trkpt>
      <trkpt lat="42.6942" lon="1.57255">
        <ele>1634.3786621094</ele>
        <time>2012-06-10T07:43:09Z</time>
      </trkpt>
      <trkpt lat="42.69416" lon="1.5725">
        <ele>1636.3012695312</ele>
        <time>2012-06-10T07:43:16Z</time>
      </trkpt>
      <trkpt lat="42.69413" lon="1.57246">
        <ele>1637.2624511719</ele>
        <time>2012-06-10T07:43:22Z</time>
      </trkpt>
      <trkpt lat="42.69407" lon="1.57241">
        <ele>1638.7045898438</ele>
        <time>2012-06-10T07:43:29Z</time>
      </trkpt>
      <trkpt lat="42.69407" lon="1.57238">
        <ele>1638.7045898438</ele>
        <time>2012-06-10T07:43:31Z</time>
      </trkpt>
      <trkpt lat="42.69405" lon="1.57227">
        <ele>1639.6657714844</ele>
        <time>2012-06-10T07:43:41Z</time>
      </trkpt>
      <trkpt lat="42.69399" lon="1.57221">
        <ele>1641.1076660156</ele>
        <time>2012-06-10T07:43:49Z</time>
      </trkpt>
      <trkpt lat="42.69398" lon="1.57214">
        <ele>1642.0690917969</ele>
        <time>2012-06-10T07:43:56Z</time>
      </trkpt>
      <trkpt lat="42.69398" lon="1.57206">
        <ele>1643.0302734375</ele>
        <time>2012-06-10T07:44:02Z</time>
      </trkpt>
      <trkpt lat="42.69399" lon="1.57199">
        <ele>1644.4724121094</ele>
        <time>2012-06-10T07:44:08Z</time>
      </trkpt>
      <trkpt lat="42.69397" lon="1.57192">
        <ele>1645.4338378906</ele>
        <time>2012-06-10T07:44:13Z</time>
      </trkpt>
      <trkpt lat="42.69397" lon="1.57183">
        <ele>1645.4338378906</ele>
        <time>2012-06-10T07:44:19Z</time>
      </trkpt>
      <trkpt lat="42.69397" lon="1.57181">
        <ele>1645.4338378906</ele>
        <time>2012-06-10T07:44:21Z</time>
      </trkpt>
      <trkpt lat="42.69394" lon="1.57173">
        <ele>1644.4724121094</ele>
        <time>2012-06-10T07:44:28Z</time>
      </trkpt>
      <trkpt lat="42.6939" lon="1.57169">
        <ele>1645.4338378906</ele>
        <time>2012-06-10T07:44:34Z</time>
      </trkpt>
      <trkpt lat="42.69384" lon="1.57168">
        <ele>1646.8757324219</ele>
        <time>2012-06-10T07:44:42Z</time>
      </trkpt>
      <trkpt lat="42.69382" lon="1.57168">
        <ele>1647.3564453125</ele>
        <time>2012-06-10T07:44:47Z</time>
      </trkpt>
      <trkpt lat="42.69379" lon="1.57167">
        <ele>1647.3564453125</ele>
        <time>2012-06-10T07:44:52Z</time>
      </trkpt>
      <trkpt lat="42.69374" lon="1.57165">
        <ele>1647.8371582031</ele>
        <time>2012-06-10T07:44:58Z</time>
      </trkpt>
      <trkpt lat="42.69371" lon="1.57161">
        <ele>1648.3176269531</ele>
        <time>2012-06-10T07:45:04Z</time>
      </trkpt>
      <trkpt lat="42.69367" lon="1.57155">
        <ele>1648.3176269531</ele>
        <time>2012-06-10T07:45:11Z</time>
      </trkpt>
      <trkpt lat="42.69365" lon="1.5715">
        <ele>1649.2790527344</ele>
        <time>2012-06-10T07:45:18Z</time>
      </trkpt>
      <trkpt lat="42.69365" lon="1.57149">
        <ele>1649.2790527344</ele>
        <time>2012-06-10T07:45:24Z</time>
      </trkpt>
      <trkpt lat="42.69363" lon="1.57145">
        <ele>1648.7983398438</ele>
        <time>2012-06-10T07:45:29Z</time>
      </trkpt>
      <trkpt lat="42.69363" lon="1.5714">
        <ele>1648.7983398438</ele>
        <time>2012-06-10T07:45:34Z</time>
      </trkpt>
      <trkpt lat="42.69363" lon="1.57132">
        <ele>1649.2790527344</ele>
        <time>2012-06-10T07:45:39Z</time>
      </trkpt>
      <trkpt lat="42.69361" lon="1.57125">
        <ele>1650.2404785156</ele>
        <time>2012-06-10T07:45:46Z</time>
      </trkpt>
      <trkpt lat="42.6936" lon="1.57119">
        <ele>1651.2016601562</ele>
        <time>2012-06-10T07:45:52Z</time>
      </trkpt>
      <trkpt lat="42.6936" lon="1.57113">
        <ele>1652.1628417969</ele>
        <time>2012-06-10T07:45:58Z</time>
      </trkpt>
      <trkpt lat="42.69357" lon="1.57106">
        <ele>1653.1242675781</ele>
        <time>2012-06-10T07:46:05Z</time>
      </trkpt>
      <trkpt lat="42.69352" lon="1.57101">
        <ele>1654.0856933594</ele>
        <time>2012-06-10T07:46:12Z</time>
      </trkpt>
      <trkpt lat="42.69346" lon="1.57096">
        <ele>1655.046875</ele>
        <time>2012-06-10T07:46:19Z</time>
      </trkpt>
      <trkpt lat="42.6934" lon="1.57089">
        <ele>1655.5275878906</ele>
        <time>2012-06-10T07:46:26Z</time>
      </trkpt>
      <trkpt lat="42.69334" lon="1.57082">
        <ele>1655.5275878906</ele>
        <time>2012-06-10T07:46:33Z</time>
      </trkpt>
      <trkpt lat="42.69333" lon="1.5708">
        <ele>1656.0080566406</ele>
        <time>2012-06-10T07:46:35Z</time>
      </trkpt>
      <trkpt lat="42.69329" lon="1.57076">
        <ele>1656.0080566406</ele>
        <time>2012-06-10T07:46:39Z</time>
      </trkpt>
      <trkpt lat="42.69324" lon="1.57066">
        <ele>1657.4501953125</ele>
        <time>2012-06-10T07:46:47Z</time>
      </trkpt>
      <trkpt lat="42.69318" lon="1.57057">
        <ele>1658.4113769531</ele>
        <time>2012-06-10T07:46:55Z</time>
      </trkpt>
      <trkpt lat="42.69311" lon="1.57046">
        <ele>1659.3728027344</ele>
        <time>2012-06-10T07:47:04Z</time>
      </trkpt>
      <trkpt lat="42.69309" lon="1.57043">
        <ele>1659.3728027344</ele>
        <time>2012-06-10T07:47:07Z</time>
      </trkpt>
      <trkpt lat="42.69303" lon="1.57033">
        <ele>1660.3342285156</ele>
        <time>2012-06-10T07:47:15Z</time>
      </trkpt>
      <trkpt lat="42.69299" lon="1.57027">
        <ele>1661.2956542969</ele>
        <time>2012-06-10T07:47:21Z</time>
      </trkpt>
      <trkpt lat="42.69297" lon="1.57022">
        <ele>1660.8149414062</ele>
        <time>2012-06-10T07:47:26Z</time>
      </trkpt>
      <trkpt lat="42.69297" lon="1.57019">
        <ele>1661.7763671875</ele>
        <time>2012-06-10T07:47:31Z</time>
      </trkpt>
      <trkpt lat="42.69291" lon="1.57014">
        <ele>1662.2568359375</ele>
        <time>2012-06-10T07:47:37Z</time>
      </trkpt>
      <trkpt lat="42.69287" lon="1.57008">
        <ele>1662.7375488281</ele>
        <time>2012-06-10T07:47:43Z</time>
      </trkpt>
      <trkpt lat="42.69286" lon="1.57007">
        <ele>1662.7375488281</ele>
        <time>2012-06-10T07:47:44Z</time>
      </trkpt>
      <trkpt lat="42.69284" lon="1.56998">
        <ele>1663.6987304688</ele>
        <time>2012-06-10T07:47:51Z</time>
      </trkpt>
      <trkpt lat="42.69281" lon="1.56994">
        <ele>1664.1794433594</ele>
        <time>2012-06-10T07:47:54Z</time>
      </trkpt>
      <trkpt lat="42.6928" lon="1.5699">
        <ele>1664.66015625</ele>
        <time>2012-06-10T07:47:57Z</time>
      </trkpt>
      <trkpt lat="42.69278" lon="1.56984">
        <ele>1665.1408691406</ele>
        <time>2012-06-10T07:48:03Z</time>
      </trkpt>
      <trkpt lat="42.69272" lon="1.56976">
        <ele>1665.6215820312</ele>
        <time>2012-06-10T07:48:10Z</time>
      </trkpt>
      <trkpt lat="42.69267" lon="1.56967">
        <ele>1666.5827636719</ele>
        <time>2012-06-10T07:48:17Z</time>
      </trkpt>
      <trkpt lat="42.69264" lon="1.56958">
        <ele>1667.5439453125</ele>
        <time>2012-06-10T07:48:24Z</time>
      </trkpt>
      <trkpt lat="42.69261" lon="1.56949">
        <ele>1668.0246582031</ele>
        <time>2012-06-10T07:48:30Z</time>
      </trkpt>
      <trkpt lat="42.6926" lon="1.56939">
        <ele>1668.9860839844</ele>
        <time>2012-06-10T07:48:37Z</time>
      </trkpt>
      <trkpt lat="42.69262" lon="1.56929">
        <ele>1670.4279785156</ele>
        <time>2012-06-10T07:48:45Z</time>
      </trkpt>
      <trkpt lat="42.69263" lon="1.5692">
        <ele>1671.8698730469</ele>
        <time>2012-06-10T07:48:52Z</time>
      </trkpt>
      <trkpt lat="42.69261" lon="1.56913">
        <ele>1673.3120117188</ele>
        <time>2012-06-10T07:48:58Z</time>
      </trkpt>
      <trkpt lat="42.69258" lon="1.56902">
        <ele>1674.75390625</ele>
        <time>2012-06-10T07:49:07Z</time>
      </trkpt>
      <trkpt lat="42.69255" lon="1.56899">
        <ele>1675.7150878906</ele>
        <time>2012-06-10T07:49:12Z</time>
      </trkpt>
      <trkpt lat="42.69253" lon="1.56894">
        <ele>1676.6767578125</ele>
        <time>2012-06-10T07:49:17Z</time>
      </trkpt>
      <trkpt lat="42.6925" lon="1.56889">
        <ele>1677.6379394531</ele>
        <time>2012-06-10T07:49:23Z</time>
      </trkpt>
      <trkpt lat="42.69246" lon="1.56884">
        <ele>1678.5993652344</ele>
        <time>2012-06-10T07:49:30Z</time>
      </trkpt>
      <trkpt lat="42.69246" lon="1.56884">
        <ele>1679.0798339844</ele>
        <time>2012-06-10T07:49:37Z</time>
      </trkpt>
      <trkpt lat="42.69241" lon="1.56876">
        <ele>1680.0412597656</ele>
        <time>2012-06-10T07:49:44Z</time>
      </trkpt>
      <trkpt lat="42.6924" lon="1.56871">
        <ele>1680.5219726562</ele>
        <time>2012-06-10T07:49:49Z</time>
      </trkpt>
      <trkpt lat="42.69234" lon="1.56862">
        <ele>1681.4831542969</ele>
        <time>2012-06-10T07:49:58Z</time>
      </trkpt>
      <trkpt lat="42.69229" lon="1.56855">
        <ele>1682.9250488281</ele>
        <time>2012-06-10T07:50:06Z</time>
      </trkpt>
      <trkpt lat="42.69222" lon="1.56847">
        <ele>1684.3671875</ele>
        <time>2012-06-10T07:50:15Z</time>
      </trkpt>
      <trkpt lat="42.69218" lon="1.56841">
        <ele>1685.3283691406</ele>
        <time>2012-06-10T07:50:22Z</time>
      </trkpt>
      <trkpt lat="42.69216" lon="1.56835">
        <ele>1686.2897949219</ele>
        <time>2012-06-10T07:50:27Z</time>
      </trkpt>
      <trkpt lat="42.69223" lon="1.56834">
        <ele>1687.2509765625</ele>
        <time>2012-06-10T07:50:35Z</time>
      </trkpt>
      <trkpt lat="42.6923" lon="1.56834">
        <ele>1688.6931152344</ele>
        <time>2012-06-10T07:50:42Z</time>
      </trkpt>
      <trkpt lat="42.69232" lon="1.56831">
        <ele>1690.1350097656</ele>
        <time>2012-06-10T07:50:48Z</time>
      </trkpt>
      <trkpt lat="42.69229" lon="1.56825">
        <ele>1691.5769042969</ele>
        <time>2012-06-10T07:50:54Z</time>
      </trkpt>
      <trkpt lat="42.69225" lon="1.56818">
        <ele>1693.4997558594</ele>
        <time>2012-06-10T07:51:01Z</time>
      </trkpt>
      <trkpt lat="42.69221" lon="1.56809">
        <ele>1694.4609375</ele>
        <time>2012-06-10T07:51:10Z</time>
      </trkpt>
      <trkpt lat="42.69219" lon="1.56802">
        <ele>1694.9416503906</ele>
        <time>2012-06-10T07:51:17Z</time>
      </trkpt>
      <trkpt lat="42.69215" lon="1.56795">
        <ele>1696.8642578125</ele>
        <time>2012-06-10T07:51:24Z</time>
      </trkpt>
      <trkpt lat="42.69212" lon="1.56786">
        <ele>1697.3449707031</ele>
        <time>2012-06-10T07:51:32Z</time>
      </trkpt>
      <trkpt lat="42.69209" lon="1.5678">
        <ele>1698.7868652344</ele>
        <time>2012-06-10T07:51:38Z</time>
      </trkpt>
      <trkpt lat="42.69204" lon="1.56772">
        <ele>1698.7868652344</ele>
        <time>2012-06-10T07:51:46Z</time>
      </trkpt>
      <trkpt lat="42.69201" lon="1.56765">
        <ele>1699.267578125</ele>
        <time>2012-06-10T07:51:53Z</time>
      </trkpt>
      <trkpt lat="42.69197" lon="1.56761">
        <ele>1700.7094726562</ele>
        <time>2012-06-10T07:51:59Z</time>
      </trkpt>
      <trkpt lat="42.69191" lon="1.5676">
        <ele>1701.6708984375</ele>
        <time>2012-06-10T07:52:05Z</time>
      </trkpt>
      <trkpt lat="42.69188" lon="1.56762">
        <ele>1703.1127929688</ele>
        <time>2012-06-10T07:52:09Z</time>
      </trkpt>
      <trkpt lat="42.69184" lon="1.56764">
        <ele>1706.4772949219</ele>
        <time>2012-06-10T07:52:16Z</time>
      </trkpt>
      <trkpt lat="42.6918" lon="1.5677">
        <ele>1708.880859375</ele>
        <time>2012-06-10T07:52:22Z</time>
      </trkpt>
      <trkpt lat="42.69175" lon="1.56772">
        <ele>1709.3615722656</ele>
        <time>2012-06-10T07:52:27Z</time>
      </trkpt>
      <trkpt lat="42.69169" lon="1.56775">
        <ele>1709.8420410156</ele>
        <time>2012-06-10T07:52:34Z</time>
      </trkpt>
      <trkpt lat="42.69161" lon="1.56775">
        <ele>1710.8034667969</ele>
        <time>2012-06-10T07:52:42Z</time>
      </trkpt>
      <trkpt lat="42.69157" lon="1.56773">
        <ele>1711.7648925781</ele>
        <time>2012-06-10T07:52:47Z</time>
      </trkpt>
      <trkpt lat="42.69157" lon="1.56768">
        <ele>1711.7648925781</ele>
        <time>2012-06-10T07:52:52Z</time>
      </trkpt>
      <trkpt lat="42.69159" lon="1.56763">
        <ele>1712.2453613281</ele>
        <time>2012-06-10T07:52:58Z</time>
      </trkpt>
      <trkpt lat="42.69164" lon="1.56757">
        <ele>1713.2067871094</ele>
        <time>2012-06-10T07:53:06Z</time>
      </trkpt>
      <trkpt lat="42.69167" lon="1.56755">
        <ele>1713.2067871094</ele>
        <time>2012-06-10T07:53:12Z</time>
      </trkpt>
      <trkpt lat="42.69164" lon="1.56753">
        <ele>1715.6101074219</ele>
        <time>2012-06-10T07:53:17Z</time>
      </trkpt>
      <trkpt lat="42.69159" lon="1.56753">
        <ele>1717.0520019531</ele>
        <time>2012-06-10T07:53:24Z</time>
      </trkpt>
      <trkpt lat="42.69157" lon="1.56754">
        <ele>1717.5324707031</ele>
        <time>2012-06-10T07:53:29Z</time>
      </trkpt>
      <trkpt lat="42.69154" lon="1.56756">
        <ele>1718.0131835938</ele>
        <time>2012-06-10T07:53:33Z</time>
      </trkpt>
      <trkpt lat="42.6915" lon="1.5676">
        <ele>1718.974609375</ele>
        <time>2012-06-10T07:53:39Z</time>
      </trkpt>
      <trkpt lat="42.69146" lon="1.56762">
        <ele>1719.4553222656</ele>
        <time>2012-06-10T07:53:46Z</time>
      </trkpt>
      <trkpt lat="42.69141" lon="1.56765">
        <ele>1719.9357910156</ele>
        <time>2012-06-10T07:53:52Z</time>
      </trkpt>
      <trkpt lat="42.69137" lon="1.56761">
        <ele>1719.9357910156</ele>
        <time>2012-06-10T07:53:58Z</time>
      </trkpt>
      <trkpt lat="42.69133" lon="1.56751">
        <ele>1720.4165039062</ele>
        <time>2012-06-10T07:54:07Z</time>
      </trkpt>
      <trkpt lat="42.6913" lon="1.56747">
        <ele>1720.8972167969</ele>
        <time>2012-06-10T07:54:12Z</time>
      </trkpt>
      <trkpt lat="42.69126" lon="1.56744">
        <ele>1721.8583984375</ele>
        <time>2012-06-10T07:54:17Z</time>
      </trkpt>
      <trkpt lat="42.69123" lon="1.56742">
        <ele>1723.3005371094</ele>
        <time>2012-06-10T07:54:22Z</time>
      </trkpt>
      <trkpt lat="42.69119" lon="1.56737">
        <ele>1724.2619628906</ele>
        <time>2012-06-10T07:54:29Z</time>
      </trkpt>
      <trkpt lat="42.69117" lon="1.56734">
        <ele>1726.1845703125</ele>
        <time>2012-06-10T07:54:34Z</time>
      </trkpt>
      <trkpt lat="42.69113" lon="1.56732">
        <ele>1729.5490722656</ele>
        <time>2012-06-10T07:54:40Z</time>
      </trkpt>
      <trkpt lat="42.6911" lon="1.56732">
        <ele>1732.9135742188</ele>
        <time>2012-06-10T07:54:46Z</time>
      </trkpt>
      <trkpt lat="42.69106" lon="1.5673">
        <ele>1734.8364257812</ele>
        <time>2012-06-10T07:54:51Z</time>
      </trkpt>
      <trkpt lat="42.69103" lon="1.5673">
        <ele>1736.2783203125</ele>
        <time>2012-06-10T07:54:56Z</time>
      </trkpt>
      <trkpt lat="42.69099" lon="1.56731">
        <ele>1738.2009277344</ele>
        <time>2012-06-10T07:55:01Z</time>
      </trkpt>
      <trkpt lat="42.69096" lon="1.56733">
        <ele>1739.6428222656</ele>
        <time>2012-06-10T07:55:08Z</time>
      </trkpt>
      <trkpt lat="42.69093" lon="1.56738">
        <ele>1741.0849609375</ele>
        <time>2012-06-10T07:55:14Z</time>
      </trkpt>
      <trkpt lat="42.69089" lon="1.5674">
        <ele>1742.5270996094</ele>
        <time>2012-06-10T07:55:20Z</time>
      </trkpt>
      <trkpt lat="42.69089" lon="1.56736">
        <ele>1744.4494628906</ele>
        <time>2012-06-10T07:55:25Z</time>
      </trkpt>
      <trkpt lat="42.6909" lon="1.56732">
        <ele>1745.8916015625</ele>
        <time>2012-06-10T07:55:32Z</time>
      </trkpt>
      <trkpt lat="42.69091" lon="1.56729">
        <ele>1747.3334960938</ele>
        <time>2012-06-10T07:55:36Z</time>
      </trkpt>
      <trkpt lat="42.69087" lon="1.56732">
        <ele>1747.3334960938</ele>
        <time>2012-06-10T07:55:43Z</time>
      </trkpt>
      <trkpt lat="42.69084" lon="1.56735">
        <ele>1747.3334960938</ele>
        <time>2012-06-10T07:55:48Z</time>
      </trkpt>
      <trkpt lat="42.69082" lon="1.56735">
        <ele>1748.2946777344</ele>
        <time>2012-06-10T07:55:52Z</time>
      </trkpt>
      <trkpt lat="42.69078" lon="1.56731">
        <ele>1749.2561035156</ele>
        <time>2012-06-10T07:56:03Z</time>
      </trkpt>
      <trkpt lat="42.69077" lon="1.56735">
        <ele>1750.2175292969</ele>
        <time>2012-06-10T07:56:08Z</time>
      </trkpt>
      <trkpt lat="42.69075" lon="1.56741">
        <ele>1751.6594238281</ele>
        <time>2012-06-10T07:56:15Z</time>
      </trkpt>
      <trkpt lat="42.69073" lon="1.56745">
        <ele>1753.58203125</ele>
        <time>2012-06-10T07:56:19Z</time>
      </trkpt>
      <trkpt lat="42.6907" lon="1.56748">
        <ele>1754.5432128906</ele>
        <time>2012-06-10T07:56:24Z</time>
      </trkpt>
      <trkpt lat="42.69067" lon="1.56748">
        <ele>1755.5046386719</ele>
        <time>2012-06-10T07:56:29Z</time>
      </trkpt>
      <trkpt lat="42.69066" lon="1.56743">
        <ele>1755.0239257812</ele>
        <time>2012-06-10T07:56:33Z</time>
      </trkpt>
      <trkpt lat="42.69065" lon="1.56738">
        <ele>1756.4660644531</ele>
        <time>2012-06-10T07:56:38Z</time>
      </trkpt>
      <trkpt lat="42.69062" lon="1.56737">
        <ele>1756.9467773438</ele>
        <time>2012-06-10T07:56:43Z</time>
      </trkpt>
      <trkpt lat="42.69059" lon="1.5674">
        <ele>1758.8693847656</ele>
        <time>2012-06-10T07:56:49Z</time>
      </trkpt>
      <trkpt lat="42.69056" lon="1.56743">
        <ele>1761.2727050781</ele>
        <time>2012-06-10T07:56:55Z</time>
      </trkpt>
      <trkpt lat="42.69056" lon="1.56747">
        <ele>1761.7534179688</ele>
        <time>2012-06-10T07:57:01Z</time>
      </trkpt>
      <trkpt lat="42.69054" lon="1.56752">
        <ele>1762.2338867188</ele>
        <time>2012-06-10T07:57:07Z</time>
      </trkpt>
      <trkpt lat="42.69048" lon="1.5675">
        <ele>1759.8305664062</ele>
        <time>2012-06-10T07:57:12Z</time>
      </trkpt>
      <trkpt lat="42.69047" lon="1.56744">
        <ele>1758.8693847656</ele>
        <time>2012-06-10T07:57:18Z</time>
      </trkpt>
      <trkpt lat="42.69045" lon="1.56744">
        <ele>1761.7534179688</ele>
        <time>2012-06-10T07:57:23Z</time>
      </trkpt>
      <trkpt lat="42.69043" lon="1.56744">
        <ele>1761.7534179688</ele>
        <time>2012-06-10T07:57:27Z</time>
      </trkpt>
      <trkpt lat="42.6904" lon="1.56745">
        <ele>1762.7145996094</ele>
        <time>2012-06-10T07:57:32Z</time>
      </trkpt>
      <trkpt lat="42.69036" lon="1.56747">
        <ele>1763.67578125</ele>
        <time>2012-06-10T07:57:38Z</time>
      </trkpt>
      <trkpt lat="42.6903" lon="1.56745">
        <ele>1763.67578125</ele>
        <time>2012-06-10T07:57:44Z</time>
      </trkpt>
      <trkpt lat="42.69027" lon="1.56742">
        <ele>1764.1564941406</ele>
        <time>2012-06-10T07:57:50Z</time>
      </trkpt>
      <trkpt lat="42.69023" lon="1.5674">
        <ele>1764.6372070312</ele>
        <time>2012-06-10T07:57:55Z</time>
      </trkpt>
      <trkpt lat="42.69022" lon="1.56737">
        <ele>1765.5986328125</ele>
        <time>2012-06-10T07:58:00Z</time>
      </trkpt>
      <trkpt lat="42.69018" lon="1.56735">
        <ele>1766.5598144531</ele>
        <time>2012-06-10T07:58:05Z</time>
      </trkpt>
      <trkpt lat="42.69013" lon="1.56733">
        <ele>1767.5209960938</ele>
        <time>2012-06-10T07:58:11Z</time>
      </trkpt>
      <trkpt lat="42.69011" lon="1.56727">
        <ele>1768.482421875</ele>
        <time>2012-06-10T07:58:16Z</time>
      </trkpt>
      <trkpt lat="42.69007" lon="1.56721">
        <ele>1768.0017089844</ele>
        <time>2012-06-10T07:58:21Z</time>
      </trkpt>
      <trkpt lat="42.69002" lon="1.56718">
        <ele>1767.5209960938</ele>
        <time>2012-06-10T07:58:26Z</time>
      </trkpt>
      <trkpt lat="42.68999" lon="1.56714">
        <ele>1767.0405273438</ele>
        <time>2012-06-10T07:58:30Z</time>
      </trkpt>
      <trkpt lat="42.68993" lon="1.56711">
        <ele>1767.5209960938</ele>
        <time>2012-06-10T07:58:35Z</time>
      </trkpt>
      <trkpt lat="42.6899" lon="1.56708">
        <ele>1767.5209960938</ele>
        <time>2012-06-10T07:58:39Z</time>
      </trkpt>
      <trkpt lat="42.68986" lon="1.56702">
        <ele>1767.0405273438</ele>
        <time>2012-06-10T07:58:44Z</time>
      </trkpt>
      <trkpt lat="42.68981" lon="1.56699">
        <ele>1767.0405273438</ele>
        <time>2012-06-10T07:58:50Z</time>
      </trkpt>
      <trkpt lat="42.68978" lon="1.56699">
        <ele>1767.0405273438</ele>
        <time>2012-06-10T07:58:54Z</time>
      </trkpt>
      <trkpt lat="42.6897" lon="1.56696">
        <ele>1767.5209960938</ele>
        <time>2012-06-10T07:59:02Z</time>
      </trkpt>
      <trkpt lat="42.68964" lon="1.56693">
        <ele>1766.5598144531</ele>
        <time>2012-06-10T07:59:08Z</time>
      </trkpt>
      <trkpt lat="42.68959" lon="1.5669">
        <ele>1766.0791015625</ele>
        <time>2012-06-10T07:59:13Z</time>
      </trkpt>
      <trkpt lat="42.68957" lon="1.56678">
        <ele>1765.5986328125</ele>
        <time>2012-06-10T07:59:19Z</time>
      </trkpt>
      <trkpt lat="42.68956" lon="1.56667">
        <ele>1765.5986328125</ele>
        <time>2012-06-10T07:59:26Z</time>
      </trkpt>
      <trkpt lat="42.68954" lon="1.56665">
        <ele>1765.5986328125</ele>
        <time>2012-06-10T07:59:29Z</time>
      </trkpt>
      <trkpt lat="42.68949" lon="1.5666">
        <ele>1765.1179199219</ele>
        <time>2012-06-10T07:59:36Z</time>
      </trkpt>
      <trkpt lat="42.68945" lon="1.56655">
        <ele>1765.5986328125</ele>
        <time>2012-06-10T07:59:42Z</time>
      </trkpt>
      <trkpt lat="42.6894" lon="1.5665">
        <ele>1766.0791015625</ele>
        <time>2012-06-10T07:59:49Z</time>
      </trkpt>
      <trkpt lat="42.68935" lon="1.56646">
        <ele>1766.5598144531</ele>
        <time>2012-06-10T07:59:55Z</time>
      </trkpt>
      <trkpt lat="42.68934" lon="1.56645">
        <ele>1766.5598144531</ele>
        <time>2012-06-10T07:59:56Z</time>
      </trkpt>
      <trkpt lat="42.68928" lon="1.56637">
        <ele>1766.5598144531</ele>
        <time>2012-06-10T08:00:04Z</time>
      </trkpt>
      <trkpt lat="42.68923" lon="1.56631">
        <ele>1767.0405273438</ele>
        <time>2012-06-10T08:00:11Z</time>
      </trkpt>
      <trkpt lat="42.68921" lon="1.56626">
        <ele>1766.5598144531</ele>
        <time>2012-06-10T08:00:17Z</time>
      </trkpt>
      <trkpt lat="42.68916" lon="1.56621">
        <ele>1766.5598144531</ele>
        <time>2012-06-10T08:00:24Z</time>
      </trkpt>
      <trkpt lat="42.68913" lon="1.56621">
        <ele>1768.482421875</ele>
        <time>2012-06-10T08:00:30Z</time>
      </trkpt>
      <trkpt lat="42.68909" lon="1.56627">
        <ele>1772.80859375</ele>
        <time>2012-06-10T08:00:37Z</time>
      </trkpt>
      <trkpt lat="42.68907" lon="1.56628">
        <ele>1775.6923828125</ele>
        <time>2012-06-10T08:00:42Z</time>
      </trkpt>
      <trkpt lat="42.68904" lon="1.5663">
        <ele>1779.0568847656</ele>
        <time>2012-06-10T08:00:48Z</time>
      </trkpt>
      <trkpt lat="42.68903" lon="1.56631">
        <ele>1779.0568847656</ele>
        <time>2012-06-10T08:00:53Z</time>
      </trkpt>
      <trkpt lat="42.68898" lon="1.56632">
        <ele>1779.0568847656</ele>
        <time>2012-06-10T08:01:01Z</time>
      </trkpt>
      <trkpt lat="42.689" lon="1.56629">
        <ele>1778.5764160156</ele>
        <time>2012-06-10T08:01:05Z</time>
      </trkpt>
      <trkpt lat="42.68897" lon="1.56623">
        <ele>1778.095703125</ele>
        <time>2012-06-10T08:01:11Z</time>
      </trkpt>
      <trkpt lat="42.68894" lon="1.56617">
        <ele>1778.095703125</ele>
        <time>2012-06-10T08:01:16Z</time>
      </trkpt>
      <trkpt lat="42.68888" lon="1.56613">
        <ele>1778.095703125</ele>
        <time>2012-06-10T08:01:23Z</time>
      </trkpt>
      <trkpt lat="42.68884" lon="1.56609">
        <ele>1779.0568847656</ele>
        <time>2012-06-10T08:01:30Z</time>
      </trkpt>
      <trkpt lat="42.68877" lon="1.56606">
        <ele>1780.0183105469</ele>
        <time>2012-06-10T08:01:38Z</time>
      </trkpt>
      <trkpt lat="42.68874" lon="1.56603">
        <ele>1779.5375976562</ele>
        <time>2012-06-10T08:01:44Z</time>
      </trkpt>
      <trkpt lat="42.68875" lon="1.56598">
        <ele>1779.0568847656</ele>
        <time>2012-06-10T08:01:48Z</time>
      </trkpt>
      <trkpt lat="42.68874" lon="1.56592">
        <ele>1778.5764160156</ele>
        <time>2012-06-10T08:01:52Z</time>
      </trkpt>
      <trkpt lat="42.68874" lon="1.56581">
        <ele>1779.5375976562</ele>
        <time>2012-06-10T08:02:01Z</time>
      </trkpt>
      <trkpt lat="42.68878" lon="1.56577">
        <ele>1780.0183105469</ele>
        <time>2012-06-10T08:02:08Z</time>
      </trkpt>
      <trkpt lat="42.68882" lon="1.56575">
        <ele>1780.9797363281</ele>
        <time>2012-06-10T08:02:13Z</time>
      </trkpt>
      <trkpt lat="42.68885" lon="1.5657">
        <ele>1781.4602050781</ele>
        <time>2012-06-10T08:02:19Z</time>
      </trkpt>
      <trkpt lat="42.68887" lon="1.56565">
        <ele>1781.9409179688</ele>
        <time>2012-06-10T08:02:25Z</time>
      </trkpt>
      <trkpt lat="42.68885" lon="1.56565">
        <ele>1782.9020996094</ele>
        <time>2012-06-10T08:02:29Z</time>
      </trkpt>
      <trkpt lat="42.68879" lon="1.56565">
        <ele>1782.9020996094</ele>
        <time>2012-06-10T08:02:35Z</time>
      </trkpt>
      <trkpt lat="42.68874" lon="1.56562">
        <ele>1783.8635253906</ele>
        <time>2012-06-10T08:02:41Z</time>
      </trkpt>
      <trkpt lat="42.68869" lon="1.56558">
        <ele>1785.3054199219</ele>
        <time>2012-06-10T08:02:48Z</time>
      </trkpt>
      <trkpt lat="42.68865" lon="1.56553">
        <ele>1785.7861328125</ele>
        <time>2012-06-10T08:02:54Z</time>
      </trkpt>
      <trkpt lat="42.68861" lon="1.56551">
        <ele>1786.2668457031</ele>
        <time>2012-06-10T08:03:00Z</time>
      </trkpt>
      <trkpt lat="42.68858" lon="1.56545">
        <ele>1786.7473144531</ele>
        <time>2012-06-10T08:03:07Z</time>
      </trkpt>
      <trkpt lat="42.68856" lon="1.56538">
        <ele>1786.2668457031</ele>
        <time>2012-06-10T08:03:13Z</time>
      </trkpt>
      <trkpt lat="42.68852" lon="1.56534">
        <ele>1786.2668457031</ele>
        <time>2012-06-10T08:03:18Z</time>
      </trkpt>
      <trkpt lat="42.68843" lon="1.56525">
        <ele>1786.2668457031</ele>
        <time>2012-06-10T08:03:27Z</time>
      </trkpt>
      <trkpt lat="42.68837" lon="1.56523">
        <ele>1786.2668457031</ele>
        <time>2012-06-10T08:03:34Z</time>
      </trkpt>
      <trkpt lat="42.68834" lon="1.56521">
        <ele>1786.7473144531</ele>
        <time>2012-06-10T08:03:39Z</time>
      </trkpt>
      <trkpt lat="42.68827" lon="1.56518">
        <ele>1787.2280273438</ele>
        <time>2012-06-10T08:03:46Z</time>
      </trkpt>
      <trkpt lat="42.68822" lon="1.56515">
        <ele>1787.2280273438</ele>
        <time>2012-06-10T08:03:53Z</time>
      </trkpt>
      <trkpt lat="42.68816" lon="1.56514">
        <ele>1787.2280273438</ele>
        <time>2012-06-10T08:03:59Z</time>
      </trkpt>
      <trkpt lat="42.68816" lon="1.56514">
        <ele>1788.1896972656</ele>
        <time>2012-06-10T08:04:06Z</time>
      </trkpt>
      <trkpt lat="42.68815" lon="1.56515">
        <ele>1788.1896972656</ele>
        <time>2012-06-10T08:04:19Z</time>
      </trkpt>
      <trkpt lat="42.6881" lon="1.56513">
        <ele>1788.6704101562</ele>
        <time>2012-06-10T08:04:25Z</time>
      </trkpt>
      <trkpt lat="42.68803" lon="1.56512">
        <ele>1786.7473144531</ele>
        <time>2012-06-10T08:04:31Z</time>
      </trkpt>
      <trkpt lat="42.68801" lon="1.56511">
        <ele>1787.7087402344</ele>
        <time>2012-06-10T08:04:37Z</time>
      </trkpt>
      <trkpt lat="42.68798" lon="1.56513">
        <ele>1790.5927734375</ele>
        <time>2012-06-10T08:04:43Z</time>
      </trkpt>
      <trkpt lat="42.68795" lon="1.56517">
        <ele>1791.5541992188</ele>
        <time>2012-06-10T08:04:48Z</time>
      </trkpt>
      <trkpt lat="42.68791" lon="1.56521">
        <ele>1792.99609375</ele>
        <time>2012-06-10T08:04:55Z</time>
      </trkpt>
      <trkpt lat="42.68789" lon="1.56517">
        <ele>1792.515625</ele>
        <time>2012-06-10T08:05:01Z</time>
      </trkpt>
      <trkpt lat="42.68785" lon="1.56517">
        <ele>1793.4768066406</ele>
        <time>2012-06-10T08:05:06Z</time>
      </trkpt>
      <trkpt lat="42.68787" lon="1.56521">
        <ele>1795.8801269531</ele>
        <time>2012-06-10T08:05:11Z</time>
      </trkpt>
      <trkpt lat="42.68789" lon="1.5653">
        <ele>1798.283203125</ele>
        <time>2012-06-10T08:05:18Z</time>
      </trkpt>
      <trkpt lat="42.68786" lon="1.56534">
        <ele>1799.2446289062</ele>
        <time>2012-06-10T08:05:22Z</time>
      </trkpt>
      <trkpt lat="42.68782" lon="1.56538">
        <ele>1799.7253417969</ele>
        <time>2012-06-10T08:05:28Z</time>
      </trkpt>
      <trkpt lat="42.68778" lon="1.56542">
        <ele>1799.7253417969</ele>
        <time>2012-06-10T08:05:32Z</time>
      </trkpt>
      <trkpt lat="42.68775" lon="1.56546">
        <ele>1800.6865234375</ele>
        <time>2012-06-10T08:05:36Z</time>
      </trkpt>
      <trkpt lat="42.6877" lon="1.56551">
        <ele>1802.6091308594</ele>
        <time>2012-06-10T08:05:44Z</time>
      </trkpt>
      <trkpt lat="42.68766" lon="1.56554">
        <ele>1803.5705566406</ele>
        <time>2012-06-10T08:05:50Z</time>
      </trkpt>
      <trkpt lat="42.68763" lon="1.56555">
        <ele>1806.9353027344</ele>
        <time>2012-06-10T08:05:56Z</time>
      </trkpt>
      <trkpt lat="42.68761" lon="1.56554">
        <ele>1807.416015625</ele>
        <time>2012-06-10T08:06:00Z</time>
      </trkpt>
      <trkpt lat="42.6876" lon="1.56549">
        <ele>1807.416015625</ele>
        <time>2012-06-10T08:06:05Z</time>
      </trkpt>
      <trkpt lat="42.68761" lon="1.56546">
        <ele>1808.8579101562</ele>
        <time>2012-06-10T08:06:09Z</time>
      </trkpt>
      <trkpt lat="42.6876" lon="1.5654">
        <ele>1809.3386230469</ele>
        <time>2012-06-10T08:06:16Z</time>
      </trkpt>
      <trkpt lat="42.68758" lon="1.56538">
        <ele>1810.7805175781</ele>
        <time>2012-06-10T08:06:21Z</time>
      </trkpt>
      <trkpt lat="42.68756" lon="1.5654">
        <ele>1811.7419433594</ele>
        <time>2012-06-10T08:06:26Z</time>
      </trkpt>
      <trkpt lat="42.68754" lon="1.56545">
        <ele>1812.703125</ele>
        <time>2012-06-10T08:06:31Z</time>
      </trkpt>
      <trkpt lat="42.68753" lon="1.5655">
        <ele>1813.1838378906</ele>
        <time>2012-06-10T08:06:36Z</time>
      </trkpt>
      <trkpt lat="42.68751" lon="1.56557">
        <ele>1814.1450195312</ele>
        <time>2012-06-10T08:06:43Z</time>
      </trkpt>
      <trkpt lat="42.6875" lon="1.56563">
        <ele>1818.9516601562</ele>
        <time>2012-06-10T08:06:49Z</time>
      </trkpt>
      <trkpt lat="42.68748" lon="1.5657">
        <ele>1820.8745117188</ele>
        <time>2012-06-10T08:06:55Z</time>
      </trkpt>
      <trkpt lat="42.68747" lon="1.56573">
        <ele>1820.3937988281</ele>
        <time>2012-06-10T08:06:59Z</time>
      </trkpt>
      <trkpt lat="42.68746" lon="1.56576">
        <ele>1819.9128417969</ele>
        <time>2012-06-10T08:07:04Z</time>
      </trkpt>
      <trkpt lat="42.68745" lon="1.5658">
        <ele>1819.4323730469</ele>
        <time>2012-06-10T08:07:09Z</time>
      </trkpt>
      <trkpt lat="42.68745" lon="1.56586">
        <ele>1819.9128417969</ele>
        <time>2012-06-10T08:07:15Z</time>
      </trkpt>
      <trkpt lat="42.68742" lon="1.5659">
        <ele>1819.9128417969</ele>
        <time>2012-06-10T08:07:21Z</time>
      </trkpt>
      <trkpt lat="42.6874" lon="1.56587">
        <ele>1819.9128417969</ele>
        <time>2012-06-10T08:07:27Z</time>
      </trkpt>
      <trkpt lat="42.68738" lon="1.56583">
        <ele>1819.9128417969</ele>
        <time>2012-06-10T08:07:33Z</time>
      </trkpt>
      <trkpt lat="42.68734" lon="1.56582">
        <ele>1821.3549804688</ele>
        <time>2012-06-10T08:07:39Z</time>
      </trkpt>
      <trkpt lat="42.68732" lon="1.56588">
        <ele>1823.2778320312</ele>
        <time>2012-06-10T08:07:45Z</time>
      </trkpt>
      <trkpt lat="42.6873" lon="1.56594">
        <ele>1824.7197265625</ele>
        <time>2012-06-10T08:07:52Z</time>
      </trkpt>
      <trkpt lat="42.68729" lon="1.56602">
        <ele>1826.1616210938</ele>
        <time>2012-06-10T08:07:59Z</time>
      </trkpt>
      <trkpt lat="42.68727" lon="1.56608">
        <ele>1828.5649414062</ele>
        <time>2012-06-10T08:08:06Z</time>
      </trkpt>
      <trkpt lat="42.68724" lon="1.56611">
        <ele>1828.5649414062</ele>
        <time>2012-06-10T08:08:10Z</time>
      </trkpt>
      <trkpt lat="42.68723" lon="1.56614">
        <ele>1829.0454101562</ele>
        <time>2012-06-10T08:08:17Z</time>
      </trkpt>
      <trkpt lat="42.6872" lon="1.5662">
        <ele>1830.9682617188</ele>
        <time>2012-06-10T08:08:24Z</time>
      </trkpt>
      <trkpt lat="42.68716" lon="1.56625">
        <ele>1831.9294433594</ele>
        <time>2012-06-10T08:08:31Z</time>
      </trkpt>
      <trkpt lat="42.68714" lon="1.5663">
        <ele>1832.41015625</ele>
        <time>2012-06-10T08:08:38Z</time>
      </trkpt>
      <trkpt lat="42.68711" lon="1.56636">
        <ele>1833.3713378906</ele>
        <time>2012-06-10T08:08:44Z</time>
      </trkpt>
      <trkpt lat="42.68707" lon="1.56637">
        <ele>1833.8520507812</ele>
        <time>2012-06-10T08:08:51Z</time>
      </trkpt>
      <trkpt lat="42.68705" lon="1.56633">
        <ele>1833.8520507812</ele>
        <time>2012-06-10T08:08:56Z</time>
      </trkpt>
      <trkpt lat="42.68704" lon="1.56628">
        <ele>1834.8134765625</ele>
        <time>2012-06-10T08:09:03Z</time>
      </trkpt>
      <trkpt lat="42.68702" lon="1.56623">
        <ele>1835.7746582031</ele>
        <time>2012-06-10T08:09:09Z</time>
      </trkpt>
      <trkpt lat="42.68701" lon="1.56619">
        <ele>1836.2556152344</ele>
        <time>2012-06-10T08:09:13Z</time>
      </trkpt>
      <trkpt lat="42.68699" lon="1.56616">
        <ele>1836.7360839844</ele>
        <time>2012-06-10T08:09:19Z</time>
      </trkpt>
      <trkpt lat="42.68699" lon="1.5661">
        <ele>1838.1782226562</ele>
        <time>2012-06-10T08:09:26Z</time>
      </trkpt>
      <trkpt lat="42.68699" lon="1.56605">
        <ele>1841.0620117188</ele>
        <time>2012-06-10T08:09:31Z</time>
      </trkpt>
      <trkpt lat="42.68697" lon="1.56602">
        <ele>1842.9846191406</ele>
        <time>2012-06-10T08:09:36Z</time>
      </trkpt>
      <trkpt lat="42.68693" lon="1.56604">
        <ele>1843.4653320312</ele>
        <time>2012-06-10T08:09:42Z</time>
      </trkpt>
      <trkpt lat="42.6869" lon="1.56606">
        <ele>1843.9460449219</ele>
        <time>2012-06-10T08:09:47Z</time>
      </trkpt>
      <trkpt lat="42.68687" lon="1.56606">
        <ele>1844.9072265625</ele>
        <time>2012-06-10T08:09:53Z</time>
      </trkpt>
      <trkpt lat="42.68685" lon="1.56602">
        <ele>1846.3493652344</ele>
        <time>2012-06-10T08:09:59Z</time>
      </trkpt>
      <trkpt lat="42.68686" lon="1.56596">
        <ele>1847.7912597656</ele>
        <time>2012-06-10T08:10:07Z</time>
      </trkpt>
      <trkpt lat="42.68686" lon="1.56589">
        <ele>1849.2331542969</ele>
        <time>2012-06-10T08:10:15Z</time>
      </trkpt>
      <trkpt lat="42.68687" lon="1.56584">
        <ele>1849.2331542969</ele>
        <time>2012-06-10T08:10:21Z</time>
      </trkpt>
      <trkpt lat="42.68688" lon="1.56577">
        <ele>1850.1945800781</ele>
        <time>2012-06-10T08:10:27Z</time>
      </trkpt>
      <trkpt lat="42.68688" lon="1.56571">
        <ele>1850.1945800781</ele>
        <time>2012-06-10T08:10:34Z</time>
      </trkpt>
      <trkpt lat="42.68684" lon="1.56567">
        <ele>1850.6750488281</ele>
        <time>2012-06-10T08:10:41Z</time>
      </trkpt>
      <trkpt lat="42.68679" lon="1.56565">
        <ele>1851.6364746094</ele>
        <time>2012-06-10T08:10:47Z</time>
      </trkpt>
      <trkpt lat="42.68676" lon="1.56559">
        <ele>1852.5979003906</ele>
        <time>2012-06-10T08:10:54Z</time>
      </trkpt>
      <trkpt lat="42.68672" lon="1.56554">
        <ele>1854.0400390625</ele>
        <time>2012-06-10T08:11:01Z</time>
      </trkpt>
      <trkpt lat="42.68668" lon="1.56552">
        <ele>1855.9624023438</ele>
        <time>2012-06-10T08:11:09Z</time>
      </trkpt>
      <trkpt lat="42.68666" lon="1.56548">
        <ele>1856.923828125</ele>
        <time>2012-06-10T08:11:15Z</time>
      </trkpt>
      <trkpt lat="42.68666" lon="1.56541">
        <ele>1857.4045410156</ele>
        <time>2012-06-10T08:11:22Z</time>
      </trkpt>
      <trkpt lat="42.68665" lon="1.56539">
        <ele>1857.8852539062</ele>
        <time>2012-06-10T08:11:29Z</time>
      </trkpt>
      <trkpt lat="42.68663" lon="1.56538">
        <ele>1857.8852539062</ele>
        <time>2012-06-10T08:11:35Z</time>
      </trkpt>
      <trkpt lat="42.6866" lon="1.56535">
        <ele>1857.8852539062</ele>
        <time>2012-06-10T08:11:43Z</time>
      </trkpt>
      <trkpt lat="42.68658" lon="1.56534">
        <ele>1857.8852539062</ele>
        <time>2012-06-10T08:11:53Z</time>
      </trkpt>
      <trkpt lat="42.68652" lon="1.56533">
        <ele>1858.3657226562</ele>
        <time>2012-06-10T08:12:00Z</time>
      </trkpt>
      <trkpt lat="42.68649" lon="1.56529">
        <ele>1859.3271484375</ele>
        <time>2012-06-10T08:12:06Z</time>
      </trkpt>
      <trkpt lat="42.68646" lon="1.56527">
        <ele>1860.2883300781</ele>
        <time>2012-06-10T08:12:12Z</time>
      </trkpt>
      <trkpt lat="42.68643" lon="1.56525">
        <ele>1861.2497558594</ele>
        <time>2012-06-10T08:12:17Z</time>
      </trkpt>
      <trkpt lat="42.68642" lon="1.56521">
        <ele>1862.2109375</ele>
        <time>2012-06-10T08:12:22Z</time>
      </trkpt>
      <trkpt lat="42.68639" lon="1.56516">
        <ele>1863.6528320312</ele>
        <time>2012-06-10T08:12:29Z</time>
      </trkpt>
      <trkpt lat="42.68639" lon="1.56511">
        <ele>1865.0949707031</ele>
        <time>2012-06-10T08:12:35Z</time>
      </trkpt>
      <trkpt lat="42.68638" lon="1.56504">
        <ele>1867.017578125</ele>
        <time>2012-06-10T08:12:43Z</time>
      </trkpt>
      <trkpt lat="42.68636" lon="1.565">
        <ele>1869.4211425781</ele>
        <time>2012-06-10T08:12:49Z</time>
      </trkpt>
      <trkpt lat="42.68633" lon="1.56496">
        <ele>1870.8630371094</ele>
        <time>2012-06-10T08:12:56Z</time>
      </trkpt>
      <trkpt lat="42.68631" lon="1.56493">
        <ele>1871.82421875</ele>
        <time>2012-06-10T08:13:00Z</time>
      </trkpt>
      <trkpt lat="42.68625" lon="1.56488">
        <ele>1874.2275390625</ele>
        <time>2012-06-10T08:13:09Z</time>
      </trkpt>
      <trkpt lat="42.68622" lon="1.56483">
        <ele>1874.7082519531</ele>
        <time>2012-06-10T08:13:16Z</time>
      </trkpt>
      <trkpt lat="42.68618" lon="1.56476">
        <ele>1879.9953613281</ele>
        <time>2012-06-10T08:13:24Z</time>
      </trkpt>
      <trkpt lat="42.68615" lon="1.56474">
        <ele>1880.9567871094</ele>
        <time>2012-06-10T08:13:29Z</time>
      </trkpt>
      <trkpt lat="42.6861" lon="1.56471">
        <ele>1881.4372558594</ele>
        <time>2012-06-10T08:13:35Z</time>
      </trkpt>
      <trkpt lat="42.68607" lon="1.56467">
        <ele>1881.4372558594</ele>
        <time>2012-06-10T08:13:41Z</time>
      </trkpt>
      <trkpt lat="42.68603" lon="1.56463">
        <ele>1882.3986816406</ele>
        <time>2012-06-10T08:13:48Z</time>
      </trkpt>
      <trkpt lat="42.686" lon="1.56461">
        <ele>1882.8791503906</ele>
        <time>2012-06-10T08:13:54Z</time>
      </trkpt>
      <trkpt lat="42.68597" lon="1.5646">
        <ele>1883.8405761719</ele>
        <time>2012-06-10T08:13:59Z</time>
      </trkpt>
      <trkpt lat="42.68595" lon="1.56455">
        <ele>1885.2827148438</ele>
        <time>2012-06-10T08:14:07Z</time>
      </trkpt>
      <trkpt lat="42.68592" lon="1.56452">
        <ele>1886.244140625</ele>
        <time>2012-06-10T08:14:15Z</time>
      </trkpt>
      <trkpt lat="42.68589" lon="1.56455">
        <ele>1888.1667480469</ele>
        <time>2012-06-10T08:14:22Z</time>
      </trkpt>
      <trkpt lat="42.68586" lon="1.56452">
        <ele>1889.6086425781</ele>
        <time>2012-06-10T08:14:27Z</time>
      </trkpt>
      <trkpt lat="42.68583" lon="1.5645">
        <ele>1891.53125</ele>
        <time>2012-06-10T08:14:34Z</time>
      </trkpt>
      <trkpt lat="42.68578" lon="1.5645">
        <ele>1893.4538574219</ele>
        <time>2012-06-10T08:14:40Z</time>
      </trkpt>
      <trkpt lat="42.68576" lon="1.56447">
        <ele>1893.4538574219</ele>
        <time>2012-06-10T08:14:45Z</time>
      </trkpt>
      <trkpt lat="42.68575" lon="1.56443">
        <ele>1894.4150390625</ele>
        <time>2012-06-10T08:14:51Z</time>
      </trkpt>
      <trkpt lat="42.6857" lon="1.56439">
        <ele>1894.8957519531</ele>
        <time>2012-06-10T08:14:57Z</time>
      </trkpt>
      <trkpt lat="42.68567" lon="1.56432">
        <ele>1895.8571777344</ele>
        <time>2012-06-10T08:15:04Z</time>
      </trkpt>
      <trkpt lat="42.68564" lon="1.56425">
        <ele>1898.7409667969</ele>
        <time>2012-06-10T08:15:09Z</time>
      </trkpt>
      <trkpt lat="42.68562" lon="1.56418">
        <ele>1899.7023925781</ele>
        <time>2012-06-10T08:15:16Z</time>
      </trkpt>
      <trkpt lat="42.6856" lon="1.56412">
        <ele>1901.14453125</ele>
        <time>2012-06-10T08:15:22Z</time>
      </trkpt>
      <trkpt lat="42.68558" lon="1.56407">
        <ele>1902.1057128906</ele>
        <time>2012-06-10T08:15:28Z</time>
      </trkpt>
      <trkpt lat="42.68555" lon="1.56402">
        <ele>1905.4704589844</ele>
        <time>2012-06-10T08:15:34Z</time>
      </trkpt>
      <trkpt lat="42.68552" lon="1.56395">
        <ele>1907.8737792969</ele>
        <time>2012-06-10T08:15:41Z</time>
      </trkpt>
      <trkpt lat="42.68549" lon="1.56394">
        <ele>1906.9123535156</ele>
        <time>2012-06-10T08:15:49Z</time>
      </trkpt>
      <trkpt lat="42.68543" lon="1.56394">
        <ele>1906.431640625</ele>
        <time>2012-06-10T08:15:56Z</time>
      </trkpt>
      <trkpt lat="42.68545" lon="1.56389">
        <ele>1905.9509277344</ele>
        <time>2012-06-10T08:16:01Z</time>
      </trkpt>
      <trkpt lat="42.68548" lon="1.56382">
        <ele>1905.9509277344</ele>
        <time>2012-06-10T08:16:09Z</time>
      </trkpt>
      <trkpt lat="42.68544" lon="1.56378">
        <ele>1905.9509277344</ele>
        <time>2012-06-10T08:16:16Z</time>
      </trkpt>
      <trkpt lat="42.68541" lon="1.56375">
        <ele>1905.9509277344</ele>
        <time>2012-06-10T08:16:21Z</time>
      </trkpt>
      <trkpt lat="42.68539" lon="1.56369">
        <ele>1906.431640625</ele>
        <time>2012-06-10T08:16:29Z</time>
      </trkpt>
      <trkpt lat="42.68537" lon="1.56362">
        <ele>1907.3930664062</ele>
        <time>2012-06-10T08:16:37Z</time>
      </trkpt>
      <trkpt lat="42.68536" lon="1.56357">
        <ele>1908.3542480469</ele>
        <time>2012-06-10T08:16:44Z</time>
      </trkpt>
      <trkpt lat="42.68536" lon="1.56351">
        <ele>1909.7961425781</ele>
        <time>2012-06-10T08:16:51Z</time>
      </trkpt>
      <trkpt lat="42.68538" lon="1.56347">
        <ele>1910.2768554688</ele>
        <time>2012-06-10T08:16:58Z</time>
      </trkpt>
      <trkpt lat="42.68539" lon="1.56343">
        <ele>1911.23828125</ele>
        <time>2012-06-10T08:17:04Z</time>
      </trkpt>
      <trkpt lat="42.6854" lon="1.56339">
        <ele>1910.7575683594</ele>
        <time>2012-06-10T08:17:10Z</time>
      </trkpt>
      <trkpt lat="42.68538" lon="1.56336">
        <ele>1912.1994628906</ele>
        <time>2012-06-10T08:17:14Z</time>
      </trkpt>
      <trkpt lat="42.68535" lon="1.56336">
        <ele>1913.6413574219</ele>
        <time>2012-06-10T08:17:19Z</time>
      </trkpt>
      <trkpt lat="42.68532" lon="1.56334">
        <ele>1913.6413574219</ele>
        <time>2012-06-10T08:17:25Z</time>
      </trkpt>
      <trkpt lat="42.68526" lon="1.56328">
        <ele>1914.6027832031</ele>
        <time>2012-06-10T08:17:32Z</time>
      </trkpt>
      <trkpt lat="42.68525" lon="1.56327">
        <ele>1914.6027832031</ele>
        <time>2012-06-10T08:17:34Z</time>
      </trkpt>
      <trkpt lat="42.68521" lon="1.56317">
        <ele>1917.0063476562</ele>
        <time>2012-06-10T08:17:41Z</time>
      </trkpt>
      <trkpt lat="42.68521" lon="1.5631">
        <ele>1918.4482421875</ele>
        <time>2012-06-10T08:17:45Z</time>
      </trkpt>
      <trkpt lat="42.68522" lon="1.56307">
        <ele>1918.9289550781</ele>
        <time>2012-06-10T08:17:47Z</time>
      </trkpt>
      <trkpt lat="42.68525" lon="1.56295">
        <ele>1918.4482421875</ele>
        <time>2012-06-10T08:17:56Z</time>
      </trkpt>
      <trkpt lat="42.68525" lon="1.56294">
        <ele>1917.9675292969</ele>
        <time>2012-06-10T08:17:57Z</time>
      </trkpt>
      <trkpt lat="42.68531" lon="1.56289">
        <ele>1916.044921875</ele>
        <time>2012-06-10T08:18:04Z</time>
      </trkpt>
      <trkpt lat="42.68534" lon="1.56285">
        <ele>1914.6027832031</ele>
        <time>2012-06-10T08:18:10Z</time>
      </trkpt>
      <trkpt lat="42.68539" lon="1.56279">
        <ele>1914.6027832031</ele>
        <time>2012-06-10T08:18:19Z</time>
      </trkpt>
      <trkpt lat="42.68542" lon="1.56276">
        <ele>1915.0834960938</ele>
        <time>2012-06-10T08:18:25Z</time>
      </trkpt>
      <trkpt lat="42.68544" lon="1.56269">
        <ele>1915.5642089844</ele>
        <time>2012-06-10T08:18:32Z</time>
      </trkpt>
      <trkpt lat="42.68546" lon="1.56263">
        <ele>1916.5256347656</ele>
        <time>2012-06-10T08:18:38Z</time>
      </trkpt>
      <trkpt lat="42.68549" lon="1.56257">
        <ele>1917.0063476562</ele>
        <time>2012-06-10T08:18:45Z</time>
      </trkpt>
      <trkpt lat="42.68551" lon="1.56254">
        <ele>1917.4868164062</ele>
        <time>2012-06-10T08:18:51Z</time>
      </trkpt>
      <trkpt lat="42.68552" lon="1.56252">
        <ele>1917.9675292969</ele>
        <time>2012-06-10T08:18:58Z</time>
      </trkpt>
      <trkpt lat="42.68554" lon="1.56251">
        <ele>1917.9675292969</ele>
        <time>2012-06-10T08:19:03Z</time>
      </trkpt>
      <trkpt lat="42.68554" lon="1.56251">
        <ele>1918.4482421875</ele>
        <time>2012-06-10T08:19:08Z</time>
      </trkpt>
      <trkpt lat="42.68555" lon="1.5625">
        <ele>1917.4868164062</ele>
        <time>2012-06-10T08:25:02Z</time>
      </trkpt>
      <trkpt lat="42.68555" lon="1.5625">
        <ele>1917.4868164062</ele>
        <time>2012-06-10T08:25:03Z</time>
      </trkpt>
      <trkpt lat="42.68557" lon="1.56248">
        <ele>1917.4868164062</ele>
        <time>2012-06-10T08:25:09Z</time>
      </trkpt>
      <trkpt lat="42.6856" lon="1.56244">
        <ele>1918.4482421875</ele>
        <time>2012-06-10T08:25:15Z</time>
      </trkpt>
      <trkpt lat="42.68561" lon="1.5624">
        <ele>1919.8901367188</ele>
        <time>2012-06-10T08:25:20Z</time>
      </trkpt>
      <trkpt lat="42.68563" lon="1.56234">
        <ele>1923.2548828125</ele>
        <time>2012-06-10T08:25:29Z</time>
      </trkpt>
      <trkpt lat="42.68566" lon="1.56233">
        <ele>1923.2548828125</ele>
        <time>2012-06-10T08:25:32Z</time>
      </trkpt>
      <trkpt lat="42.68568" lon="1.5623">
        <ele>1925.1772460938</ele>
        <time>2012-06-10T08:25:37Z</time>
      </trkpt>
      <trkpt lat="42.6857" lon="1.56228">
        <ele>1925.6579589844</ele>
        <time>2012-06-10T08:25:43Z</time>
      </trkpt>
      <trkpt lat="42.68571" lon="1.56225">
        <ele>1927.1000976562</ele>
        <time>2012-06-10T08:25:49Z</time>
      </trkpt>
      <trkpt lat="42.68572" lon="1.56221">
        <ele>1928.5419921875</ele>
        <time>2012-06-10T08:25:54Z</time>
      </trkpt>
      <trkpt lat="42.68574" lon="1.56219">
        <ele>1929.9838867188</ele>
        <time>2012-06-10T08:26:01Z</time>
      </trkpt>
      <trkpt lat="42.68577" lon="1.56223">
        <ele>1930.9453125</ele>
        <time>2012-06-10T08:26:07Z</time>
      </trkpt>
      <trkpt lat="42.68578" lon="1.56223">
        <ele>1931.42578125</ele>
        <time>2012-06-10T08:26:13Z</time>
      </trkpt>
      <trkpt lat="42.68579" lon="1.5622">
        <ele>1932.3874511719</ele>
        <time>2012-06-10T08:26:18Z</time>
      </trkpt>
      <trkpt lat="42.68579" lon="1.56215">
        <ele>1933.3486328125</ele>
        <time>2012-06-10T08:26:23Z</time>
      </trkpt>
      <trkpt lat="42.68581" lon="1.5621">
        <ele>1935.2712402344</ele>
        <time>2012-06-10T08:26:30Z</time>
      </trkpt>
      <trkpt lat="42.68582" lon="1.56207">
        <ele>1935.751953125</ele>
        <time>2012-06-10T08:26:35Z</time>
      </trkpt>
      <trkpt lat="42.68583" lon="1.56202">
        <ele>1936.2326660156</ele>
        <time>2012-06-10T08:26:41Z</time>
      </trkpt>
      <trkpt lat="42.68583" lon="1.56197">
        <ele>1938.1552734375</ele>
        <time>2012-06-10T08:26:47Z</time>
      </trkpt>
      <trkpt lat="42.68587" lon="1.56196">
        <ele>1937.6745605469</ele>
        <time>2012-06-10T08:26:55Z</time>
      </trkpt>
      <trkpt lat="42.68589" lon="1.56194">
        <ele>1938.1552734375</ele>
        <time>2012-06-10T08:27:00Z</time>
      </trkpt>
      <trkpt lat="42.68589" lon="1.5619">
        <ele>1940.5583496094</ele>
        <time>2012-06-10T08:27:06Z</time>
      </trkpt>
      <trkpt lat="42.68592" lon="1.56189">
        <ele>1942.0004882812</ele>
        <time>2012-06-10T08:27:11Z</time>
      </trkpt>
      <trkpt lat="42.68594" lon="1.56189">
        <ele>1943.4423828125</ele>
        <time>2012-06-10T08:27:19Z</time>
      </trkpt>
      <trkpt lat="42.68596" lon="1.56185">
        <ele>1944.8842773438</ele>
        <time>2012-06-10T08:27:25Z</time>
      </trkpt>
      <trkpt lat="42.68599" lon="1.56181">
        <ele>1947.2875976562</ele>
        <time>2012-06-10T08:27:33Z</time>
      </trkpt>
      <trkpt lat="42.68601" lon="1.56178">
        <ele>1948.7297363281</ele>
        <time>2012-06-10T08:27:40Z</time>
      </trkpt>
      <trkpt lat="42.68603" lon="1.56173">
        <ele>1950.171875</ele>
        <time>2012-06-10T08:27:46Z</time>
      </trkpt>
      <trkpt lat="42.68606" lon="1.56171">
        <ele>1951.6137695312</ele>
        <time>2012-06-10T08:27:53Z</time>
      </trkpt>
      <trkpt lat="42.68607" lon="1.56168">
        <ele>1953.0556640625</ele>
        <time>2012-06-10T08:27:59Z</time>
      </trkpt>
      <trkpt lat="42.6861" lon="1.56167">
        <ele>1954.4975585938</ele>
        <time>2012-06-10T08:28:06Z</time>
      </trkpt>
      <trkpt lat="42.68612" lon="1.56165">
        <ele>1954.4975585938</ele>
        <time>2012-06-10T08:28:12Z</time>
      </trkpt>
      <trkpt lat="42.68614" lon="1.56169">
        <ele>1954.9782714844</ele>
        <time>2012-06-10T08:28:18Z</time>
      </trkpt>
      <trkpt lat="42.68615" lon="1.56174">
        <ele>1955.939453125</ele>
        <time>2012-06-10T08:28:24Z</time>
      </trkpt>
      <trkpt lat="42.68616" lon="1.56177">
        <ele>1956.9008789062</ele>
        <time>2012-06-10T08:28:29Z</time>
      </trkpt>
      <trkpt lat="42.68616" lon="1.56181">
        <ele>1957.8623046875</ele>
        <time>2012-06-10T08:28:34Z</time>
      </trkpt>
      <trkpt lat="42.68617" lon="1.56186">
        <ele>1958.8234863281</ele>
        <time>2012-06-10T08:28:40Z</time>
      </trkpt>
      <trkpt lat="42.68619" lon="1.56187">
        <ele>1960.2653808594</ele>
        <time>2012-06-10T08:28:48Z</time>
      </trkpt>
      <trkpt lat="42.6862" lon="1.56181">
        <ele>1960.74609375</ele>
        <time>2012-06-10T08:28:56Z</time>
      </trkpt>
      <trkpt lat="42.68623" lon="1.56176">
        <ele>1962.1879882812</ele>
        <time>2012-06-10T08:29:02Z</time>
      </trkpt>
      <trkpt lat="42.68624" lon="1.56172">
        <ele>1964.5915527344</ele>
        <time>2012-06-10T08:29:08Z</time>
      </trkpt>
      <trkpt lat="42.68626" lon="1.56176">
        <ele>1966.5141601562</ele>
        <time>2012-06-10T08:29:14Z</time>
      </trkpt>
      <trkpt lat="42.68626" lon="1.56181">
        <ele>1968.4367675781</ele>
        <time>2012-06-10T08:29:22Z</time>
      </trkpt>
      <trkpt lat="42.68628" lon="1.56182">
        <ele>1969.3981933594</ele>
        <time>2012-06-10T08:29:28Z</time>
      </trkpt>
      <trkpt lat="42.6863" lon="1.5618">
        <ele>1969.8786621094</ele>
        <time>2012-06-10T08:29:33Z</time>
      </trkpt>
      <trkpt lat="42.68632" lon="1.56178">
        <ele>1971.3205566406</ele>
        <time>2012-06-10T08:29:38Z</time>
      </trkpt>
      <trkpt lat="42.68635" lon="1.56175">
        <ele>1972.7626953125</ele>
        <time>2012-06-10T08:29:44Z</time>
      </trkpt>
      <trkpt lat="42.68637" lon="1.56172">
        <ele>1973.7238769531</ele>
        <time>2012-06-10T08:29:49Z</time>
      </trkpt>
      <trkpt lat="42.6864" lon="1.56168">
        <ele>1974.6853027344</ele>
        <time>2012-06-10T08:29:55Z</time>
      </trkpt>
      <trkpt lat="42.68642" lon="1.56166">
        <ele>1974.6853027344</ele>
        <time>2012-06-10T08:30:02Z</time>
      </trkpt>
      <trkpt lat="42.68645" lon="1.56166">
        <ele>1975.1657714844</ele>
        <time>2012-06-10T08:30:07Z</time>
      </trkpt>
      <trkpt lat="42.68648" lon="1.56163">
        <ele>1976.1271972656</ele>
        <time>2012-06-10T08:30:13Z</time>
      </trkpt>
      <trkpt lat="42.68651" lon="1.5616">
        <ele>1978.5305175781</ele>
        <time>2012-06-10T08:30:20Z</time>
      </trkpt>
      <trkpt lat="42.68652" lon="1.56155">
        <ele>1979.4916992188</ele>
        <time>2012-06-10T08:30:25Z</time>
      </trkpt>
      <trkpt lat="42.68655" lon="1.5615">
        <ele>1980.4533691406</ele>
        <time>2012-06-10T08:30:31Z</time>
      </trkpt>
      <trkpt lat="42.68656" lon="1.56146">
        <ele>1981.8952636719</ele>
        <time>2012-06-10T08:30:37Z</time>
      </trkpt>
      <trkpt lat="42.68657" lon="1.56139">
        <ele>1983.8178710938</ele>
        <time>2012-06-10T08:30:45Z</time>
      </trkpt>
      <trkpt lat="42.68658" lon="1.56132">
        <ele>1984.779296875</ele>
        <time>2012-06-10T08:30:52Z</time>
      </trkpt>
      <trkpt lat="42.6866" lon="1.56126">
        <ele>1986.2211914062</ele>
        <time>2012-06-10T08:31:00Z</time>
      </trkpt>
      <trkpt lat="42.68662" lon="1.56121">
        <ele>1988.1437988281</ele>
        <time>2012-06-10T08:31:08Z</time>
      </trkpt>
      <trkpt lat="42.68663" lon="1.56117">
        <ele>1989.5856933594</ele>
        <time>2012-06-10T08:31:13Z</time>
      </trkpt>
      <trkpt lat="42.68664" lon="1.56112">
        <ele>1991.5083007812</ele>
        <time>2012-06-10T08:31:20Z</time>
      </trkpt>
      <trkpt lat="42.68665" lon="1.56107">
        <ele>1993.4309082031</ele>
        <time>2012-06-10T08:31:26Z</time>
      </trkpt>
      <trkpt lat="42.68666" lon="1.56103">
        <ele>1993.4309082031</ele>
        <time>2012-06-10T08:31:31Z</time>
      </trkpt>
      <trkpt lat="42.68666" lon="1.561">
        <ele>1994.3920898438</ele>
        <time>2012-06-10T08:31:36Z</time>
      </trkpt>
      <trkpt lat="42.68669" lon="1.56099">
        <ele>1995.353515625</ele>
        <time>2012-06-10T08:31:41Z</time>
      </trkpt>
      <trkpt lat="42.68673" lon="1.56101">
        <ele>1996.7956542969</ele>
        <time>2012-06-10T08:31:48Z</time>
      </trkpt>
      <trkpt lat="42.68676" lon="1.56105">
        <ele>1997.2763671875</ele>
        <time>2012-06-10T08:31:54Z</time>
      </trkpt>
      <trkpt lat="42.68678" lon="1.56108">
        <ele>1998.2375488281</ele>
        <time>2012-06-10T08:32:01Z</time>
      </trkpt>
      <trkpt lat="42.6868" lon="1.56113">
        <ele>2000.1604003906</ele>
        <time>2012-06-10T08:32:09Z</time>
      </trkpt>
      <trkpt lat="42.68681" lon="1.56117">
        <ele>2001.1215820312</ele>
        <time>2012-06-10T08:32:15Z</time>
      </trkpt>
      <trkpt lat="42.68682" lon="1.56119">
        <ele>2001.6022949219</ele>
        <time>2012-06-10T08:32:20Z</time>
      </trkpt>
      <trkpt lat="42.68683" lon="1.56116">
        <ele>2003.0441894531</ele>
        <time>2012-06-10T08:32:25Z</time>
      </trkpt>
      <trkpt lat="42.68685" lon="1.56113">
        <ele>2003.0441894531</ele>
        <time>2012-06-10T08:32:30Z</time>
      </trkpt>
      <trkpt lat="42.68685" lon="1.56111">
        <ele>2003.5249023438</ele>
        <time>2012-06-10T08:32:33Z</time>
      </trkpt>
      <trkpt lat="42.68685" lon="1.56108">
        <ele>2004.4860839844</ele>
        <time>2012-06-10T08:32:38Z</time>
      </trkpt>
      <trkpt lat="42.68687" lon="1.56102">
        <ele>2006.4086914062</ele>
        <time>2012-06-10T08:32:46Z</time>
      </trkpt>
      <trkpt lat="42.68687" lon="1.56099">
        <ele>2007.3701171875</ele>
        <time>2012-06-10T08:32:51Z</time>
      </trkpt>
      <trkpt lat="42.68688" lon="1.56095">
        <ele>2008.3312988281</ele>
        <time>2012-06-10T08:32:56Z</time>
      </trkpt>
      <trkpt lat="42.6869" lon="1.56093">
        <ele>2008.3312988281</ele>
        <time>2012-06-10T08:33:01Z</time>
      </trkpt>
      <trkpt lat="42.6869" lon="1.56086">
        <ele>2011.2153320312</ele>
        <time>2012-06-10T08:33:08Z</time>
      </trkpt>
      <trkpt lat="42.68692" lon="1.56082">
        <ele>2011.2153320312</ele>
        <time>2012-06-10T08:33:15Z</time>
      </trkpt>
      <trkpt lat="42.68693" lon="1.56075">
        <ele>2012.6574707031</ele>
        <time>2012-06-10T08:33:23Z</time>
      </trkpt>
      <trkpt lat="42.68693" lon="1.56074">
        <ele>2013.1381835938</ele>
        <time>2012-06-10T08:33:31Z</time>
      </trkpt>
      <trkpt lat="42.68693" lon="1.56074">
        <ele>2013.6186523438</ele>
        <time>2012-06-10T08:33:45Z</time>
      </trkpt>
      <trkpt lat="42.68693" lon="1.56072">
        <ele>2013.1381835938</ele>
        <time>2012-06-10T08:33:57Z</time>
      </trkpt>
      <trkpt lat="42.68695" lon="1.56072">
        <ele>2013.6186523438</ele>
        <time>2012-06-10T08:34:04Z</time>
      </trkpt>
      <trkpt lat="42.68698" lon="1.56076">
        <ele>2014.580078125</ele>
        <time>2012-06-10T08:34:12Z</time>
      </trkpt>
      <trkpt lat="42.68701" lon="1.56078">
        <ele>2016.0219726562</ele>
        <time>2012-06-10T08:34:18Z</time>
      </trkpt>
      <trkpt lat="42.68705" lon="1.5608">
        <ele>2017.9445800781</ele>
        <time>2012-06-10T08:34:25Z</time>
      </trkpt>
      <trkpt lat="42.68707" lon="1.56083">
        <ele>2018.4252929688</ele>
        <time>2012-06-10T08:34:30Z</time>
      </trkpt>
      <trkpt lat="42.68709" lon="1.56087">
        <ele>2019.8671875</ele>
        <time>2012-06-10T08:34:37Z</time>
      </trkpt>
      <trkpt lat="42.6871" lon="1.56083">
        <ele>2020.8286132812</ele>
        <time>2012-06-10T08:34:43Z</time>
      </trkpt>
      <trkpt lat="42.68713" lon="1.56081">
        <ele>2021.7897949219</ele>
        <time>2012-06-10T08:34:49Z</time>
      </trkpt>
      <trkpt lat="42.68714" lon="1.56084">
        <ele>2022.7512207031</ele>
        <time>2012-06-10T08:34:54Z</time>
      </trkpt>
      <trkpt lat="42.68715" lon="1.56083">
        <ele>2023.7124023438</ele>
        <time>2012-06-10T08:34:59Z</time>
      </trkpt>
      <trkpt lat="42.68715" lon="1.56082">
        <ele>2025.6350097656</ele>
        <time>2012-06-10T08:35:07Z</time>
      </trkpt>
      <trkpt lat="42.68715" lon="1.5608">
        <ele>2027.5576171875</ele>
        <time>2012-06-10T08:35:24Z</time>
      </trkpt>
      <trkpt lat="42.68716" lon="1.56075">
        <ele>2028.9997558594</ele>
        <time>2012-06-10T08:35:30Z</time>
      </trkpt>
      <trkpt lat="42.68719" lon="1.56073">
        <ele>2029.9611816406</ele>
        <time>2012-06-10T08:35:36Z</time>
      </trkpt>
      <trkpt lat="42.68722" lon="1.56077">
        <ele>2031.4030761719</ele>
        <time>2012-06-10T08:35:41Z</time>
      </trkpt>
      <trkpt lat="42.68725" lon="1.56078">
        <ele>2031.8837890625</ele>
        <time>2012-06-10T08:35:47Z</time>
      </trkpt>
      <trkpt lat="42.68726" lon="1.56075">
        <ele>2032.8449707031</ele>
        <time>2012-06-10T08:35:52Z</time>
      </trkpt>
      <trkpt lat="42.68726" lon="1.56071">
        <ele>2033.8063964844</ele>
        <time>2012-06-10T08:35:57Z</time>
      </trkpt>
      <trkpt lat="42.68727" lon="1.56063">
        <ele>2034.287109375</ele>
        <time>2012-06-10T08:36:04Z</time>
      </trkpt>
      <trkpt lat="42.68729" lon="1.56058">
        <ele>2036.6901855469</ele>
        <time>2012-06-10T08:36:11Z</time>
      </trkpt>
      <trkpt lat="42.68732" lon="1.56059">
        <ele>2037.1708984375</ele>
        <time>2012-06-10T08:36:16Z</time>
      </trkpt>
      <trkpt lat="42.68733" lon="1.56064">
        <ele>2037.6516113281</ele>
        <time>2012-06-10T08:36:22Z</time>
      </trkpt>
      <trkpt lat="42.68735" lon="1.56067">
        <ele>2038.6130371094</ele>
        <time>2012-06-10T08:36:27Z</time>
      </trkpt>
      <trkpt lat="42.68736" lon="1.56069">
        <ele>2039.0935058594</ele>
        <time>2012-06-10T08:36:33Z</time>
      </trkpt>
      <trkpt lat="42.68736" lon="1.56072">
        <ele>2040.0549316406</ele>
        <time>2012-06-10T08:36:38Z</time>
      </trkpt>
      <trkpt lat="42.68737" lon="1.56078">
        <ele>2041.9775390625</ele>
        <time>2012-06-10T08:36:45Z</time>
      </trkpt>
      <trkpt lat="42.68739" lon="1.56076">
        <ele>2043.4194335938</ele>
        <time>2012-06-10T08:36:50Z</time>
      </trkpt>
      <trkpt lat="42.6874" lon="1.56071">
        <ele>2044.8615722656</ele>
        <time>2012-06-10T08:36:56Z</time>
      </trkpt>
      <trkpt lat="42.68742" lon="1.5607">
        <ele>2046.3037109375</ele>
        <time>2012-06-10T08:37:01Z</time>
      </trkpt>
      <trkpt lat="42.68744" lon="1.56068">
        <ele>2048.2260742188</ele>
        <time>2012-06-10T08:37:06Z</time>
      </trkpt>
      <trkpt lat="42.68746" lon="1.56071">
        <ele>2048.7067871094</ele>
        <time>2012-06-10T08:37:11Z</time>
      </trkpt>
      <trkpt lat="42.68746" lon="1.56076">
        <ele>2049.6682128906</ele>
        <time>2012-06-10T08:37:17Z</time>
      </trkpt>
      <trkpt lat="42.68749" lon="1.5608">
        <ele>2050.6293945312</ele>
        <time>2012-06-10T08:37:25Z</time>
      </trkpt>
      <trkpt lat="42.68751" lon="1.56082">
        <ele>2051.1101074219</ele>
        <time>2012-06-10T08:37:30Z</time>
      </trkpt>
      <trkpt lat="42.68753" lon="1.56082">
        <ele>2052.0712890625</ele>
        <time>2012-06-10T08:37:36Z</time>
      </trkpt>
      <trkpt lat="42.68755" lon="1.56077">
        <ele>2053.5134277344</ele>
        <time>2012-06-10T08:37:43Z</time>
      </trkpt>
      <trkpt lat="42.68756" lon="1.56072">
        <ele>2055.4360351562</ele>
        <time>2012-06-10T08:37:50Z</time>
      </trkpt>
      <trkpt lat="42.68758" lon="1.5607">
        <ele>2058.3198242188</ele>
        <time>2012-06-10T08:37:56Z</time>
      </trkpt>
      <trkpt lat="42.68761" lon="1.56071">
        <ele>2059.76171875</ele>
        <time>2012-06-10T08:38:01Z</time>
      </trkpt>
      <trkpt lat="42.68764" lon="1.56073">
        <ele>2060.7233886719</ele>
        <time>2012-06-10T08:38:07Z</time>
      </trkpt>
      <trkpt lat="42.68766" lon="1.5607">
        <ele>2062.1652832031</ele>
        <time>2012-06-10T08:38:13Z</time>
      </trkpt>
      <trkpt lat="42.68768" lon="1.56066">
        <ele>2063.1267089844</ele>
        <time>2012-06-10T08:38:20Z</time>
      </trkpt>
      <trkpt lat="42.68771" lon="1.56063">
        <ele>2064.5686035156</ele>
        <time>2012-06-10T08:38:26Z</time>
      </trkpt>
      <trkpt lat="42.68774" lon="1.56059">
        <ele>2065.5300292969</ele>
        <time>2012-06-10T08:38:32Z</time>
      </trkpt>
      <trkpt lat="42.68776" lon="1.56056">
        <ele>2066.4912109375</ele>
        <time>2012-06-10T08:38:38Z</time>
      </trkpt>
      <trkpt lat="42.68776" lon="1.56053">
        <ele>2066.9719238281</ele>
        <time>2012-06-10T08:38:44Z</time>
      </trkpt>
      <trkpt lat="42.68777" lon="1.56049">
        <ele>2068.89453125</ele>
        <time>2012-06-10T08:38:50Z</time>
      </trkpt>
      <trkpt lat="42.6878" lon="1.56049">
        <ele>2070.3364257812</ele>
        <time>2012-06-10T08:38:58Z</time>
      </trkpt>
      <trkpt lat="42.68784" lon="1.5605">
        <ele>2070.8171386719</ele>
        <time>2012-06-10T08:39:04Z</time>
      </trkpt>
      <trkpt lat="42.68789" lon="1.56048">
        <ele>2071.2976074219</ele>
        <time>2012-06-10T08:39:10Z</time>
      </trkpt>
      <trkpt lat="42.68793" lon="1.56047">
        <ele>2071.7783203125</ele>
        <time>2012-06-10T08:39:17Z</time>
      </trkpt>
      <trkpt lat="42.68798" lon="1.56044">
        <ele>2072.2590332031</ele>
        <time>2012-06-10T08:39:25Z</time>
      </trkpt>
      <trkpt lat="42.68801" lon="1.56042">
        <ele>2073.7009277344</ele>
        <time>2012-06-10T08:39:30Z</time>
      </trkpt>
      <trkpt lat="42.68803" lon="1.5604">
        <ele>2075.1428222656</ele>
        <time>2012-06-10T08:39:38Z</time>
      </trkpt>
      <trkpt lat="42.68806" lon="1.56039">
        <ele>2076.5852050781</ele>
        <time>2012-06-10T08:39:44Z</time>
      </trkpt>
      <trkpt lat="42.6881" lon="1.56036">
        <ele>2078.98828125</ele>
        <time>2012-06-10T08:39:52Z</time>
      </trkpt>
      <trkpt lat="42.68813" lon="1.56035">
        <ele>2079.4689941406</ele>
        <time>2012-06-10T08:39:58Z</time>
      </trkpt>
      <trkpt lat="42.68818" lon="1.56033">
        <ele>2079.9497070312</ele>
        <time>2012-06-10T08:40:05Z</time>
      </trkpt>
      <trkpt lat="42.68824" lon="1.5603">
        <ele>2079.9497070312</ele>
        <time>2012-06-10T08:40:12Z</time>
      </trkpt>
      <trkpt lat="42.68828" lon="1.56029">
        <ele>2080.9111328125</ele>
        <time>2012-06-10T08:40:18Z</time>
      </trkpt>
      <trkpt lat="42.68832" lon="1.56029">
        <ele>2082.8334960938</ele>
        <time>2012-06-10T08:40:25Z</time>
      </trkpt>
      <trkpt lat="42.68832" lon="1.5603">
        <ele>2083.3142089844</ele>
        <time>2012-06-10T08:40:33Z</time>
      </trkpt>
      <trkpt lat="42.68835" lon="1.56029">
        <ele>2084.2756347656</ele>
        <time>2012-06-10T08:40:40Z</time>
      </trkpt>
      <trkpt lat="42.68841" lon="1.56026">
        <ele>2085.2368164062</ele>
        <time>2012-06-10T08:40:46Z</time>
      </trkpt>
      <trkpt lat="42.68846" lon="1.56021">
        <ele>2086.1982421875</ele>
        <time>2012-06-10T08:40:53Z</time>
      </trkpt>
      <trkpt lat="42.68851" lon="1.56015">
        <ele>2086.6787109375</ele>
        <time>2012-06-10T08:41:00Z</time>
      </trkpt>
      <trkpt lat="42.68856" lon="1.56012">
        <ele>2086.6787109375</ele>
        <time>2012-06-10T08:41:06Z</time>
      </trkpt>
      <trkpt lat="42.68862" lon="1.56011">
        <ele>2086.1982421875</ele>
        <time>2012-06-10T08:41:14Z</time>
      </trkpt>
      <trkpt lat="42.68868" lon="1.5601">
        <ele>2087.1594238281</ele>
        <time>2012-06-10T08:41:22Z</time>
      </trkpt>
      <trkpt lat="42.68872" lon="1.5601">
        <ele>2088.1208496094</ele>
        <time>2012-06-10T08:41:27Z</time>
      </trkpt>
      <trkpt lat="42.68876" lon="1.56008">
        <ele>2090.5239257812</ele>
        <time>2012-06-10T08:41:34Z</time>
      </trkpt>
      <trkpt lat="42.6888" lon="1.56007">
        <ele>2092.4470214844</ele>
        <time>2012-06-10T08:41:40Z</time>
      </trkpt>
      <trkpt lat="42.68885" lon="1.56005">
        <ele>2093.8889160156</ele>
        <time>2012-06-10T08:41:48Z</time>
      </trkpt>
      <trkpt lat="42.68889" lon="1.56003">
        <ele>2094.3693847656</ele>
        <time>2012-06-10T08:41:53Z</time>
      </trkpt>
      <trkpt lat="42.68895" lon="1.56002">
        <ele>2095.3308105469</ele>
        <time>2012-06-10T08:42:00Z</time>
      </trkpt>
      <trkpt lat="42.68898" lon="1.56">
        <ele>2095.3308105469</ele>
        <time>2012-06-10T08:42:04Z</time>
      </trkpt>
      <trkpt lat="42.68901" lon="1.55997">
        <ele>2095.3308105469</ele>
        <time>2012-06-10T08:42:11Z</time>
      </trkpt>
      <trkpt lat="42.68905" lon="1.55995">
        <ele>2096.2922363281</ele>
        <time>2012-06-10T08:42:16Z</time>
      </trkpt>
      <trkpt lat="42.68909" lon="1.55992">
        <ele>2097.2534179688</ele>
        <time>2012-06-10T08:42:23Z</time>
      </trkpt>
      <trkpt lat="42.68915" lon="1.55988">
        <ele>2099.1760253906</ele>
        <time>2012-06-10T08:42:32Z</time>
      </trkpt>
      <trkpt lat="42.6892" lon="1.55985">
        <ele>2100.1374511719</ele>
        <time>2012-06-10T08:42:39Z</time>
      </trkpt>
      <trkpt lat="42.68923" lon="1.55982">
        <ele>2101.0986328125</ele>
        <time>2012-06-10T08:42:44Z</time>
      </trkpt>
      <trkpt lat="42.68927" lon="1.5598">
        <ele>2102.0598144531</ele>
        <time>2012-06-10T08:42:50Z</time>
      </trkpt>
      <trkpt lat="42.6893" lon="1.55978">
        <ele>2103.0212402344</ele>
        <time>2012-06-10T08:42:55Z</time>
      </trkpt>
      <trkpt lat="42.68936" lon="1.55974">
        <ele>2103.501953125</ele>
        <time>2012-06-10T08:43:03Z</time>
      </trkpt>
      <trkpt lat="42.68941" lon="1.55971">
        <ele>2104.9438476562</ele>
        <time>2012-06-10T08:43:12Z</time>
      </trkpt>
      <trkpt lat="42.68947" lon="1.55969">
        <ele>2106.8664550781</ele>
        <time>2012-06-10T08:43:19Z</time>
      </trkpt>
      <trkpt lat="42.68954" lon="1.55963">
        <ele>2108.30859375</ele>
        <time>2012-06-10T08:43:30Z</time>
      </trkpt>
      <trkpt lat="42.68956" lon="1.55958">
        <ele>2109.7504882812</ele>
        <time>2012-06-10T08:43:37Z</time>
      </trkpt>
      <trkpt lat="42.68958" lon="1.55953">
        <ele>2111.6733398438</ele>
        <time>2012-06-10T08:43:44Z</time>
      </trkpt>
      <trkpt lat="42.68959" lon="1.55948">
        <ele>2113.595703125</ele>
        <time>2012-06-10T08:43:52Z</time>
      </trkpt>
      <trkpt lat="42.68961" lon="1.5594">
        <ele>2115.5185546875</ele>
        <time>2012-06-10T08:44:00Z</time>
      </trkpt>
      <trkpt lat="42.68963" lon="1.55937">
        <ele>2116.4797363281</ele>
        <time>2012-06-10T08:44:06Z</time>
      </trkpt>
      <trkpt lat="42.68966" lon="1.55934">
        <ele>2117.4409179688</ele>
        <time>2012-06-10T08:44:13Z</time>
      </trkpt>
      <trkpt lat="42.68969" lon="1.55929">
        <ele>2118.40234375</ele>
        <time>2012-06-10T08:44:20Z</time>
      </trkpt>
      <trkpt lat="42.68971" lon="1.55927">
        <ele>2118.40234375</ele>
        <time>2012-06-10T08:44:25Z</time>
      </trkpt>
      <trkpt lat="42.68974" lon="1.55923">
        <ele>2118.8830566406</ele>
        <time>2012-06-10T08:44:30Z</time>
      </trkpt>
      <trkpt lat="42.68976" lon="1.55919">
        <ele>2120.3249511719</ele>
        <time>2012-06-10T08:44:35Z</time>
      </trkpt>
      <trkpt lat="42.68979" lon="1.55913">
        <ele>2122.2475585938</ele>
        <time>2012-06-10T08:44:42Z</time>
      </trkpt>
      <trkpt lat="42.6898" lon="1.5591">
        <ele>2121.7668457031</ele>
        <time>2012-06-10T08:44:46Z</time>
      </trkpt>
      <trkpt lat="42.68984" lon="1.55903">
        <ele>2121.7668457031</ele>
        <time>2012-06-10T08:44:53Z</time>
      </trkpt>
      <trkpt lat="42.68986" lon="1.559">
        <ele>2121.7668457031</ele>
        <time>2012-06-10T08:44:57Z</time>
      </trkpt>
      <trkpt lat="42.68989" lon="1.55898">
        <ele>2122.2475585938</ele>
        <time>2012-06-10T08:45:01Z</time>
      </trkpt>
      <trkpt lat="42.68994" lon="1.55895">
        <ele>2122.2475585938</ele>
        <time>2012-06-10T08:45:08Z</time>
      </trkpt>
      <trkpt lat="42.68999" lon="1.55891">
        <ele>2122.7282714844</ele>
        <time>2012-06-10T08:45:16Z</time>
      </trkpt>
      <trkpt lat="42.69003" lon="1.55888">
        <ele>2122.7282714844</ele>
        <time>2012-06-10T08:45:21Z</time>
      </trkpt>
      <trkpt lat="42.69006" lon="1.55885">
        <ele>2123.689453125</ele>
        <time>2012-06-10T08:45:27Z</time>
      </trkpt>
      <trkpt lat="42.6901" lon="1.5588">
        <ele>2125.1315917969</ele>
        <time>2012-06-10T08:45:33Z</time>
      </trkpt>
      <trkpt lat="42.69013" lon="1.55876">
        <ele>2126.5737304688</ele>
        <time>2012-06-10T08:45:39Z</time>
      </trkpt>
      <trkpt lat="42.69017" lon="1.55871">
        <ele>2127.0544433594</ele>
        <time>2012-06-10T08:45:47Z</time>
      </trkpt>
      <trkpt lat="42.6902" lon="1.55868">
        <ele>2127.0544433594</ele>
        <time>2012-06-10T08:45:53Z</time>
      </trkpt>
      <trkpt lat="42.69025" lon="1.55866">
        <ele>2128.015625</ele>
        <time>2012-06-10T08:45:59Z</time>
      </trkpt>
      <trkpt lat="42.69029" lon="1.55862">
        <ele>2129.4575195312</ele>
        <time>2012-06-10T08:46:06Z</time>
      </trkpt>
      <trkpt lat="42.69029" lon="1.55861">
        <ele>2128.4963378906</ele>
        <time>2012-06-10T08:46:14Z</time>
      </trkpt>
      <trkpt lat="42.6903" lon="1.55857">
        <ele>2128.9768066406</ele>
        <time>2012-06-10T08:46:19Z</time>
      </trkpt>
      <trkpt lat="42.69029" lon="1.5585">
        <ele>2129.9382324219</ele>
        <time>2012-06-10T08:46:26Z</time>
      </trkpt>
      <trkpt lat="42.69028" lon="1.55842">
        <ele>2130.8996582031</ele>
        <time>2012-06-10T08:46:33Z</time>
      </trkpt>
      <trkpt lat="42.69028" lon="1.55836">
        <ele>2131.3801269531</ele>
        <time>2012-06-10T08:46:39Z</time>
      </trkpt>
      <trkpt lat="42.69028" lon="1.5583">
        <ele>2133.302734375</ele>
        <time>2012-06-10T08:46:47Z</time>
      </trkpt>
      <trkpt lat="42.69028" lon="1.55822">
        <ele>2135.2253417969</ele>
        <time>2012-06-10T08:46:55Z</time>
      </trkpt>
      <trkpt lat="42.69028" lon="1.55817">
        <ele>2136.1867675781</ele>
        <time>2012-06-10T08:47:02Z</time>
      </trkpt>
      <trkpt lat="42.69028" lon="1.55813">
        <ele>2137.6286621094</ele>
        <time>2012-06-10T08:47:07Z</time>
      </trkpt>
      <trkpt lat="42.69028" lon="1.55807">
        <ele>2139.5512695312</ele>
        <time>2012-06-10T08:47:14Z</time>
      </trkpt>
      <trkpt lat="42.6903" lon="1.55803">
        <ele>2139.5512695312</ele>
        <time>2012-06-10T08:47:19Z</time>
      </trkpt>
      <trkpt lat="42.69031" lon="1.55798">
        <ele>2139.5512695312</ele>
        <time>2012-06-10T08:47:25Z</time>
      </trkpt>
      <trkpt lat="42.69032" lon="1.55793">
        <ele>2140.0322265625</ele>
        <time>2012-06-10T08:47:31Z</time>
      </trkpt>
      <trkpt lat="42.69034" lon="1.55788">
        <ele>2140.9934082031</ele>
        <time>2012-06-10T08:47:37Z</time>
      </trkpt>
      <trkpt lat="42.69035" lon="1.55784">
        <ele>2141.9548339844</ele>
        <time>2012-06-10T08:47:42Z</time>
      </trkpt>
      <trkpt lat="42.69037" lon="1.55777">
        <ele>2143.3967285156</ele>
        <time>2012-06-10T08:47:51Z</time>
      </trkpt>
      <trkpt lat="42.69039" lon="1.55776">
        <ele>2144.3579101562</ele>
        <time>2012-06-10T08:47:56Z</time>
      </trkpt>
      <trkpt lat="42.69042" lon="1.55774">
        <ele>2145.3193359375</ele>
        <time>2012-06-10T08:48:02Z</time>
      </trkpt>
      <trkpt lat="42.69045" lon="1.55774">
        <ele>2145.8000488281</ele>
        <time>2012-06-10T08:48:07Z</time>
      </trkpt>
      <trkpt lat="42.69048" lon="1.55772">
        <ele>2145.8000488281</ele>
        <time>2012-06-10T08:48:13Z</time>
      </trkpt>
      <trkpt lat="42.69049" lon="1.55772">
        <ele>2146.2807617188</ele>
        <time>2012-06-10T08:48:18Z</time>
      </trkpt>
      <trkpt lat="42.69051" lon="1.55772">
        <ele>2146.7612304688</ele>
        <time>2012-06-10T08:48:24Z</time>
      </trkpt>
      <trkpt lat="42.69051" lon="1.5577">
        <ele>2148.203125</ele>
        <time>2012-06-10T08:48:35Z</time>
      </trkpt>
      <trkpt lat="42.69054" lon="1.55766">
        <ele>2147.72265625</ele>
        <time>2012-06-10T08:48:41Z</time>
      </trkpt>
      <trkpt lat="42.69059" lon="1.55762">
        <ele>2147.72265625</ele>
        <time>2012-06-10T08:48:49Z</time>
      </trkpt>
      <trkpt lat="42.69061" lon="1.55761">
        <ele>2148.203125</ele>
        <time>2012-06-10T08:48:53Z</time>
      </trkpt>
      <trkpt lat="42.69069" lon="1.55759">
        <ele>2148.6838378906</ele>
        <time>2012-06-10T08:49:02Z</time>
      </trkpt>
      <trkpt lat="42.6907" lon="1.5576">
        <ele>2149.1645507812</ele>
        <time>2012-06-10T08:49:07Z</time>
      </trkpt>
      <trkpt lat="42.69075" lon="1.55757">
        <ele>2149.6452636719</ele>
        <time>2012-06-10T08:49:14Z</time>
      </trkpt>
      <trkpt lat="42.69081" lon="1.55755">
        <ele>2150.6064453125</ele>
        <time>2012-06-10T08:49:21Z</time>
      </trkpt>
      <trkpt lat="42.69085" lon="1.55753">
        <ele>2151.5678710938</ele>
        <time>2012-06-10T08:49:27Z</time>
      </trkpt>
      <trkpt lat="42.69089" lon="1.55752">
        <ele>2152.5290527344</ele>
        <time>2012-06-10T08:49:33Z</time>
      </trkpt>
      <trkpt lat="42.69093" lon="1.5575">
        <ele>2153.009765625</ele>
        <time>2012-06-10T08:49:39Z</time>
      </trkpt>
      <trkpt lat="42.69096" lon="1.5575">
        <ele>2153.9711914062</ele>
        <time>2012-06-10T08:49:46Z</time>
      </trkpt>
      <trkpt lat="42.69099" lon="1.55749">
        <ele>2155.4130859375</ele>
        <time>2012-06-10T08:49:51Z</time>
      </trkpt>
      <trkpt lat="42.69103" lon="1.5575">
        <ele>2155.4130859375</ele>
        <time>2012-06-10T08:49:57Z</time>
      </trkpt>
      <trkpt lat="42.69106" lon="1.5575">
        <ele>2155.8935546875</ele>
        <time>2012-06-10T08:50:03Z</time>
      </trkpt>
      <trkpt lat="42.6911" lon="1.55749">
        <ele>2156.8552246094</ele>
        <time>2012-06-10T08:50:09Z</time>
      </trkpt>
      <trkpt lat="42.69113" lon="1.55747">
        <ele>2157.8166503906</ele>
        <time>2012-06-10T08:50:15Z</time>
      </trkpt>
      <trkpt lat="42.69116" lon="1.55749">
        <ele>2158.2971191406</ele>
        <time>2012-06-10T08:50:20Z</time>
      </trkpt>
      <trkpt lat="42.69119" lon="1.55746">
        <ele>2159.2585449219</ele>
        <time>2012-06-10T08:50:26Z</time>
      </trkpt>
      <trkpt lat="42.69123" lon="1.55745">
        <ele>2160.2197265625</ele>
        <time>2012-06-10T08:50:32Z</time>
      </trkpt>
      <trkpt lat="42.69125" lon="1.55745">
        <ele>2161.1811523438</ele>
        <time>2012-06-10T08:50:36Z</time>
      </trkpt>
      <trkpt lat="42.69129" lon="1.55745">
        <ele>2162.623046875</ele>
        <time>2012-06-10T08:50:42Z</time>
      </trkpt>
      <trkpt lat="42.69133" lon="1.55745">
        <ele>2164.0649414062</ele>
        <time>2012-06-10T08:50:47Z</time>
      </trkpt>
      <trkpt lat="42.69136" lon="1.55743">
        <ele>2165.5070800781</ele>
        <time>2012-06-10T08:50:53Z</time>
      </trkpt>
      <trkpt lat="42.6914" lon="1.55741">
        <ele>2165.9875488281</ele>
        <time>2012-06-10T08:51:00Z</time>
      </trkpt>
      <trkpt lat="42.69144" lon="1.55739">
        <ele>2166.4682617188</ele>
        <time>2012-06-10T08:51:06Z</time>
      </trkpt>
      <trkpt lat="42.69146" lon="1.55735">
        <ele>2166.9489746094</ele>
        <time>2012-06-10T08:51:11Z</time>
      </trkpt>
      <trkpt lat="42.69149" lon="1.5573">
        <ele>2168.3908691406</ele>
        <time>2012-06-10T08:51:18Z</time>
      </trkpt>
      <trkpt lat="42.69153" lon="1.55725">
        <ele>2169.3522949219</ele>
        <time>2012-06-10T08:51:24Z</time>
      </trkpt>
      <trkpt lat="42.69157" lon="1.55723">
        <ele>2169.8327636719</ele>
        <time>2012-06-10T08:51:30Z</time>
      </trkpt>
      <trkpt lat="42.69159" lon="1.55723">
        <ele>2170.7941894531</ele>
        <time>2012-06-10T08:51:35Z</time>
      </trkpt>
      <trkpt lat="42.69164" lon="1.55718">
        <ele>2171.7553710938</ele>
        <time>2012-06-10T08:51:44Z</time>
      </trkpt>
      <trkpt lat="42.69169" lon="1.55714">
        <ele>2172.7170410156</ele>
        <time>2012-06-10T08:51:52Z</time>
      </trkpt>
      <trkpt lat="42.69173" lon="1.55713">
        <ele>2173.1977539062</ele>
        <time>2012-06-10T08:51:57Z</time>
      </trkpt>
      <trkpt lat="42.69178" lon="1.55712">
        <ele>2173.6782226562</ele>
        <time>2012-06-10T08:52:05Z</time>
      </trkpt>
      <trkpt lat="42.69184" lon="1.55711">
        <ele>2174.6396484375</ele>
        <time>2012-06-10T08:52:12Z</time>
      </trkpt>
      <trkpt lat="42.69189" lon="1.55712">
        <ele>2176.0815429688</ele>
        <time>2012-06-10T08:52:19Z</time>
      </trkpt>
      <trkpt lat="42.69191" lon="1.55712">
        <ele>2177.5234375</ele>
        <time>2012-06-10T08:52:24Z</time>
      </trkpt>
      <trkpt lat="42.69194" lon="1.55713">
        <ele>2178.4848632812</ele>
        <time>2012-06-10T08:52:31Z</time>
      </trkpt>
      <trkpt lat="42.69196" lon="1.55716">
        <ele>2179.4460449219</ele>
        <time>2012-06-10T08:52:37Z</time>
      </trkpt>
      <trkpt lat="42.69199" lon="1.55718">
        <ele>2180.4074707031</ele>
        <time>2012-06-10T08:52:44Z</time>
      </trkpt>
      <trkpt lat="42.69203" lon="1.55717">
        <ele>2180.8881835938</ele>
        <time>2012-06-10T08:52:51Z</time>
      </trkpt>
      <trkpt lat="42.69205" lon="1.55717">
        <ele>2182.330078125</ele>
        <time>2012-06-10T08:52:57Z</time>
      </trkpt>
      <trkpt lat="42.69208" lon="1.55717">
        <ele>2183.7719726562</ele>
        <time>2012-06-10T08:53:03Z</time>
      </trkpt>
      <trkpt lat="42.69208" lon="1.55717">
        <ele>2184.7333984375</ele>
        <time>2012-06-10T08:53:08Z</time>
      </trkpt>
      <trkpt lat="42.69209" lon="1.55718">
        <ele>2186.6557617188</ele>
        <time>2012-06-10T08:53:29Z</time>
      </trkpt>
      <trkpt lat="42.6921" lon="1.55715">
        <ele>2187.6171875</ele>
        <time>2012-06-10T08:53:35Z</time>
      </trkpt>
      <trkpt lat="42.69211" lon="1.55714">
        <ele>2188.5788574219</ele>
        <time>2012-06-10T08:54:06Z</time>
      </trkpt>
      <trkpt lat="42.69212" lon="1.55711">
        <ele>2190.0207519531</ele>
        <time>2012-06-10T08:54:11Z</time>
      </trkpt>
      <trkpt lat="42.69214" lon="1.5571">
        <ele>2190.9819335938</ele>
        <time>2012-06-10T08:54:16Z</time>
      </trkpt>
      <trkpt lat="42.69215" lon="1.55707">
        <ele>2191.943359375</ele>
        <time>2012-06-10T08:54:21Z</time>
      </trkpt>
      <trkpt lat="42.69218" lon="1.55705">
        <ele>2192.9045410156</ele>
        <time>2012-06-10T08:54:27Z</time>
      </trkpt>
      <trkpt lat="42.6922" lon="1.55703">
        <ele>2194.3464355469</ele>
        <time>2012-06-10T08:54:33Z</time>
      </trkpt>
      <trkpt lat="42.69223" lon="1.55705">
        <ele>2195.3078613281</ele>
        <time>2012-06-10T08:54:39Z</time>
      </trkpt>
      <trkpt lat="42.69225" lon="1.55706">
        <ele>2196.7497558594</ele>
        <time>2012-06-10T08:54:45Z</time>
      </trkpt>
      <trkpt lat="42.69228" lon="1.55708">
        <ele>2197.7111816406</ele>
        <time>2012-06-10T08:54:52Z</time>
      </trkpt>
      <trkpt lat="42.6923" lon="1.55706">
        <ele>2198.1916503906</ele>
        <time>2012-06-10T08:54:58Z</time>
      </trkpt>
      <trkpt lat="42.69233" lon="1.55703">
        <ele>2199.1530761719</ele>
        <time>2012-06-10T08:55:04Z</time>
      </trkpt>
      <trkpt lat="42.69236" lon="1.55702">
        <ele>2200.5949707031</ele>
        <time>2012-06-10T08:55:09Z</time>
      </trkpt>
      <trkpt lat="42.69239" lon="1.55702">
        <ele>2201.0756835938</ele>
        <time>2012-06-10T08:55:16Z</time>
      </trkpt>
      <trkpt lat="42.69239" lon="1.55702">
        <ele>2202.517578125</ele>
        <time>2012-06-10T08:55:31Z</time>
      </trkpt>
      <trkpt lat="42.69241" lon="1.55701">
        <ele>2203.4790039062</ele>
        <time>2012-06-10T08:55:37Z</time>
      </trkpt>
      <trkpt lat="42.69245" lon="1.55697">
        <ele>2204.4404296875</ele>
        <time>2012-06-10T08:55:44Z</time>
      </trkpt>
      <trkpt lat="42.69249" lon="1.55691">
        <ele>2204.9211425781</ele>
        <time>2012-06-10T08:55:50Z</time>
      </trkpt>
      <trkpt lat="42.69251" lon="1.55688">
        <ele>2205.4018554688</ele>
        <time>2012-06-10T08:55:56Z</time>
      </trkpt>
      <trkpt lat="42.69254" lon="1.55685">
        <ele>2206.84375</ele>
        <time>2012-06-10T08:56:02Z</time>
      </trkpt>
      <trkpt lat="42.69255" lon="1.55682">
        <ele>2206.84375</ele>
        <time>2012-06-10T08:56:07Z</time>
      </trkpt>
      <trkpt lat="42.69255" lon="1.55676">
        <ele>2207.3244628906</ele>
        <time>2012-06-10T08:56:14Z</time>
      </trkpt>
      <trkpt lat="42.69259" lon="1.55676">
        <ele>2208.7663574219</ele>
        <time>2012-06-10T08:56:21Z</time>
      </trkpt>
      <trkpt lat="42.69262" lon="1.55675">
        <ele>2209.7275390625</ele>
        <time>2012-06-10T08:56:28Z</time>
      </trkpt>
      <trkpt lat="42.69263" lon="1.55671">
        <ele>2210.6889648438</ele>
        <time>2012-06-10T08:56:34Z</time>
      </trkpt>
      <trkpt lat="42.69262" lon="1.55667">
        <ele>2212.130859375</ele>
        <time>2012-06-10T08:56:39Z</time>
      </trkpt>
      <trkpt lat="42.69262" lon="1.55663">
        <ele>2212.6115722656</ele>
        <time>2012-06-10T08:56:44Z</time>
      </trkpt>
      <trkpt lat="42.69263" lon="1.55659">
        <ele>2214.0534667969</ele>
        <time>2012-06-10T08:56:50Z</time>
      </trkpt>
      <trkpt lat="42.69261" lon="1.55655">
        <ele>2215.4956054688</ele>
        <time>2012-06-10T08:56:56Z</time>
      </trkpt>
      <trkpt lat="42.69258" lon="1.55651">
        <ele>2218.3793945312</ele>
        <time>2012-06-10T08:57:03Z</time>
      </trkpt>
      <trkpt lat="42.69255" lon="1.55646">
        <ele>2219.3408203125</ele>
        <time>2012-06-10T08:57:10Z</time>
      </trkpt>
      <trkpt lat="42.69253" lon="1.55642">
        <ele>2219.3408203125</ele>
        <time>2012-06-10T08:57:16Z</time>
      </trkpt>
      <trkpt lat="42.69251" lon="1.55637">
        <ele>2221.2634277344</ele>
        <time>2012-06-10T08:57:23Z</time>
      </trkpt>
      <trkpt lat="42.6925" lon="1.55633">
        <ele>2222.2248535156</ele>
        <time>2012-06-10T08:57:29Z</time>
      </trkpt>
      <trkpt lat="42.69251" lon="1.55626">
        <ele>2223.6667480469</ele>
        <time>2012-06-10T08:57:36Z</time>
      </trkpt>
      <trkpt lat="42.69252" lon="1.55618">
        <ele>2224.6281738281</ele>
        <time>2012-06-10T08:57:42Z</time>
      </trkpt>
      <trkpt lat="42.69254" lon="1.55612">
        <ele>2226.0700683594</ele>
        <time>2012-06-10T08:57:48Z</time>
      </trkpt>
      <trkpt lat="42.69256" lon="1.55608">
        <ele>2227.5119628906</ele>
        <time>2012-06-10T08:57:53Z</time>
      </trkpt>
      <trkpt lat="42.69259" lon="1.55606">
        <ele>2228.4733886719</ele>
        <time>2012-06-10T08:57:59Z</time>
      </trkpt>
      <trkpt lat="42.69264" lon="1.55603">
        <ele>2229.4345703125</ele>
        <time>2012-06-10T08:58:05Z</time>
      </trkpt>
      <trkpt lat="42.69269" lon="1.55599">
        <ele>2229.9152832031</ele>
        <time>2012-06-10T08:58:12Z</time>
      </trkpt>
      <trkpt lat="42.69274" lon="1.55596">
        <ele>2230.3959960938</ele>
        <time>2012-06-10T08:58:18Z</time>
      </trkpt>
      <trkpt lat="42.69276" lon="1.55592">
        <ele>2231.3571777344</ele>
        <time>2012-06-10T08:58:24Z</time>
      </trkpt>
      <trkpt lat="42.69278" lon="1.55587">
        <ele>2232.3186035156</ele>
        <time>2012-06-10T08:58:30Z</time>
      </trkpt>
      <trkpt lat="42.69279" lon="1.55581">
        <ele>2233.7604980469</ele>
        <time>2012-06-10T08:58:38Z</time>
      </trkpt>
      <trkpt lat="42.69279" lon="1.55575">
        <ele>2234.7219238281</ele>
        <time>2012-06-10T08:58:44Z</time>
      </trkpt>
      <trkpt lat="42.69278" lon="1.55568">
        <ele>2236.1640625</ele>
        <time>2012-06-10T08:58:52Z</time>
      </trkpt>
      <trkpt lat="42.6928" lon="1.55564">
        <ele>2236.64453125</ele>
        <time>2012-06-10T08:58:58Z</time>
      </trkpt>
      <trkpt lat="42.69284" lon="1.55559">
        <ele>2238.5673828125</ele>
        <time>2012-06-10T08:59:06Z</time>
      </trkpt>
      <trkpt lat="42.69287" lon="1.55556">
        <ele>2239.5285644531</ele>
        <time>2012-06-10T08:59:11Z</time>
      </trkpt>
      <trkpt lat="42.69289" lon="1.55553">
        <ele>2240.4897460938</ele>
        <time>2012-06-10T08:59:17Z</time>
      </trkpt>
      <trkpt lat="42.69292" lon="1.55552">
        <ele>2241.451171875</ele>
        <time>2012-06-10T08:59:24Z</time>
      </trkpt>
      <trkpt lat="42.69295" lon="1.55551">
        <ele>2241.9318847656</ele>
        <time>2012-06-10T08:59:29Z</time>
      </trkpt>
      <trkpt lat="42.69298" lon="1.5555">
        <ele>2243.3737792969</ele>
        <time>2012-06-10T08:59:35Z</time>
      </trkpt>
      <trkpt lat="42.69302" lon="1.55549">
        <ele>2244.3349609375</ele>
        <time>2012-06-10T08:59:42Z</time>
      </trkpt>
      <trkpt lat="42.69305" lon="1.55546">
        <ele>2244.8156738281</ele>
        <time>2012-06-10T08:59:47Z</time>
      </trkpt>
      <trkpt lat="42.69307" lon="1.55543">
        <ele>2246.2578125</ele>
        <time>2012-06-10T08:59:53Z</time>
      </trkpt>
      <trkpt lat="42.69305" lon="1.55536">
        <ele>2247.6997070312</ele>
        <time>2012-06-10T09:00:00Z</time>
      </trkpt>
      <trkpt lat="42.69303" lon="1.55527">
        <ele>2248.6608886719</ele>
        <time>2012-06-10T09:00:07Z</time>
      </trkpt>
      <trkpt lat="42.69302" lon="1.55523">
        <ele>2249.1416015625</ele>
        <time>2012-06-10T09:00:10Z</time>
      </trkpt>
      <trkpt lat="42.69302" lon="1.55513">
        <ele>2251.0642089844</ele>
        <time>2012-06-10T09:00:18Z</time>
      </trkpt>
      <trkpt lat="42.693" lon="1.55501">
        <ele>2252.0256347656</ele>
        <time>2012-06-10T09:00:26Z</time>
      </trkpt>
      <trkpt lat="42.693" lon="1.55488">
        <ele>2253.9484863281</ele>
        <time>2012-06-10T09:00:35Z</time>
      </trkpt>
      <trkpt lat="42.69301" lon="1.55477">
        <ele>2255.3903808594</ele>
        <time>2012-06-10T09:00:43Z</time>
      </trkpt>
      <trkpt lat="42.69301" lon="1.55468">
        <ele>2257.7937011719</ele>
        <time>2012-06-10T09:00:51Z</time>
      </trkpt>
      <trkpt lat="42.69298" lon="1.55462">
        <ele>2258.7548828125</ele>
        <time>2012-06-10T09:00:57Z</time>
      </trkpt>
      <trkpt lat="42.69297" lon="1.55455">
        <ele>2259.7160644531</ele>
        <time>2012-06-10T09:01:03Z</time>
      </trkpt>
      <trkpt lat="42.69297" lon="1.5545">
        <ele>2260.6774902344</ele>
        <time>2012-06-10T09:01:08Z</time>
      </trkpt>
      <trkpt lat="42.69296" lon="1.55441">
        <ele>2261.158203125</ele>
        <time>2012-06-10T09:01:15Z</time>
      </trkpt>
      <trkpt lat="42.69294" lon="1.55436">
        <ele>2261.158203125</ele>
        <time>2012-06-10T09:01:18Z</time>
      </trkpt>
      <trkpt lat="42.69289" lon="1.55423">
        <ele>2261.6389160156</ele>
        <time>2012-06-10T09:01:27Z</time>
      </trkpt>
      <trkpt lat="42.69285" lon="1.55412">
        <ele>2262.1193847656</ele>
        <time>2012-06-10T09:01:34Z</time>
      </trkpt>
      <trkpt lat="42.69283" lon="1.55403">
        <ele>2264.0419921875</ele>
        <time>2012-06-10T09:01:41Z</time>
      </trkpt>
      <trkpt lat="42.69282" lon="1.55397">
        <ele>2265.4841308594</ele>
        <time>2012-06-10T09:01:45Z</time>
      </trkpt>
      <trkpt lat="42.69283" lon="1.55385">
        <ele>2267.8872070312</ele>
        <time>2012-06-10T09:01:54Z</time>
      </trkpt>
      <trkpt lat="42.69285" lon="1.55379">
        <ele>2270.2907714844</ele>
        <time>2012-06-10T09:02:01Z</time>
      </trkpt>
      <trkpt lat="42.69287" lon="1.55374">
        <ele>2271.7326660156</ele>
        <time>2012-06-10T09:02:07Z</time>
      </trkpt>
      <trkpt lat="42.6929" lon="1.55366">
        <ele>2272.6940917969</ele>
        <time>2012-06-10T09:02:15Z</time>
      </trkpt>
      <trkpt lat="42.69292" lon="1.5536">
        <ele>2272.6940917969</ele>
        <time>2012-06-10T09:02:21Z</time>
      </trkpt>
      <trkpt lat="42.69295" lon="1.55353">
        <ele>2272.2133789062</ele>
        <time>2012-06-10T09:02:27Z</time>
      </trkpt>
      <trkpt lat="42.69293" lon="1.55346">
        <ele>2272.2133789062</ele>
        <time>2012-06-10T09:02:33Z</time>
      </trkpt>
      <trkpt lat="42.69292" lon="1.5534">
        <ele>2272.6940917969</ele>
        <time>2012-06-10T09:02:39Z</time>
      </trkpt>
      <trkpt lat="42.69291" lon="1.55335">
        <ele>2272.6940917969</ele>
        <time>2012-06-10T09:02:46Z</time>
      </trkpt>
      <trkpt lat="42.6929" lon="1.5533">
        <ele>2272.2133789062</ele>
        <time>2012-06-10T09:02:51Z</time>
      </trkpt>
      <trkpt lat="42.69291" lon="1.55325">
        <ele>2273.1748046875</ele>
        <time>2012-06-10T09:02:56Z</time>
      </trkpt>
      <trkpt lat="42.69289" lon="1.55318">
        <ele>2273.1748046875</ele>
        <time>2012-06-10T09:03:02Z</time>
      </trkpt>
      <trkpt lat="42.69286" lon="1.55315">
        <ele>2273.6552734375</ele>
        <time>2012-06-10T09:03:08Z</time>
      </trkpt>
      <trkpt lat="42.69282" lon="1.5531">
        <ele>2274.1359863281</ele>
        <time>2012-06-10T09:03:14Z</time>
      </trkpt>
      <trkpt lat="42.69278" lon="1.55306">
        <ele>2274.1359863281</ele>
        <time>2012-06-10T09:03:20Z</time>
      </trkpt>
      <trkpt lat="42.69274" lon="1.55301">
        <ele>2273.6552734375</ele>
        <time>2012-06-10T09:03:26Z</time>
      </trkpt>
      <trkpt lat="42.69273" lon="1.55293">
        <ele>2274.6166992188</ele>
        <time>2012-06-10T09:03:33Z</time>
      </trkpt>
      <trkpt lat="42.69272" lon="1.55287">
        <ele>2274.6166992188</ele>
        <time>2012-06-10T09:03:40Z</time>
      </trkpt>
      <trkpt lat="42.69268" lon="1.55286">
        <ele>2274.1359863281</ele>
        <time>2012-06-10T09:03:45Z</time>
      </trkpt>
      <trkpt lat="42.69263" lon="1.55281">
        <ele>2273.6552734375</ele>
        <time>2012-06-10T09:03:51Z</time>
      </trkpt>
      <trkpt lat="42.69262" lon="1.55275">
        <ele>2273.6552734375</ele>
        <time>2012-06-10T09:03:58Z</time>
      </trkpt>
      <trkpt lat="42.69262" lon="1.55273">
        <ele>2273.1748046875</ele>
        <time>2012-06-10T09:04:05Z</time>
      </trkpt>
      <trkpt lat="42.69261" lon="1.55269">
        <ele>2273.6552734375</ele>
        <time>2012-06-10T09:04:10Z</time>
      </trkpt>
      <trkpt lat="42.69261" lon="1.55266">
        <ele>2274.1359863281</ele>
        <time>2012-06-10T09:04:15Z</time>
      </trkpt>
      <trkpt lat="42.69263" lon="1.55262">
        <ele>2276.05859375</ele>
        <time>2012-06-10T09:04:23Z</time>
      </trkpt>
      <trkpt lat="42.69264" lon="1.55258">
        <ele>2277.5004882812</ele>
        <time>2012-06-10T09:04:30Z</time>
      </trkpt>
      <trkpt lat="42.69264" lon="1.55254">
        <ele>2278.4619140625</ele>
        <time>2012-06-10T09:04:36Z</time>
      </trkpt>
      <trkpt lat="42.69265" lon="1.5525">
        <ele>2279.4230957031</ele>
        <time>2012-06-10T09:04:41Z</time>
      </trkpt>
      <trkpt lat="42.69265" lon="1.55246">
        <ele>2279.9038085938</ele>
        <time>2012-06-10T09:04:46Z</time>
      </trkpt>
      <trkpt lat="42.69265" lon="1.55241">
        <ele>2280.3845214844</ele>
        <time>2012-06-10T09:04:52Z</time>
      </trkpt>
      <trkpt lat="42.69266" lon="1.55237">
        <ele>2280.3845214844</ele>
        <time>2012-06-10T09:04:59Z</time>
      </trkpt>
      <trkpt lat="42.69266" lon="1.55234">
        <ele>2280.3845214844</ele>
        <time>2012-06-10T09:05:05Z</time>
      </trkpt>
      <trkpt lat="42.69265" lon="1.55228">
        <ele>2280.3845214844</ele>
        <time>2012-06-10T09:05:13Z</time>
      </trkpt>
      <trkpt lat="42.69264" lon="1.55224">
        <ele>2281.345703125</ele>
        <time>2012-06-10T09:05:19Z</time>
      </trkpt>
      <trkpt lat="42.69263" lon="1.55218">
        <ele>2281.8264160156</ele>
        <time>2012-06-10T09:05:28Z</time>
      </trkpt>
      <trkpt lat="42.69262" lon="1.55215">
        <ele>2282.7875976562</ele>
        <time>2012-06-10T09:05:34Z</time>
      </trkpt>
      <trkpt lat="42.6926" lon="1.55212">
        <ele>2283.7490234375</ele>
        <time>2012-06-10T09:05:42Z</time>
      </trkpt>
      <trkpt lat="42.6926" lon="1.55208">
        <ele>2283.7490234375</ele>
        <time>2012-06-10T09:05:47Z</time>
      </trkpt>
      <trkpt lat="42.6926" lon="1.55205">
        <ele>2285.1911621094</ele>
        <time>2012-06-10T09:05:53Z</time>
      </trkpt>
      <trkpt lat="42.69258" lon="1.55202">
        <ele>2286.1525878906</ele>
        <time>2012-06-10T09:05:59Z</time>
      </trkpt>
      <trkpt lat="42.69257" lon="1.55197">
        <ele>2286.1525878906</ele>
        <time>2012-06-10T09:06:06Z</time>
      </trkpt>
      <trkpt lat="42.69255" lon="1.55193">
        <ele>2287.1137695312</ele>
        <time>2012-06-10T09:06:12Z</time>
      </trkpt>
      <trkpt lat="42.69253" lon="1.55187">
        <ele>2288.5559082031</ele>
        <time>2012-06-10T09:06:18Z</time>
      </trkpt>
      <trkpt lat="42.69251" lon="1.55182">
        <ele>2289.0363769531</ele>
        <time>2012-06-10T09:06:25Z</time>
      </trkpt>
      <trkpt lat="42.69249" lon="1.55178">
        <ele>2290.4782714844</ele>
        <time>2012-06-10T09:06:32Z</time>
      </trkpt>
      <trkpt lat="42.69247" lon="1.55172">
        <ele>2292.4011230469</ele>
        <time>2012-06-10T09:06:40Z</time>
      </trkpt>
      <trkpt lat="42.69246" lon="1.55167">
        <ele>2293.8430175781</ele>
        <time>2012-06-10T09:06:47Z</time>
      </trkpt>
      <trkpt lat="42.69245" lon="1.55163">
        <ele>2295.2849121094</ele>
        <time>2012-06-10T09:06:54Z</time>
      </trkpt>
      <trkpt lat="42.69244" lon="1.55159">
        <ele>2296.7268066406</ele>
        <time>2012-06-10T09:07:00Z</time>
      </trkpt>
      <trkpt lat="42.69243" lon="1.55154">
        <ele>2296.7268066406</ele>
        <time>2012-06-10T09:07:05Z</time>
      </trkpt>
      <trkpt lat="42.69243" lon="1.55152">
        <ele>2297.2075195312</ele>
        <time>2012-06-10T09:07:11Z</time>
      </trkpt>
      <trkpt lat="42.69241" lon="1.55145">
        <ele>2299.1301269531</ele>
        <time>2012-06-10T09:07:18Z</time>
      </trkpt>
      <trkpt lat="42.6924" lon="1.5514">
        <ele>2299.6108398438</ele>
        <time>2012-06-10T09:07:24Z</time>
      </trkpt>
      <trkpt lat="42.69238" lon="1.55133">
        <ele>2299.1301269531</ele>
        <time>2012-06-10T09:07:31Z</time>
      </trkpt>
      <trkpt lat="42.69236" lon="1.55128">
        <ele>2298.1687011719</ele>
        <time>2012-06-10T09:07:38Z</time>
      </trkpt>
      <trkpt lat="42.69235" lon="1.55123">
        <ele>2298.1687011719</ele>
        <time>2012-06-10T09:07:43Z</time>
      </trkpt>
      <trkpt lat="42.69234" lon="1.55117">
        <ele>2298.6494140625</ele>
        <time>2012-06-10T09:07:50Z</time>
      </trkpt>
      <trkpt lat="42.69233" lon="1.55106">
        <ele>2299.1301269531</ele>
        <time>2012-06-10T09:07:58Z</time>
      </trkpt>
      <trkpt lat="42.69231" lon="1.551">
        <ele>2299.1301269531</ele>
        <time>2012-06-10T09:08:04Z</time>
      </trkpt>
      <trkpt lat="42.69231" lon="1.55096">
        <ele>2299.6108398438</ele>
        <time>2012-06-10T09:08:10Z</time>
      </trkpt>
      <trkpt lat="42.69231" lon="1.55092">
        <ele>2300.572265625</ele>
        <time>2012-06-10T09:08:16Z</time>
      </trkpt>
      <trkpt lat="42.69229" lon="1.55086">
        <ele>2300.091796875</ele>
        <time>2012-06-10T09:08:22Z</time>
      </trkpt>
      <trkpt lat="42.69228" lon="1.5508">
        <ele>2300.091796875</ele>
        <time>2012-06-10T09:08:30Z</time>
      </trkpt>
      <trkpt lat="42.69227" lon="1.55078">
        <ele>2299.1301269531</ele>
        <time>2012-06-10T09:08:35Z</time>
      </trkpt>
      <trkpt lat="42.69227" lon="1.55074">
        <ele>2299.1301269531</ele>
        <time>2012-06-10T09:08:40Z</time>
      </trkpt>
      <trkpt lat="42.69225" lon="1.55068">
        <ele>2300.091796875</ele>
        <time>2012-06-10T09:08:47Z</time>
      </trkpt>
      <trkpt lat="42.69225" lon="1.55063">
        <ele>2300.572265625</ele>
        <time>2012-06-10T09:08:53Z</time>
      </trkpt>
      <trkpt lat="42.69224" lon="1.55059">
        <ele>2301.5336914062</ele>
        <time>2012-06-10T09:08:59Z</time>
      </trkpt>
      <trkpt lat="42.69225" lon="1.55054">
        <ele>2303.9370117188</ele>
        <time>2012-06-10T09:09:06Z</time>
      </trkpt>
      <trkpt lat="42.69226" lon="1.55053">
        <ele>2305.37890625</ele>
        <time>2012-06-10T09:09:12Z</time>
      </trkpt>
      <trkpt lat="42.69226" lon="1.55049">
        <ele>2306.3400878906</ele>
        <time>2012-06-10T09:09:31Z</time>
      </trkpt>
      <trkpt lat="42.69228" lon="1.55043">
        <ele>2306.3400878906</ele>
        <time>2012-06-10T09:09:38Z</time>
      </trkpt>
      <trkpt lat="42.6923" lon="1.55037">
        <ele>2308.2626953125</ele>
        <time>2012-06-10T09:09:45Z</time>
      </trkpt>
      <trkpt lat="42.69231" lon="1.55031">
        <ele>2309.2241210938</ele>
        <time>2012-06-10T09:09:52Z</time>
      </trkpt>
      <trkpt lat="42.69232" lon="1.55027">
        <ele>2310.1853027344</ele>
        <time>2012-06-10T09:09:58Z</time>
      </trkpt>
      <trkpt lat="42.69234" lon="1.55026">
        <ele>2311.1467285156</ele>
        <time>2012-06-10T09:10:03Z</time>
      </trkpt>
      <trkpt lat="42.69234" lon="1.55025">
        <ele>2311.6274414062</ele>
        <time>2012-06-10T09:10:10Z</time>
      </trkpt>
      <trkpt lat="42.69236" lon="1.55021">
        <ele>2312.5886230469</ele>
        <time>2012-06-10T09:10:17Z</time>
      </trkpt>
      <trkpt lat="42.69238" lon="1.55018">
        <ele>2312.5886230469</ele>
        <time>2012-06-10T09:10:23Z</time>
      </trkpt>
      <trkpt lat="42.69239" lon="1.55014">
        <ele>2312.1079101562</ele>
        <time>2012-06-10T09:10:50Z</time>
      </trkpt>
      <trkpt lat="42.69242" lon="1.55009">
        <ele>2314.0305175781</ele>
        <time>2012-06-10T09:10:59Z</time>
      </trkpt>
      <trkpt lat="42.69244" lon="1.55006">
        <ele>2316.9147949219</ele>
        <time>2012-06-10T09:11:07Z</time>
      </trkpt>
      <trkpt lat="42.69245" lon="1.55004">
        <ele>2317.8759765625</ele>
        <time>2012-06-10T09:11:13Z</time>
      </trkpt>
      <trkpt lat="42.69245" lon="1.55003">
        <ele>2319.3181152344</ele>
        <time>2012-06-10T09:11:24Z</time>
      </trkpt>
      <trkpt lat="42.69247" lon="1.55">
        <ele>2323.1633300781</ele>
        <time>2012-06-10T09:12:10Z</time>
      </trkpt>
      <trkpt lat="42.69248" lon="1.54998">
        <ele>2325.0856933594</ele>
        <time>2012-06-10T09:12:16Z</time>
      </trkpt>
      <trkpt lat="42.69249" lon="1.54994">
        <ele>2326.5278320312</ele>
        <time>2012-06-10T09:12:21Z</time>
      </trkpt>
      <trkpt lat="42.69251" lon="1.54987">
        <ele>2328.4504394531</ele>
        <time>2012-06-10T09:12:30Z</time>
      </trkpt>
      <trkpt lat="42.69252" lon="1.54984">
        <ele>2327.4890136719</ele>
        <time>2012-06-10T09:12:39Z</time>
      </trkpt>
      <trkpt lat="42.69254" lon="1.54979">
        <ele>2327.4890136719</ele>
        <time>2012-06-10T09:12:45Z</time>
      </trkpt>
      <trkpt lat="42.69257" lon="1.54977">
        <ele>2328.4504394531</ele>
        <time>2012-06-10T09:12:50Z</time>
      </trkpt>
      <trkpt lat="42.69257" lon="1.54973">
        <ele>2329.8923339844</ele>
        <time>2012-06-10T09:12:56Z</time>
      </trkpt>
      <trkpt lat="42.69258" lon="1.54969">
        <ele>2330.373046875</ele>
        <time>2012-06-10T09:13:02Z</time>
      </trkpt>
      <trkpt lat="42.6926" lon="1.54967">
        <ele>2330.8537597656</ele>
        <time>2012-06-10T09:13:07Z</time>
      </trkpt>
      <trkpt lat="42.6926" lon="1.54968">
        <ele>2330.373046875</ele>
        <time>2012-06-10T09:13:16Z</time>
      </trkpt>
      <trkpt lat="42.6926" lon="1.54968">
        <ele>2329.8923339844</ele>
        <time>2012-06-10T09:13:21Z</time>
      </trkpt>
      <trkpt lat="42.69262" lon="1.54967">
        <ele>2329.8923339844</ele>
        <time>2012-06-10T09:13:41Z</time>
      </trkpt>
      <trkpt lat="42.69265" lon="1.54962">
        <ele>2332.2958984375</ele>
        <time>2012-06-10T09:13:49Z</time>
      </trkpt>
      <trkpt lat="42.69267" lon="1.54959">
        <ele>2334.2185058594</ele>
        <time>2012-06-10T09:13:56Z</time>
      </trkpt>
      <trkpt lat="42.69268" lon="1.54956">
        <ele>2335.6604003906</ele>
        <time>2012-06-10T09:14:03Z</time>
      </trkpt>
      <trkpt lat="42.69269" lon="1.54954">
        <ele>2336.1411132812</ele>
        <time>2012-06-10T09:14:09Z</time>
      </trkpt>
      <trkpt lat="42.69271" lon="1.5495">
        <ele>2337.5830078125</ele>
        <time>2012-06-10T09:14:16Z</time>
      </trkpt>
      <trkpt lat="42.69274" lon="1.54947">
        <ele>2339.0249023438</ele>
        <time>2012-06-10T09:14:23Z</time>
      </trkpt>
      <trkpt lat="42.69276" lon="1.54942">
        <ele>2339.986328125</ele>
        <time>2012-06-10T09:14:30Z</time>
      </trkpt>
      <trkpt lat="42.69279" lon="1.54938">
        <ele>2340.9475097656</ele>
        <time>2012-06-10T09:14:37Z</time>
      </trkpt>
      <trkpt lat="42.69281" lon="1.54935">
        <ele>2340.466796875</ele>
        <time>2012-06-10T09:14:44Z</time>
      </trkpt>
      <trkpt lat="42.69282" lon="1.54934">
        <ele>2339.5056152344</ele>
        <time>2012-06-10T09:14:55Z</time>
      </trkpt>
      <trkpt lat="42.69282" lon="1.54935">
        <ele>2339.5056152344</ele>
        <time>2012-06-10T09:15:23Z</time>
      </trkpt>
      <trkpt lat="42.69281" lon="1.54935">
        <ele>2340.9475097656</ele>
        <time>2012-06-10T09:15:32Z</time>
      </trkpt>
      <trkpt lat="42.69281" lon="1.54934">
        <ele>2341.4282226562</ele>
        <time>2012-06-10T09:15:46Z</time>
      </trkpt>
      <trkpt lat="42.69281" lon="1.54933">
        <ele>2340.466796875</ele>
        <time>2012-06-10T09:16:01Z</time>
      </trkpt>
      <trkpt lat="42.69281" lon="1.54933">
        <ele>2338.5444335938</ele>
        <time>2012-06-10T09:16:41Z</time>
      </trkpt>
      <trkpt lat="42.6928" lon="1.54934">
        <ele>2338.0637207031</ele>
        <time>2012-06-10T09:16:53Z</time>
      </trkpt>
      <trkpt lat="42.6928" lon="1.54934">
        <ele>2337.5830078125</ele>
        <time>2012-06-10T09:17:10Z</time>
      </trkpt>
      <trkpt lat="42.69279" lon="1.54931">
        <ele>2337.5830078125</ele>
        <time>2012-06-10T09:17:25Z</time>
      </trkpt>
      <trkpt lat="42.69277" lon="1.54921">
        <ele>2338.5444335938</ele>
        <time>2012-06-10T09:17:34Z</time>
      </trkpt>
      <trkpt lat="42.69277" lon="1.54913">
        <ele>2338.5444335938</ele>
        <time>2012-06-10T09:17:42Z</time>
      </trkpt>
      <trkpt lat="42.69278" lon="1.54905">
        <ele>2339.5056152344</ele>
        <time>2012-06-10T09:17:51Z</time>
      </trkpt>
      <trkpt lat="42.69276" lon="1.54899">
        <ele>2340.466796875</ele>
        <time>2012-06-10T09:17:59Z</time>
      </trkpt>
      <trkpt lat="42.69274" lon="1.549">
        <ele>2340.9475097656</ele>
        <time>2012-06-10T09:18:05Z</time>
      </trkpt>
      <trkpt lat="42.6927" lon="1.54902">
        <ele>2341.9089355469</ele>
        <time>2012-06-10T09:18:12Z</time>
      </trkpt>
      <trkpt lat="42.69267" lon="1.54904">
        <ele>2343.3508300781</ele>
        <time>2012-06-10T09:18:17Z</time>
      </trkpt>
      <trkpt lat="42.69264" lon="1.54903">
        <ele>2344.7927246094</ele>
        <time>2012-06-10T09:18:23Z</time>
      </trkpt>
      <trkpt lat="42.69261" lon="1.54902">
        <ele>2346.7153320312</ele>
        <time>2012-06-10T09:18:28Z</time>
      </trkpt>
      <trkpt lat="42.6926" lon="1.54897">
        <ele>2347.6767578125</ele>
        <time>2012-06-10T09:18:34Z</time>
      </trkpt>
      <trkpt lat="42.6926" lon="1.54892">
        <ele>2348.6381835938</ele>
        <time>2012-06-10T09:18:41Z</time>
      </trkpt>
      <trkpt lat="42.69259" lon="1.54886">
        <ele>2349.1188964844</ele>
        <time>2012-06-10T09:18:49Z</time>
      </trkpt>
      <trkpt lat="42.69259" lon="1.54879">
        <ele>2350.0803222656</ele>
        <time>2012-06-10T09:18:57Z</time>
      </trkpt>
      <trkpt lat="42.69257" lon="1.54874">
        <ele>2351.0415039062</ele>
        <time>2012-06-10T09:19:04Z</time>
      </trkpt>
      <trkpt lat="42.69255" lon="1.54872">
        <ele>2352.0026855469</ele>
        <time>2012-06-10T09:19:10Z</time>
      </trkpt>
      <trkpt lat="42.69253" lon="1.54873">
        <ele>2353.4448242188</ele>
        <time>2012-06-10T09:19:15Z</time>
      </trkpt>
      <trkpt lat="42.6925" lon="1.54872">
        <ele>2354.88671875</ele>
        <time>2012-06-10T09:19:22Z</time>
      </trkpt>
      <trkpt lat="42.69247" lon="1.54872">
        <ele>2356.8093261719</ele>
        <time>2012-06-10T09:19:28Z</time>
      </trkpt>
      <trkpt lat="42.69246" lon="1.5487">
        <ele>2357.7707519531</ele>
        <time>2012-06-10T09:19:34Z</time>
      </trkpt>
      <trkpt lat="42.69245" lon="1.54865">
        <ele>2358.7319335938</ele>
        <time>2012-06-10T09:19:41Z</time>
      </trkpt>
      <trkpt lat="42.69245" lon="1.5486">
        <ele>2358.7319335938</ele>
        <time>2012-06-10T09:19:47Z</time>
      </trkpt>
      <trkpt lat="42.69246" lon="1.54855">
        <ele>2359.6931152344</ele>
        <time>2012-06-10T09:19:56Z</time>
      </trkpt>
      <trkpt lat="42.69245" lon="1.54851">
        <ele>2360.6545410156</ele>
        <time>2012-06-10T09:20:04Z</time>
      </trkpt>
      <trkpt lat="42.69245" lon="1.54848">
        <ele>2361.1352539062</ele>
        <time>2012-06-10T09:20:11Z</time>
      </trkpt>
      <trkpt lat="42.69246" lon="1.54845">
        <ele>2362.0964355469</ele>
        <time>2012-06-10T09:20:17Z</time>
      </trkpt>
      <trkpt lat="42.69244" lon="1.54842">
        <ele>2363.5383300781</ele>
        <time>2012-06-10T09:20:24Z</time>
      </trkpt>
      <trkpt lat="42.69244" lon="1.54839">
        <ele>2364.9807128906</ele>
        <time>2012-06-10T09:20:32Z</time>
      </trkpt>
      <trkpt lat="42.69243" lon="1.54837">
        <ele>2365.9418945312</ele>
        <time>2012-06-10T09:20:45Z</time>
      </trkpt>
      <trkpt lat="42.69244" lon="1.54834">
        <ele>2367.3837890625</ele>
        <time>2012-06-10T09:20:52Z</time>
      </trkpt>
      <trkpt lat="42.69243" lon="1.54831">
        <ele>2368.3452148438</ele>
        <time>2012-06-10T09:20:58Z</time>
      </trkpt>
      <trkpt lat="42.69242" lon="1.54825">
        <ele>2370.2678222656</ele>
        <time>2012-06-10T09:21:07Z</time>
      </trkpt>
      <trkpt lat="42.69241" lon="1.54825">
        <ele>2370.7485351562</ele>
        <time>2012-06-10T09:21:12Z</time>
      </trkpt>
      <trkpt lat="42.69238" lon="1.54826">
        <ele>2372.6711425781</ele>
        <time>2012-06-10T09:21:19Z</time>
      </trkpt>
      <trkpt lat="42.69234" lon="1.54827">
        <ele>2374.1130371094</ele>
        <time>2012-06-10T09:21:26Z</time>
      </trkpt>
      <trkpt lat="42.69233" lon="1.54822">
        <ele>2374.59375</ele>
        <time>2012-06-10T09:21:34Z</time>
      </trkpt>
      <trkpt lat="42.69231" lon="1.54821">
        <ele>2375.5549316406</ele>
        <time>2012-06-10T09:21:40Z</time>
      </trkpt>
      <trkpt lat="42.69229" lon="1.54824">
        <ele>2376.5163574219</ele>
        <time>2012-06-10T09:21:47Z</time>
      </trkpt>
      <trkpt lat="42.69226" lon="1.54827">
        <ele>2377.4775390625</ele>
        <time>2012-06-10T09:21:54Z</time>
      </trkpt>
      <trkpt lat="42.69223" lon="1.54831">
        <ele>2378.4389648438</ele>
        <time>2012-06-10T09:22:02Z</time>
      </trkpt>
      <trkpt lat="42.69221" lon="1.54835">
        <ele>2379.880859375</ele>
        <time>2012-06-10T09:22:09Z</time>
      </trkpt>
      <trkpt lat="42.69218" lon="1.54835">
        <ele>2380.3618164062</ele>
        <time>2012-06-10T09:22:15Z</time>
      </trkpt>
      <trkpt lat="42.69216" lon="1.54834">
        <ele>2381.8037109375</ele>
        <time>2012-06-10T09:22:20Z</time>
      </trkpt>
      <trkpt lat="42.69215" lon="1.5483">
        <ele>2382.2844238281</ele>
        <time>2012-06-10T09:22:26Z</time>
      </trkpt>
      <trkpt lat="42.69216" lon="1.54829">
        <ele>2384.20703125</ele>
        <time>2012-06-10T09:22:36Z</time>
      </trkpt>
      <trkpt lat="42.69215" lon="1.54827">
        <ele>2385.1682128906</ele>
        <time>2012-06-10T09:22:42Z</time>
      </trkpt>
      <trkpt lat="42.69214" lon="1.54824">
        <ele>2386.1296386719</ele>
        <time>2012-06-10T09:22:49Z</time>
      </trkpt>
      <trkpt lat="42.69214" lon="1.54823">
        <ele>2386.1296386719</ele>
        <time>2012-06-10T09:22:57Z</time>
      </trkpt>
      <trkpt lat="42.69214" lon="1.54818">
        <ele>2387.5715332031</ele>
        <time>2012-06-10T09:23:04Z</time>
      </trkpt>
      <trkpt lat="42.69213" lon="1.54814">
        <ele>2388.5329589844</ele>
        <time>2012-06-10T09:23:12Z</time>
      </trkpt>
      <trkpt lat="42.69211" lon="1.54813">
        <ele>2389.494140625</ele>
        <time>2012-06-10T09:23:17Z</time>
      </trkpt>
      <trkpt lat="42.6921" lon="1.54809">
        <ele>2390.4553222656</ele>
        <time>2012-06-10T09:23:22Z</time>
      </trkpt>
      <trkpt lat="42.69209" lon="1.54807">
        <ele>2391.4167480469</ele>
        <time>2012-06-10T09:23:28Z</time>
      </trkpt>
      <trkpt lat="42.69208" lon="1.54803">
        <ele>2392.3781738281</ele>
        <time>2012-06-10T09:23:34Z</time>
      </trkpt>
      <trkpt lat="42.69207" lon="1.548">
        <ele>2392.8586425781</ele>
        <time>2012-06-10T09:23:41Z</time>
      </trkpt>
      <trkpt lat="42.69205" lon="1.54798">
        <ele>2393.8200683594</ele>
        <time>2012-06-10T09:23:47Z</time>
      </trkpt>
      <trkpt lat="42.69205" lon="1.54795">
        <ele>2393.8200683594</ele>
        <time>2012-06-10T09:23:56Z</time>
      </trkpt>
      <trkpt lat="42.69206" lon="1.54792">
        <ele>2394.3005371094</ele>
        <time>2012-06-10T09:24:03Z</time>
      </trkpt>
      <trkpt lat="42.69206" lon="1.54789">
        <ele>2394.78125</ele>
        <time>2012-06-10T09:24:09Z</time>
      </trkpt>
      <trkpt lat="42.69207" lon="1.54785">
        <ele>2395.2619628906</ele>
        <time>2012-06-10T09:24:17Z</time>
      </trkpt>
      <trkpt lat="42.69206" lon="1.54781">
        <ele>2396.2236328125</ele>
        <time>2012-06-10T09:24:22Z</time>
      </trkpt>
      <trkpt lat="42.69206" lon="1.54777">
        <ele>2397.1848144531</ele>
        <time>2012-06-10T09:24:30Z</time>
      </trkpt>
      <trkpt lat="42.69205" lon="1.54772">
        <ele>2397.1848144531</ele>
        <time>2012-06-10T09:24:37Z</time>
      </trkpt>
      <trkpt lat="42.69205" lon="1.54767">
        <ele>2398.6267089844</ele>
        <time>2012-06-10T09:24:44Z</time>
      </trkpt>
      <trkpt lat="42.69204" lon="1.54761">
        <ele>2400.0688476562</ele>
        <time>2012-06-10T09:24:53Z</time>
      </trkpt>
      <trkpt lat="42.69203" lon="1.54756">
        <ele>2400.5493164062</ele>
        <time>2012-06-10T09:24:59Z</time>
      </trkpt>
      <trkpt lat="42.69202" lon="1.54752">
        <ele>2401.5107421875</ele>
        <time>2012-06-10T09:25:04Z</time>
      </trkpt>
      <trkpt lat="42.69201" lon="1.54748">
        <ele>2402.4719238281</ele>
        <time>2012-06-10T09:25:11Z</time>
      </trkpt>
      <trkpt lat="42.69199" lon="1.54744">
        <ele>2403.4333496094</ele>
        <time>2012-06-10T09:25:19Z</time>
      </trkpt>
      <trkpt lat="42.69198" lon="1.5474">
        <ele>2404.8752441406</ele>
        <time>2012-06-10T09:25:26Z</time>
      </trkpt>
      <trkpt lat="42.69197" lon="1.54739">
        <ele>2405.3559570312</ele>
        <time>2012-06-10T09:25:31Z</time>
      </trkpt>
      <trkpt lat="42.69196" lon="1.54742">
        <ele>2406.7978515625</ele>
        <time>2012-06-10T09:25:38Z</time>
      </trkpt>
      <trkpt lat="42.69193" lon="1.54748">
        <ele>2408.7204589844</ele>
        <time>2012-06-10T09:25:47Z</time>
      </trkpt>
      <trkpt lat="42.6919" lon="1.54752">
        <ele>2410.1623535156</ele>
        <time>2012-06-10T09:25:55Z</time>
      </trkpt>
      <trkpt lat="42.69188" lon="1.54755">
        <ele>2411.6044921875</ele>
        <time>2012-06-10T09:26:01Z</time>
      </trkpt>
      <trkpt lat="42.69185" lon="1.54757">
        <ele>2412.0852050781</ele>
        <time>2012-06-10T09:26:07Z</time>
      </trkpt>
      <trkpt lat="42.69183" lon="1.5476">
        <ele>2413.0466308594</ele>
        <time>2012-06-10T09:26:13Z</time>
      </trkpt>
      <trkpt lat="42.69181" lon="1.54763">
        <ele>2414.0078125</ele>
        <time>2012-06-10T09:26:18Z</time>
      </trkpt>
      <trkpt lat="42.69179" lon="1.54766">
        <ele>2414.4885253906</ele>
        <time>2012-06-10T09:26:24Z</time>
      </trkpt>
      <trkpt lat="42.69176" lon="1.54769">
        <ele>2415.9304199219</ele>
        <time>2012-06-10T09:26:30Z</time>
      </trkpt>
      <trkpt lat="42.69173" lon="1.54771">
        <ele>2417.3723144531</ele>
        <time>2012-06-10T09:26:37Z</time>
      </trkpt>
      <trkpt lat="42.69173" lon="1.54771">
        <ele>2417.8530273438</ele>
        <time>2012-06-10T09:26:46Z</time>
      </trkpt>
      <trkpt lat="42.6917" lon="1.54775">
        <ele>2418.3337402344</ele>
        <time>2012-06-10T09:26:53Z</time>
      </trkpt>
      <trkpt lat="42.69167" lon="1.5478">
        <ele>2420.2563476562</ele>
        <time>2012-06-10T09:27:01Z</time>
      </trkpt>
      <trkpt lat="42.69163" lon="1.54783">
        <ele>2421.6982421875</ele>
        <time>2012-06-10T09:27:09Z</time>
      </trkpt>
      <trkpt lat="42.69161" lon="1.54785">
        <ele>2422.6596679688</ele>
        <time>2012-06-10T09:27:15Z</time>
      </trkpt>
      <trkpt lat="42.69159" lon="1.54789">
        <ele>2423.1403808594</ele>
        <time>2012-06-10T09:27:21Z</time>
      </trkpt>
      <trkpt lat="42.69156" lon="1.54795">
        <ele>2424.5822753906</ele>
        <time>2012-06-10T09:27:29Z</time>
      </trkpt>
      <trkpt lat="42.69153" lon="1.54799">
        <ele>2424.5822753906</ele>
        <time>2012-06-10T09:27:36Z</time>
      </trkpt>
      <trkpt lat="42.69152" lon="1.54798">
        <ele>2425.0627441406</ele>
        <time>2012-06-10T09:27:42Z</time>
      </trkpt>
      <trkpt lat="42.69153" lon="1.54794">
        <ele>2425.5434570312</ele>
        <time>2012-06-10T09:27:54Z</time>
      </trkpt>
      <trkpt lat="42.69152" lon="1.54789">
        <ele>2426.5048828125</ele>
        <time>2012-06-10T09:28:01Z</time>
      </trkpt>
      <trkpt lat="42.69151" lon="1.54784">
        <ele>2428.427734375</ele>
        <time>2012-06-10T09:28:08Z</time>
      </trkpt>
      <trkpt lat="42.69151" lon="1.5478">
        <ele>2429.8696289062</ele>
        <time>2012-06-10T09:28:14Z</time>
      </trkpt>
      <trkpt lat="42.69151" lon="1.54777">
        <ele>2430.8310546875</ele>
        <time>2012-06-10T09:28:18Z</time>
      </trkpt>
      <trkpt lat="42.6915" lon="1.54772">
        <ele>2431.7922363281</ele>
        <time>2012-06-10T09:28:25Z</time>
      </trkpt>
      <trkpt lat="42.69149" lon="1.54767">
        <ele>2432.7534179688</ele>
        <time>2012-06-10T09:28:32Z</time>
      </trkpt>
      <trkpt lat="42.69147" lon="1.54764">
        <ele>2433.71484375</ele>
        <time>2012-06-10T09:28:38Z</time>
      </trkpt>
      <trkpt lat="42.69147" lon="1.54763">
        <ele>2434.1955566406</ele>
        <time>2012-06-10T09:28:51Z</time>
      </trkpt>
      <trkpt lat="42.69146" lon="1.54759">
        <ele>2434.6762695312</ele>
        <time>2012-06-10T09:28:57Z</time>
      </trkpt>
      <trkpt lat="42.69145" lon="1.54753">
        <ele>2437.0793457031</ele>
        <time>2012-06-10T09:29:06Z</time>
      </trkpt>
      <trkpt lat="42.69144" lon="1.54749">
        <ele>2437.5600585938</ele>
        <time>2012-06-10T09:29:12Z</time>
      </trkpt>
      <trkpt lat="42.69143" lon="1.54745">
        <ele>2438.521484375</ele>
        <time>2012-06-10T09:29:19Z</time>
      </trkpt>
      <trkpt lat="42.69141" lon="1.54742">
        <ele>2440.9245605469</ele>
        <time>2012-06-10T09:29:26Z</time>
      </trkpt>
      <trkpt lat="42.6914" lon="1.54739">
        <ele>2441.8859863281</ele>
        <time>2012-06-10T09:29:33Z</time>
      </trkpt>
      <trkpt lat="42.69139" lon="1.54735">
        <ele>2442.8471679688</ele>
        <time>2012-06-10T09:29:40Z</time>
      </trkpt>
      <trkpt lat="42.69138" lon="1.54732">
        <ele>2443.80859375</ele>
        <time>2012-06-10T09:29:46Z</time>
      </trkpt>
      <trkpt lat="42.69137" lon="1.5473">
        <ele>2445.2507324219</ele>
        <time>2012-06-10T09:29:54Z</time>
      </trkpt>
      <trkpt lat="42.69136" lon="1.54728">
        <ele>2446.2121582031</ele>
        <time>2012-06-10T09:29:59Z</time>
      </trkpt>
      <trkpt lat="42.69136" lon="1.54723">
        <ele>2446.6926269531</ele>
        <time>2012-06-10T09:30:05Z</time>
      </trkpt>
      <trkpt lat="42.69135" lon="1.54719">
        <ele>2447.6540527344</ele>
        <time>2012-06-10T09:30:13Z</time>
      </trkpt>
      <trkpt lat="42.69133" lon="1.54714">
        <ele>2448.615234375</ele>
        <time>2012-06-10T09:30:21Z</time>
      </trkpt>
      <trkpt lat="42.69132" lon="1.54712">
        <ele>2448.1345214844</ele>
        <time>2012-06-10T09:30:33Z</time>
      </trkpt>
      <trkpt lat="42.69131" lon="1.54709">
        <ele>2448.615234375</ele>
        <time>2012-06-10T09:30:40Z</time>
      </trkpt>
      <trkpt lat="42.6913" lon="1.54705">
        <ele>2449.5766601562</ele>
        <time>2012-06-10T09:30:46Z</time>
      </trkpt>
      <trkpt lat="42.69128" lon="1.54704">
        <ele>2450.0573730469</ele>
        <time>2012-06-10T09:30:51Z</time>
      </trkpt>
      <trkpt lat="42.69127" lon="1.547">
        <ele>2451.0185546875</ele>
        <time>2012-06-10T09:30:57Z</time>
      </trkpt>
      <trkpt lat="42.69126" lon="1.54699">
        <ele>2452.4604492188</ele>
        <time>2012-06-10T09:31:04Z</time>
      </trkpt>
      <trkpt lat="42.69123" lon="1.54696">
        <ele>2454.3830566406</ele>
        <time>2012-06-10T09:31:11Z</time>
      </trkpt>
      <trkpt lat="42.69122" lon="1.54693">
        <ele>2455.3444824219</ele>
        <time>2012-06-10T09:31:18Z</time>
      </trkpt>
      <trkpt lat="42.69121" lon="1.5469">
        <ele>2456.7863769531</ele>
        <time>2012-06-10T09:31:25Z</time>
      </trkpt>
      <trkpt lat="42.69118" lon="1.54689">
        <ele>2457.7478027344</ele>
        <time>2012-06-10T09:31:32Z</time>
      </trkpt>
      <trkpt lat="42.69115" lon="1.54686">
        <ele>2459.1896972656</ele>
        <time>2012-06-10T09:31:39Z</time>
      </trkpt>
      <trkpt lat="42.69113" lon="1.54685">
        <ele>2459.6701660156</ele>
        <time>2012-06-10T09:31:45Z</time>
      </trkpt>
      <trkpt lat="42.6911" lon="1.54687">
        <ele>2460.6318359375</ele>
        <time>2012-06-10T09:31:51Z</time>
      </trkpt>
      <trkpt lat="42.69106" lon="1.54687">
        <ele>2461.5932617188</ele>
        <time>2012-06-10T09:31:58Z</time>
      </trkpt>
      <trkpt lat="42.69101" lon="1.54688">
        <ele>2463.03515625</ele>
        <time>2012-06-10T09:32:07Z</time>
      </trkpt>
      <trkpt lat="42.69097" lon="1.54688">
        <ele>2463.9963378906</ele>
        <time>2012-06-10T09:32:13Z</time>
      </trkpt>
      <trkpt lat="42.69091" lon="1.54691">
        <ele>2465.4384765625</ele>
        <time>2012-06-10T09:32:22Z</time>
      </trkpt>
      <trkpt lat="42.69087" lon="1.5469">
        <ele>2465.9189453125</ele>
        <time>2012-06-10T09:32:28Z</time>
      </trkpt>
      <trkpt lat="42.69088" lon="1.54693">
        <ele>2466.3996582031</ele>
        <time>2012-06-10T09:32:33Z</time>
      </trkpt>
      <trkpt lat="42.69087" lon="1.54695">
        <ele>2466.3996582031</ele>
        <time>2012-06-10T09:32:39Z</time>
      </trkpt>
      <trkpt lat="42.69083" lon="1.54694">
        <ele>2467.8415527344</ele>
        <time>2012-06-10T09:32:49Z</time>
      </trkpt>
      <trkpt lat="42.69077" lon="1.54689">
        <ele>2468.8029785156</ele>
        <time>2012-06-10T09:32:56Z</time>
      </trkpt>
      <trkpt lat="42.6907" lon="1.54688">
        <ele>2470.7255859375</ele>
        <time>2012-06-10T09:33:04Z</time>
      </trkpt>
      <trkpt lat="42.69063" lon="1.54688">
        <ele>2472.1674804688</ele>
        <time>2012-06-10T09:33:12Z</time>
      </trkpt>
      <trkpt lat="42.69057" lon="1.54687">
        <ele>2473.609375</ele>
        <time>2012-06-10T09:33:19Z</time>
      </trkpt>
      <trkpt lat="42.69051" lon="1.54688">
        <ele>2475.0512695312</ele>
        <time>2012-06-10T09:33:28Z</time>
      </trkpt>
      <trkpt lat="42.69045" lon="1.54689">
        <ele>2476.0129394531</ele>
        <time>2012-06-10T09:33:34Z</time>
      </trkpt>
      <trkpt lat="42.6904" lon="1.54689">
        <ele>2476.0129394531</ele>
        <time>2012-06-10T09:33:43Z</time>
      </trkpt>
      <trkpt lat="42.69036" lon="1.5469">
        <ele>2476.4936523438</ele>
        <time>2012-06-10T09:33:50Z</time>
      </trkpt>
      <trkpt lat="42.6903" lon="1.5469">
        <ele>2476.9743652344</ele>
        <time>2012-06-10T09:33:58Z</time>
      </trkpt>
      <trkpt lat="42.69025" lon="1.54692">
        <ele>2477.935546875</ele>
        <time>2012-06-10T09:34:05Z</time>
      </trkpt>
      <trkpt lat="42.69019" lon="1.54695">
        <ele>2479.3774414062</ele>
        <time>2012-06-10T09:34:13Z</time>
      </trkpt>
      <trkpt lat="42.69012" lon="1.54699">
        <ele>2479.8581542969</ele>
        <time>2012-06-10T09:34:22Z</time>
      </trkpt>
      <trkpt lat="42.69004" lon="1.547">
        <ele>2480.3388671875</ele>
        <time>2012-06-10T09:34:31Z</time>
      </trkpt>
      <trkpt lat="42.68997" lon="1.54702">
        <ele>2481.3000488281</ele>
        <time>2012-06-10T09:34:39Z</time>
      </trkpt>
      <trkpt lat="42.68991" lon="1.54703">
        <ele>2481.3000488281</ele>
        <time>2012-06-10T09:34:46Z</time>
      </trkpt>
      <trkpt lat="42.68984" lon="1.54705">
        <ele>2482.2614746094</ele>
        <time>2012-06-10T09:34:55Z</time>
      </trkpt>
      <trkpt lat="42.68977" lon="1.54706">
        <ele>2482.7419433594</ele>
        <time>2012-06-10T09:35:02Z</time>
      </trkpt>
      <trkpt lat="42.68975" lon="1.54706">
        <ele>2482.7419433594</ele>
        <time>2012-06-10T09:35:03Z</time>
      </trkpt>
      <trkpt lat="42.68965" lon="1.54706">
        <ele>2483.7033691406</ele>
        <time>2012-06-10T09:35:13Z</time>
      </trkpt>
      <trkpt lat="42.68958" lon="1.54706">
        <ele>2483.7033691406</ele>
        <time>2012-06-10T09:35:20Z</time>
      </trkpt>
      <trkpt lat="42.6895" lon="1.54705">
        <ele>2484.1840820312</ele>
        <time>2012-06-10T09:35:28Z</time>
      </trkpt>
      <trkpt lat="42.68943" lon="1.54707">
        <ele>2485.1452636719</ele>
        <time>2012-06-10T09:35:36Z</time>
      </trkpt>
      <trkpt lat="42.68938" lon="1.54709">
        <ele>2485.6259765625</ele>
        <time>2012-06-10T09:35:41Z</time>
      </trkpt>
      <trkpt lat="42.68932" lon="1.5471">
        <ele>2485.6259765625</ele>
        <time>2012-06-10T09:35:46Z</time>
      </trkpt>
      <trkpt lat="42.68926" lon="1.5471">
        <ele>2486.1066894531</ele>
        <time>2012-06-10T09:35:53Z</time>
      </trkpt>
      <trkpt lat="42.68917" lon="1.5471">
        <ele>2487.0678710938</ele>
        <time>2012-06-10T09:36:02Z</time>
      </trkpt>
      <trkpt lat="42.68911" lon="1.54711">
        <ele>2487.5485839844</ele>
        <time>2012-06-10T09:36:10Z</time>
      </trkpt>
      <trkpt lat="42.68904" lon="1.5471">
        <ele>2488.029296875</ele>
        <time>2012-06-10T09:36:17Z</time>
      </trkpt>
      <trkpt lat="42.68897" lon="1.54708">
        <ele>2488.9904785156</ele>
        <time>2012-06-10T09:36:26Z</time>
      </trkpt>
      <trkpt lat="42.6889" lon="1.54707">
        <ele>2489.4711914062</ele>
        <time>2012-06-10T09:36:34Z</time>
      </trkpt>
      <trkpt lat="42.68881" lon="1.54707">
        <ele>2489.9519042969</ele>
        <time>2012-06-10T09:36:43Z</time>
      </trkpt>
      <trkpt lat="42.68873" lon="1.54708">
        <ele>2490.4323730469</ele>
        <time>2012-06-10T09:36:51Z</time>
      </trkpt>
      <trkpt lat="42.68867" lon="1.54706">
        <ele>2490.9130859375</ele>
        <time>2012-06-10T09:36:58Z</time>
      </trkpt>
      <trkpt lat="42.6886" lon="1.547">
        <ele>2491.8745117188</ele>
        <time>2012-06-10T09:37:07Z</time>
      </trkpt>
      <trkpt lat="42.68855" lon="1.54695">
        <ele>2492.35546875</ele>
        <time>2012-06-10T09:37:14Z</time>
      </trkpt>
      <trkpt lat="42.68848" lon="1.54693">
        <ele>2492.35546875</ele>
        <time>2012-06-10T09:37:21Z</time>
      </trkpt>
      <trkpt lat="42.68846" lon="1.54692">
        <ele>2492.35546875</ele>
        <time>2012-06-10T09:37:23Z</time>
      </trkpt>
      <trkpt lat="42.68841" lon="1.5469">
        <ele>2492.35546875</ele>
        <time>2012-06-10T09:37:30Z</time>
      </trkpt>
      <trkpt lat="42.68838" lon="1.5469">
        <ele>2492.35546875</ele>
        <time>2012-06-10T09:37:37Z</time>
      </trkpt>
      <trkpt lat="42.68834" lon="1.54685">
        <ele>2492.8359375</ele>
        <time>2012-06-10T09:37:43Z</time>
      </trkpt>
      <trkpt lat="42.6883" lon="1.54677">
        <ele>2492.35546875</ele>
        <time>2012-06-10T09:37:50Z</time>
      </trkpt>
      <trkpt lat="42.68829" lon="1.54675">
        <ele>2492.35546875</ele>
        <time>2012-06-10T09:37:52Z</time>
      </trkpt>
      <trkpt lat="42.68824" lon="1.54667">
        <ele>2491.8745117188</ele>
        <time>2012-06-10T09:38:00Z</time>
      </trkpt>
      <trkpt lat="42.6882" lon="1.54661">
        <ele>2490.4323730469</ele>
        <time>2012-06-10T09:38:07Z</time>
      </trkpt>
      <trkpt lat="42.68819" lon="1.5466">
        <ele>2489.9519042969</ele>
        <time>2012-06-10T09:38:12Z</time>
      </trkpt>
      <trkpt lat="42.68816" lon="1.54657">
        <ele>2489.4711914062</ele>
        <time>2012-06-10T09:38:20Z</time>
      </trkpt>
      <trkpt lat="42.68814" lon="1.54653">
        <ele>2489.4711914062</ele>
        <time>2012-06-10T09:38:24Z</time>
      </trkpt>
      <trkpt lat="42.68811" lon="1.54651">
        <ele>2489.4711914062</ele>
        <time>2012-06-10T09:38:28Z</time>
      </trkpt>
      <trkpt lat="42.68807" lon="1.5465">
        <ele>2489.4711914062</ele>
        <time>2012-06-10T09:38:32Z</time>
      </trkpt>
      <trkpt lat="42.688" lon="1.54651">
        <ele>2489.4711914062</ele>
        <time>2012-06-10T09:38:41Z</time>
      </trkpt>
      <trkpt lat="42.68797" lon="1.54652">
        <ele>2490.4323730469</ele>
        <time>2012-06-10T09:38:47Z</time>
      </trkpt>
      <trkpt lat="42.68791" lon="1.54654">
        <ele>2490.4323730469</ele>
        <time>2012-06-10T09:38:52Z</time>
      </trkpt>
      <trkpt lat="42.68787" lon="1.54656">
        <ele>2490.9130859375</ele>
        <time>2012-06-10T09:38:56Z</time>
      </trkpt>
      <trkpt lat="42.68782" lon="1.54656">
        <ele>2490.4323730469</ele>
        <time>2012-06-10T09:39:01Z</time>
      </trkpt>
      <trkpt lat="42.68774" lon="1.5466">
        <ele>2488.9904785156</ele>
        <time>2012-06-10T09:39:08Z</time>
      </trkpt>
      <trkpt lat="42.68768" lon="1.54663">
        <ele>2489.4711914062</ele>
        <time>2012-06-10T09:39:14Z</time>
      </trkpt>
      <trkpt lat="42.68763" lon="1.54667">
        <ele>2490.4323730469</ele>
        <time>2012-06-10T09:39:21Z</time>
      </trkpt>
      <trkpt lat="42.68762" lon="1.5467">
        <ele>2490.4323730469</ele>
        <time>2012-06-10T09:39:26Z</time>
      </trkpt>
      <trkpt lat="42.6876" lon="1.54672">
        <ele>2490.9130859375</ele>
        <time>2012-06-10T09:39:31Z</time>
      </trkpt>
      <trkpt lat="42.68755" lon="1.54675">
        <ele>2491.8745117188</ele>
        <time>2012-06-10T09:39:39Z</time>
      </trkpt>
      <trkpt lat="42.68755" lon="1.54675">
        <ele>2491.8745117188</ele>
        <time>2012-06-10T09:39:47Z</time>
      </trkpt>
      <trkpt lat="42.68752" lon="1.5468">
        <ele>2492.35546875</ele>
        <time>2012-06-10T09:39:55Z</time>
      </trkpt>
      <trkpt lat="42.68748" lon="1.54688">
        <ele>2492.35546875</ele>
        <time>2012-06-10T09:40:03Z</time>
      </trkpt>
      <trkpt lat="42.68746" lon="1.54695">
        <ele>2492.35546875</ele>
        <time>2012-06-10T09:40:11Z</time>
      </trkpt>
      <trkpt lat="42.68746" lon="1.54695">
        <ele>2491.8745117188</ele>
        <time>2012-06-10T09:40:18Z</time>
      </trkpt>
      <trkpt lat="42.68745" lon="1.54697">
        <ele>2491.8745117188</ele>
        <time>2012-06-10T09:40:24Z</time>
      </trkpt>
      <trkpt lat="42.68744" lon="1.54697">
        <ele>2492.35546875</ele>
        <time>2012-06-10T09:40:36Z</time>
      </trkpt>
      <trkpt lat="42.68744" lon="1.54697">
        <ele>2492.35546875</ele>
        <time>2012-06-10T09:40:52Z</time>
      </trkpt>
      <trkpt lat="42.68743" lon="1.54695">
        <ele>2492.8359375</ele>
        <time>2012-06-10T09:41:09Z</time>
      </trkpt>
      <trkpt lat="42.68744" lon="1.54686">
        <ele>2492.8359375</ele>
        <time>2012-06-10T09:41:16Z</time>
      </trkpt>
      <trkpt lat="42.68746" lon="1.54682">
        <ele>2492.8359375</ele>
        <time>2012-06-10T09:41:19Z</time>
      </trkpt>
      <trkpt lat="42.68747" lon="1.54675">
        <ele>2491.8745117188</ele>
        <time>2012-06-10T09:41:24Z</time>
      </trkpt>
      <trkpt lat="42.6875" lon="1.54667">
        <ele>2490.9130859375</ele>
        <time>2012-06-10T09:41:32Z</time>
      </trkpt>
      <trkpt lat="42.68752" lon="1.54661">
        <ele>2490.4323730469</ele>
        <time>2012-06-10T09:41:39Z</time>
      </trkpt>
      <trkpt lat="42.6876" lon="1.54649">
        <ele>2490.4323730469</ele>
        <time>2012-06-10T09:41:49Z</time>
      </trkpt>
      <trkpt lat="42.68766" lon="1.54642">
        <ele>2489.4711914062</ele>
        <time>2012-06-10T09:41:57Z</time>
      </trkpt>
      <trkpt lat="42.68774" lon="1.54635">
        <ele>2489.4711914062</ele>
        <time>2012-06-10T09:42:04Z</time>
      </trkpt>
      <trkpt lat="42.68776" lon="1.54634">
        <ele>2489.4711914062</ele>
        <time>2012-06-10T09:42:05Z</time>
      </trkpt>
      <trkpt lat="42.68781" lon="1.54632">
        <ele>2488.9904785156</ele>
        <time>2012-06-10T09:42:09Z</time>
      </trkpt>
      <trkpt lat="42.68789" lon="1.54627">
        <ele>2488.9904785156</ele>
        <time>2012-06-10T09:42:16Z</time>
      </trkpt>
      <trkpt lat="42.68793" lon="1.54622">
        <ele>2488.9904785156</ele>
        <time>2012-06-10T09:42:20Z</time>
      </trkpt>
      <trkpt lat="42.688" lon="1.54619">
        <ele>2488.9904785156</ele>
        <time>2012-06-10T09:42:26Z</time>
      </trkpt>
      <trkpt lat="42.68802" lon="1.54619">
        <ele>2488.9904785156</ele>
        <time>2012-06-10T09:42:27Z</time>
      </trkpt>
      <trkpt lat="42.68804" lon="1.54618">
        <ele>2488.9904785156</ele>
        <time>2012-06-10T09:42:29Z</time>
      </trkpt>
      <trkpt lat="42.68816" lon="1.54618">
        <ele>2487.0678710938</ele>
        <time>2012-06-10T09:42:38Z</time>
      </trkpt>
      <trkpt lat="42.68824" lon="1.54615">
        <ele>2487.0678710938</ele>
        <time>2012-06-10T09:42:44Z</time>
      </trkpt>
      <trkpt lat="42.68834" lon="1.54613">
        <ele>2487.5485839844</ele>
        <time>2012-06-10T09:42:52Z</time>
      </trkpt>
      <trkpt lat="42.68843" lon="1.54612">
        <ele>2488.029296875</ele>
        <time>2012-06-10T09:42:59Z</time>
      </trkpt>
      <trkpt lat="42.6885" lon="1.5461">
        <ele>2488.5100097656</ele>
        <time>2012-06-10T09:43:05Z</time>
      </trkpt>
      <trkpt lat="42.68851" lon="1.5461">
        <ele>2488.029296875</ele>
        <time>2012-06-10T09:43:06Z</time>
      </trkpt>
      <trkpt lat="42.68862" lon="1.54613">
        <ele>2488.029296875</ele>
        <time>2012-06-10T09:43:15Z</time>
      </trkpt>
      <trkpt lat="42.68869" lon="1.54614">
        <ele>2487.0678710938</ele>
        <time>2012-06-10T09:43:21Z</time>
      </trkpt>
      <trkpt lat="42.6888" lon="1.54617">
        <ele>2486.1066894531</ele>
        <time>2012-06-10T09:43:30Z</time>
      </trkpt>
      <trkpt lat="42.68887" lon="1.5462">
        <ele>2486.1066894531</ele>
        <time>2012-06-10T09:43:36Z</time>
      </trkpt>
      <trkpt lat="42.68896" lon="1.54623">
        <ele>2486.1066894531</ele>
        <time>2012-06-10T09:43:44Z</time>
      </trkpt>
      <trkpt lat="42.68903" lon="1.54627">
        <ele>2484.6647949219</ele>
        <time>2012-06-10T09:43:50Z</time>
      </trkpt>
      <trkpt lat="42.68911" lon="1.54632">
        <ele>2484.1840820312</ele>
        <time>2012-06-10T09:43:58Z</time>
      </trkpt>
      <trkpt lat="42.68921" lon="1.54636">
        <ele>2482.7419433594</ele>
        <time>2012-06-10T09:44:03Z</time>
      </trkpt>
      <trkpt lat="42.68931" lon="1.54638">
        <ele>2482.7419433594</ele>
        <time>2012-06-10T09:44:08Z</time>
      </trkpt>
      <trkpt lat="42.68932" lon="1.54639">
        <ele>2482.7419433594</ele>
        <time>2012-06-10T09:44:09Z</time>
      </trkpt>
      <trkpt lat="42.68937" lon="1.5464">
        <ele>2482.7419433594</ele>
        <time>2012-06-10T09:44:13Z</time>
      </trkpt>
      <trkpt lat="42.6894" lon="1.54642">
        <ele>2482.2614746094</ele>
        <time>2012-06-10T09:44:15Z</time>
      </trkpt>
      <trkpt lat="42.68945" lon="1.54644">
        <ele>2481.3000488281</ele>
        <time>2012-06-10T09:44:19Z</time>
      </trkpt>
      <trkpt lat="42.68953" lon="1.54648">
        <ele>2480.3388671875</ele>
        <time>2012-06-10T09:44:26Z</time>
      </trkpt>
      <trkpt lat="42.68963" lon="1.54651">
        <ele>2479.8581542969</ele>
        <time>2012-06-10T09:44:35Z</time>
      </trkpt>
      <trkpt lat="42.68971" lon="1.54652">
        <ele>2479.3774414062</ele>
        <time>2012-06-10T09:44:42Z</time>
      </trkpt>
      <trkpt lat="42.68978" lon="1.54654">
        <ele>2478.8967285156</ele>
        <time>2012-06-10T09:44:48Z</time>
      </trkpt>
      <trkpt lat="42.68988" lon="1.54657">
        <ele>2477.935546875</ele>
        <time>2012-06-10T09:44:57Z</time>
      </trkpt>
      <trkpt lat="42.68998" lon="1.54662">
        <ele>2476.0129394531</ele>
        <time>2012-06-10T09:45:06Z</time>
      </trkpt>
      <trkpt lat="42.69006" lon="1.54669">
        <ele>2475.5319824219</ele>
        <time>2012-06-10T09:45:14Z</time>
      </trkpt>
      <trkpt lat="42.69013" lon="1.54674">
        <ele>2475.0512695312</ele>
        <time>2012-06-10T09:45:21Z</time>
      </trkpt>
      <trkpt lat="42.69024" lon="1.54679">
        <ele>2474.0900878906</ele>
        <time>2012-06-10T09:45:30Z</time>
      </trkpt>
      <trkpt lat="42.69033" lon="1.54686">
        <ele>2473.12890625</ele>
        <time>2012-06-10T09:45:39Z</time>
      </trkpt>
      <trkpt lat="42.6904" lon="1.54691">
        <ele>2472.6481933594</ele>
        <time>2012-06-10T09:45:48Z</time>
      </trkpt>
      <trkpt lat="42.6904" lon="1.54691">
        <ele>2472.6481933594</ele>
        <time>2012-06-10T09:45:55Z</time>
      </trkpt>
      <trkpt lat="42.69045" lon="1.54694">
        <ele>2473.12890625</ele>
        <time>2012-06-10T09:46:01Z</time>
      </trkpt>
      <trkpt lat="42.69046" lon="1.54694">
        <ele>2472.6481933594</ele>
        <time>2012-06-10T09:46:02Z</time>
      </trkpt>
      <trkpt lat="42.69054" lon="1.547">
        <ele>2471.6867675781</ele>
        <time>2012-06-10T09:46:10Z</time>
      </trkpt>
      <trkpt lat="42.69058" lon="1.54706">
        <ele>2472.1674804688</ele>
        <time>2012-06-10T09:46:15Z</time>
      </trkpt>
      <trkpt lat="42.69061" lon="1.54709">
        <ele>2472.1674804688</ele>
        <time>2012-06-10T09:46:18Z</time>
      </trkpt>
      <trkpt lat="42.69067" lon="1.5472">
        <ele>2472.1674804688</ele>
        <time>2012-06-10T09:46:26Z</time>
      </trkpt>
      <trkpt lat="42.69072" lon="1.54729">
        <ele>2471.6867675781</ele>
        <time>2012-06-10T09:46:33Z</time>
      </trkpt>
      <trkpt lat="42.69077" lon="1.54736">
        <ele>2472.1674804688</ele>
        <time>2012-06-10T09:46:39Z</time>
      </trkpt>
      <trkpt lat="42.6908" lon="1.54745">
        <ele>2471.6867675781</ele>
        <time>2012-06-10T09:46:45Z</time>
      </trkpt>
      <trkpt lat="42.69084" lon="1.54754">
        <ele>2471.2060546875</ele>
        <time>2012-06-10T09:46:53Z</time>
      </trkpt>
      <trkpt lat="42.69088" lon="1.54761">
        <ele>2470.7255859375</ele>
        <time>2012-06-10T09:46:59Z</time>
      </trkpt>
      <trkpt lat="42.69091" lon="1.54763">
        <ele>2469.2836914062</ele>
        <time>2012-06-10T09:47:07Z</time>
      </trkpt>
      <trkpt lat="42.69093" lon="1.54759">
        <ele>2468.322265625</ele>
        <time>2012-06-10T09:47:12Z</time>
      </trkpt>
      <trkpt lat="42.69096" lon="1.54753">
        <ele>2466.8803710938</ele>
        <time>2012-06-10T09:47:18Z</time>
      </trkpt>
      <trkpt lat="42.69099" lon="1.54748">
        <ele>2465.9189453125</ele>
        <time>2012-06-10T09:47:25Z</time>
      </trkpt>
      <trkpt lat="42.691" lon="1.54747">
        <ele>2465.4384765625</ele>
        <time>2012-06-10T09:47:32Z</time>
      </trkpt>
      <trkpt lat="42.691" lon="1.54746">
        <ele>2465.9189453125</ele>
        <time>2012-06-10T09:47:41Z</time>
      </trkpt>
      <trkpt lat="42.691" lon="1.54746">
        <ele>2465.9189453125</ele>
        <time>2012-06-10T09:48:01Z</time>
      </trkpt>
      <trkpt lat="42.691" lon="1.54742">
        <ele>2465.9189453125</ele>
        <time>2012-06-10T09:48:10Z</time>
      </trkpt>
      <trkpt lat="42.69104" lon="1.54735">
        <ele>2464.4770507812</ele>
        <time>2012-06-10T09:48:16Z</time>
      </trkpt>
      <trkpt lat="42.69106" lon="1.54727">
        <ele>2463.515625</ele>
        <time>2012-06-10T09:48:23Z</time>
      </trkpt>
      <trkpt lat="42.69109" lon="1.54721">
        <ele>2462.0737304688</ele>
        <time>2012-06-10T09:48:28Z</time>
      </trkpt>
      <trkpt lat="42.69112" lon="1.54715">
        <ele>2460.6318359375</ele>
        <time>2012-06-10T09:48:34Z</time>
      </trkpt>
      <trkpt lat="42.69115" lon="1.5471">
        <ele>2459.6701660156</ele>
        <time>2012-06-10T09:48:40Z</time>
      </trkpt>
      <trkpt lat="42.69119" lon="1.54702">
        <ele>2457.7478027344</ele>
        <time>2012-06-10T09:48:48Z</time>
      </trkpt>
      <trkpt lat="42.69123" lon="1.54695">
        <ele>2454.3830566406</ele>
        <time>2012-06-10T09:48:55Z</time>
      </trkpt>
      <trkpt lat="42.69126" lon="1.54689">
        <ele>2452.9411621094</ele>
        <time>2012-06-10T09:49:01Z</time>
      </trkpt>
      <trkpt lat="42.69129" lon="1.54684">
        <ele>2451.9797363281</ele>
        <time>2012-06-10T09:49:06Z</time>
      </trkpt>
      <trkpt lat="42.69132" lon="1.54681">
        <ele>2450.5378417969</ele>
        <time>2012-06-10T09:49:13Z</time>
      </trkpt>
      <trkpt lat="42.69134" lon="1.54676">
        <ele>2450.0573730469</ele>
        <time>2012-06-10T09:49:19Z</time>
      </trkpt>
      <trkpt lat="42.69137" lon="1.54671">
        <ele>2448.615234375</ele>
        <time>2012-06-10T09:49:26Z</time>
      </trkpt>
      <trkpt lat="42.69139" lon="1.54667">
        <ele>2448.1345214844</ele>
        <time>2012-06-10T09:49:33Z</time>
      </trkpt>
      <trkpt lat="42.69141" lon="1.54665">
        <ele>2447.6540527344</ele>
        <time>2012-06-10T09:49:39Z</time>
      </trkpt>
      <trkpt lat="42.69143" lon="1.54663">
        <ele>2446.6926269531</ele>
        <time>2012-06-10T09:49:45Z</time>
      </trkpt>
      <trkpt lat="42.69144" lon="1.54666">
        <ele>2444.2893066406</ele>
        <time>2012-06-10T09:49:52Z</time>
      </trkpt>
      <trkpt lat="42.69146" lon="1.54669">
        <ele>2442.3666992188</ele>
        <time>2012-06-10T09:49:59Z</time>
      </trkpt>
      <trkpt lat="42.69146" lon="1.54676">
        <ele>2441.4052734375</ele>
        <time>2012-06-10T09:50:05Z</time>
      </trkpt>
      <trkpt lat="42.69147" lon="1.54682">
        <ele>2440.4438476562</ele>
        <time>2012-06-10T09:50:10Z</time>
      </trkpt>
      <trkpt lat="42.69148" lon="1.54685">
        <ele>2439.001953125</ele>
        <time>2012-06-10T09:50:16Z</time>
      </trkpt>
      <trkpt lat="42.69149" lon="1.5469">
        <ele>2438.0407714844</ele>
        <time>2012-06-10T09:50:21Z</time>
      </trkpt>
      <trkpt lat="42.69148" lon="1.54694">
        <ele>2436.5986328125</ele>
        <time>2012-06-10T09:50:28Z</time>
      </trkpt>
      <trkpt lat="42.69149" lon="1.54703">
        <ele>2434.1955566406</ele>
        <time>2012-06-10T09:50:34Z</time>
      </trkpt>
      <trkpt lat="42.69151" lon="1.54709">
        <ele>2431.7922363281</ele>
        <time>2012-06-10T09:50:40Z</time>
      </trkpt>
      <trkpt lat="42.69152" lon="1.54716">
        <ele>2429.8696289062</ele>
        <time>2012-06-10T09:50:46Z</time>
      </trkpt>
      <trkpt lat="42.69154" lon="1.54719">
        <ele>2427.9467773438</ele>
        <time>2012-06-10T09:50:51Z</time>
      </trkpt>
      <trkpt lat="42.69157" lon="1.54724">
        <ele>2425.5434570312</ele>
        <time>2012-06-10T09:50:57Z</time>
      </trkpt>
      <trkpt lat="42.69159" lon="1.54723">
        <ele>2424.1015625</ele>
        <time>2012-06-10T09:51:02Z</time>
      </trkpt>
      <trkpt lat="42.69164" lon="1.54719">
        <ele>2421.2175292969</ele>
        <time>2012-06-10T09:51:10Z</time>
      </trkpt>
      <trkpt lat="42.69168" lon="1.54714">
        <ele>2418.814453125</ele>
        <time>2012-06-10T09:51:16Z</time>
      </trkpt>
      <trkpt lat="42.69171" lon="1.54712">
        <ele>2416.4111328125</ele>
        <time>2012-06-10T09:51:22Z</time>
      </trkpt>
      <trkpt lat="42.69173" lon="1.54712">
        <ele>2415.4499511719</ele>
        <time>2012-06-10T09:51:28Z</time>
      </trkpt>
      <trkpt lat="42.69175" lon="1.54715">
        <ele>2414.0078125</ele>
        <time>2012-06-10T09:51:33Z</time>
      </trkpt>
      <trkpt lat="42.69177" lon="1.54715">
        <ele>2412.5659179688</ele>
        <time>2012-06-10T09:51:39Z</time>
      </trkpt>
      <trkpt lat="42.6918" lon="1.54714">
        <ele>2411.1237792969</ele>
        <time>2012-06-10T09:51:44Z</time>
      </trkpt>
      <trkpt lat="42.69183" lon="1.54713">
        <ele>2410.1623535156</ele>
        <time>2012-06-10T09:51:49Z</time>
      </trkpt>
      <trkpt lat="42.69185" lon="1.54711">
        <ele>2408.2397460938</ele>
        <time>2012-06-10T09:51:54Z</time>
      </trkpt>
      <trkpt lat="42.69189" lon="1.54708">
        <ele>2406.7978515625</ele>
        <time>2012-06-10T09:51:59Z</time>
      </trkpt>
      <trkpt lat="42.69191" lon="1.54711">
        <ele>2403.9140625</ele>
        <time>2012-06-10T09:52:04Z</time>
      </trkpt>
      <trkpt lat="42.69195" lon="1.54711">
        <ele>2401.5107421875</ele>
        <time>2012-06-10T09:52:10Z</time>
      </trkpt>
      <trkpt lat="42.69197" lon="1.54715">
        <ele>2400.0688476562</ele>
        <time>2012-06-10T09:52:16Z</time>
      </trkpt>
      <trkpt lat="42.69199" lon="1.54717">
        <ele>2398.6267089844</ele>
        <time>2012-06-10T09:52:21Z</time>
      </trkpt>
      <trkpt lat="42.69201" lon="1.5472">
        <ele>2397.6655273438</ele>
        <time>2012-06-10T09:52:27Z</time>
      </trkpt>
      <trkpt lat="42.69204" lon="1.54722">
        <ele>2395.7426757812</ele>
        <time>2012-06-10T09:52:32Z</time>
      </trkpt>
      <trkpt lat="42.69205" lon="1.5472">
        <ele>2394.78125</ele>
        <time>2012-06-10T09:52:36Z</time>
      </trkpt>
      <trkpt lat="42.69207" lon="1.54717">
        <ele>2393.8200683594</ele>
        <time>2012-06-10T09:52:42Z</time>
      </trkpt>
      <trkpt lat="42.6921" lon="1.54714">
        <ele>2392.8586425781</ele>
        <time>2012-06-10T09:52:48Z</time>
      </trkpt>
      <trkpt lat="42.69213" lon="1.54713">
        <ele>2390.4553222656</ele>
        <time>2012-06-10T09:52:55Z</time>
      </trkpt>
      <trkpt lat="42.69218" lon="1.54713">
        <ele>2389.0134277344</ele>
        <time>2012-06-10T09:53:01Z</time>
      </trkpt>
      <trkpt lat="42.6922" lon="1.54711">
        <ele>2387.5715332031</ele>
        <time>2012-06-10T09:53:07Z</time>
      </trkpt>
      <trkpt lat="42.69225" lon="1.54707">
        <ele>2385.6489257812</ele>
        <time>2012-06-10T09:53:15Z</time>
      </trkpt>
      <trkpt lat="42.6923" lon="1.54701">
        <ele>2384.20703125</ele>
        <time>2012-06-10T09:53:21Z</time>
      </trkpt>
      <trkpt lat="42.69231" lon="1.54701">
        <ele>2383.7263183594</ele>
        <time>2012-06-10T09:53:22Z</time>
      </trkpt>
      <trkpt lat="42.69239" lon="1.54698">
        <ele>2380.8425292969</ele>
        <time>2012-06-10T09:53:30Z</time>
      </trkpt>
      <trkpt lat="42.69242" lon="1.54696">
        <ele>2379.880859375</ele>
        <time>2012-06-10T09:53:33Z</time>
      </trkpt>
      <trkpt lat="42.69249" lon="1.54694">
        <ele>2377.9582519531</ele>
        <time>2012-06-10T09:53:40Z</time>
      </trkpt>
      <trkpt lat="42.69252" lon="1.54694">
        <ele>2376.9970703125</ele>
        <time>2012-06-10T09:53:47Z</time>
      </trkpt>
      <trkpt lat="42.69255" lon="1.54691">
        <ele>2375.07421875</ele>
        <time>2012-06-10T09:53:58Z</time>
      </trkpt>
      <trkpt lat="42.69257" lon="1.54695">
        <ele>2373.1518554688</ele>
        <time>2012-06-10T09:54:03Z</time>
      </trkpt>
      <trkpt lat="42.69258" lon="1.54696">
        <ele>2372.6711425781</ele>
        <time>2012-06-10T09:54:07Z</time>
      </trkpt>
      <trkpt lat="42.6926" lon="1.54697">
        <ele>2371.7097167969</ele>
        <time>2012-06-10T09:54:11Z</time>
      </trkpt>
      <trkpt lat="42.69261" lon="1.54697">
        <ele>2370.2678222656</ele>
        <time>2012-06-10T09:54:17Z</time>
      </trkpt>
      <trkpt lat="42.69262" lon="1.54697">
        <ele>2369.787109375</ele>
        <time>2012-06-10T09:54:23Z</time>
      </trkpt>
      <trkpt lat="42.69263" lon="1.54698">
        <ele>2366.9033203125</ele>
        <time>2012-06-10T09:54:46Z</time>
      </trkpt>
      <trkpt lat="42.69264" lon="1.54699">
        <ele>2366.9033203125</ele>
        <time>2012-06-10T09:54:52Z</time>
      </trkpt>
      <trkpt lat="42.69266" lon="1.54701">
        <ele>2366.4226074219</ele>
        <time>2012-06-10T09:54:58Z</time>
      </trkpt>
      <trkpt lat="42.69267" lon="1.54703">
        <ele>2365.9418945312</ele>
        <time>2012-06-10T09:55:06Z</time>
      </trkpt>
      <trkpt lat="42.69268" lon="1.54704">
        <ele>2365.4614257812</ele>
        <time>2012-06-10T09:55:17Z</time>
      </trkpt>
      <trkpt lat="42.69268" lon="1.54706">
        <ele>2364.9807128906</ele>
        <time>2012-06-10T09:55:23Z</time>
      </trkpt>
      <trkpt lat="42.69269" lon="1.54706">
        <ele>2364.5</ele>
        <time>2012-06-10T09:55:29Z</time>
      </trkpt>
      <trkpt lat="42.6927" lon="1.54707">
        <ele>2365.4614257812</ele>
        <time>2012-06-10T09:55:38Z</time>
      </trkpt>
      <trkpt lat="42.69271" lon="1.54708">
        <ele>2364.5</ele>
        <time>2012-06-10T09:55:45Z</time>
      </trkpt>
      <trkpt lat="42.69272" lon="1.5471">
        <ele>2363.0578613281</ele>
        <time>2012-06-10T09:55:51Z</time>
      </trkpt>
      <trkpt lat="42.69273" lon="1.54711">
        <ele>2361.1352539062</ele>
        <time>2012-06-10T09:55:59Z</time>
      </trkpt>
      <trkpt lat="42.69273" lon="1.54713">
        <ele>2360.6545410156</ele>
        <time>2012-06-10T09:56:06Z</time>
      </trkpt>
      <trkpt lat="42.69274" lon="1.54713">
        <ele>2360.6545410156</ele>
        <time>2012-06-10T09:56:12Z</time>
      </trkpt>
      <trkpt lat="42.69275" lon="1.54714">
        <ele>2360.173828125</ele>
        <time>2012-06-10T09:56:18Z</time>
      </trkpt>
      <trkpt lat="42.69276" lon="1.54715">
        <ele>2359.6931152344</ele>
        <time>2012-06-10T09:56:26Z</time>
      </trkpt>
      <trkpt lat="42.69278" lon="1.54715">
        <ele>2358.7319335938</ele>
        <time>2012-06-10T09:56:33Z</time>
      </trkpt>
      <trkpt lat="42.69281" lon="1.54717">
        <ele>2357.2900390625</ele>
        <time>2012-06-10T09:56:40Z</time>
      </trkpt>
      <trkpt lat="42.69283" lon="1.5472">
        <ele>2354.88671875</ele>
        <time>2012-06-10T09:56:47Z</time>
      </trkpt>
      <trkpt lat="42.69283" lon="1.54724">
        <ele>2352.4833984375</ele>
        <time>2012-06-10T09:56:54Z</time>
      </trkpt>
      <trkpt lat="42.69282" lon="1.54727">
        <ele>2350.5607910156</ele>
        <time>2012-06-10T09:57:01Z</time>
      </trkpt>
      <trkpt lat="42.69282" lon="1.54729">
        <ele>2349.1188964844</ele>
        <time>2012-06-10T09:57:09Z</time>
      </trkpt>
      <trkpt lat="42.69283" lon="1.54729">
        <ele>2347.6767578125</ele>
        <time>2012-06-10T09:57:17Z</time>
      </trkpt>
      <trkpt lat="42.69284" lon="1.5473">
        <ele>2345.7541503906</ele>
        <time>2012-06-10T09:57:25Z</time>
      </trkpt>
      <trkpt lat="42.69285" lon="1.54731">
        <ele>2346.2348632812</ele>
        <time>2012-06-10T09:57:31Z</time>
      </trkpt>
      <trkpt lat="42.69287" lon="1.54732">
        <ele>2345.2734375</ele>
        <time>2012-06-10T09:57:39Z</time>
      </trkpt>
      <trkpt lat="42.69289" lon="1.54731">
        <ele>2343.8315429688</ele>
        <time>2012-06-10T09:57:45Z</time>
      </trkpt>
      <trkpt lat="42.69292" lon="1.54732">
        <ele>2342.3896484375</ele>
        <time>2012-06-10T09:57:51Z</time>
      </trkpt>
      <trkpt lat="42.69297" lon="1.54734">
        <ele>2339.986328125</ele>
        <time>2012-06-10T09:57:58Z</time>
      </trkpt>
      <trkpt lat="42.69299" lon="1.54736">
        <ele>2338.5444335938</ele>
        <time>2012-06-10T09:58:03Z</time>
      </trkpt>
      <trkpt lat="42.69302" lon="1.54737">
        <ele>2337.5830078125</ele>
        <time>2012-06-10T09:58:08Z</time>
      </trkpt>
      <trkpt lat="42.69308" lon="1.54741">
        <ele>2335.6604003906</ele>
        <time>2012-06-10T09:58:16Z</time>
      </trkpt>
      <trkpt lat="42.69313" lon="1.54745">
        <ele>2333.2570800781</ele>
        <time>2012-06-10T09:58:23Z</time>
      </trkpt>
      <trkpt lat="42.69319" lon="1.54748">
        <ele>2331.8149414062</ele>
        <time>2012-06-10T09:58:30Z</time>
      </trkpt>
      <trkpt lat="42.69323" lon="1.54748">
        <ele>2330.8537597656</ele>
        <time>2012-06-10T09:58:33Z</time>
      </trkpt>
      <trkpt lat="42.69327" lon="1.5475">
        <ele>2329.8923339844</ele>
        <time>2012-06-10T09:58:37Z</time>
      </trkpt>
      <trkpt lat="42.69334" lon="1.54756">
        <ele>2326.5278320312</ele>
        <time>2012-06-10T09:58:45Z</time>
      </trkpt>
      <trkpt lat="42.69339" lon="1.54762">
        <ele>2323.6437988281</ele>
        <time>2012-06-10T09:58:51Z</time>
      </trkpt>
      <trkpt lat="42.69344" lon="1.54759">
        <ele>2323.1633300781</ele>
        <time>2012-06-10T09:58:57Z</time>
      </trkpt>
      <trkpt lat="42.69349" lon="1.54758">
        <ele>2322.2019042969</ele>
        <time>2012-06-10T09:59:02Z</time>
      </trkpt>
      <trkpt lat="42.6935" lon="1.54758">
        <ele>2322.2019042969</ele>
        <time>2012-06-10T09:59:07Z</time>
      </trkpt>
      <trkpt lat="42.69352" lon="1.54755">
        <ele>2321.2404785156</ele>
        <time>2012-06-10T09:59:12Z</time>
      </trkpt>
      <trkpt lat="42.69357" lon="1.54752">
        <ele>2320.279296875</ele>
        <time>2012-06-10T09:59:19Z</time>
      </trkpt>
      <trkpt lat="42.69362" lon="1.54751">
        <ele>2319.7985839844</ele>
        <time>2012-06-10T09:59:26Z</time>
      </trkpt>
      <trkpt lat="42.69362" lon="1.54751">
        <ele>2320.279296875</ele>
        <time>2012-06-10T09:59:36Z</time>
      </trkpt>
      <trkpt lat="42.69365" lon="1.54747">
        <ele>2321.7211914062</ele>
        <time>2012-06-10T10:00:12Z</time>
      </trkpt>
      <trkpt lat="42.6937" lon="1.54746">
        <ele>2320.7600097656</ele>
        <time>2012-06-10T10:00:18Z</time>
      </trkpt>
      <trkpt lat="42.69372" lon="1.54746">
        <ele>2319.7985839844</ele>
        <time>2012-06-10T10:00:24Z</time>
      </trkpt>
      <trkpt lat="42.69375" lon="1.54745">
        <ele>2317.8759765625</ele>
        <time>2012-06-10T10:00:29Z</time>
      </trkpt>
      <trkpt lat="42.69379" lon="1.54742">
        <ele>2316.9147949219</ele>
        <time>2012-06-10T10:00:35Z</time>
      </trkpt>
      <trkpt lat="42.69383" lon="1.54738">
        <ele>2315.953125</ele>
        <time>2012-06-10T10:00:42Z</time>
      </trkpt>
      <trkpt lat="42.69388" lon="1.54737">
        <ele>2314.5112304688</ele>
        <time>2012-06-10T10:00:47Z</time>
      </trkpt>
      <trkpt lat="42.69392" lon="1.54736">
        <ele>2312.5886230469</ele>
        <time>2012-06-10T10:00:53Z</time>
      </trkpt>
      <trkpt lat="42.69398" lon="1.54735">
        <ele>2311.6274414062</ele>
        <time>2012-06-10T10:00:59Z</time>
      </trkpt>
      <trkpt lat="42.694" lon="1.54733">
        <ele>2310.666015625</ele>
        <time>2012-06-10T10:01:05Z</time>
      </trkpt>
      <trkpt lat="42.69403" lon="1.54733">
        <ele>2309.7045898438</ele>
        <time>2012-06-10T10:01:11Z</time>
      </trkpt>
      <trkpt lat="42.69403" lon="1.54733">
        <ele>2308.7434082031</ele>
        <time>2012-06-10T10:01:16Z</time>
      </trkpt>
      <trkpt lat="42.69403" lon="1.54732">
        <ele>2307.7822265625</ele>
        <time>2012-06-10T10:01:22Z</time>
      </trkpt>
      <trkpt lat="42.69406" lon="1.54733">
        <ele>2307.3015136719</ele>
        <time>2012-06-10T10:01:26Z</time>
      </trkpt>
      <trkpt lat="42.69408" lon="1.54734">
        <ele>2305.859375</ele>
        <time>2012-06-10T10:01:31Z</time>
      </trkpt>
      <trkpt lat="42.6941" lon="1.54737">
        <ele>2304.4174804688</ele>
        <time>2012-06-10T10:01:37Z</time>
      </trkpt>
      <trkpt lat="42.69414" lon="1.54733">
        <ele>2302.9755859375</ele>
        <time>2012-06-10T10:01:43Z</time>
      </trkpt>
      <trkpt lat="42.69417" lon="1.54734">
        <ele>2301.5336914062</ele>
        <time>2012-06-10T10:01:48Z</time>
      </trkpt>
      <trkpt lat="42.6942" lon="1.54737">
        <ele>2300.091796875</ele>
        <time>2012-06-10T10:01:54Z</time>
      </trkpt>
      <trkpt lat="42.69423" lon="1.54741">
        <ele>2298.1687011719</ele>
        <time>2012-06-10T10:02:01Z</time>
      </trkpt>
      <trkpt lat="42.69424" lon="1.54747">
        <ele>2296.2463378906</ele>
        <time>2012-06-10T10:02:07Z</time>
      </trkpt>
      <trkpt lat="42.69423" lon="1.54753">
        <ele>2295.2849121094</ele>
        <time>2012-06-10T10:02:14Z</time>
      </trkpt>
      <trkpt lat="42.69423" lon="1.54758">
        <ele>2294.8041992188</ele>
        <time>2012-06-10T10:02:20Z</time>
      </trkpt>
      <trkpt lat="42.69421" lon="1.54761">
        <ele>2294.3234863281</ele>
        <time>2012-06-10T10:02:26Z</time>
      </trkpt>
      <trkpt lat="42.69416" lon="1.54764">
        <ele>2293.8430175781</ele>
        <time>2012-06-10T10:02:32Z</time>
      </trkpt>
      <trkpt lat="42.69414" lon="1.54768">
        <ele>2294.3234863281</ele>
        <time>2012-06-10T10:02:38Z</time>
      </trkpt>
      <trkpt lat="42.69415" lon="1.54768">
        <ele>2294.8041992188</ele>
        <time>2012-06-10T10:02:45Z</time>
      </trkpt>
      <trkpt lat="42.69415" lon="1.54769">
        <ele>2294.8041992188</ele>
        <time>2012-06-10T10:02:50Z</time>
      </trkpt>
      <trkpt lat="42.69413" lon="1.54774">
        <ele>2293.8430175781</ele>
        <time>2012-06-10T10:02:57Z</time>
      </trkpt>
      <trkpt lat="42.69412" lon="1.54776">
        <ele>2293.3623046875</ele>
        <time>2012-06-10T10:03:03Z</time>
      </trkpt>
      <trkpt lat="42.69413" lon="1.54771">
        <ele>2293.8430175781</ele>
        <time>2012-06-10T10:03:09Z</time>
      </trkpt>
      <trkpt lat="42.69416" lon="1.54763">
        <ele>2295.2849121094</ele>
        <time>2012-06-10T10:03:17Z</time>
      </trkpt>
      <trkpt lat="42.69422" lon="1.54759">
        <ele>2296.2463378906</ele>
        <time>2012-06-10T10:03:24Z</time>
      </trkpt>
      <trkpt lat="42.69426" lon="1.54756">
        <ele>2295.765625</ele>
        <time>2012-06-10T10:03:32Z</time>
      </trkpt>
      <trkpt lat="42.69428" lon="1.54755">
        <ele>2295.765625</ele>
        <time>2012-06-10T10:03:41Z</time>
      </trkpt>
      <trkpt lat="42.6943" lon="1.54753">
        <ele>2295.2849121094</ele>
        <time>2012-06-10T10:03:52Z</time>
      </trkpt>
      <trkpt lat="42.69434" lon="1.54752">
        <ele>2294.8041992188</ele>
        <time>2012-06-10T10:03:59Z</time>
      </trkpt>
      <trkpt lat="42.69438" lon="1.5475">
        <ele>2294.8041992188</ele>
        <time>2012-06-10T10:04:06Z</time>
      </trkpt>
      <trkpt lat="42.69442" lon="1.5475">
        <ele>2294.3234863281</ele>
        <time>2012-06-10T10:04:12Z</time>
      </trkpt>
      <trkpt lat="42.69448" lon="1.54753">
        <ele>2292.4011230469</ele>
        <time>2012-06-10T10:04:20Z</time>
      </trkpt>
      <trkpt lat="42.69448" lon="1.54758">
        <ele>2290.4782714844</ele>
        <time>2012-06-10T10:04:26Z</time>
      </trkpt>
      <trkpt lat="42.69447" lon="1.5476">
        <ele>2289.0363769531</ele>
        <time>2012-06-10T10:04:32Z</time>
      </trkpt>
      <trkpt lat="42.69448" lon="1.54764">
        <ele>2287.5944824219</ele>
        <time>2012-06-10T10:04:38Z</time>
      </trkpt>
      <trkpt lat="42.69449" lon="1.54766">
        <ele>2286.1525878906</ele>
        <time>2012-06-10T10:04:43Z</time>
      </trkpt>
      <trkpt lat="42.69453" lon="1.54771">
        <ele>2283.7490234375</ele>
        <time>2012-06-10T10:04:50Z</time>
      </trkpt>
      <trkpt lat="42.69454" lon="1.54776">
        <ele>2282.3071289062</ele>
        <time>2012-06-10T10:04:54Z</time>
      </trkpt>
      <trkpt lat="42.69452" lon="1.54781">
        <ele>2280.3845214844</ele>
        <time>2012-06-10T10:05:00Z</time>
      </trkpt>
      <trkpt lat="42.69451" lon="1.54787">
        <ele>2278.4619140625</ele>
        <time>2012-06-10T10:05:06Z</time>
      </trkpt>
      <trkpt lat="42.69448" lon="1.54794">
        <ele>2277.0200195312</ele>
        <time>2012-06-10T10:05:14Z</time>
      </trkpt>
      <trkpt lat="42.69446" lon="1.54795">
        <ele>2276.05859375</ele>
        <time>2012-06-10T10:05:21Z</time>
      </trkpt>
      <trkpt lat="42.69445" lon="1.54802">
        <ele>2275.0971679688</ele>
        <time>2012-06-10T10:05:27Z</time>
      </trkpt>
      <trkpt lat="42.69446" lon="1.54809">
        <ele>2273.1748046875</ele>
        <time>2012-06-10T10:05:32Z</time>
      </trkpt>
      <trkpt lat="42.69449" lon="1.54812">
        <ele>2273.1748046875</ele>
        <time>2012-06-10T10:05:37Z</time>
      </trkpt>
      <trkpt lat="42.69455" lon="1.54815">
        <ele>2271.7326660156</ele>
        <time>2012-06-10T10:05:44Z</time>
      </trkpt>
      <trkpt lat="42.69461" lon="1.54817">
        <ele>2270.771484375</ele>
        <time>2012-06-10T10:05:50Z</time>
      </trkpt>
      <trkpt lat="42.6947" lon="1.54823">
        <ele>2268.3681640625</ele>
        <time>2012-06-10T10:05:59Z</time>
      </trkpt>
      <trkpt lat="42.69476" lon="1.54829">
        <ele>2267.4064941406</ele>
        <time>2012-06-10T10:06:07Z</time>
      </trkpt>
      <trkpt lat="42.6948" lon="1.54828">
        <ele>2266.9260253906</ele>
        <time>2012-06-10T10:06:14Z</time>
      </trkpt>
      <trkpt lat="42.69482" lon="1.54832">
        <ele>2266.4453125</ele>
        <time>2012-06-10T10:06:21Z</time>
      </trkpt>
      <trkpt lat="42.69486" lon="1.54838">
        <ele>2265.9645996094</ele>
        <time>2012-06-10T10:06:27Z</time>
      </trkpt>
      <trkpt lat="42.69493" lon="1.54845">
        <ele>2265.0034179688</ele>
        <time>2012-06-10T10:06:34Z</time>
      </trkpt>
      <trkpt lat="42.69497" lon="1.54853">
        <ele>2264.0419921875</ele>
        <time>2012-06-10T10:06:41Z</time>
      </trkpt>
      <trkpt lat="42.69497" lon="1.54863">
        <ele>2265.0034179688</ele>
        <time>2012-06-10T10:06:50Z</time>
      </trkpt>
      <trkpt lat="42.69495" lon="1.54871">
        <ele>2264.0419921875</ele>
        <time>2012-06-10T10:06:57Z</time>
      </trkpt>
      <trkpt lat="42.69499" lon="1.54879">
        <ele>2263.5612792969</ele>
        <time>2012-06-10T10:07:04Z</time>
      </trkpt>
      <trkpt lat="42.69503" lon="1.54882">
        <ele>2262.6000976562</ele>
        <time>2012-06-10T10:07:11Z</time>
      </trkpt>
      <trkpt lat="42.69511" lon="1.5488">
        <ele>2261.6389160156</ele>
        <time>2012-06-10T10:07:18Z</time>
      </trkpt>
      <trkpt lat="42.69514" lon="1.5488">
        <ele>2261.158203125</ele>
        <time>2012-06-10T10:07:21Z</time>
      </trkpt>
      <trkpt lat="42.69522" lon="1.54876">
        <ele>2260.6774902344</ele>
        <time>2012-06-10T10:07:31Z</time>
      </trkpt>
      <trkpt lat="42.69524" lon="1.54875">
        <ele>2260.6774902344</ele>
        <time>2012-06-10T10:07:40Z</time>
      </trkpt>
      <trkpt lat="42.69529" lon="1.5487">
        <ele>2259.7160644531</ele>
        <time>2012-06-10T10:07:46Z</time>
      </trkpt>
      <trkpt lat="42.69535" lon="1.54869">
        <ele>2258.2741699219</ele>
        <time>2012-06-10T10:07:53Z</time>
      </trkpt>
      <trkpt lat="42.69536" lon="1.54869">
        <ele>2257.7937011719</ele>
        <time>2012-06-10T10:08:00Z</time>
      </trkpt>
      <trkpt lat="42.69537" lon="1.54869">
        <ele>2257.7937011719</ele>
        <time>2012-06-10T10:08:07Z</time>
      </trkpt>
      <trkpt lat="42.6954" lon="1.54867">
        <ele>2256.8322753906</ele>
        <time>2012-06-10T10:08:13Z</time>
      </trkpt>
      <trkpt lat="42.69543" lon="1.54866">
        <ele>2255.3903808594</ele>
        <time>2012-06-10T10:08:19Z</time>
      </trkpt>
      <trkpt lat="42.69547" lon="1.54864">
        <ele>2254.4289550781</ele>
        <time>2012-06-10T10:08:24Z</time>
      </trkpt>
      <trkpt lat="42.69548" lon="1.5486">
        <ele>2253.4677734375</ele>
        <time>2012-06-10T10:08:29Z</time>
      </trkpt>
      <trkpt lat="42.69551" lon="1.54853">
        <ele>2252.0256347656</ele>
        <time>2012-06-10T10:08:36Z</time>
      </trkpt>
      <trkpt lat="42.69555" lon="1.54847">
        <ele>2250.5834960938</ele>
        <time>2012-06-10T10:08:43Z</time>
      </trkpt>
      <trkpt lat="42.69559" lon="1.54849">
        <ele>2249.6223144531</ele>
        <time>2012-06-10T10:08:48Z</time>
      </trkpt>
      <trkpt lat="42.69563" lon="1.54848">
        <ele>2248.1801757812</ele>
        <time>2012-06-10T10:08:54Z</time>
      </trkpt>
      <trkpt lat="42.69568" lon="1.54849">
        <ele>2246.2578125</ele>
        <time>2012-06-10T10:09:01Z</time>
      </trkpt>
      <trkpt lat="42.69573" lon="1.54851">
        <ele>2244.8156738281</ele>
        <time>2012-06-10T10:09:06Z</time>
      </trkpt>
      <trkpt lat="42.69578" lon="1.54854">
        <ele>2242.8930664062</ele>
        <time>2012-06-10T10:09:12Z</time>
      </trkpt>
      <trkpt lat="42.69582" lon="1.54857">
        <ele>2240.9704589844</ele>
        <time>2012-06-10T10:09:18Z</time>
      </trkpt>
      <trkpt lat="42.69585" lon="1.54861">
        <ele>2239.5285644531</ele>
        <time>2012-06-10T10:09:24Z</time>
      </trkpt>
      <trkpt lat="42.69585" lon="1.54868">
        <ele>2238.0866699219</ele>
        <time>2012-06-10T10:09:30Z</time>
      </trkpt>
      <trkpt lat="42.69584" lon="1.5487">
        <ele>2235.6831054688</ele>
        <time>2012-06-10T10:33:36Z</time>
      </trkpt>
      <trkpt lat="42.69584" lon="1.54871">
        <ele>2235.6831054688</ele>
        <time>2012-06-10T10:33:37Z</time>
      </trkpt>
      <trkpt lat="42.69587" lon="1.5487">
        <ele>2234.7219238281</ele>
        <time>2012-06-10T10:33:42Z</time>
      </trkpt>
      <trkpt lat="42.69593" lon="1.54867">
        <ele>2233.2797851562</ele>
        <time>2012-06-10T10:33:48Z</time>
      </trkpt>
      <trkpt lat="42.69601" lon="1.54864">
        <ele>2231.837890625</ele>
        <time>2012-06-10T10:33:55Z</time>
      </trkpt>
      <trkpt lat="42.69606" lon="1.54861">
        <ele>2230.8767089844</ele>
        <time>2012-06-10T10:34:01Z</time>
      </trkpt>
      <trkpt lat="42.69611" lon="1.54862">
        <ele>2228.9538574219</ele>
        <time>2012-06-10T10:34:07Z</time>
      </trkpt>
      <trkpt lat="42.69615" lon="1.54866">
        <ele>2227.5119628906</ele>
        <time>2012-06-10T10:34:13Z</time>
      </trkpt>
      <trkpt lat="42.69619" lon="1.54865">
        <ele>2226.0700683594</ele>
        <time>2012-06-10T10:34:19Z</time>
      </trkpt>
      <trkpt lat="42.69625" lon="1.54868">
        <ele>2224.1474609375</ele>
        <time>2012-06-10T10:34:25Z</time>
      </trkpt>
      <trkpt lat="42.69627" lon="1.54871">
        <ele>2223.1862792969</ele>
        <time>2012-06-10T10:34:28Z</time>
      </trkpt>
      <trkpt lat="42.69631" lon="1.5488">
        <ele>2221.2634277344</ele>
        <time>2012-06-10T10:34:35Z</time>
      </trkpt>
      <trkpt lat="42.69633" lon="1.54886">
        <ele>2219.8212890625</ele>
        <time>2012-06-10T10:34:40Z</time>
      </trkpt>
      <trkpt lat="42.69635" lon="1.54893">
        <ele>2217.8986816406</ele>
        <time>2012-06-10T10:34:47Z</time>
      </trkpt>
      <trkpt lat="42.69638" lon="1.54902">
        <ele>2215.4956054688</ele>
        <time>2012-06-10T10:34:54Z</time>
      </trkpt>
      <trkpt lat="42.69639" lon="1.54903">
        <ele>2215.0148925781</ele>
        <time>2012-06-10T10:34:55Z</time>
      </trkpt>
      <trkpt lat="42.69642" lon="1.54913">
        <ele>2212.6115722656</ele>
        <time>2012-06-10T10:35:01Z</time>
      </trkpt>
      <trkpt lat="42.69643" lon="1.54917">
        <ele>2211.650390625</ele>
        <time>2012-06-10T10:35:03Z</time>
      </trkpt>
      <trkpt lat="42.6965" lon="1.54926">
        <ele>2209.2470703125</ele>
        <time>2012-06-10T10:35:10Z</time>
      </trkpt>
      <trkpt lat="42.69654" lon="1.54933">
        <ele>2206.84375</ele>
        <time>2012-06-10T10:35:18Z</time>
      </trkpt>
      <trkpt lat="42.6966" lon="1.54937">
        <ele>2204.9211425781</ele>
        <time>2012-06-10T10:35:24Z</time>
      </trkpt>
      <trkpt lat="42.69664" lon="1.54942">
        <ele>2202.517578125</ele>
        <time>2012-06-10T10:35:29Z</time>
      </trkpt>
      <trkpt lat="42.6967" lon="1.54949">
        <ele>2200.5949707031</ele>
        <time>2012-06-10T10:35:36Z</time>
      </trkpt>
      <trkpt lat="42.69672" lon="1.54951">
        <ele>2200.1145019531</ele>
        <time>2012-06-10T10:35:38Z</time>
      </trkpt>
      <trkpt lat="42.69675" lon="1.54958">
        <ele>2199.1530761719</ele>
        <time>2012-06-10T10:35:44Z</time>
      </trkpt>
      <trkpt lat="42.69678" lon="1.54967">
        <ele>2197.7111816406</ele>
        <time>2012-06-10T10:35:50Z</time>
      </trkpt>
      <trkpt lat="42.69679" lon="1.5497">
        <ele>2196.7497558594</ele>
        <time>2012-06-10T10:35:53Z</time>
      </trkpt>
      <trkpt lat="42.69682" lon="1.54974">
        <ele>2195.3078613281</ele>
        <time>2012-06-10T10:35:57Z</time>
      </trkpt>
      <trkpt lat="42.69688" lon="1.54981">
        <ele>2193.3852539062</ele>
        <time>2012-06-10T10:36:03Z</time>
      </trkpt>
      <trkpt lat="42.69698" lon="1.54989">
        <ele>2192.4240722656</ele>
        <time>2012-06-10T10:36:10Z</time>
      </trkpt>
      <trkpt lat="42.69704" lon="1.54994">
        <ele>2190.9819335938</ele>
        <time>2012-06-10T10:36:15Z</time>
      </trkpt>
      <trkpt lat="42.69714" lon="1.54998">
        <ele>2189.0593261719</ele>
        <time>2012-06-10T10:36:23Z</time>
      </trkpt>
      <trkpt lat="42.69714" lon="1.54998">
        <ele>2188.5788574219</ele>
        <time>2012-06-10T10:36:24Z</time>
      </trkpt>
      <trkpt lat="42.6972" lon="1.54998">
        <ele>2187.1364746094</ele>
        <time>2012-06-10T10:36:30Z</time>
      </trkpt>
      <trkpt lat="42.69723" lon="1.54997">
        <ele>2185.6945800781</ele>
        <time>2012-06-10T10:36:35Z</time>
      </trkpt>
      <trkpt lat="42.69727" lon="1.54997">
        <ele>2183.2912597656</ele>
        <time>2012-06-10T10:36:42Z</time>
      </trkpt>
      <trkpt lat="42.69729" lon="1.54996">
        <ele>2182.330078125</ele>
        <time>2012-06-10T10:36:48Z</time>
      </trkpt>
      <trkpt lat="42.69731" lon="1.54996">
        <ele>2181.3686523438</ele>
        <time>2012-06-10T10:36:53Z</time>
      </trkpt>
      <trkpt lat="42.69733" lon="1.54998">
        <ele>2180.4074707031</ele>
        <time>2012-06-10T10:36:59Z</time>
      </trkpt>
      <trkpt lat="42.69736" lon="1.54998">
        <ele>2179.4460449219</ele>
        <time>2012-06-10T10:37:05Z</time>
      </trkpt>
      <trkpt lat="42.69738" lon="1.54998">
        <ele>2178.9653320312</ele>
        <time>2012-06-10T10:37:11Z</time>
      </trkpt>
      <trkpt lat="42.6974" lon="1.54998">
        <ele>2178.4848632812</ele>
        <time>2012-06-10T10:37:17Z</time>
      </trkpt>
      <trkpt lat="42.69747" lon="1.54998">
        <ele>2177.04296875</ele>
        <time>2012-06-10T10:37:21Z</time>
      </trkpt>
      <trkpt lat="42.69762" lon="1.54996">
        <ele>2174.6396484375</ele>
        <time>2012-06-10T10:37:28Z</time>
      </trkpt>
      <trkpt lat="42.69774" lon="1.55002">
        <ele>2171.7553710938</ele>
        <time>2012-06-10T10:37:34Z</time>
      </trkpt>
      <trkpt lat="42.69787" lon="1.55006">
        <ele>2168.8715820312</ele>
        <time>2012-06-10T10:37:40Z</time>
      </trkpt>
      <trkpt lat="42.69799" lon="1.55008">
        <ele>2167.91015625</ele>
        <time>2012-06-10T10:37:45Z</time>
      </trkpt>
      <trkpt lat="42.69806" lon="1.55008">
        <ele>2166.4682617188</ele>
        <time>2012-06-10T10:37:49Z</time>
      </trkpt>
      <trkpt lat="42.69809" lon="1.5501">
        <ele>2166.9489746094</ele>
        <time>2012-06-10T10:37:52Z</time>
      </trkpt>
      <trkpt lat="42.69819" lon="1.55021">
        <ele>2164.5456542969</ele>
        <time>2012-06-10T10:38:01Z</time>
      </trkpt>
      <trkpt lat="42.6982" lon="1.55027">
        <ele>2164.0649414062</ele>
        <time>2012-06-10T10:38:03Z</time>
      </trkpt>
      <trkpt lat="42.69827" lon="1.55035">
        <ele>2162.1423339844</ele>
        <time>2012-06-10T10:38:08Z</time>
      </trkpt>
      <trkpt lat="42.6983" lon="1.55037">
        <ele>2162.1423339844</ele>
        <time>2012-06-10T10:38:11Z</time>
      </trkpt>
      <trkpt lat="42.69835" lon="1.55042">
        <ele>2161.1811523438</ele>
        <time>2012-06-10T10:38:16Z</time>
      </trkpt>
      <trkpt lat="42.69837" lon="1.55046">
        <ele>2160.7004394531</ele>
        <time>2012-06-10T10:38:19Z</time>
      </trkpt>
      <trkpt lat="42.6984" lon="1.55053">
        <ele>2159.7390136719</ele>
        <time>2012-06-10T10:38:24Z</time>
      </trkpt>
      <trkpt lat="42.69843" lon="1.55057">
        <ele>2158.2971191406</ele>
        <time>2012-06-10T10:38:29Z</time>
      </trkpt>
      <trkpt lat="42.69849" lon="1.5506">
        <ele>2156.3745117188</ele>
        <time>2012-06-10T10:38:34Z</time>
      </trkpt>
      <trkpt lat="42.69851" lon="1.55067">
        <ele>2154.9323730469</ele>
        <time>2012-06-10T10:38:40Z</time>
      </trkpt>
      <trkpt lat="42.69852" lon="1.55068">
        <ele>2154.4516601562</ele>
        <time>2012-06-10T10:38:41Z</time>
      </trkpt>
      <trkpt lat="42.69856" lon="1.55073">
        <ele>2152.0483398438</ele>
        <time>2012-06-10T10:38:47Z</time>
      </trkpt>
      <trkpt lat="42.69857" lon="1.55074">
        <ele>2151.5678710938</ele>
        <time>2012-06-10T10:38:48Z</time>
      </trkpt>
      <trkpt lat="42.69865" lon="1.55074">
        <ele>2151.0871582031</ele>
        <time>2012-06-10T10:38:53Z</time>
      </trkpt>
      <trkpt lat="42.69869" lon="1.55075">
        <ele>2151.5678710938</ele>
        <time>2012-06-10T10:38:57Z</time>
      </trkpt>
      <trkpt lat="42.69874" lon="1.55074">
        <ele>2151.5678710938</ele>
        <time>2012-06-10T10:39:03Z</time>
      </trkpt>
      <trkpt lat="42.69878" lon="1.55075">
        <ele>2151.0871582031</ele>
        <time>2012-06-10T10:39:08Z</time>
      </trkpt>
      <trkpt lat="42.69888" lon="1.5508">
        <ele>2150.1259765625</ele>
        <time>2012-06-10T10:39:15Z</time>
      </trkpt>
      <trkpt lat="42.69895" lon="1.55087">
        <ele>2147.72265625</ele>
        <time>2012-06-10T10:39:19Z</time>
      </trkpt>
      <trkpt lat="42.69905" lon="1.55092">
        <ele>2145.3193359375</ele>
        <time>2012-06-10T10:39:23Z</time>
      </trkpt>
      <trkpt lat="42.69917" lon="1.55093">
        <ele>2143.3967285156</ele>
        <time>2012-06-10T10:39:27Z</time>
      </trkpt>
      <trkpt lat="42.69931" lon="1.55096">
        <ele>2140.9934082031</ele>
        <time>2012-06-10T10:39:32Z</time>
      </trkpt>
      <trkpt lat="42.69935" lon="1.55099">
        <ele>2140.0322265625</ele>
        <time>2012-06-10T10:39:34Z</time>
      </trkpt>
      <trkpt lat="42.69945" lon="1.55105">
        <ele>2138.5900878906</ele>
        <time>2012-06-10T10:39:39Z</time>
      </trkpt>
      <trkpt lat="42.69949" lon="1.5511">
        <ele>2138.5900878906</ele>
        <time>2012-06-10T10:39:44Z</time>
      </trkpt>
      <trkpt lat="42.69953" lon="1.55111">
        <ele>2138.5900878906</ele>
        <time>2012-06-10T10:39:48Z</time>
      </trkpt>
      <trkpt lat="42.69959" lon="1.55117">
        <ele>2138.109375</ele>
        <time>2012-06-10T10:39:55Z</time>
      </trkpt>
      <trkpt lat="42.69968" lon="1.5512">
        <ele>2136.1867675781</ele>
        <time>2012-06-10T10:40:03Z</time>
      </trkpt>
      <trkpt lat="42.69974" lon="1.55124">
        <ele>2134.7448730469</ele>
        <time>2012-06-10T10:40:10Z</time>
      </trkpt>
      <trkpt lat="42.69978" lon="1.55127">
        <ele>2133.7834472656</ele>
        <time>2012-06-10T10:40:16Z</time>
      </trkpt>
      <trkpt lat="42.69981" lon="1.55127">
        <ele>2132.8220214844</ele>
        <time>2012-06-10T10:40:22Z</time>
      </trkpt>
      <trkpt lat="42.69984" lon="1.55128">
        <ele>2131.8608398438</ele>
        <time>2012-06-10T10:40:28Z</time>
      </trkpt>
      <trkpt lat="42.69989" lon="1.55129">
        <ele>2130.4189453125</ele>
        <time>2012-06-10T10:40:33Z</time>
      </trkpt>
      <trkpt lat="42.69995" lon="1.5513">
        <ele>2129.4575195312</ele>
        <time>2012-06-10T10:40:39Z</time>
      </trkpt>
      <trkpt lat="42.70002" lon="1.55133">
        <ele>2127.5349121094</ele>
        <time>2012-06-10T10:40:46Z</time>
      </trkpt>
      <trkpt lat="42.70008" lon="1.55134">
        <ele>2126.0930175781</ele>
        <time>2012-06-10T10:40:53Z</time>
      </trkpt>
      <trkpt lat="42.70011" lon="1.55137">
        <ele>2125.1315917969</ele>
        <time>2012-06-10T10:40:58Z</time>
      </trkpt>
      <trkpt lat="42.70015" lon="1.55142">
        <ele>2124.1704101562</ele>
        <time>2012-06-10T10:41:03Z</time>
      </trkpt>
      <trkpt lat="42.70018" lon="1.55149">
        <ele>2123.208984375</ele>
        <time>2012-06-10T10:41:10Z</time>
      </trkpt>
      <trkpt lat="42.70023" lon="1.5515">
        <ele>2121.7668457031</ele>
        <time>2012-06-10T10:41:16Z</time>
      </trkpt>
      <trkpt lat="42.70032" lon="1.55148">
        <ele>2122.2475585938</ele>
        <time>2012-06-10T10:41:23Z</time>
      </trkpt>
      <trkpt lat="42.70036" lon="1.55149">
        <ele>2122.2475585938</ele>
        <time>2012-06-10T10:41:26Z</time>
      </trkpt>
      <trkpt lat="42.70042" lon="1.55155">
        <ele>2121.7668457031</ele>
        <time>2012-06-10T10:41:33Z</time>
      </trkpt>
      <trkpt lat="42.70048" lon="1.55157">
        <ele>2120.8056640625</ele>
        <time>2012-06-10T10:41:38Z</time>
      </trkpt>
      <trkpt lat="42.70053" lon="1.55158">
        <ele>2119.8442382812</ele>
        <time>2012-06-10T10:41:42Z</time>
      </trkpt>
      <trkpt lat="42.70062" lon="1.55159">
        <ele>2118.8830566406</ele>
        <time>2012-06-10T10:41:47Z</time>
      </trkpt>
      <trkpt lat="42.70066" lon="1.55162">
        <ele>2117.9216308594</ele>
        <time>2012-06-10T10:41:50Z</time>
      </trkpt>
      <trkpt lat="42.70074" lon="1.55172">
        <ele>2116.9604492188</ele>
        <time>2012-06-10T10:41:57Z</time>
      </trkpt>
      <trkpt lat="42.70079" lon="1.55182">
        <ele>2116.4797363281</ele>
        <time>2012-06-10T10:42:03Z</time>
      </trkpt>
      <trkpt lat="42.70086" lon="1.55192">
        <ele>2115.5185546875</ele>
        <time>2012-06-10T10:42:10Z</time>
      </trkpt>
      <trkpt lat="42.7009" lon="1.552">
        <ele>2115.0378417969</ele>
        <time>2012-06-10T10:42:15Z</time>
      </trkpt>
      <trkpt lat="42.70094" lon="1.55207">
        <ele>2115.0378417969</ele>
        <time>2012-06-10T10:42:20Z</time>
      </trkpt>
      <trkpt lat="42.70099" lon="1.5522">
        <ele>2115.0378417969</ele>
        <time>2012-06-10T10:42:28Z</time>
      </trkpt>
      <trkpt lat="42.70105" lon="1.55232">
        <ele>2114.0764160156</ele>
        <time>2012-06-10T10:42:35Z</time>
      </trkpt>
      <trkpt lat="42.70111" lon="1.55239">
        <ele>2112.6345214844</ele>
        <time>2012-06-10T10:42:41Z</time>
      </trkpt>
      <trkpt lat="42.70115" lon="1.55243">
        <ele>2111.6733398438</ele>
        <time>2012-06-10T10:42:45Z</time>
      </trkpt>
      <trkpt lat="42.70123" lon="1.5525">
        <ele>2109.7504882812</ele>
        <time>2012-06-10T10:42:51Z</time>
      </trkpt>
      <trkpt lat="42.70127" lon="1.55256">
        <ele>2108.7893066406</ele>
        <time>2012-06-10T10:42:56Z</time>
      </trkpt>
      <trkpt lat="42.70128" lon="1.5526">
        <ele>2108.30859375</ele>
        <time>2012-06-10T10:42:59Z</time>
      </trkpt>
      <trkpt lat="42.70132" lon="1.55267">
        <ele>2106.3857421875</ele>
        <time>2012-06-10T10:43:06Z</time>
      </trkpt>
      <trkpt lat="42.70137" lon="1.5527">
        <ele>2104.4631347656</ele>
        <time>2012-06-10T10:43:11Z</time>
      </trkpt>
      <trkpt lat="42.70144" lon="1.55273">
        <ele>2103.501953125</ele>
        <time>2012-06-10T10:43:18Z</time>
      </trkpt>
      <trkpt lat="42.70152" lon="1.55282">
        <ele>2102.0598144531</ele>
        <time>2012-06-10T10:43:24Z</time>
      </trkpt>
      <trkpt lat="42.70157" lon="1.55288">
        <ele>2100.1374511719</ele>
        <time>2012-06-10T10:43:28Z</time>
      </trkpt>
      <trkpt lat="42.7016" lon="1.55287">
        <ele>2099.6567382812</ele>
        <time>2012-06-10T10:43:37Z</time>
      </trkpt>
      <trkpt lat="42.70165" lon="1.55285">
        <ele>2098.2145996094</ele>
        <time>2012-06-10T10:43:43Z</time>
      </trkpt>
      <trkpt lat="42.70171" lon="1.55285">
        <ele>2095.8115234375</ele>
        <time>2012-06-10T10:43:52Z</time>
      </trkpt>
      <trkpt lat="42.70178" lon="1.55286">
        <ele>2095.3308105469</ele>
        <time>2012-06-10T10:43:58Z</time>
      </trkpt>
      <trkpt lat="42.70187" lon="1.55288">
        <ele>2092.9274902344</ele>
        <time>2012-06-10T10:44:05Z</time>
      </trkpt>
      <trkpt lat="42.70189" lon="1.55289">
        <ele>2092.4470214844</ele>
        <time>2012-06-10T10:44:07Z</time>
      </trkpt>
      <trkpt lat="42.70195" lon="1.5529">
        <ele>2091.0046386719</ele>
        <time>2012-06-10T10:44:14Z</time>
      </trkpt>
      <trkpt lat="42.702" lon="1.55292">
        <ele>2089.08203125</ele>
        <time>2012-06-10T10:44:20Z</time>
      </trkpt>
      <trkpt lat="42.70203" lon="1.55292">
        <ele>2086.6787109375</ele>
        <time>2012-06-10T10:44:25Z</time>
      </trkpt>
      <trkpt lat="42.70207" lon="1.55292">
        <ele>2085.2368164062</ele>
        <time>2012-06-10T10:44:31Z</time>
      </trkpt>
      <trkpt lat="42.7021" lon="1.55295">
        <ele>2082.8334960938</ele>
        <time>2012-06-10T10:44:37Z</time>
      </trkpt>
      <trkpt lat="42.70213" lon="1.55296">
        <ele>2080.9111328125</ele>
        <time>2012-06-10T10:44:43Z</time>
      </trkpt>
      <trkpt lat="42.70215" lon="1.55293">
        <ele>2078.98828125</ele>
        <time>2012-06-10T10:44:49Z</time>
      </trkpt>
      <trkpt lat="42.70216" lon="1.5529">
        <ele>2077.5463867188</ele>
        <time>2012-06-10T10:44:55Z</time>
      </trkpt>
      <trkpt lat="42.70218" lon="1.55285">
        <ele>2075.6235351562</ele>
        <time>2012-06-10T10:45:01Z</time>
      </trkpt>
      <trkpt lat="42.70222" lon="1.55284">
        <ele>2073.7009277344</ele>
        <time>2012-06-10T10:45:07Z</time>
      </trkpt>
      <trkpt lat="42.70225" lon="1.55281">
        <ele>2071.7783203125</ele>
        <time>2012-06-10T10:45:13Z</time>
      </trkpt>
      <trkpt lat="42.70229" lon="1.55279">
        <ele>2069.8557128906</ele>
        <time>2012-06-10T10:45:19Z</time>
      </trkpt>
      <trkpt lat="42.7023" lon="1.55276">
        <ele>2067.9331054688</ele>
        <time>2012-06-10T10:45:24Z</time>
      </trkpt>
      <trkpt lat="42.70234" lon="1.55277">
        <ele>2066.0104980469</ele>
        <time>2012-06-10T10:45:29Z</time>
      </trkpt>
      <trkpt lat="42.70234" lon="1.55274">
        <ele>2064.5686035156</ele>
        <time>2012-06-10T10:45:35Z</time>
      </trkpt>
      <trkpt lat="42.70237" lon="1.55265">
        <ele>2062.1652832031</ele>
        <time>2012-06-10T10:45:42Z</time>
      </trkpt>
      <trkpt lat="42.70239" lon="1.55257">
        <ele>2061.2041015625</ele>
        <time>2012-06-10T10:45:49Z</time>
      </trkpt>
      <trkpt lat="42.70239" lon="1.55254">
        <ele>2060.7233886719</ele>
        <time>2012-06-10T10:45:55Z</time>
      </trkpt>
      <trkpt lat="42.70243" lon="1.55247">
        <ele>2059.76171875</ele>
        <time>2012-06-10T10:46:02Z</time>
      </trkpt>
      <trkpt lat="42.70246" lon="1.55242">
        <ele>2058.8005371094</ele>
        <time>2012-06-10T10:46:08Z</time>
      </trkpt>
      <trkpt lat="42.70251" lon="1.55233">
        <ele>2057.8393554688</ele>
        <time>2012-06-10T10:46:16Z</time>
      </trkpt>
      <trkpt lat="42.70254" lon="1.55228">
        <ele>2057.8393554688</ele>
        <time>2012-06-10T10:46:20Z</time>
      </trkpt>
      <trkpt lat="42.70262" lon="1.55222">
        <ele>2057.3586425781</ele>
        <time>2012-06-10T10:46:29Z</time>
      </trkpt>
      <trkpt lat="42.70262" lon="1.55217">
        <ele>2056.3972167969</ele>
        <time>2012-06-10T10:46:35Z</time>
      </trkpt>
      <trkpt lat="42.70261" lon="1.55214">
        <ele>2056.3972167969</ele>
        <time>2012-06-10T10:46:42Z</time>
      </trkpt>
      <trkpt lat="42.70258" lon="1.55214">
        <ele>2056.3972167969</ele>
        <time>2012-06-10T10:46:48Z</time>
      </trkpt>
      <trkpt lat="42.70258" lon="1.55212">
        <ele>2053.994140625</ele>
        <time>2012-06-10T10:47:00Z</time>
      </trkpt>
      <trkpt lat="42.70256" lon="1.55207">
        <ele>2053.994140625</ele>
        <time>2012-06-10T10:47:05Z</time>
      </trkpt>
      <trkpt lat="42.70256" lon="1.55199">
        <ele>2053.5134277344</ele>
        <time>2012-06-10T10:47:13Z</time>
      </trkpt>
      <trkpt lat="42.70257" lon="1.55196">
        <ele>2053.0327148438</ele>
        <time>2012-06-10T10:47:20Z</time>
      </trkpt>
      <trkpt lat="42.70257" lon="1.55191">
        <ele>2051.5908203125</ele>
        <time>2012-06-10T10:47:32Z</time>
      </trkpt>
      <trkpt lat="42.70256" lon="1.5518">
        <ele>2050.1489257812</ele>
        <time>2012-06-10T10:47:40Z</time>
      </trkpt>
      <trkpt lat="42.70256" lon="1.55177">
        <ele>2049.6682128906</ele>
        <time>2012-06-10T10:47:42Z</time>
      </trkpt>
      <trkpt lat="42.70258" lon="1.55167">
        <ele>2047.7456054688</ele>
        <time>2012-06-10T10:47:51Z</time>
      </trkpt>
      <trkpt lat="42.70259" lon="1.55162">
        <ele>2046.3037109375</ele>
        <time>2012-06-10T10:47:58Z</time>
      </trkpt>
      <trkpt lat="42.70258" lon="1.5516">
        <ele>2045.8229980469</ele>
        <time>2012-06-10T10:48:05Z</time>
      </trkpt>
      <trkpt lat="42.70258" lon="1.55158">
        <ele>2045.3422851562</ele>
        <time>2012-06-10T10:48:15Z</time>
      </trkpt>
      <trkpt lat="42.70255" lon="1.55155">
        <ele>2043.9001464844</ele>
        <time>2012-06-10T10:48:25Z</time>
      </trkpt>
      <trkpt lat="42.70253" lon="1.55153">
        <ele>2042.9387207031</ele>
        <time>2012-06-10T10:48:30Z</time>
      </trkpt>
      <trkpt lat="42.70255" lon="1.55148">
        <ele>2041.4968261719</ele>
        <time>2012-06-10T10:48:35Z</time>
      </trkpt>
      <trkpt lat="42.70261" lon="1.55143">
        <ele>2041.4968261719</ele>
        <time>2012-06-10T10:48:41Z</time>
      </trkpt>
      <trkpt lat="42.70267" lon="1.55145">
        <ele>2040.0549316406</ele>
        <time>2012-06-10T10:48:49Z</time>
      </trkpt>
      <trkpt lat="42.70268" lon="1.55145">
        <ele>2040.0549316406</ele>
        <time>2012-06-10T10:48:55Z</time>
      </trkpt>
      <trkpt lat="42.70269" lon="1.55145">
        <ele>2040.0549316406</ele>
        <time>2012-06-10T10:49:05Z</time>
      </trkpt>
      <trkpt lat="42.7027" lon="1.55142">
        <ele>2039.57421875</ele>
        <time>2012-06-10T10:49:19Z</time>
      </trkpt>
      <trkpt lat="42.70271" lon="1.55144">
        <ele>2039.57421875</ele>
        <time>2012-06-10T10:49:27Z</time>
      </trkpt>
      <trkpt lat="42.70269" lon="1.55147">
        <ele>2039.57421875</ele>
        <time>2012-06-10T10:49:32Z</time>
      </trkpt>
      <trkpt lat="42.70266" lon="1.55146">
        <ele>2040.5354003906</ele>
        <time>2012-06-10T10:49:37Z</time>
      </trkpt>
      <trkpt lat="42.70261" lon="1.55143">
        <ele>2041.4968261719</ele>
        <time>2012-06-10T10:49:44Z</time>
      </trkpt>
      <trkpt lat="42.70259" lon="1.5514">
        <ele>2041.9775390625</ele>
        <time>2012-06-10T10:49:50Z</time>
      </trkpt>
      <trkpt lat="42.70258" lon="1.55138">
        <ele>2043.4194335938</ele>
        <time>2012-06-10T10:50:04Z</time>
      </trkpt>
      <trkpt lat="42.70259" lon="1.55138">
        <ele>2042.4582519531</ele>
        <time>2012-06-10T10:50:30Z</time>
      </trkpt>
      <trkpt lat="42.70258" lon="1.55139">
        <ele>2033.8063964844</ele>
        <time>2012-06-10T10:51:02Z</time>
      </trkpt>
      <trkpt lat="42.70258" lon="1.55139">
        <ele>2035.2482910156</ele>
        <time>2012-06-10T10:51:22Z</time>
      </trkpt>
    </trkseg>
  </trk>
  <trk>
    <name><![CDATA[Rando-course]]></name>
    <cmt><![CDATA[redouneilles]]></cmt>
    <trkseg>
      <trkpt lat="42.70259" lon="1.55139">
        <ele>2038.1323242188</ele>
        <time>2012-06-10T10:51:53Z</time>
      </trkpt>
      <trkpt lat="42.70259" lon="1.55139">
        <ele>2038.1323242188</ele>
        <time>2012-06-10T10:51:54Z</time>
      </trkpt>
      <trkpt lat="42.70256" lon="1.55144">
        <ele>2039.0935058594</ele>
        <time>2012-06-10T10:51:59Z</time>
      </trkpt>
      <trkpt lat="42.7026" lon="1.5515">
        <ele>2040.5354003906</ele>
        <time>2012-06-10T10:52:06Z</time>
      </trkpt>
      <trkpt lat="42.70263" lon="1.55154">
        <ele>2042.4582519531</ele>
        <time>2012-06-10T10:52:14Z</time>
      </trkpt>
      <trkpt lat="42.70262" lon="1.55153">
        <ele>2043.4194335938</ele>
        <time>2012-06-10T10:52:33Z</time>
      </trkpt>
      <trkpt lat="42.70258" lon="1.55147">
        <ele>2043.4194335938</ele>
        <time>2012-06-10T10:52:40Z</time>
      </trkpt>
      <trkpt lat="42.70255" lon="1.55139">
        <ele>2042.9387207031</ele>
        <time>2012-06-10T10:52:47Z</time>
      </trkpt>
      <trkpt lat="42.70253" lon="1.55137">
        <ele>2042.9387207031</ele>
        <time>2012-06-10T10:52:49Z</time>
      </trkpt>
      <trkpt lat="42.70247" lon="1.55126">
        <ele>2041.4968261719</ele>
        <time>2012-06-10T10:52:58Z</time>
      </trkpt>
      <trkpt lat="42.70243" lon="1.55116">
        <ele>2039.57421875</ele>
        <time>2012-06-10T10:53:05Z</time>
      </trkpt>
      <trkpt lat="42.70237" lon="1.55111">
        <ele>2038.1323242188</ele>
        <time>2012-06-10T10:53:11Z</time>
      </trkpt>
      <trkpt lat="42.70235" lon="1.55108">
        <ele>2037.6516113281</ele>
        <time>2012-06-10T10:53:13Z</time>
      </trkpt>
      <trkpt lat="42.7023" lon="1.55102">
        <ele>2035.7290039062</ele>
        <time>2012-06-10T10:53:18Z</time>
      </trkpt>
      <trkpt lat="42.70226" lon="1.55097">
        <ele>2034.287109375</ele>
        <time>2012-06-10T10:53:24Z</time>
      </trkpt>
      <trkpt lat="42.70224" lon="1.55095">
        <ele>2033.8063964844</ele>
        <time>2012-06-10T10:53:26Z</time>
      </trkpt>
      <trkpt lat="42.70219" lon="1.55086">
        <ele>2033.3256835938</ele>
        <time>2012-06-10T10:53:33Z</time>
      </trkpt>
      <trkpt lat="42.70214" lon="1.55083">
        <ele>2032.8449707031</ele>
        <time>2012-06-10T10:53:39Z</time>
      </trkpt>
      <trkpt lat="42.70209" lon="1.55076">
        <ele>2030.4418945312</ele>
        <time>2012-06-10T10:53:45Z</time>
      </trkpt>
      <trkpt lat="42.70205" lon="1.55066">
        <ele>2028.5192871094</ele>
        <time>2012-06-10T10:53:52Z</time>
      </trkpt>
      <trkpt lat="42.70201" lon="1.55057">
        <ele>2027.0771484375</ele>
        <time>2012-06-10T10:53:59Z</time>
      </trkpt>
      <trkpt lat="42.70198" lon="1.55047">
        <ele>2025.6350097656</ele>
        <time>2012-06-10T10:54:06Z</time>
      </trkpt>
      <trkpt lat="42.70195" lon="1.55037">
        <ele>2025.154296875</ele>
        <time>2012-06-10T10:54:13Z</time>
      </trkpt>
      <trkpt lat="42.70194" lon="1.55035">
        <ele>2025.154296875</ele>
        <time>2012-06-10T10:54:14Z</time>
      </trkpt>
      <trkpt lat="42.70189" lon="1.55023">
        <ele>2025.154296875</ele>
        <time>2012-06-10T10:54:22Z</time>
      </trkpt>
      <trkpt lat="42.70187" lon="1.55011">
        <ele>2024.1931152344</ele>
        <time>2012-06-10T10:54:30Z</time>
      </trkpt>
      <trkpt lat="42.70183" lon="1.55006">
        <ele>2023.2319335938</ele>
        <time>2012-06-10T10:54:37Z</time>
      </trkpt>
      <trkpt lat="42.70182" lon="1.55001">
        <ele>2022.7512207031</ele>
        <time>2012-06-10T10:54:40Z</time>
      </trkpt>
      <trkpt lat="42.70181" lon="1.54988">
        <ele>2021.3090820312</ele>
        <time>2012-06-10T10:54:48Z</time>
      </trkpt>
      <trkpt lat="42.70181" lon="1.54982">
        <ele>2020.3479003906</ele>
        <time>2012-06-10T10:54:53Z</time>
      </trkpt>
      <trkpt lat="42.70182" lon="1.54975">
        <ele>2019.38671875</ele>
        <time>2012-06-10T10:54:59Z</time>
      </trkpt>
      <trkpt lat="42.70181" lon="1.54968">
        <ele>2017.9445800781</ele>
        <time>2012-06-10T10:55:05Z</time>
      </trkpt>
      <trkpt lat="42.70181" lon="1.54964">
        <ele>2017.4638671875</ele>
        <time>2012-06-10T10:55:10Z</time>
      </trkpt>
      <trkpt lat="42.70183" lon="1.5496">
        <ele>2016.0219726562</ele>
        <time>2012-06-10T10:55:16Z</time>
      </trkpt>
      <trkpt lat="42.70184" lon="1.54952">
        <ele>2014.0993652344</ele>
        <time>2012-06-10T10:55:23Z</time>
      </trkpt>
      <trkpt lat="42.70182" lon="1.5495">
        <ele>2014.0993652344</ele>
        <time>2012-06-10T10:55:28Z</time>
      </trkpt>
      <trkpt lat="42.70177" lon="1.54945">
        <ele>2013.6186523438</ele>
        <time>2012-06-10T10:55:34Z</time>
      </trkpt>
      <trkpt lat="42.70175" lon="1.54943">
        <ele>2014.0993652344</ele>
        <time>2012-06-10T10:55:36Z</time>
      </trkpt>
      <trkpt lat="42.70173" lon="1.54938">
        <ele>2014.580078125</ele>
        <time>2012-06-10T10:55:42Z</time>
      </trkpt>
      <trkpt lat="42.7017" lon="1.54931">
        <ele>2015.0607910156</ele>
        <time>2012-06-10T10:55:49Z</time>
      </trkpt>
      <trkpt lat="42.70166" lon="1.54923">
        <ele>2015.5415039062</ele>
        <time>2012-06-10T10:55:56Z</time>
      </trkpt>
      <trkpt lat="42.70166" lon="1.54921">
        <ele>2015.5415039062</ele>
        <time>2012-06-10T10:55:57Z</time>
      </trkpt>
      <trkpt lat="42.70164" lon="1.54916">
        <ele>2015.5415039062</ele>
        <time>2012-06-10T10:56:01Z</time>
      </trkpt>
      <trkpt lat="42.70164" lon="1.5491">
        <ele>2016.0219726562</ele>
        <time>2012-06-10T10:56:06Z</time>
      </trkpt>
      <trkpt lat="42.70163" lon="1.54904">
        <ele>2016.5026855469</ele>
        <time>2012-06-10T10:56:13Z</time>
      </trkpt>
      <trkpt lat="42.70163" lon="1.54905">
        <ele>2016.0219726562</ele>
        <time>2012-06-10T10:56:20Z</time>
      </trkpt>
      <trkpt lat="42.70164" lon="1.54909">
        <ele>2015.5415039062</ele>
        <time>2012-06-10T10:56:27Z</time>
      </trkpt>
      <trkpt lat="42.70166" lon="1.5492">
        <ele>2015.0607910156</ele>
        <time>2012-06-10T10:56:36Z</time>
      </trkpt>
      <trkpt lat="42.70168" lon="1.54926">
        <ele>2016.0219726562</ele>
        <time>2012-06-10T10:56:41Z</time>
      </trkpt>
      <trkpt lat="42.70172" lon="1.54933">
        <ele>2015.0607910156</ele>
        <time>2012-06-10T10:56:48Z</time>
      </trkpt>
      <trkpt lat="42.70176" lon="1.54938">
        <ele>2014.0993652344</ele>
        <time>2012-06-10T10:56:55Z</time>
      </trkpt>
      <trkpt lat="42.70179" lon="1.54941">
        <ele>2013.6186523438</ele>
        <time>2012-06-10T10:57:00Z</time>
      </trkpt>
      <trkpt lat="42.70185" lon="1.54945">
        <ele>2013.6186523438</ele>
        <time>2012-06-10T10:57:06Z</time>
      </trkpt>
      <trkpt lat="42.70186" lon="1.54945">
        <ele>2013.6186523438</ele>
        <time>2012-06-10T10:57:07Z</time>
      </trkpt>
      <trkpt lat="42.70195" lon="1.54942">
        <ele>2013.6186523438</ele>
        <time>2012-06-10T10:57:16Z</time>
      </trkpt>
      <trkpt lat="42.70203" lon="1.54933">
        <ele>2013.6186523438</ele>
        <time>2012-06-10T10:57:26Z</time>
      </trkpt>
      <trkpt lat="42.70204" lon="1.54928">
        <ele>2011.6960449219</ele>
        <time>2012-06-10T10:57:33Z</time>
      </trkpt>
      <trkpt lat="42.70207" lon="1.54927">
        <ele>2010.25390625</ele>
        <time>2012-06-10T10:57:42Z</time>
      </trkpt>
      <trkpt lat="42.70211" lon="1.54925">
        <ele>2009.7731933594</ele>
        <time>2012-06-10T10:57:48Z</time>
      </trkpt>
      <trkpt lat="42.70216" lon="1.5492">
        <ele>2009.2927246094</ele>
        <time>2012-06-10T10:57:54Z</time>
      </trkpt>
      <trkpt lat="42.70217" lon="1.54919">
        <ele>2009.2927246094</ele>
        <time>2012-06-10T10:57:55Z</time>
      </trkpt>
      <trkpt lat="42.70226" lon="1.54917">
        <ele>2007.8508300781</ele>
        <time>2012-06-10T10:58:05Z</time>
      </trkpt>
      <trkpt lat="42.7023" lon="1.5492">
        <ele>2006.8894042969</ele>
        <time>2012-06-10T10:58:11Z</time>
      </trkpt>
      <trkpt lat="42.70236" lon="1.54921">
        <ele>2005.9279785156</ele>
        <time>2012-06-10T10:58:17Z</time>
      </trkpt>
      <trkpt lat="42.70241" lon="1.54926">
        <ele>2004.4860839844</ele>
        <time>2012-06-10T10:58:23Z</time>
      </trkpt>
      <trkpt lat="42.70242" lon="1.54926">
        <ele>2004.0056152344</ele>
        <time>2012-06-10T10:58:24Z</time>
      </trkpt>
      <trkpt lat="42.70249" lon="1.54928">
        <ele>2003.0441894531</ele>
        <time>2012-06-10T10:58:30Z</time>
      </trkpt>
      <trkpt lat="42.70251" lon="1.54928">
        <ele>2003.0441894531</ele>
        <time>2012-06-10T10:58:32Z</time>
      </trkpt>
      <trkpt lat="42.70259" lon="1.54935">
        <ele>2000.6408691406</ele>
        <time>2012-06-10T10:58:41Z</time>
      </trkpt>
      <trkpt lat="42.70267" lon="1.5494">
        <ele>1999.1989746094</ele>
        <time>2012-06-10T10:58:48Z</time>
      </trkpt>
      <trkpt lat="42.70271" lon="1.54946">
        <ele>1997.7570800781</ele>
        <time>2012-06-10T10:58:54Z</time>
      </trkpt>
      <trkpt lat="42.70277" lon="1.54947">
        <ele>1997.7570800781</ele>
        <time>2012-06-10T10:58:59Z</time>
      </trkpt>
      <trkpt lat="42.7029" lon="1.54951">
        <ele>1997.2763671875</ele>
        <time>2012-06-10T10:59:09Z</time>
      </trkpt>
      <trkpt lat="42.70296" lon="1.54954">
        <ele>1996.7956542969</ele>
        <time>2012-06-10T10:59:16Z</time>
      </trkpt>
      <trkpt lat="42.70302" lon="1.54958">
        <ele>1996.7956542969</ele>
        <time>2012-06-10T10:59:23Z</time>
      </trkpt>
      <trkpt lat="42.70305" lon="1.5496">
        <ele>1996.7956542969</ele>
        <time>2012-06-10T10:59:26Z</time>
      </trkpt>
      <trkpt lat="42.70316" lon="1.54961">
        <ele>1995.8342285156</ele>
        <time>2012-06-10T10:59:35Z</time>
      </trkpt>
      <trkpt lat="42.70324" lon="1.5496">
        <ele>1995.353515625</ele>
        <time>2012-06-10T10:59:42Z</time>
      </trkpt>
      <trkpt lat="42.70325" lon="1.54959">
        <ele>1995.353515625</ele>
        <time>2012-06-10T10:59:43Z</time>
      </trkpt>
      <trkpt lat="42.70329" lon="1.54958">
        <ele>1993.9116210938</ele>
        <time>2012-06-10T10:59:50Z</time>
      </trkpt>
      <trkpt lat="42.70332" lon="1.54958">
        <ele>1993.4309082031</ele>
        <time>2012-06-10T10:59:55Z</time>
      </trkpt>
      <trkpt lat="42.70337" lon="1.54962">
        <ele>1992.4697265625</ele>
        <time>2012-06-10T11:00:02Z</time>
      </trkpt>
      <trkpt lat="42.7034" lon="1.54965">
        <ele>1992.4697265625</ele>
        <time>2012-06-10T11:00:07Z</time>
      </trkpt>
      <trkpt lat="42.70348" lon="1.5497">
        <ele>1992.4697265625</ele>
        <time>2012-06-10T11:00:15Z</time>
      </trkpt>
      <trkpt lat="42.7035" lon="1.5497">
        <ele>1992.4697265625</ele>
        <time>2012-06-10T11:00:16Z</time>
      </trkpt>
      <trkpt lat="42.70356" lon="1.54979">
        <ele>1992.9501953125</ele>
        <time>2012-06-10T11:00:26Z</time>
      </trkpt>
      <trkpt lat="42.70361" lon="1.54982">
        <ele>1993.9116210938</ele>
        <time>2012-06-10T11:00:33Z</time>
      </trkpt>
      <trkpt lat="42.70366" lon="1.54987">
        <ele>1993.9116210938</ele>
        <time>2012-06-10T11:00:39Z</time>
      </trkpt>
      <trkpt lat="42.70367" lon="1.54988">
        <ele>1993.4309082031</ele>
        <time>2012-06-10T11:00:40Z</time>
      </trkpt>
      <trkpt lat="42.70372" lon="1.54986">
        <ele>1991.9890136719</ele>
        <time>2012-06-10T11:00:47Z</time>
      </trkpt>
      <trkpt lat="42.70375" lon="1.54984">
        <ele>1991.0275878906</ele>
        <time>2012-06-10T11:00:53Z</time>
      </trkpt>
      <trkpt lat="42.70377" lon="1.54981">
        <ele>1990.546875</ele>
        <time>2012-06-10T11:00:59Z</time>
      </trkpt>
      <trkpt lat="42.70381" lon="1.54976">
        <ele>1989.1049804688</ele>
        <time>2012-06-10T11:01:06Z</time>
      </trkpt>
      <trkpt lat="42.70384" lon="1.54971">
        <ele>1988.6245117188</ele>
        <time>2012-06-10T11:01:12Z</time>
      </trkpt>
      <trkpt lat="42.70385" lon="1.54967">
        <ele>1988.1437988281</ele>
        <time>2012-06-10T11:01:17Z</time>
      </trkpt>
      <trkpt lat="42.70386" lon="1.54966">
        <ele>1987.6630859375</ele>
        <time>2012-06-10T11:01:38Z</time>
      </trkpt>
      <trkpt lat="42.7039" lon="1.54958">
        <ele>1986.7016601562</ele>
        <time>2012-06-10T11:01:45Z</time>
      </trkpt>
      <trkpt lat="42.70393" lon="1.54958">
        <ele>1985.7404785156</ele>
        <time>2012-06-10T11:01:49Z</time>
      </trkpt>
      <trkpt lat="42.70396" lon="1.54959">
        <ele>1985.7404785156</ele>
        <time>2012-06-10T11:01:54Z</time>
      </trkpt>
      <trkpt lat="42.70404" lon="1.54959">
        <ele>1984.779296875</ele>
        <time>2012-06-10T11:02:01Z</time>
      </trkpt>
      <trkpt lat="42.70405" lon="1.54959">
        <ele>1984.2985839844</ele>
        <time>2012-06-10T11:02:02Z</time>
      </trkpt>
      <trkpt lat="42.70412" lon="1.54955">
        <ele>1985.259765625</ele>
        <time>2012-06-10T11:02:09Z</time>
      </trkpt>
      <trkpt lat="42.70417" lon="1.54954">
        <ele>1985.7404785156</ele>
        <time>2012-06-10T11:02:13Z</time>
      </trkpt>
      <trkpt lat="42.70426" lon="1.54953">
        <ele>1987.1823730469</ele>
        <time>2012-06-10T11:02:21Z</time>
      </trkpt>
      <trkpt lat="42.70434" lon="1.5495">
        <ele>1988.6245117188</ele>
        <time>2012-06-10T11:02:29Z</time>
      </trkpt>
      <trkpt lat="42.70444" lon="1.54946">
        <ele>1988.6245117188</ele>
        <time>2012-06-10T11:02:38Z</time>
      </trkpt>
      <trkpt lat="42.70444" lon="1.54945">
        <ele>1988.6245117188</ele>
        <time>2012-06-10T11:02:39Z</time>
      </trkpt>
      <trkpt lat="42.70446" lon="1.54944">
        <ele>1988.6245117188</ele>
        <time>2012-06-10T11:02:41Z</time>
      </trkpt>
      <trkpt lat="42.7045" lon="1.54943">
        <ele>1988.1437988281</ele>
        <time>2012-06-10T11:02:45Z</time>
      </trkpt>
      <trkpt lat="42.70452" lon="1.54943">
        <ele>1987.6630859375</ele>
        <time>2012-06-10T11:02:47Z</time>
      </trkpt>
      <trkpt lat="42.70459" lon="1.54943">
        <ele>1987.6630859375</ele>
        <time>2012-06-10T11:02:54Z</time>
      </trkpt>
      <trkpt lat="42.70464" lon="1.54943">
        <ele>1988.6245117188</ele>
        <time>2012-06-10T11:03:01Z</time>
      </trkpt>
      <trkpt lat="42.70468" lon="1.54943">
        <ele>1990.06640625</ele>
        <time>2012-06-10T11:03:07Z</time>
      </trkpt>
      <trkpt lat="42.70475" lon="1.54944">
        <ele>1991.0275878906</ele>
        <time>2012-06-10T11:03:14Z</time>
      </trkpt>
      <trkpt lat="42.7048" lon="1.54948">
        <ele>1991.9890136719</ele>
        <time>2012-06-10T11:03:20Z</time>
      </trkpt>
      <trkpt lat="42.70484" lon="1.54948">
        <ele>1992.4697265625</ele>
        <time>2012-06-10T11:03:27Z</time>
      </trkpt>
      <trkpt lat="42.70491" lon="1.54947">
        <ele>1992.4697265625</ele>
        <time>2012-06-10T11:03:33Z</time>
      </trkpt>
      <trkpt lat="42.70497" lon="1.54948">
        <ele>1991.5083007812</ele>
        <time>2012-06-10T11:03:39Z</time>
      </trkpt>
      <trkpt lat="42.70501" lon="1.54947">
        <ele>1990.546875</ele>
        <time>2012-06-10T11:03:43Z</time>
      </trkpt>
      <trkpt lat="42.70508" lon="1.54952">
        <ele>1990.546875</ele>
        <time>2012-06-10T11:03:50Z</time>
      </trkpt>
      <trkpt lat="42.70509" lon="1.54952">
        <ele>1991.0275878906</ele>
        <time>2012-06-10T11:03:51Z</time>
      </trkpt>
      <trkpt lat="42.70513" lon="1.54959">
        <ele>1991.9890136719</ele>
        <time>2012-06-10T11:03:59Z</time>
      </trkpt>
      <trkpt lat="42.70516" lon="1.54963">
        <ele>1992.4697265625</ele>
        <time>2012-06-10T11:04:04Z</time>
      </trkpt>
      <trkpt lat="42.70522" lon="1.54965">
        <ele>1994.3920898438</ele>
        <time>2012-06-10T11:04:10Z</time>
      </trkpt>
      <trkpt lat="42.70527" lon="1.54966">
        <ele>1994.8728027344</ele>
        <time>2012-06-10T11:04:15Z</time>
      </trkpt>
      <trkpt lat="42.70534" lon="1.54972">
        <ele>1995.8342285156</ele>
        <time>2012-06-10T11:04:24Z</time>
      </trkpt>
      <trkpt lat="42.70536" lon="1.54975">
        <ele>1994.8728027344</ele>
        <time>2012-06-10T11:04:31Z</time>
      </trkpt>
      <trkpt lat="42.70543" lon="1.5498">
        <ele>1992.9501953125</ele>
        <time>2012-06-10T11:04:37Z</time>
      </trkpt>
      <trkpt lat="42.7055" lon="1.54985">
        <ele>1991.5083007812</ele>
        <time>2012-06-10T11:04:43Z</time>
      </trkpt>
      <trkpt lat="42.70552" lon="1.54985">
        <ele>1990.546875</ele>
        <time>2012-06-10T11:04:45Z</time>
      </trkpt>
      <trkpt lat="42.7056" lon="1.54985">
        <ele>1988.6245117188</ele>
        <time>2012-06-10T11:04:50Z</time>
      </trkpt>
      <trkpt lat="42.70565" lon="1.54987">
        <ele>1987.6630859375</ele>
        <time>2012-06-10T11:04:54Z</time>
      </trkpt>
      <trkpt lat="42.70571" lon="1.54988">
        <ele>1986.2211914062</ele>
        <time>2012-06-10T11:04:59Z</time>
      </trkpt>
      <trkpt lat="42.70579" lon="1.54995">
        <ele>1986.2211914062</ele>
        <time>2012-06-10T11:05:07Z</time>
      </trkpt>
      <trkpt lat="42.70583" lon="1.55">
        <ele>1984.779296875</ele>
        <time>2012-06-10T11:05:13Z</time>
      </trkpt>
      <trkpt lat="42.70587" lon="1.55003">
        <ele>1983.3371582031</ele>
        <time>2012-06-10T11:05:18Z</time>
      </trkpt>
      <trkpt lat="42.70591" lon="1.55005">
        <ele>1982.8564453125</ele>
        <time>2012-06-10T11:05:23Z</time>
      </trkpt>
      <trkpt lat="42.70592" lon="1.55006">
        <ele>1982.8564453125</ele>
        <time>2012-06-10T11:05:24Z</time>
      </trkpt>
      <trkpt lat="42.70598" lon="1.55008">
        <ele>1982.8564453125</ele>
        <time>2012-06-10T11:05:28Z</time>
      </trkpt>
      <trkpt lat="42.70603" lon="1.5501">
        <ele>1982.3759765625</ele>
        <time>2012-06-10T11:05:33Z</time>
      </trkpt>
      <trkpt lat="42.70607" lon="1.5501">
        <ele>1982.3759765625</ele>
        <time>2012-06-10T11:05:40Z</time>
      </trkpt>
      <trkpt lat="42.7061" lon="1.55012">
        <ele>1982.3759765625</ele>
        <time>2012-06-10T11:05:47Z</time>
      </trkpt>
      <trkpt lat="42.70613" lon="1.55013">
        <ele>1982.8564453125</ele>
        <time>2012-06-10T11:05:50Z</time>
      </trkpt>
      <trkpt lat="42.7062" lon="1.55019">
        <ele>1981.4145507812</ele>
        <time>2012-06-10T11:05:57Z</time>
      </trkpt>
      <trkpt lat="42.7062" lon="1.5502">
        <ele>1981.8952636719</ele>
        <time>2012-06-10T11:06:02Z</time>
      </trkpt>
      <trkpt lat="42.70623" lon="1.5502">
        <ele>1981.8952636719</ele>
        <time>2012-06-10T11:06:14Z</time>
      </trkpt>
      <trkpt lat="42.7063" lon="1.55024">
        <ele>1981.8952636719</ele>
        <time>2012-06-10T11:06:21Z</time>
      </trkpt>
      <trkpt lat="42.7064" lon="1.5503">
        <ele>1982.3759765625</ele>
        <time>2012-06-10T11:06:30Z</time>
      </trkpt>
      <trkpt lat="42.70646" lon="1.55031">
        <ele>1982.3759765625</ele>
        <time>2012-06-10T11:06:36Z</time>
      </trkpt>
      <trkpt lat="42.70653" lon="1.5503">
        <ele>1981.8952636719</ele>
        <time>2012-06-10T11:06:42Z</time>
      </trkpt>
      <trkpt lat="42.70663" lon="1.55031">
        <ele>1979.9724121094</ele>
        <time>2012-06-10T11:06:47Z</time>
      </trkpt>
      <trkpt lat="42.70671" lon="1.55035">
        <ele>1979.0109863281</ele>
        <time>2012-06-10T11:06:51Z</time>
      </trkpt>
      <trkpt lat="42.70679" lon="1.55036">
        <ele>1979.0109863281</ele>
        <time>2012-06-10T11:06:57Z</time>
      </trkpt>
      <trkpt lat="42.70688" lon="1.55032">
        <ele>1979.0109863281</ele>
        <time>2012-06-10T11:07:04Z</time>
      </trkpt>
      <trkpt lat="42.70692" lon="1.55027">
        <ele>1979.0109863281</ele>
        <time>2012-06-10T11:07:08Z</time>
      </trkpt>
      <trkpt lat="42.70697" lon="1.5502">
        <ele>1979.0109863281</ele>
        <time>2012-06-10T11:07:16Z</time>
      </trkpt>
      <trkpt lat="42.70699" lon="1.55014">
        <ele>1978.0498046875</ele>
        <time>2012-06-10T11:07:22Z</time>
      </trkpt>
      <trkpt lat="42.70701" lon="1.55009">
        <ele>1976.1271972656</ele>
        <time>2012-06-10T11:07:27Z</time>
      </trkpt>
      <trkpt lat="42.70705" lon="1.55008">
        <ele>1974.2045898438</ele>
        <time>2012-06-10T11:07:33Z</time>
      </trkpt>
      <trkpt lat="42.7071" lon="1.5501">
        <ele>1972.7626953125</ele>
        <time>2012-06-10T11:07:39Z</time>
      </trkpt>
      <trkpt lat="42.70715" lon="1.55012">
        <ele>1971.8012695312</ele>
        <time>2012-06-10T11:07:45Z</time>
      </trkpt>
      <trkpt lat="42.70717" lon="1.55012">
        <ele>1971.3205566406</ele>
        <time>2012-06-10T11:07:46Z</time>
      </trkpt>
      <trkpt lat="42.70726" lon="1.55011">
        <ele>1969.3981933594</ele>
        <time>2012-06-10T11:07:55Z</time>
      </trkpt>
      <trkpt lat="42.70726" lon="1.55011">
        <ele>1968.9174804688</ele>
        <time>2012-06-10T11:07:56Z</time>
      </trkpt>
      <trkpt lat="42.70732" lon="1.55007">
        <ele>1966.9948730469</ele>
        <time>2012-06-10T11:08:02Z</time>
      </trkpt>
      <trkpt lat="42.70732" lon="1.55007">
        <ele>1966.5141601562</ele>
        <time>2012-06-10T11:08:03Z</time>
      </trkpt>
      <trkpt lat="42.70737" lon="1.55006">
        <ele>1964.5915527344</ele>
        <time>2012-06-10T11:08:10Z</time>
      </trkpt>
      <trkpt lat="42.7074" lon="1.55006">
        <ele>1963.1494140625</ele>
        <time>2012-06-10T11:08:17Z</time>
      </trkpt>
      <trkpt lat="42.70742" lon="1.55005">
        <ele>1961.2268066406</ele>
        <time>2012-06-10T11:08:24Z</time>
      </trkpt>
      <trkpt lat="42.70745" lon="1.55007">
        <ele>1960.2653808594</ele>
        <time>2012-06-10T11:08:29Z</time>
      </trkpt>
      <trkpt lat="42.7075" lon="1.55007">
        <ele>1958.8234863281</ele>
        <time>2012-06-10T11:08:36Z</time>
      </trkpt>
      <trkpt lat="42.70752" lon="1.55005">
        <ele>1957.3815917969</ele>
        <time>2012-06-10T11:08:42Z</time>
      </trkpt>
      <trkpt lat="42.70754" lon="1.55003">
        <ele>1955.939453125</ele>
        <time>2012-06-10T11:08:58Z</time>
      </trkpt>
      <trkpt lat="42.70758" lon="1.55004">
        <ele>1954.0170898438</ele>
        <time>2012-06-10T11:09:04Z</time>
      </trkpt>
      <trkpt lat="42.7076" lon="1.55004">
        <ele>1952.5749511719</ele>
        <time>2012-06-10T11:09:11Z</time>
      </trkpt>
      <trkpt lat="42.70763" lon="1.55003">
        <ele>1951.1330566406</ele>
        <time>2012-06-10T11:09:15Z</time>
      </trkpt>
      <trkpt lat="42.70766" lon="1.55004">
        <ele>1950.171875</ele>
        <time>2012-06-10T11:09:21Z</time>
      </trkpt>
      <trkpt lat="42.70767" lon="1.55003">
        <ele>1949.2104492188</ele>
        <time>2012-06-10T11:09:27Z</time>
      </trkpt>
      <trkpt lat="42.70768" lon="1.55001">
        <ele>1948.7297363281</ele>
        <time>2012-06-10T11:09:31Z</time>
      </trkpt>
      <trkpt lat="42.7077" lon="1.55002">
        <ele>1947.7683105469</ele>
        <time>2012-06-10T11:09:36Z</time>
      </trkpt>
      <trkpt lat="42.70773" lon="1.55003">
        <ele>1946.3264160156</ele>
        <time>2012-06-10T11:09:42Z</time>
      </trkpt>
      <trkpt lat="42.70776" lon="1.55004">
        <ele>1944.4035644531</ele>
        <time>2012-06-10T11:09:48Z</time>
      </trkpt>
      <trkpt lat="42.70777" lon="1.55002">
        <ele>1943.4423828125</ele>
        <time>2012-06-10T11:09:52Z</time>
      </trkpt>
      <trkpt lat="42.70779" lon="1.54999">
        <ele>1941.5197753906</ele>
        <time>2012-06-10T11:09:58Z</time>
      </trkpt>
      <trkpt lat="42.70781" lon="1.55">
        <ele>1939.5971679688</ele>
        <time>2012-06-10T11:10:04Z</time>
      </trkpt>
      <trkpt lat="42.70782" lon="1.55">
        <ele>1938.6359863281</ele>
        <time>2012-06-10T11:10:10Z</time>
      </trkpt>
      <trkpt lat="42.70786" lon="1.54999">
        <ele>1936.7131347656</ele>
        <time>2012-06-10T11:10:16Z</time>
      </trkpt>
      <trkpt lat="42.70785" lon="1.55003">
        <ele>1935.2712402344</ele>
        <time>2012-06-10T11:10:20Z</time>
      </trkpt>
      <trkpt lat="42.70787" lon="1.55006">
        <ele>1933.3486328125</ele>
        <time>2012-06-10T11:10:26Z</time>
      </trkpt>
      <trkpt lat="42.70789" lon="1.55003">
        <ele>1932.3874511719</ele>
        <time>2012-06-10T11:10:30Z</time>
      </trkpt>
      <trkpt lat="42.70794" lon="1.55003">
        <ele>1930.9453125</ele>
        <time>2012-06-10T11:10:36Z</time>
      </trkpt>
      <trkpt lat="42.70799" lon="1.55002">
        <ele>1929.0224609375</ele>
        <time>2012-06-10T11:10:43Z</time>
      </trkpt>
      <trkpt lat="42.70805" lon="1.55">
        <ele>1926.138671875</ele>
        <time>2012-06-10T11:10:51Z</time>
      </trkpt>
      <trkpt lat="42.70807" lon="1.54997">
        <ele>1924.6967773438</ele>
        <time>2012-06-10T11:10:56Z</time>
      </trkpt>
      <trkpt lat="42.70811" lon="1.54996">
        <ele>1923.2548828125</ele>
        <time>2012-06-10T11:11:00Z</time>
      </trkpt>
      <trkpt lat="42.70814" lon="1.54996">
        <ele>1921.33203125</ele>
        <time>2012-06-10T11:11:06Z</time>
      </trkpt>
      <trkpt lat="42.70819" lon="1.54994">
        <ele>1919.4096679688</ele>
        <time>2012-06-10T11:11:13Z</time>
      </trkpt>
      <trkpt lat="42.70823" lon="1.54993">
        <ele>1917.9675292969</ele>
        <time>2012-06-10T11:11:18Z</time>
      </trkpt>
      <trkpt lat="42.70826" lon="1.54991">
        <ele>1915.5642089844</ele>
        <time>2012-06-10T11:11:24Z</time>
      </trkpt>
      <trkpt lat="42.70832" lon="1.54988">
        <ele>1913.6413574219</ele>
        <time>2012-06-10T11:11:30Z</time>
      </trkpt>
      <trkpt lat="42.70837" lon="1.54986">
        <ele>1912.1994628906</ele>
        <time>2012-06-10T11:11:35Z</time>
      </trkpt>
      <trkpt lat="42.70838" lon="1.54986">
        <ele>1912.1994628906</ele>
        <time>2012-06-10T11:11:36Z</time>
      </trkpt>
      <trkpt lat="42.7084" lon="1.54986">
        <ele>1911.23828125</ele>
        <time>2012-06-10T11:11:38Z</time>
      </trkpt>
      <trkpt lat="42.70847" lon="1.5498">
        <ele>1909.3156738281</ele>
        <time>2012-06-10T11:11:45Z</time>
      </trkpt>
      <trkpt lat="42.70852" lon="1.54972">
        <ele>1907.3930664062</ele>
        <time>2012-06-10T11:11:51Z</time>
      </trkpt>
      <trkpt lat="42.70853" lon="1.54971">
        <ele>1906.9123535156</ele>
        <time>2012-06-10T11:11:52Z</time>
      </trkpt>
      <trkpt lat="42.70853" lon="1.5497">
        <ele>1906.431640625</ele>
        <time>2012-06-10T11:11:54Z</time>
      </trkpt>
      <trkpt lat="42.70857" lon="1.54963">
        <ele>1905.4704589844</ele>
        <time>2012-06-10T11:11:59Z</time>
      </trkpt>
      <trkpt lat="42.70862" lon="1.54963">
        <ele>1903.5478515625</ele>
        <time>2012-06-10T11:12:07Z</time>
      </trkpt>
      <trkpt lat="42.70865" lon="1.54962">
        <ele>1902.5864257812</ele>
        <time>2012-06-10T11:12:12Z</time>
      </trkpt>
      <trkpt lat="42.70868" lon="1.54956">
        <ele>1901.14453125</ele>
        <time>2012-06-10T11:12:18Z</time>
      </trkpt>
      <trkpt lat="42.70869" lon="1.5495">
        <ele>1899.2216796875</ele>
        <time>2012-06-10T11:12:25Z</time>
      </trkpt>
      <trkpt lat="42.70869" lon="1.54945">
        <ele>1898.2602539062</ele>
        <time>2012-06-10T11:12:29Z</time>
      </trkpt>
      <trkpt lat="42.70866" lon="1.54937">
        <ele>1896.337890625</ele>
        <time>2012-06-10T11:12:36Z</time>
      </trkpt>
      <trkpt lat="42.70864" lon="1.54932">
        <ele>1894.8957519531</ele>
        <time>2012-06-10T11:12:42Z</time>
      </trkpt>
      <trkpt lat="42.70862" lon="1.54928">
        <ele>1893.9345703125</ele>
        <time>2012-06-10T11:12:47Z</time>
      </trkpt>
      <trkpt lat="42.70863" lon="1.54925">
        <ele>1892.4926757812</ele>
        <time>2012-06-10T11:12:51Z</time>
      </trkpt>
      <trkpt lat="42.70864" lon="1.54923">
        <ele>1891.0505371094</ele>
        <time>2012-06-10T11:12:55Z</time>
      </trkpt>
      <trkpt lat="42.70868" lon="1.54921">
        <ele>1889.1279296875</ele>
        <time>2012-06-10T11:13:01Z</time>
      </trkpt>
      <trkpt lat="42.70871" lon="1.54918">
        <ele>1887.2053222656</ele>
        <time>2012-06-10T11:13:06Z</time>
      </trkpt>
      <trkpt lat="42.70875" lon="1.54915">
        <ele>1885.2827148438</ele>
        <time>2012-06-10T11:13:12Z</time>
      </trkpt>
      <trkpt lat="42.70879" lon="1.54913">
        <ele>1883.3598632812</ele>
        <time>2012-06-10T11:13:18Z</time>
      </trkpt>
      <trkpt lat="42.70882" lon="1.54912">
        <ele>1882.3986816406</ele>
        <time>2012-06-10T11:13:23Z</time>
      </trkpt>
      <trkpt lat="42.70887" lon="1.54915">
        <ele>1880.9567871094</ele>
        <time>2012-06-10T11:13:28Z</time>
      </trkpt>
      <trkpt lat="42.70894" lon="1.54913">
        <ele>1879.0339355469</ele>
        <time>2012-06-10T11:13:35Z</time>
      </trkpt>
      <trkpt lat="42.709" lon="1.54911">
        <ele>1878.0727539062</ele>
        <time>2012-06-10T11:13:41Z</time>
      </trkpt>
      <trkpt lat="42.70903" lon="1.54912">
        <ele>1877.5920410156</ele>
        <time>2012-06-10T11:13:47Z</time>
      </trkpt>
      <trkpt lat="42.70906" lon="1.54915">
        <ele>1877.1115722656</ele>
        <time>2012-06-10T11:13:52Z</time>
      </trkpt>
      <trkpt lat="42.70908" lon="1.54916">
        <ele>1876.1501464844</ele>
        <time>2012-06-10T11:13:56Z</time>
      </trkpt>
      <trkpt lat="42.70909" lon="1.54911">
        <ele>1874.7082519531</ele>
        <time>2012-06-10T11:14:01Z</time>
      </trkpt>
      <trkpt lat="42.70912" lon="1.54905">
        <ele>1874.7082519531</ele>
        <time>2012-06-10T11:14:05Z</time>
      </trkpt>
      <trkpt lat="42.70918" lon="1.54901">
        <ele>1873.2663574219</ele>
        <time>2012-06-10T11:14:12Z</time>
      </trkpt>
      <trkpt lat="42.7092" lon="1.54899">
        <ele>1871.82421875</ele>
        <time>2012-06-10T11:14:19Z</time>
      </trkpt>
      <trkpt lat="42.70922" lon="1.54899">
        <ele>1870.8630371094</ele>
        <time>2012-06-10T11:14:25Z</time>
      </trkpt>
      <trkpt lat="42.70927" lon="1.54901">
        <ele>1869.9016113281</ele>
        <time>2012-06-10T11:14:31Z</time>
      </trkpt>
      <trkpt lat="42.70932" lon="1.54904">
        <ele>1868.4597167969</ele>
        <time>2012-06-10T11:14:37Z</time>
      </trkpt>
      <trkpt lat="42.70935" lon="1.54907">
        <ele>1867.017578125</ele>
        <time>2012-06-10T11:14:43Z</time>
      </trkpt>
      <trkpt lat="42.70938" lon="1.5491">
        <ele>1865.5756835938</ele>
        <time>2012-06-10T11:14:50Z</time>
      </trkpt>
      <trkpt lat="42.70941" lon="1.54912">
        <ele>1864.1335449219</ele>
        <time>2012-06-10T11:14:55Z</time>
      </trkpt>
      <trkpt lat="42.70943" lon="1.54914">
        <ele>1862.2109375</ele>
        <time>2012-06-10T11:15:00Z</time>
      </trkpt>
      <trkpt lat="42.70947" lon="1.54913">
        <ele>1860.2883300781</ele>
        <time>2012-06-10T11:15:05Z</time>
      </trkpt>
      <trkpt lat="42.7095" lon="1.54911">
        <ele>1859.3271484375</ele>
        <time>2012-06-10T11:15:09Z</time>
      </trkpt>
      <trkpt lat="42.70952" lon="1.54906">
        <ele>1857.8852539062</ele>
        <time>2012-06-10T11:15:15Z</time>
      </trkpt>
      <trkpt lat="42.70953" lon="1.54903">
        <ele>1857.4045410156</ele>
        <time>2012-06-10T11:15:19Z</time>
      </trkpt>
      <trkpt lat="42.70956" lon="1.54902">
        <ele>1856.4431152344</ele>
        <time>2012-06-10T11:15:25Z</time>
      </trkpt>
      <trkpt lat="42.70958" lon="1.549">
        <ele>1854.5205078125</ele>
        <time>2012-06-10T11:15:30Z</time>
      </trkpt>
      <trkpt lat="42.7096" lon="1.549">
        <ele>1852.5979003906</ele>
        <time>2012-06-10T11:15:37Z</time>
      </trkpt>
      <trkpt lat="42.70963" lon="1.54899">
        <ele>1851.1557617188</ele>
        <time>2012-06-10T11:15:41Z</time>
      </trkpt>
      <trkpt lat="42.70966" lon="1.54903">
        <ele>1849.7138671875</ele>
        <time>2012-06-10T11:15:48Z</time>
      </trkpt>
      <trkpt lat="42.70968" lon="1.54906">
        <ele>1848.2717285156</ele>
        <time>2012-06-10T11:15:54Z</time>
      </trkpt>
      <trkpt lat="42.7097" lon="1.54907">
        <ele>1847.310546875</ele>
        <time>2012-06-10T11:15:59Z</time>
      </trkpt>
      <trkpt lat="42.70971" lon="1.54906">
        <ele>1846.8298339844</ele>
        <time>2012-06-10T11:16:04Z</time>
      </trkpt>
      <trkpt lat="42.70975" lon="1.54905">
        <ele>1845.8686523438</ele>
        <time>2012-06-10T11:16:11Z</time>
      </trkpt>
      <trkpt lat="42.70975" lon="1.54901">
        <ele>1844.4265136719</ele>
        <time>2012-06-10T11:16:17Z</time>
      </trkpt>
      <trkpt lat="42.70975" lon="1.54895">
        <ele>1842.5041503906</ele>
        <time>2012-06-10T11:16:23Z</time>
      </trkpt>
      <trkpt lat="42.70975" lon="1.54892">
        <ele>1840.5812988281</ele>
        <time>2012-06-10T11:16:29Z</time>
      </trkpt>
      <trkpt lat="42.70974" lon="1.54889">
        <ele>1839.1394042969</ele>
        <time>2012-06-10T11:16:36Z</time>
      </trkpt>
      <trkpt lat="42.70972" lon="1.54888">
        <ele>1838.1782226562</ele>
        <time>2012-06-10T11:16:44Z</time>
      </trkpt>
      <trkpt lat="42.70972" lon="1.54885">
        <ele>1837.216796875</ele>
        <time>2012-06-10T11:16:49Z</time>
      </trkpt>
      <trkpt lat="42.70975" lon="1.54883">
        <ele>1835.2939453125</ele>
        <time>2012-06-10T11:16:55Z</time>
      </trkpt>
      <trkpt lat="42.70977" lon="1.54882">
        <ele>1833.8520507812</ele>
        <time>2012-06-10T11:17:00Z</time>
      </trkpt>
      <trkpt lat="42.70982" lon="1.54882">
        <ele>1832.890625</ele>
        <time>2012-06-10T11:17:04Z</time>
      </trkpt>
      <trkpt lat="42.70984" lon="1.54882">
        <ele>1830.9682617188</ele>
        <time>2012-06-10T11:17:10Z</time>
      </trkpt>
      <trkpt lat="42.70987" lon="1.5488">
        <ele>1830.4875488281</ele>
        <time>2012-06-10T11:17:14Z</time>
      </trkpt>
      <trkpt lat="42.70987" lon="1.54876">
        <ele>1830.4875488281</ele>
        <time>2012-06-10T11:17:33Z</time>
      </trkpt>
      <trkpt lat="42.70986" lon="1.54869">
        <ele>1829.5261230469</ele>
        <time>2012-06-10T11:17:38Z</time>
      </trkpt>
      <trkpt lat="42.70986" lon="1.5486">
        <ele>1827.123046875</ele>
        <time>2012-06-10T11:17:45Z</time>
      </trkpt>
      <trkpt lat="42.70988" lon="1.54856">
        <ele>1825.6809082031</ele>
        <time>2012-06-10T11:17:51Z</time>
      </trkpt>
      <trkpt lat="42.7099" lon="1.54852">
        <ele>1824.2390136719</ele>
        <time>2012-06-10T11:17:56Z</time>
      </trkpt>
      <trkpt lat="42.70989" lon="1.54849">
        <ele>1822.7971191406</ele>
        <time>2012-06-10T11:18:02Z</time>
      </trkpt>
      <trkpt lat="42.7099" lon="1.54844">
        <ele>1819.9128417969</ele>
        <time>2012-06-10T11:18:09Z</time>
      </trkpt>
      <trkpt lat="42.70988" lon="1.5484">
        <ele>1818.4709472656</ele>
        <time>2012-06-10T11:18:14Z</time>
      </trkpt>
      <trkpt lat="42.70987" lon="1.54835">
        <ele>1816.5483398438</ele>
        <time>2012-06-10T11:18:20Z</time>
      </trkpt>
      <trkpt lat="42.70986" lon="1.54832">
        <ele>1815.1064453125</ele>
        <time>2012-06-10T11:18:25Z</time>
      </trkpt>
      <trkpt lat="42.70985" lon="1.5483">
        <ele>1814.1450195312</ele>
        <time>2012-06-10T11:18:29Z</time>
      </trkpt>
      <trkpt lat="42.70984" lon="1.54828">
        <ele>1812.703125</ele>
        <time>2012-06-10T11:18:37Z</time>
      </trkpt>
      <trkpt lat="42.70982" lon="1.54823">
        <ele>1811.7419433594</ele>
        <time>2012-06-10T11:18:44Z</time>
      </trkpt>
      <trkpt lat="42.7098" lon="1.54817">
        <ele>1809.8190917969</ele>
        <time>2012-06-10T11:18:52Z</time>
      </trkpt>
      <trkpt lat="42.70979" lon="1.54815">
        <ele>1809.3386230469</ele>
        <time>2012-06-10T11:18:58Z</time>
      </trkpt>
      <trkpt lat="42.70979" lon="1.54812">
        <ele>1808.3771972656</ele>
        <time>2012-06-10T11:19:04Z</time>
      </trkpt>
      <trkpt lat="42.70977" lon="1.54809">
        <ele>1807.416015625</ele>
        <time>2012-06-10T11:19:09Z</time>
      </trkpt>
      <trkpt lat="42.70975" lon="1.54807">
        <ele>1806.9353027344</ele>
        <time>2012-06-10T11:19:13Z</time>
      </trkpt>
      <trkpt lat="42.70973" lon="1.54803">
        <ele>1805.9738769531</ele>
        <time>2012-06-10T11:19:20Z</time>
      </trkpt>
      <trkpt lat="42.70971" lon="1.54799">
        <ele>1805.4934082031</ele>
        <time>2012-06-10T11:19:26Z</time>
      </trkpt>
      <trkpt lat="42.70971" lon="1.54794">
        <ele>1802.6091308594</ele>
        <time>2012-06-10T11:19:33Z</time>
      </trkpt>
      <trkpt lat="42.7097" lon="1.54789">
        <ele>1801.1672363281</ele>
        <time>2012-06-10T11:19:38Z</time>
      </trkpt>
      <trkpt lat="42.70967" lon="1.54786">
        <ele>1800.2060546875</ele>
        <time>2012-06-10T11:19:42Z</time>
      </trkpt>
      <trkpt lat="42.70963" lon="1.54782">
        <ele>1798.283203125</ele>
        <time>2012-06-10T11:19:49Z</time>
      </trkpt>
      <trkpt lat="42.70961" lon="1.54779">
        <ele>1797.3220214844</ele>
        <time>2012-06-10T11:19:53Z</time>
      </trkpt>
      <trkpt lat="42.70958" lon="1.54776">
        <ele>1795.8801269531</ele>
        <time>2012-06-10T11:19:59Z</time>
      </trkpt>
      <trkpt lat="42.70955" lon="1.54773">
        <ele>1794.4379882812</ele>
        <time>2012-06-10T11:20:03Z</time>
      </trkpt>
      <trkpt lat="42.70951" lon="1.54769">
        <ele>1792.99609375</ele>
        <time>2012-06-10T11:20:08Z</time>
      </trkpt>
      <trkpt lat="42.70945" lon="1.54766">
        <ele>1791.0734863281</ele>
        <time>2012-06-10T11:20:16Z</time>
      </trkpt>
      <trkpt lat="42.70942" lon="1.54765">
        <ele>1789.1508789062</ele>
        <time>2012-06-10T11:20:21Z</time>
      </trkpt>
      <trkpt lat="42.7094" lon="1.54764">
        <ele>1787.7087402344</ele>
        <time>2012-06-10T11:20:26Z</time>
      </trkpt>
      <trkpt lat="42.70939" lon="1.54764">
        <ele>1787.2280273438</ele>
        <time>2012-06-10T11:20:31Z</time>
      </trkpt>
      <trkpt lat="42.70935" lon="1.54763">
        <ele>1785.3054199219</ele>
        <time>2012-06-10T11:20:38Z</time>
      </trkpt>
      <trkpt lat="42.70935" lon="1.54759">
        <ele>1782.9020996094</ele>
        <time>2012-06-10T11:20:44Z</time>
      </trkpt>
      <trkpt lat="42.70936" lon="1.54756">
        <ele>1780.4990234375</ele>
        <time>2012-06-10T11:20:49Z</time>
      </trkpt>
      <trkpt lat="42.70937" lon="1.54752">
        <ele>1778.5764160156</ele>
        <time>2012-06-10T11:20:55Z</time>
      </trkpt>
      <trkpt lat="42.70935" lon="1.54748">
        <ele>1776.6538085938</ele>
        <time>2012-06-10T11:21:01Z</time>
      </trkpt>
      <trkpt lat="42.70933" lon="1.54746">
        <ele>1775.6923828125</ele>
        <time>2012-06-10T11:21:06Z</time>
      </trkpt>
      <trkpt lat="42.7093" lon="1.54744">
        <ele>1775.2116699219</ele>
        <time>2012-06-10T11:21:11Z</time>
      </trkpt>
      <trkpt lat="42.7093" lon="1.54741">
        <ele>1773.7697753906</ele>
        <time>2012-06-10T11:21:15Z</time>
      </trkpt>
      <trkpt lat="42.70928" lon="1.54738">
        <ele>1773.7697753906</ele>
        <time>2012-06-10T11:21:21Z</time>
      </trkpt>
      <trkpt lat="42.70924" lon="1.54734">
        <ele>1772.80859375</ele>
        <time>2012-06-10T11:21:27Z</time>
      </trkpt>
      <trkpt lat="42.70921" lon="1.54732">
        <ele>1772.3278808594</ele>
        <time>2012-06-10T11:21:32Z</time>
      </trkpt>
      <trkpt lat="42.70918" lon="1.54729">
        <ele>1771.8469238281</ele>
        <time>2012-06-10T11:21:37Z</time>
      </trkpt>
      <trkpt lat="42.70916" lon="1.5473">
        <ele>1771.3662109375</ele>
        <time>2012-06-10T11:21:41Z</time>
      </trkpt>
      <trkpt lat="42.70914" lon="1.54729">
        <ele>1771.3662109375</ele>
        <time>2012-06-10T11:21:46Z</time>
      </trkpt>
      <trkpt lat="42.70914" lon="1.54724">
        <ele>1768.9631347656</ele>
        <time>2012-06-10T11:21:56Z</time>
      </trkpt>
      <trkpt lat="42.70911" lon="1.54722">
        <ele>1767.0405273438</ele>
        <time>2012-06-10T11:22:01Z</time>
      </trkpt>
      <trkpt lat="42.7091" lon="1.54716">
        <ele>1764.1564941406</ele>
        <time>2012-06-10T11:22:07Z</time>
      </trkpt>
      <trkpt lat="42.70908" lon="1.54713">
        <ele>1762.7145996094</ele>
        <time>2012-06-10T11:22:10Z</time>
      </trkpt>
      <trkpt lat="42.70904" lon="1.54708">
        <ele>1760.7919921875</ele>
        <time>2012-06-10T11:22:15Z</time>
      </trkpt>
      <trkpt lat="42.70903" lon="1.54707">
        <ele>1760.3112792969</ele>
        <time>2012-06-10T11:22:16Z</time>
      </trkpt>
      <trkpt lat="42.70901" lon="1.54703">
        <ele>1759.8305664062</ele>
        <time>2012-06-10T11:22:19Z</time>
      </trkpt>
      <trkpt lat="42.709" lon="1.54691">
        <ele>1758.388671875</ele>
        <time>2012-06-10T11:22:27Z</time>
      </trkpt>
      <trkpt lat="42.70896" lon="1.54683">
        <ele>1757.908203125</ele>
        <time>2012-06-10T11:22:33Z</time>
      </trkpt>
      <trkpt lat="42.70893" lon="1.54674">
        <ele>1758.8693847656</ele>
        <time>2012-06-10T11:22:39Z</time>
      </trkpt>
      <trkpt lat="42.70892" lon="1.54671">
        <ele>1759.3500976562</ele>
        <time>2012-06-10T11:22:42Z</time>
      </trkpt>
      <trkpt lat="42.70893" lon="1.54668">
        <ele>1759.8305664062</ele>
        <time>2012-06-10T11:22:44Z</time>
      </trkpt>
      <trkpt lat="42.70892" lon="1.54656">
        <ele>1761.2727050781</ele>
        <time>2012-06-10T11:22:52Z</time>
      </trkpt>
      <trkpt lat="42.70893" lon="1.54648">
        <ele>1759.8305664062</ele>
        <time>2012-06-10T11:22:58Z</time>
      </trkpt>
      <trkpt lat="42.70894" lon="1.54642">
        <ele>1758.8693847656</ele>
        <time>2012-06-10T11:23:05Z</time>
      </trkpt>
      <trkpt lat="42.70893" lon="1.54636">
        <ele>1758.388671875</ele>
        <time>2012-06-10T11:23:10Z</time>
      </trkpt>
      <trkpt lat="42.70889" lon="1.5463">
        <ele>1757.4274902344</ele>
        <time>2012-06-10T11:23:17Z</time>
      </trkpt>
      <trkpt lat="42.70889" lon="1.54628">
        <ele>1756.4660644531</ele>
        <time>2012-06-10T11:23:24Z</time>
      </trkpt>
      <trkpt lat="42.70891" lon="1.54627">
        <ele>1755.0239257812</ele>
        <time>2012-06-10T11:23:31Z</time>
      </trkpt>
      <trkpt lat="42.7089" lon="1.54625">
        <ele>1754.5432128906</ele>
        <time>2012-06-10T11:23:38Z</time>
      </trkpt>
      <trkpt lat="42.70889" lon="1.54623">
        <ele>1754.0627441406</ele>
        <time>2012-06-10T11:23:43Z</time>
      </trkpt>
      <trkpt lat="42.70892" lon="1.54619">
        <ele>1753.58203125</ele>
        <time>2012-06-10T11:23:55Z</time>
      </trkpt>
      <trkpt lat="42.70896" lon="1.54619">
        <ele>1754.0627441406</ele>
        <time>2012-06-10T11:24:03Z</time>
      </trkpt>
      <trkpt lat="42.70897" lon="1.54622">
        <ele>1753.58203125</ele>
        <time>2012-06-10T11:24:09Z</time>
      </trkpt>
      <trkpt lat="42.70901" lon="1.54621">
        <ele>1751.1787109375</ele>
        <time>2012-06-10T11:24:16Z</time>
      </trkpt>
      <trkpt lat="42.70902" lon="1.54619">
        <ele>1749.7368164062</ele>
        <time>2012-06-10T11:24:20Z</time>
      </trkpt>
      <trkpt lat="42.70903" lon="1.54619">
        <ele>1748.775390625</ele>
        <time>2012-06-10T11:24:25Z</time>
      </trkpt>
      <trkpt lat="42.70904" lon="1.54619">
        <ele>1747.8142089844</ele>
        <time>2012-06-10T11:24:31Z</time>
      </trkpt>
      <trkpt lat="42.70906" lon="1.54616">
        <ele>1747.8142089844</ele>
        <time>2012-06-10T11:24:33Z</time>
      </trkpt>
      <trkpt lat="42.70907" lon="1.5461">
        <ele>1747.3334960938</ele>
        <time>2012-06-10T11:24:39Z</time>
      </trkpt>
      <trkpt lat="42.70911" lon="1.54608">
        <ele>1746.8527832031</ele>
        <time>2012-06-10T11:24:45Z</time>
      </trkpt>
      <trkpt lat="42.70913" lon="1.54605">
        <ele>1745.4108886719</ele>
        <time>2012-06-10T11:24:50Z</time>
      </trkpt>
      <trkpt lat="42.70916" lon="1.54602">
        <ele>1744.4494628906</ele>
        <time>2012-06-10T11:24:58Z</time>
      </trkpt>
      <trkpt lat="42.7092" lon="1.54604">
        <ele>1743.48828125</ele>
        <time>2012-06-10T11:25:03Z</time>
      </trkpt>
      <trkpt lat="42.70925" lon="1.54609">
        <ele>1744.4494628906</ele>
        <time>2012-06-10T11:25:09Z</time>
      </trkpt>
      <trkpt lat="42.70926" lon="1.5461">
        <ele>1745.4108886719</ele>
        <time>2012-06-10T11:25:15Z</time>
      </trkpt>
      <trkpt lat="42.70927" lon="1.54611">
        <ele>1743.48828125</ele>
        <time>2012-06-10T11:25:23Z</time>
      </trkpt>
      <trkpt lat="42.70926" lon="1.54611">
        <ele>1743.48828125</ele>
        <time>2012-06-10T11:25:26Z</time>
      </trkpt>
      <trkpt lat="42.70929" lon="1.54614">
        <ele>1743.48828125</ele>
        <time>2012-06-10T11:25:38Z</time>
      </trkpt>
      <trkpt lat="42.70934" lon="1.5462">
        <ele>1743.48828125</ele>
        <time>2012-06-10T11:25:44Z</time>
      </trkpt>
      <trkpt lat="42.70938" lon="1.54623">
        <ele>1743.0075683594</ele>
        <time>2012-06-10T11:25:49Z</time>
      </trkpt>
      <trkpt lat="42.7094" lon="1.54628">
        <ele>1742.0463867188</ele>
        <time>2012-06-10T11:25:56Z</time>
      </trkpt>
      <trkpt lat="42.70943" lon="1.54634">
        <ele>1740.6042480469</ele>
        <time>2012-06-10T11:26:03Z</time>
      </trkpt>
      <trkpt lat="42.70947" lon="1.54638">
        <ele>1739.6428222656</ele>
        <time>2012-06-10T11:26:10Z</time>
      </trkpt>
      <trkpt lat="42.70951" lon="1.54643">
        <ele>1739.162109375</ele>
        <time>2012-06-10T11:26:16Z</time>
      </trkpt>
      <trkpt lat="42.70953" lon="1.54645">
        <ele>1738.681640625</ele>
        <time>2012-06-10T11:26:18Z</time>
      </trkpt>
      <trkpt lat="42.70956" lon="1.54648">
        <ele>1739.162109375</ele>
        <time>2012-06-10T11:26:22Z</time>
      </trkpt>
      <trkpt lat="42.70959" lon="1.54652">
        <ele>1738.2009277344</ele>
        <time>2012-06-10T11:26:26Z</time>
      </trkpt>
      <trkpt lat="42.70966" lon="1.54657">
        <ele>1737.7202148438</ele>
        <time>2012-06-10T11:26:33Z</time>
      </trkpt>
      <trkpt lat="42.70971" lon="1.5466">
        <ele>1737.7202148438</ele>
        <time>2012-06-10T11:26:39Z</time>
      </trkpt>
      <trkpt lat="42.70977" lon="1.54666">
        <ele>1738.2009277344</ele>
        <time>2012-06-10T11:26:48Z</time>
      </trkpt>
      <trkpt lat="42.70982" lon="1.54671">
        <ele>1738.2009277344</ele>
        <time>2012-06-10T11:26:54Z</time>
      </trkpt>
      <trkpt lat="42.70986" lon="1.54673">
        <ele>1738.681640625</ele>
        <time>2012-06-10T11:27:00Z</time>
      </trkpt>
      <trkpt lat="42.7099" lon="1.54678">
        <ele>1740.1237792969</ele>
        <time>2012-06-10T11:27:06Z</time>
      </trkpt>
      <trkpt lat="42.70994" lon="1.54684">
        <ele>1741.5656738281</ele>
        <time>2012-06-10T11:27:12Z</time>
      </trkpt>
      <trkpt lat="42.70996" lon="1.54686">
        <ele>1743.0075683594</ele>
        <time>2012-06-10T11:27:14Z</time>
      </trkpt>
      <trkpt lat="42.71001" lon="1.54688">
        <ele>1740.6042480469</ele>
        <time>2012-06-10T11:27:19Z</time>
      </trkpt>
      <trkpt lat="42.71003" lon="1.54694">
        <ele>1743.48828125</ele>
        <time>2012-06-10T11:27:25Z</time>
      </trkpt>
      <trkpt lat="42.71006" lon="1.54697">
        <ele>1748.2946777344</ele>
        <time>2012-06-10T11:27:27Z</time>
      </trkpt>
      <trkpt lat="42.71011" lon="1.54701">
        <ele>1749.2561035156</ele>
        <time>2012-06-10T11:27:33Z</time>
      </trkpt>
      <trkpt lat="42.71015" lon="1.54704">
        <ele>1744.9301757812</ele>
        <time>2012-06-10T11:27:39Z</time>
      </trkpt>
      <trkpt lat="42.71018" lon="1.54705">
        <ele>1743.9689941406</ele>
        <time>2012-06-10T11:27:45Z</time>
      </trkpt>
      <trkpt lat="42.71021" lon="1.54707">
        <ele>1745.8916015625</ele>
        <time>2012-06-10T11:27:49Z</time>
      </trkpt>
      <trkpt lat="42.71024" lon="1.54709">
        <ele>1748.2946777344</ele>
        <time>2012-06-10T11:27:55Z</time>
      </trkpt>
      <trkpt lat="42.71028" lon="1.54713">
        <ele>1748.2946777344</ele>
        <time>2012-06-10T11:28:01Z</time>
      </trkpt>
      <trkpt lat="42.71032" lon="1.54713">
        <ele>1746.3723144531</ele>
        <time>2012-06-10T11:28:07Z</time>
      </trkpt>
      <trkpt lat="42.71037" lon="1.54716">
        <ele>1743.9689941406</ele>
        <time>2012-06-10T11:28:12Z</time>
      </trkpt>
      <trkpt lat="42.71042" lon="1.54717">
        <ele>1742.5270996094</ele>
        <time>2012-06-10T11:28:17Z</time>
      </trkpt>
      <trkpt lat="42.71046" lon="1.54722">
        <ele>1741.0849609375</ele>
        <time>2012-06-10T11:28:23Z</time>
      </trkpt>
      <trkpt lat="42.71048" lon="1.54728">
        <ele>1740.1237792969</ele>
        <time>2012-06-10T11:28:29Z</time>
      </trkpt>
      <trkpt lat="42.71049" lon="1.54729">
        <ele>1740.1237792969</ele>
        <time>2012-06-10T11:28:35Z</time>
      </trkpt>
      <trkpt lat="42.71052" lon="1.54731">
        <ele>1742.0463867188</ele>
        <time>2012-06-10T11:28:44Z</time>
      </trkpt>
      <trkpt lat="42.71056" lon="1.54732">
        <ele>1742.0463867188</ele>
        <time>2012-06-10T11:28:48Z</time>
      </trkpt>
      <trkpt lat="42.71059" lon="1.5473">
        <ele>1742.0463867188</ele>
        <time>2012-06-10T11:28:54Z</time>
      </trkpt>
      <trkpt lat="42.71062" lon="1.54731">
        <ele>1742.0463867188</ele>
        <time>2012-06-10T11:29:00Z</time>
      </trkpt>
      <trkpt lat="42.71065" lon="1.54732">
        <ele>1741.5656738281</ele>
        <time>2012-06-10T11:29:04Z</time>
      </trkpt>
      <trkpt lat="42.7107" lon="1.54734">
        <ele>1743.0075683594</ele>
        <time>2012-06-10T11:29:10Z</time>
      </trkpt>
      <trkpt lat="42.71072" lon="1.54735">
        <ele>1743.48828125</ele>
        <time>2012-06-10T11:29:14Z</time>
      </trkpt>
      <trkpt lat="42.71077" lon="1.5474">
        <ele>1743.48828125</ele>
        <time>2012-06-10T11:29:21Z</time>
      </trkpt>
      <trkpt lat="42.7108" lon="1.54744">
        <ele>1742.5270996094</ele>
        <time>2012-06-10T11:29:26Z</time>
      </trkpt>
      <trkpt lat="42.71085" lon="1.54749">
        <ele>1740.6042480469</ele>
        <time>2012-06-10T11:29:32Z</time>
      </trkpt>
      <trkpt lat="42.71088" lon="1.54753">
        <ele>1738.2009277344</ele>
        <time>2012-06-10T11:29:37Z</time>
      </trkpt>
      <trkpt lat="42.71092" lon="1.54754">
        <ele>1736.7587890625</ele>
        <time>2012-06-10T11:29:42Z</time>
      </trkpt>
      <trkpt lat="42.71094" lon="1.54758">
        <ele>1735.7976074219</ele>
        <time>2012-06-10T11:29:47Z</time>
      </trkpt>
      <trkpt lat="42.71095" lon="1.54762">
        <ele>1733.875</ele>
        <time>2012-06-10T11:29:52Z</time>
      </trkpt>
      <trkpt lat="42.71098" lon="1.54765">
        <ele>1732.9135742188</ele>
        <time>2012-06-10T11:29:57Z</time>
      </trkpt>
      <trkpt lat="42.711" lon="1.54769">
        <ele>1731.9523925781</ele>
        <time>2012-06-10T11:30:04Z</time>
      </trkpt>
      <trkpt lat="42.71102" lon="1.54773">
        <ele>1730.9912109375</ele>
        <time>2012-06-10T11:30:10Z</time>
      </trkpt>
      <trkpt lat="42.71103" lon="1.54778">
        <ele>1729.068359375</ele>
        <time>2012-06-10T11:30:17Z</time>
      </trkpt>
      <trkpt lat="42.71098" lon="1.54781">
        <ele>1728.1071777344</ele>
        <time>2012-06-10T11:30:24Z</time>
      </trkpt>
      <trkpt lat="42.71096" lon="1.54783">
        <ele>1727.6264648438</ele>
        <time>2012-06-10T11:30:29Z</time>
      </trkpt>
      <trkpt lat="42.71099" lon="1.54786">
        <ele>1726.1845703125</ele>
        <time>2012-06-10T11:30:34Z</time>
      </trkpt>
      <trkpt lat="42.71099" lon="1.5479">
        <ele>1724.7426757812</ele>
        <time>2012-06-10T11:30:39Z</time>
      </trkpt>
      <trkpt lat="42.71095" lon="1.54792">
        <ele>1723.3005371094</ele>
        <time>2012-06-10T11:30:45Z</time>
      </trkpt>
      <trkpt lat="42.71094" lon="1.54796">
        <ele>1721.8583984375</ele>
        <time>2012-06-10T11:30:50Z</time>
      </trkpt>
      <trkpt lat="42.71096" lon="1.54798">
        <ele>1720.4165039062</ele>
        <time>2012-06-10T11:30:55Z</time>
      </trkpt>
      <trkpt lat="42.71096" lon="1.54801">
        <ele>1718.4938964844</ele>
        <time>2012-06-10T11:30:59Z</time>
      </trkpt>
      <trkpt lat="42.71099" lon="1.54803">
        <ele>1717.5324707031</ele>
        <time>2012-06-10T11:31:03Z</time>
      </trkpt>
      <trkpt lat="42.71103" lon="1.54807">
        <ele>1716.0905761719</ele>
        <time>2012-06-10T11:31:09Z</time>
      </trkpt>
      <trkpt lat="42.71109" lon="1.54814">
        <ele>1714.16796875</ele>
        <time>2012-06-10T11:31:16Z</time>
      </trkpt>
      <trkpt lat="42.71113" lon="1.5482">
        <ele>1713.2067871094</ele>
        <time>2012-06-10T11:31:22Z</time>
      </trkpt>
      <trkpt lat="42.71114" lon="1.54822">
        <ele>1712.2453613281</ele>
        <time>2012-06-10T11:31:24Z</time>
      </trkpt>
      <trkpt lat="42.71117" lon="1.5483">
        <ele>1710.3227539062</ele>
        <time>2012-06-10T11:31:31Z</time>
      </trkpt>
      <trkpt lat="42.71116" lon="1.54833">
        <ele>1706.9580078125</ele>
        <time>2012-06-10T11:31:37Z</time>
      </trkpt>
      <trkpt lat="42.71116" lon="1.54838">
        <ele>1704.07421875</ele>
        <time>2012-06-10T11:31:42Z</time>
      </trkpt>
      <trkpt lat="42.7112" lon="1.54842">
        <ele>1703.1127929688</ele>
        <time>2012-06-10T11:31:47Z</time>
      </trkpt>
      <trkpt lat="42.71124" lon="1.54847">
        <ele>1703.1127929688</ele>
        <time>2012-06-10T11:31:53Z</time>
      </trkpt>
      <trkpt lat="42.71126" lon="1.5485">
        <ele>1702.1513671875</ele>
        <time>2012-06-10T11:31:57Z</time>
      </trkpt>
      <trkpt lat="42.71127" lon="1.54855">
        <ele>1701.1901855469</ele>
        <time>2012-06-10T11:32:01Z</time>
      </trkpt>
      <trkpt lat="42.7113" lon="1.5486">
        <ele>1699.7482910156</ele>
        <time>2012-06-10T11:32:07Z</time>
      </trkpt>
      <trkpt lat="42.71133" lon="1.54865">
        <ele>1699.267578125</ele>
        <time>2012-06-10T11:32:12Z</time>
      </trkpt>
      <trkpt lat="42.71137" lon="1.54871">
        <ele>1699.7482910156</ele>
        <time>2012-06-10T11:32:18Z</time>
      </trkpt>
      <trkpt lat="42.71139" lon="1.54877">
        <ele>1699.267578125</ele>
        <time>2012-06-10T11:32:25Z</time>
      </trkpt>
      <trkpt lat="42.71141" lon="1.54882">
        <ele>1696.8642578125</ele>
        <time>2012-06-10T11:32:32Z</time>
      </trkpt>
      <trkpt lat="42.71143" lon="1.54884">
        <ele>1695.9030761719</ele>
        <time>2012-06-10T11:32:36Z</time>
      </trkpt>
      <trkpt lat="42.71146" lon="1.54889">
        <ele>1693.98046875</ele>
        <time>2012-06-10T11:32:43Z</time>
      </trkpt>
      <trkpt lat="42.71148" lon="1.54889">
        <ele>1693.0190429688</ele>
        <time>2012-06-10T11:32:47Z</time>
      </trkpt>
      <trkpt lat="42.71149" lon="1.54893">
        <ele>1691.5769042969</ele>
        <time>2012-06-10T11:32:52Z</time>
      </trkpt>
      <trkpt lat="42.71152" lon="1.54896">
        <ele>1693.0190429688</ele>
        <time>2012-06-10T11:32:57Z</time>
      </trkpt>
      <trkpt lat="42.71153" lon="1.54899">
        <ele>1693.4997558594</ele>
        <time>2012-06-10T11:33:03Z</time>
      </trkpt>
      <trkpt lat="42.71154" lon="1.549">
        <ele>1694.9416503906</ele>
        <time>2012-06-10T11:33:04Z</time>
      </trkpt>
      <trkpt lat="42.71159" lon="1.54904">
        <ele>1697.8256835938</ele>
        <time>2012-06-10T11:33:10Z</time>
      </trkpt>
      <trkpt lat="42.7116" lon="1.54909">
        <ele>1698.3061523438</ele>
        <time>2012-06-10T11:33:15Z</time>
      </trkpt>
      <trkpt lat="42.71165" lon="1.54916">
        <ele>1698.7868652344</ele>
        <time>2012-06-10T11:33:22Z</time>
      </trkpt>
      <trkpt lat="42.71166" lon="1.54919">
        <ele>1699.267578125</ele>
        <time>2012-06-10T11:33:24Z</time>
      </trkpt>
      <trkpt lat="42.71167" lon="1.54922">
        <ele>1700.7094726562</ele>
        <time>2012-06-10T11:33:26Z</time>
      </trkpt>
      <trkpt lat="42.71167" lon="1.54927">
        <ele>1693.4997558594</ele>
        <time>2012-06-10T11:33:33Z</time>
      </trkpt>
      <trkpt lat="42.71165" lon="1.54932">
        <ele>1688.2124023438</ele>
        <time>2012-06-10T11:33:39Z</time>
      </trkpt>
      <trkpt lat="42.71168" lon="1.54933">
        <ele>1685.3283691406</ele>
        <time>2012-06-10T11:33:45Z</time>
      </trkpt>
      <trkpt lat="42.71171" lon="1.54937">
        <ele>1682.9250488281</ele>
        <time>2012-06-10T11:33:51Z</time>
      </trkpt>
      <trkpt lat="42.71173" lon="1.54942">
        <ele>1680.0412597656</ele>
        <time>2012-06-10T11:33:57Z</time>
      </trkpt>
      <trkpt lat="42.71175" lon="1.54946">
        <ele>1678.5993652344</ele>
        <time>2012-06-10T11:34:02Z</time>
      </trkpt>
      <trkpt lat="42.71178" lon="1.5495">
        <ele>1676.1960449219</ele>
        <time>2012-06-10T11:34:09Z</time>
      </trkpt>
      <trkpt lat="42.71181" lon="1.54954">
        <ele>1674.2731933594</ele>
        <time>2012-06-10T11:34:15Z</time>
      </trkpt>
      <trkpt lat="42.71185" lon="1.5496">
        <ele>1671.8698730469</ele>
        <time>2012-06-10T11:34:23Z</time>
      </trkpt>
      <trkpt lat="42.71191" lon="1.54966">
        <ele>1669.947265625</ele>
        <time>2012-06-10T11:34:31Z</time>
      </trkpt>
      <trkpt lat="42.71194" lon="1.5497">
        <ele>1668.9860839844</ele>
        <time>2012-06-10T11:34:35Z</time>
      </trkpt>
      <trkpt lat="42.71198" lon="1.54977">
        <ele>1666.5827636719</ele>
        <time>2012-06-10T11:34:43Z</time>
      </trkpt>
      <trkpt lat="42.712" lon="1.5498">
        <ele>1665.6215820312</ele>
        <time>2012-06-10T11:34:48Z</time>
      </trkpt>
      <trkpt lat="42.71202" lon="1.54983">
        <ele>1664.1794433594</ele>
        <time>2012-06-10T11:34:52Z</time>
      </trkpt>
      <trkpt lat="42.71206" lon="1.54989">
        <ele>1662.2568359375</ele>
        <time>2012-06-10T11:34:59Z</time>
      </trkpt>
      <trkpt lat="42.7121" lon="1.54997">
        <ele>1661.2956542969</ele>
        <time>2012-06-10T11:35:04Z</time>
      </trkpt>
      <trkpt lat="42.71211" lon="1.55">
        <ele>1660.8149414062</ele>
        <time>2012-06-10T11:35:06Z</time>
      </trkpt>
      <trkpt lat="42.71218" lon="1.55009">
        <ele>1659.8532714844</ele>
        <time>2012-06-10T11:35:14Z</time>
      </trkpt>
      <trkpt lat="42.71223" lon="1.55017">
        <ele>1659.3728027344</ele>
        <time>2012-06-10T11:35:21Z</time>
      </trkpt>
      <trkpt lat="42.71226" lon="1.5502">
        <ele>1656.9694824219</ele>
        <time>2012-06-10T11:35:26Z</time>
      </trkpt>
      <trkpt lat="42.71227" lon="1.55024">
        <ele>1655.046875</ele>
        <time>2012-06-10T11:35:31Z</time>
      </trkpt>
      <trkpt lat="42.71225" lon="1.55027">
        <ele>1653.1242675781</ele>
        <time>2012-06-10T11:35:36Z</time>
      </trkpt>
      <trkpt lat="42.71221" lon="1.55025">
        <ele>1651.6823730469</ele>
        <time>2012-06-10T11:35:42Z</time>
      </trkpt>
      <trkpt lat="42.71221" lon="1.55029">
        <ele>1650.7209472656</ele>
        <time>2012-06-10T11:35:47Z</time>
      </trkpt>
      <trkpt lat="42.71224" lon="1.55032">
        <ele>1649.2790527344</ele>
        <time>2012-06-10T11:35:52Z</time>
      </trkpt>
      <trkpt lat="42.71225" lon="1.55035">
        <ele>1648.3176269531</ele>
        <time>2012-06-10T11:35:56Z</time>
      </trkpt>
      <trkpt lat="42.71227" lon="1.5504">
        <ele>1647.3564453125</ele>
        <time>2012-06-10T11:36:02Z</time>
      </trkpt>
      <trkpt lat="42.71221" lon="1.55041">
        <ele>1645.9145507812</ele>
        <time>2012-06-10T11:36:08Z</time>
      </trkpt>
      <trkpt lat="42.71216" lon="1.55041">
        <ele>1644.953125</ele>
        <time>2012-06-10T11:36:15Z</time>
      </trkpt>
      <trkpt lat="42.71221" lon="1.55047">
        <ele>1643.9916992188</ele>
        <time>2012-06-10T11:36:22Z</time>
      </trkpt>
      <trkpt lat="42.71226" lon="1.55054">
        <ele>1642.0690917969</ele>
        <time>2012-06-10T11:36:29Z</time>
      </trkpt>
      <trkpt lat="42.71227" lon="1.55062">
        <ele>1639.1850585938</ele>
        <time>2012-06-10T11:36:35Z</time>
      </trkpt>
      <trkpt lat="42.71228" lon="1.5507">
        <ele>1637.2624511719</ele>
        <time>2012-06-10T11:36:41Z</time>
      </trkpt>
      <trkpt lat="42.71228" lon="1.55075">
        <ele>1636.3012695312</ele>
        <time>2012-06-10T11:36:44Z</time>
      </trkpt>
      <trkpt lat="42.71229" lon="1.55081">
        <ele>1634.3786621094</ele>
        <time>2012-06-10T11:36:48Z</time>
      </trkpt>
      <trkpt lat="42.71231" lon="1.55092">
        <ele>1631.4946289062</ele>
        <time>2012-06-10T11:36:56Z</time>
      </trkpt>
      <trkpt lat="42.71228" lon="1.55098">
        <ele>1631.4946289062</ele>
        <time>2012-06-10T11:37:01Z</time>
      </trkpt>
      <trkpt lat="42.71225" lon="1.551">
        <ele>1630.052734375</ele>
        <time>2012-06-10T11:37:05Z</time>
      </trkpt>
      <trkpt lat="42.71223" lon="1.5511">
        <ele>1629.5720214844</ele>
        <time>2012-06-10T11:37:13Z</time>
      </trkpt>
      <trkpt lat="42.71222" lon="1.55119">
        <ele>1631.4946289062</ele>
        <time>2012-06-10T11:37:19Z</time>
      </trkpt>
      <trkpt lat="42.71223" lon="1.55128">
        <ele>1633.8979492188</ele>
        <time>2012-06-10T11:37:27Z</time>
      </trkpt>
      <trkpt lat="42.71223" lon="1.55137">
        <ele>1634.859375</ele>
        <time>2012-06-10T11:37:35Z</time>
      </trkpt>
      <trkpt lat="42.71222" lon="1.55145">
        <ele>1633.4172363281</ele>
        <time>2012-06-10T11:37:43Z</time>
      </trkpt>
      <trkpt lat="42.71222" lon="1.55149">
        <ele>1633.4172363281</ele>
        <time>2012-06-10T11:37:47Z</time>
      </trkpt>
      <trkpt lat="42.71224" lon="1.55155">
        <ele>1632.9365234375</ele>
        <time>2012-06-10T11:37:53Z</time>
      </trkpt>
      <trkpt lat="42.71227" lon="1.55157">
        <ele>1635.33984375</ele>
        <time>2012-06-10T11:37:59Z</time>
      </trkpt>
      <trkpt lat="42.71215" lon="1.55148">
        <ele>1648.3176269531</ele>
        <time>2012-06-10T11:39:05Z</time>
      </trkpt>
      <trkpt lat="42.71215" lon="1.5515">
        <ele>1643.5109863281</ele>
        <time>2012-06-10T11:39:12Z</time>
      </trkpt>
      <trkpt lat="42.71218" lon="1.55158">
        <ele>1640.146484375</ele>
        <time>2012-06-10T11:39:32Z</time>
      </trkpt>
      <trkpt lat="42.71219" lon="1.55164">
        <ele>1639.6657714844</ele>
        <time>2012-06-10T11:39:38Z</time>
      </trkpt>
      <trkpt lat="42.71217" lon="1.55171">
        <ele>1637.7431640625</ele>
        <time>2012-06-10T11:39:45Z</time>
      </trkpt>
      <trkpt lat="42.71215" lon="1.55176">
        <ele>1635.8205566406</ele>
        <time>2012-06-10T11:39:50Z</time>
      </trkpt>
      <trkpt lat="42.71215" lon="1.55182">
        <ele>1633.4172363281</ele>
        <time>2012-06-10T11:39:56Z</time>
      </trkpt>
      <trkpt lat="42.71216" lon="1.55189">
        <ele>1629.5720214844</ele>
        <time>2012-06-10T11:40:01Z</time>
      </trkpt>
      <trkpt lat="42.71216" lon="1.55191">
        <ele>1629.0913085938</ele>
        <time>2012-06-10T11:40:02Z</time>
      </trkpt>
      <trkpt lat="42.71218" lon="1.55202">
        <ele>1626.2072753906</ele>
        <time>2012-06-10T11:40:09Z</time>
      </trkpt>
      <trkpt lat="42.71216" lon="1.55209">
        <ele>1622.8427734375</ele>
        <time>2012-06-10T11:40:17Z</time>
      </trkpt>
      <trkpt lat="42.71217" lon="1.55215">
        <ele>1620.439453125</ele>
        <time>2012-06-10T11:40:23Z</time>
      </trkpt>
      <trkpt lat="42.71217" lon="1.55219">
        <ele>1618.9975585938</ele>
        <time>2012-06-10T11:40:29Z</time>
      </trkpt>
      <trkpt lat="42.71217" lon="1.55225">
        <ele>1618.9975585938</ele>
        <time>2012-06-10T11:40:34Z</time>
      </trkpt>
      <trkpt lat="42.71217" lon="1.55232">
        <ele>1617.5554199219</ele>
        <time>2012-06-10T11:40:39Z</time>
      </trkpt>
      <trkpt lat="42.71215" lon="1.5524">
        <ele>1615.15234375</ele>
        <time>2012-06-10T11:40:45Z</time>
      </trkpt>
      <trkpt lat="42.71215" lon="1.55242">
        <ele>1614.6716308594</ele>
        <time>2012-06-10T11:40:46Z</time>
      </trkpt>
      <trkpt lat="42.71211" lon="1.55254">
        <ele>1612.2683105469</ele>
        <time>2012-06-10T11:40:54Z</time>
      </trkpt>
      <trkpt lat="42.71206" lon="1.5527">
        <ele>1611.3068847656</ele>
        <time>2012-06-10T11:41:01Z</time>
      </trkpt>
      <trkpt lat="42.71202" lon="1.55287">
        <ele>1609.8647460938</ele>
        <time>2012-06-10T11:41:07Z</time>
      </trkpt>
      <trkpt lat="42.71198" lon="1.55297">
        <ele>1609.3842773438</ele>
        <time>2012-06-10T11:41:13Z</time>
      </trkpt>
      <trkpt lat="42.71195" lon="1.55306">
        <ele>1609.8647460938</ele>
        <time>2012-06-10T11:41:20Z</time>
      </trkpt>
      <trkpt lat="42.71193" lon="1.55316">
        <ele>1611.7875976562</ele>
        <time>2012-06-10T11:41:27Z</time>
      </trkpt>
      <trkpt lat="42.7119" lon="1.55325">
        <ele>1608.9035644531</ele>
        <time>2012-06-10T11:41:34Z</time>
      </trkpt>
      <trkpt lat="42.71189" lon="1.55331">
        <ele>1606.9809570312</ele>
        <time>2012-06-10T11:41:38Z</time>
      </trkpt>
      <trkpt lat="42.71188" lon="1.55343">
        <ele>1604.5776367188</ele>
        <time>2012-06-10T11:41:44Z</time>
      </trkpt>
      <trkpt lat="42.71188" lon="1.55351">
        <ele>1603.1357421875</ele>
        <time>2012-06-10T11:41:49Z</time>
      </trkpt>
      <trkpt lat="42.7119" lon="1.55355">
        <ele>1601.6938476562</ele>
        <time>2012-06-10T11:41:55Z</time>
      </trkpt>
      <trkpt lat="42.71189" lon="1.55358">
        <ele>1601.6938476562</ele>
        <time>2012-06-10T11:42:01Z</time>
      </trkpt>
      <trkpt lat="42.71189" lon="1.55362">
        <ele>1601.2131347656</ele>
        <time>2012-06-10T11:42:06Z</time>
      </trkpt>
      <trkpt lat="42.71191" lon="1.55367">
        <ele>1599.2905273438</ele>
        <time>2012-06-10T11:42:13Z</time>
      </trkpt>
      <trkpt lat="42.71197" lon="1.55368">
        <ele>1597.3679199219</ele>
        <time>2012-06-10T11:42:20Z</time>
      </trkpt>
      <trkpt lat="42.71198" lon="1.55373">
        <ele>1595.92578125</ele>
        <time>2012-06-10T11:42:25Z</time>
      </trkpt>
      <trkpt lat="42.71197" lon="1.55378">
        <ele>1594.9643554688</ele>
        <time>2012-06-10T11:42:29Z</time>
      </trkpt>
      <trkpt lat="42.71194" lon="1.55385">
        <ele>1592.5612792969</ele>
        <time>2012-06-10T11:42:35Z</time>
      </trkpt>
      <trkpt lat="42.71191" lon="1.55392">
        <ele>1590.6384277344</ele>
        <time>2012-06-10T11:42:42Z</time>
      </trkpt>
      <trkpt lat="42.71189" lon="1.554">
        <ele>1590.1579589844</ele>
        <time>2012-06-10T11:42:48Z</time>
      </trkpt>
      <trkpt lat="42.71188" lon="1.55407">
        <ele>1589.1965332031</ele>
        <time>2012-06-10T11:42:54Z</time>
      </trkpt>
      <trkpt lat="42.71186" lon="1.55413">
        <ele>1587.7546386719</ele>
        <time>2012-06-10T11:42:59Z</time>
      </trkpt>
      <trkpt lat="42.71183" lon="1.55418">
        <ele>1587.2739257812</ele>
        <time>2012-06-10T11:43:03Z</time>
      </trkpt>
      <trkpt lat="42.7118" lon="1.55421">
        <ele>1586.7932128906</ele>
        <time>2012-06-10T11:43:07Z</time>
      </trkpt>
      <trkpt lat="42.71177" lon="1.55428">
        <ele>1587.7546386719</ele>
        <time>2012-06-10T11:43:14Z</time>
      </trkpt>
      <trkpt lat="42.71173" lon="1.55431">
        <ele>1588.7160644531</ele>
        <time>2012-06-10T11:43:20Z</time>
      </trkpt>
      <trkpt lat="42.71169" lon="1.55438">
        <ele>1589.6772460938</ele>
        <time>2012-06-10T11:43:28Z</time>
      </trkpt>
      <trkpt lat="42.71166" lon="1.55444">
        <ele>1589.1965332031</ele>
        <time>2012-06-10T11:43:34Z</time>
      </trkpt>
      <trkpt lat="42.71162" lon="1.55451">
        <ele>1586.7932128906</ele>
        <time>2012-06-10T11:43:41Z</time>
      </trkpt>
      <trkpt lat="42.71155" lon="1.55458">
        <ele>1586.7932128906</ele>
        <time>2012-06-10T11:43:49Z</time>
      </trkpt>
      <trkpt lat="42.71149" lon="1.55467">
        <ele>1586.7932128906</ele>
        <time>2012-06-10T11:43:57Z</time>
      </trkpt>
      <trkpt lat="42.71144" lon="1.55475">
        <ele>1588.2353515625</ele>
        <time>2012-06-10T11:44:06Z</time>
      </trkpt>
      <trkpt lat="42.71143" lon="1.55479">
        <ele>1587.2739257812</ele>
        <time>2012-06-10T11:44:12Z</time>
      </trkpt>
      <trkpt lat="42.71139" lon="1.55482">
        <ele>1585.83203125</ele>
        <time>2012-06-10T11:44:19Z</time>
      </trkpt>
      <trkpt lat="42.71135" lon="1.55488">
        <ele>1585.3513183594</ele>
        <time>2012-06-10T11:44:26Z</time>
      </trkpt>
      <trkpt lat="42.71133" lon="1.55492">
        <ele>1584.3901367188</ele>
        <time>2012-06-10T11:44:31Z</time>
      </trkpt>
      <trkpt lat="42.7113" lon="1.55497">
        <ele>1586.3127441406</ele>
        <time>2012-06-10T11:44:36Z</time>
      </trkpt>
      <trkpt lat="42.71127" lon="1.55502">
        <ele>1583.9094238281</ele>
        <time>2012-06-10T11:44:42Z</time>
      </trkpt>
      <trkpt lat="42.71124" lon="1.55508">
        <ele>1581.9868164062</ele>
        <time>2012-06-10T11:44:49Z</time>
      </trkpt>
      <trkpt lat="42.7112" lon="1.55516">
        <ele>1582.4675292969</ele>
        <time>2012-06-10T11:44:57Z</time>
      </trkpt>
      <trkpt lat="42.71115" lon="1.55522">
        <ele>1581.5061035156</ele>
        <time>2012-06-10T11:45:04Z</time>
      </trkpt>
      <trkpt lat="42.7111" lon="1.55529">
        <ele>1581.0256347656</ele>
        <time>2012-06-10T11:45:11Z</time>
      </trkpt>
      <trkpt lat="42.71107" lon="1.55538">
        <ele>1579.5832519531</ele>
        <time>2012-06-10T11:45:17Z</time>
      </trkpt>
      <trkpt lat="42.71105" lon="1.55546">
        <ele>1578.6220703125</ele>
        <time>2012-06-10T11:45:23Z</time>
      </trkpt>
      <trkpt lat="42.71104" lon="1.55551">
        <ele>1577.6606445312</ele>
        <time>2012-06-10T11:45:27Z</time>
      </trkpt>
      <trkpt lat="42.71099" lon="1.55563">
        <ele>1576.21875</ele>
        <time>2012-06-10T11:45:36Z</time>
      </trkpt>
      <trkpt lat="42.71095" lon="1.55576">
        <ele>1576.21875</ele>
        <time>2012-06-10T11:45:44Z</time>
      </trkpt>
      <trkpt lat="42.7109" lon="1.55585">
        <ele>1576.21875</ele>
        <time>2012-06-10T11:45:51Z</time>
      </trkpt>
      <trkpt lat="42.71087" lon="1.55592">
        <ele>1577.1801757812</ele>
        <time>2012-06-10T11:45:56Z</time>
      </trkpt>
      <trkpt lat="42.71083" lon="1.55599">
        <ele>1577.6606445312</ele>
        <time>2012-06-10T11:46:02Z</time>
      </trkpt>
      <trkpt lat="42.71076" lon="1.5561">
        <ele>1579.1025390625</ele>
        <time>2012-06-10T11:46:12Z</time>
      </trkpt>
      <trkpt lat="42.71074" lon="1.55616">
        <ele>1579.5832519531</ele>
        <time>2012-06-10T11:46:18Z</time>
      </trkpt>
      <trkpt lat="42.71073" lon="1.55625">
        <ele>1578.6220703125</ele>
        <time>2012-06-10T11:46:25Z</time>
      </trkpt>
      <trkpt lat="42.71069" lon="1.55634">
        <ele>1579.5832519531</ele>
        <time>2012-06-10T11:46:33Z</time>
      </trkpt>
      <trkpt lat="42.71066" lon="1.5564">
        <ele>1580.544921875</ele>
        <time>2012-06-10T11:46:39Z</time>
      </trkpt>
      <trkpt lat="42.71062" lon="1.5565">
        <ele>1581.0256347656</ele>
        <time>2012-06-10T11:46:47Z</time>
      </trkpt>
      <trkpt lat="42.71058" lon="1.5566">
        <ele>1584.8708496094</ele>
        <time>2012-06-10T11:46:55Z</time>
      </trkpt>
      <trkpt lat="42.71055" lon="1.55665">
        <ele>1584.8708496094</ele>
        <time>2012-06-10T11:47:01Z</time>
      </trkpt>
      <trkpt lat="42.71051" lon="1.55673">
        <ele>1585.83203125</ele>
        <time>2012-06-10T11:47:09Z</time>
      </trkpt>
      <trkpt lat="42.71046" lon="1.55681">
        <ele>1585.3513183594</ele>
        <time>2012-06-10T11:47:16Z</time>
      </trkpt>
      <trkpt lat="42.71043" lon="1.55687">
        <ele>1584.3901367188</ele>
        <time>2012-06-10T11:47:23Z</time>
      </trkpt>
      <trkpt lat="42.7104" lon="1.55695">
        <ele>1584.3901367188</ele>
        <time>2012-06-10T11:47:30Z</time>
      </trkpt>
      <trkpt lat="42.71034" lon="1.55705">
        <ele>1583.9094238281</ele>
        <time>2012-06-10T11:47:39Z</time>
      </trkpt>
      <trkpt lat="42.71029" lon="1.55715">
        <ele>1583.4287109375</ele>
        <time>2012-06-10T11:47:46Z</time>
      </trkpt>
      <trkpt lat="42.71025" lon="1.5572">
        <ele>1585.3513183594</ele>
        <time>2012-06-10T11:47:50Z</time>
      </trkpt>
      <trkpt lat="42.71022" lon="1.55729">
        <ele>1585.83203125</ele>
        <time>2012-06-10T11:47:57Z</time>
      </trkpt>
      <trkpt lat="42.71021" lon="1.55737">
        <ele>1586.7932128906</ele>
        <time>2012-06-10T11:48:04Z</time>
      </trkpt>
      <trkpt lat="42.71019" lon="1.55746">
        <ele>1588.7160644531</ele>
        <time>2012-06-10T11:48:11Z</time>
      </trkpt>
      <trkpt lat="42.71015" lon="1.55753">
        <ele>1589.1965332031</ele>
        <time>2012-06-10T11:48:17Z</time>
      </trkpt>
      <trkpt lat="42.71009" lon="1.55758">
        <ele>1587.7546386719</ele>
        <time>2012-06-10T11:48:24Z</time>
      </trkpt>
      <trkpt lat="42.71006" lon="1.55762">
        <ele>1586.3127441406</ele>
        <time>2012-06-10T11:48:29Z</time>
      </trkpt>
      <trkpt lat="42.71" lon="1.55768">
        <ele>1584.8708496094</ele>
        <time>2012-06-10T11:48:36Z</time>
      </trkpt>
      <trkpt lat="42.70994" lon="1.55777">
        <ele>1582.4675292969</ele>
        <time>2012-06-10T11:48:44Z</time>
      </trkpt>
      <trkpt lat="42.70988" lon="1.55787">
        <ele>1580.0642089844</ele>
        <time>2012-06-10T11:48:52Z</time>
      </trkpt>
      <trkpt lat="42.70977" lon="1.55793">
        <ele>1578.1413574219</ele>
        <time>2012-06-10T11:49:01Z</time>
      </trkpt>
      <trkpt lat="42.70972" lon="1.55799">
        <ele>1577.1801757812</ele>
        <time>2012-06-10T11:49:07Z</time>
      </trkpt>
      <trkpt lat="42.7097" lon="1.55801">
        <ele>1575.7380371094</ele>
        <time>2012-06-10T11:49:10Z</time>
      </trkpt>
      <trkpt lat="42.70966" lon="1.55806">
        <ele>1573.3349609375</ele>
        <time>2012-06-10T11:49:17Z</time>
      </trkpt>
      <trkpt lat="42.70959" lon="1.5581">
        <ele>1570.931640625</ele>
        <time>2012-06-10T11:49:24Z</time>
      </trkpt>
      <trkpt lat="42.70955" lon="1.55814">
        <ele>1569.9702148438</ele>
        <time>2012-06-10T11:49:29Z</time>
      </trkpt>
      <trkpt lat="42.70951" lon="1.55817">
        <ele>1569.4897460938</ele>
        <time>2012-06-10T11:49:33Z</time>
      </trkpt>
      <trkpt lat="42.70945" lon="1.55822">
        <ele>1568.0476074219</ele>
        <time>2012-06-10T11:49:39Z</time>
      </trkpt>
      <trkpt lat="42.7094" lon="1.55827">
        <ele>1565.64453125</ele>
        <time>2012-06-10T11:49:45Z</time>
      </trkpt>
      <trkpt lat="42.70937" lon="1.55831">
        <ele>1565.1638183594</ele>
        <time>2012-06-10T11:49:48Z</time>
      </trkpt>
      <trkpt lat="42.70932" lon="1.55836">
        <ele>1563.7214355469</ele>
        <time>2012-06-10T11:49:54Z</time>
      </trkpt>
      <trkpt lat="42.70932" lon="1.55836">
        <ele>1563.2409667969</ele>
        <time>2012-06-10T11:49:55Z</time>
      </trkpt>
      <trkpt lat="42.70929" lon="1.55843">
        <ele>1562.2795410156</ele>
        <time>2012-06-10T11:50:02Z</time>
      </trkpt>
      <trkpt lat="42.70925" lon="1.5585">
        <ele>1560.8376464844</ele>
        <time>2012-06-10T11:50:08Z</time>
      </trkpt>
      <trkpt lat="42.70921" lon="1.55855">
        <ele>1559.3957519531</ele>
        <time>2012-06-10T11:50:12Z</time>
      </trkpt>
      <trkpt lat="42.70918" lon="1.55857">
        <ele>1557.4731445312</ele>
        <time>2012-06-10T11:50:15Z</time>
      </trkpt>
      <trkpt lat="42.70913" lon="1.55864">
        <ele>1556.0310058594</ele>
        <time>2012-06-10T11:50:21Z</time>
      </trkpt>
      <trkpt lat="42.70905" lon="1.5587">
        <ele>1552.6665039062</ele>
        <time>2012-06-10T11:50:28Z</time>
      </trkpt>
      <trkpt lat="42.70903" lon="1.55872">
        <ele>1552.1857910156</ele>
        <time>2012-06-10T11:50:30Z</time>
      </trkpt>
      <trkpt lat="42.70899" lon="1.55878">
        <ele>1550.2634277344</ele>
        <time>2012-06-10T11:50:36Z</time>
      </trkpt>
      <trkpt lat="42.70888" lon="1.55887">
        <ele>1546.8984375</ele>
        <time>2012-06-10T11:50:43Z</time>
      </trkpt>
      <trkpt lat="42.7088" lon="1.55894">
        <ele>1544.9758300781</ele>
        <time>2012-06-10T11:50:47Z</time>
      </trkpt>
      <trkpt lat="42.70878" lon="1.55897">
        <ele>1545.4565429688</ele>
        <time>2012-06-10T11:50:49Z</time>
      </trkpt>
      <trkpt lat="42.70876" lon="1.55903">
        <ele>1543.5339355469</ele>
        <time>2012-06-10T11:50:53Z</time>
      </trkpt>
      <trkpt lat="42.70875" lon="1.55911">
        <ele>1544.4951171875</ele>
        <time>2012-06-10T11:50:59Z</time>
      </trkpt>
      <trkpt lat="42.70875" lon="1.55919">
        <ele>1544.4951171875</ele>
        <time>2012-06-10T11:51:04Z</time>
      </trkpt>
      <trkpt lat="42.70876" lon="1.55928">
        <ele>1542.5727539062</ele>
        <time>2012-06-10T11:51:12Z</time>
      </trkpt>
      <trkpt lat="42.70875" lon="1.55934">
        <ele>1540.6499023438</ele>
        <time>2012-06-10T11:51:18Z</time>
      </trkpt>
      <trkpt lat="42.70873" lon="1.5594">
        <ele>1539.2080078125</ele>
        <time>2012-06-10T11:51:23Z</time>
      </trkpt>
      <trkpt lat="42.7087" lon="1.55947">
        <ele>1538.7275390625</ele>
        <time>2012-06-10T11:51:28Z</time>
      </trkpt>
      <trkpt lat="42.70863" lon="1.55957">
        <ele>1537.2854003906</ele>
        <time>2012-06-10T11:51:36Z</time>
      </trkpt>
      <trkpt lat="42.70858" lon="1.55963">
        <ele>1537.2854003906</ele>
        <time>2012-06-10T11:51:41Z</time>
      </trkpt>
      <trkpt lat="42.70855" lon="1.55966">
        <ele>1536.8046875</ele>
        <time>2012-06-10T11:51:44Z</time>
      </trkpt>
      <trkpt lat="42.70853" lon="1.55971">
        <ele>1534.8823242188</ele>
        <time>2012-06-10T11:51:49Z</time>
      </trkpt>
      <trkpt lat="42.70848" lon="1.55978">
        <ele>1532.9594726562</ele>
        <time>2012-06-10T11:51:57Z</time>
      </trkpt>
      <trkpt lat="42.70845" lon="1.55985">
        <ele>1531.0368652344</ele>
        <time>2012-06-10T11:52:03Z</time>
      </trkpt>
      <trkpt lat="42.70842" lon="1.55989">
        <ele>1529.5947265625</ele>
        <time>2012-06-10T11:52:07Z</time>
      </trkpt>
      <trkpt lat="42.70841" lon="1.55991">
        <ele>1529.1140136719</ele>
        <time>2012-06-10T11:52:09Z</time>
      </trkpt>
      <trkpt lat="42.70837" lon="1.55995">
        <ele>1527.6721191406</ele>
        <time>2012-06-10T11:52:13Z</time>
      </trkpt>
      <trkpt lat="42.70834" lon="1.55999">
        <ele>1526.7109375</ele>
        <time>2012-06-10T11:52:16Z</time>
      </trkpt>
      <trkpt lat="42.70831" lon="1.56005">
        <ele>1524.7883300781</ele>
        <time>2012-06-10T11:52:21Z</time>
      </trkpt>
      <trkpt lat="42.70827" lon="1.5601">
        <ele>1522.8657226562</ele>
        <time>2012-06-10T11:52:26Z</time>
      </trkpt>
      <trkpt lat="42.7083" lon="1.56012">
        <ele>1521.4235839844</ele>
        <time>2012-06-10T11:52:30Z</time>
      </trkpt>
      <trkpt lat="42.70838" lon="1.56011">
        <ele>1519.5012207031</ele>
        <time>2012-06-10T11:52:37Z</time>
      </trkpt>
      <trkpt lat="42.70843" lon="1.5601">
        <ele>1517.5783691406</ele>
        <time>2012-06-10T11:52:43Z</time>
      </trkpt>
      <trkpt lat="42.70845" lon="1.56013">
        <ele>1516.1364746094</ele>
        <time>2012-06-10T11:52:48Z</time>
      </trkpt>
      <trkpt lat="42.70844" lon="1.56019">
        <ele>1514.6943359375</ele>
        <time>2012-06-10T11:52:54Z</time>
      </trkpt>
      <trkpt lat="42.70843" lon="1.56026">
        <ele>1512.291015625</ele>
        <time>2012-06-10T11:53:00Z</time>
      </trkpt>
      <trkpt lat="42.70844" lon="1.56032">
        <ele>1510.8491210938</ele>
        <time>2012-06-10T11:53:05Z</time>
      </trkpt>
      <trkpt lat="42.70847" lon="1.56039">
        <ele>1509.4072265625</ele>
        <time>2012-06-10T11:53:11Z</time>
      </trkpt>
      <trkpt lat="42.70849" lon="1.56044">
        <ele>1507.9653320312</ele>
        <time>2012-06-10T11:53:17Z</time>
      </trkpt>
      <trkpt lat="42.70853" lon="1.56045">
        <ele>1506.5231933594</ele>
        <time>2012-06-10T11:53:22Z</time>
      </trkpt>
      <trkpt lat="42.70856" lon="1.5605">
        <ele>1505.0812988281</ele>
        <time>2012-06-10T11:53:27Z</time>
      </trkpt>
      <trkpt lat="42.70859" lon="1.56054">
        <ele>1504.6005859375</ele>
        <time>2012-06-10T11:53:31Z</time>
      </trkpt>
      <trkpt lat="42.70866" lon="1.5606">
        <ele>1504.6005859375</ele>
        <time>2012-06-10T11:53:38Z</time>
      </trkpt>
      <trkpt lat="42.70868" lon="1.56062">
        <ele>1504.1201171875</ele>
        <time>2012-06-10T11:53:40Z</time>
      </trkpt>
      <trkpt lat="42.7087" lon="1.56069">
        <ele>1503.1586914062</ele>
        <time>2012-06-10T11:53:46Z</time>
      </trkpt>
      <trkpt lat="42.70873" lon="1.56077">
        <ele>1503.6394042969</ele>
        <time>2012-06-10T11:53:53Z</time>
      </trkpt>
      <trkpt lat="42.70875" lon="1.5608">
        <ele>1504.1201171875</ele>
        <time>2012-06-10T11:53:56Z</time>
      </trkpt>
      <trkpt lat="42.70877" lon="1.56081">
        <ele>1504.6005859375</ele>
        <time>2012-06-10T11:53:58Z</time>
      </trkpt>
      <trkpt lat="42.70882" lon="1.56083">
        <ele>1506.0424804688</ele>
        <time>2012-06-10T11:54:02Z</time>
      </trkpt>
      <trkpt lat="42.70888" lon="1.56088">
        <ele>1506.0424804688</ele>
        <time>2012-06-10T11:54:10Z</time>
      </trkpt>
      <trkpt lat="42.70892" lon="1.5609">
        <ele>1507.4846191406</ele>
        <time>2012-06-10T11:54:15Z</time>
      </trkpt>
      <trkpt lat="42.70895" lon="1.56091">
        <ele>1507.4846191406</ele>
        <time>2012-06-10T11:54:22Z</time>
      </trkpt>
      <trkpt lat="42.70898" lon="1.5609">
        <ele>1507.9653320312</ele>
        <time>2012-06-10T11:54:26Z</time>
      </trkpt>
      <trkpt lat="42.70904" lon="1.56081">
        <ele>1509.4072265625</ele>
        <time>2012-06-10T11:54:33Z</time>
      </trkpt>
      <trkpt lat="42.70906" lon="1.56078">
        <ele>1508.9265136719</ele>
        <time>2012-06-10T11:54:38Z</time>
      </trkpt>
      <trkpt lat="42.70909" lon="1.56071">
        <ele>1507.4846191406</ele>
        <time>2012-06-10T11:54:43Z</time>
      </trkpt>
      <trkpt lat="42.70914" lon="1.56067">
        <ele>1507.4846191406</ele>
        <time>2012-06-10T11:54:48Z</time>
      </trkpt>
      <trkpt lat="42.70918" lon="1.56066">
        <ele>1507.9653320312</ele>
        <time>2012-06-10T11:54:51Z</time>
      </trkpt>
      <trkpt lat="42.70925" lon="1.56052">
        <ele>1506.0424804688</ele>
        <time>2012-06-10T11:55:02Z</time>
      </trkpt>
      <trkpt lat="42.70928" lon="1.56043">
        <ele>1505.5620117188</ele>
        <time>2012-06-10T11:55:06Z</time>
      </trkpt>
      <trkpt lat="42.70931" lon="1.56031">
        <ele>1504.6005859375</ele>
        <time>2012-06-10T11:55:11Z</time>
      </trkpt>
      <trkpt lat="42.70933" lon="1.56029">
        <ele>1504.6005859375</ele>
        <time>2012-06-10T11:55:12Z</time>
      </trkpt>
      <trkpt lat="42.70936" lon="1.56023">
        <ele>1505.0812988281</ele>
        <time>2012-06-10T11:55:14Z</time>
      </trkpt>
      <trkpt lat="42.70943" lon="1.56013">
        <ele>1505.0812988281</ele>
        <time>2012-06-10T11:55:19Z</time>
      </trkpt>
      <trkpt lat="42.70948" lon="1.5601">
        <ele>1505.0812988281</ele>
        <time>2012-06-10T11:55:22Z</time>
      </trkpt>
      <trkpt lat="42.70953" lon="1.55999">
        <ele>1503.6394042969</ele>
        <time>2012-06-10T11:55:26Z</time>
      </trkpt>
      <trkpt lat="42.70958" lon="1.55995">
        <ele>1502.197265625</ele>
        <time>2012-06-10T11:55:30Z</time>
      </trkpt>
      <trkpt lat="42.70963" lon="1.55988">
        <ele>1501.2360839844</ele>
        <time>2012-06-10T11:55:35Z</time>
      </trkpt>
      <trkpt lat="42.70964" lon="1.55986">
        <ele>1500.7553710938</ele>
        <time>2012-06-10T11:55:36Z</time>
      </trkpt>
      <trkpt lat="42.70969" lon="1.5598">
        <ele>1500.2749023438</ele>
        <time>2012-06-10T11:55:39Z</time>
      </trkpt>
      <trkpt lat="42.70974" lon="1.55972">
        <ele>1499.7939453125</ele>
        <time>2012-06-10T11:55:44Z</time>
      </trkpt>
      <trkpt lat="42.70977" lon="1.55969">
        <ele>1499.7939453125</ele>
        <time>2012-06-10T11:55:46Z</time>
      </trkpt>
      <trkpt lat="42.70984" lon="1.55958">
        <ele>1498.3518066406</ele>
        <time>2012-06-10T11:55:51Z</time>
      </trkpt>
      <trkpt lat="42.70992" lon="1.55954">
        <ele>1497.390625</ele>
        <time>2012-06-10T11:55:56Z</time>
      </trkpt>
      <trkpt lat="42.70997" lon="1.55949">
        <ele>1495.9487304688</ele>
        <time>2012-06-10T11:56:01Z</time>
      </trkpt>
      <trkpt lat="42.71001" lon="1.55947">
        <ele>1495.9487304688</ele>
        <time>2012-06-10T11:56:04Z</time>
      </trkpt>
      <trkpt lat="42.71004" lon="1.55942">
        <ele>1494.9873046875</ele>
        <time>2012-06-10T11:56:10Z</time>
      </trkpt>
      <trkpt lat="42.71007" lon="1.55935">
        <ele>1494.9873046875</ele>
        <time>2012-06-10T11:56:17Z</time>
      </trkpt>
      <trkpt lat="42.71009" lon="1.55932">
        <ele>1493.0646972656</ele>
        <time>2012-06-10T11:56:22Z</time>
      </trkpt>
      <trkpt lat="42.71008" lon="1.55927">
        <ele>1492.103515625</ele>
        <time>2012-06-10T11:56:26Z</time>
      </trkpt>
      <trkpt lat="42.71009" lon="1.55919">
        <ele>1490.1809082031</ele>
        <time>2012-06-10T11:56:31Z</time>
      </trkpt>
      <trkpt lat="42.71011" lon="1.55914">
        <ele>1489.2194824219</ele>
        <time>2012-06-10T11:56:35Z</time>
      </trkpt>
      <trkpt lat="42.71014" lon="1.5591">
        <ele>1488.2583007812</ele>
        <time>2012-06-10T11:56:39Z</time>
      </trkpt>
      <trkpt lat="42.71023" lon="1.55906">
        <ele>1487.296875</ele>
        <time>2012-06-10T11:56:46Z</time>
      </trkpt>
      <trkpt lat="42.7103" lon="1.55906">
        <ele>1486.8161621094</ele>
        <time>2012-06-10T11:56:50Z</time>
      </trkpt>
      <trkpt lat="42.71035" lon="1.55909">
        <ele>1487.7775878906</ele>
        <time>2012-06-10T11:56:55Z</time>
      </trkpt>
      <trkpt lat="42.71037" lon="1.55908">
        <ele>1488.2583007812</ele>
        <time>2012-06-10T11:56:56Z</time>
      </trkpt>
      <trkpt lat="42.71045" lon="1.55903">
        <ele>1489.7001953125</ele>
        <time>2012-06-10T11:57:02Z</time>
      </trkpt>
      <trkpt lat="42.71054" lon="1.55899">
        <ele>1489.2194824219</ele>
        <time>2012-06-10T11:57:08Z</time>
      </trkpt>
      <trkpt lat="42.71059" lon="1.55896">
        <ele>1489.2194824219</ele>
        <time>2012-06-10T11:57:12Z</time>
      </trkpt>
      <trkpt lat="42.71064" lon="1.5589">
        <ele>1489.2194824219</ele>
        <time>2012-06-10T11:57:18Z</time>
      </trkpt>
      <trkpt lat="42.71072" lon="1.55882">
        <ele>1490.6613769531</ele>
        <time>2012-06-10T11:57:25Z</time>
      </trkpt>
      <trkpt lat="42.71075" lon="1.55882">
        <ele>1489.7001953125</ele>
        <time>2012-06-10T11:57:27Z</time>
      </trkpt>
      <trkpt lat="42.71076" lon="1.55882">
        <ele>1488.7390136719</ele>
        <time>2012-06-10T11:57:29Z</time>
      </trkpt>
      <trkpt lat="42.71077" lon="1.55878">
        <ele>1485.3742675781</ele>
        <time>2012-06-10T11:57:35Z</time>
      </trkpt>
      <trkpt lat="42.7108" lon="1.55875">
        <ele>1483.9321289062</ele>
        <time>2012-06-10T11:57:39Z</time>
      </trkpt>
      <trkpt lat="42.71089" lon="1.55869">
        <ele>1482.0095214844</ele>
        <time>2012-06-10T11:57:45Z</time>
      </trkpt>
      <trkpt lat="42.71095" lon="1.55867">
        <ele>1482.0095214844</ele>
        <time>2012-06-10T11:57:48Z</time>
      </trkpt>
      <trkpt lat="42.71098" lon="1.55868">
        <ele>1481.0483398438</ele>
        <time>2012-06-10T11:57:50Z</time>
      </trkpt>
      <trkpt lat="42.71106" lon="1.5586">
        <ele>1480.0869140625</ele>
        <time>2012-06-10T11:57:57Z</time>
      </trkpt>
      <trkpt lat="42.71107" lon="1.55859">
        <ele>1479.6062011719</ele>
        <time>2012-06-10T11:57:58Z</time>
      </trkpt>
      <trkpt lat="42.71116" lon="1.55851">
        <ele>1476.7224121094</ele>
        <time>2012-06-10T11:58:06Z</time>
      </trkpt>
      <trkpt lat="42.71125" lon="1.55844">
        <ele>1474.7998046875</ele>
        <time>2012-06-10T11:58:10Z</time>
      </trkpt>
      <trkpt lat="42.71126" lon="1.55842">
        <ele>1474.7998046875</ele>
        <time>2012-06-10T11:58:11Z</time>
      </trkpt>
      <trkpt lat="42.71131" lon="1.55834">
        <ele>1474.3190917969</ele>
        <time>2012-06-10T11:58:17Z</time>
      </trkpt>
      <trkpt lat="42.7114" lon="1.55828">
        <ele>1472.8771972656</ele>
        <time>2012-06-10T11:58:21Z</time>
      </trkpt>
      <trkpt lat="42.71143" lon="1.55823">
        <ele>1471.9157714844</ele>
        <time>2012-06-10T11:58:24Z</time>
      </trkpt>
      <trkpt lat="42.71152" lon="1.55815">
        <ele>1470.4738769531</ele>
        <time>2012-06-10T11:58:30Z</time>
      </trkpt>
      <trkpt lat="42.71156" lon="1.55813">
        <ele>1469.9931640625</ele>
        <time>2012-06-10T11:58:32Z</time>
      </trkpt>
      <trkpt lat="42.71157" lon="1.5581">
        <ele>1469.9931640625</ele>
        <time>2012-06-10T11:58:34Z</time>
      </trkpt>
      <trkpt lat="42.71163" lon="1.55807">
        <ele>1469.0319824219</ele>
        <time>2012-06-10T11:58:42Z</time>
      </trkpt>
      <trkpt lat="42.71166" lon="1.55808">
        <ele>1469.0319824219</ele>
        <time>2012-06-10T11:58:46Z</time>
      </trkpt>
      <trkpt lat="42.7117" lon="1.55802">
        <ele>1467.5895996094</ele>
        <time>2012-06-10T11:58:52Z</time>
      </trkpt>
      <trkpt lat="42.71171" lon="1.558">
        <ele>1467.1091308594</ele>
        <time>2012-06-10T11:58:53Z</time>
      </trkpt>
      <trkpt lat="42.71173" lon="1.55795">
        <ele>1466.6284179688</ele>
        <time>2012-06-10T11:58:56Z</time>
      </trkpt>
      <trkpt lat="42.71176" lon="1.55795">
        <ele>1466.1477050781</ele>
        <time>2012-06-10T11:58:59Z</time>
      </trkpt>
      <trkpt lat="42.71181" lon="1.55792">
        <ele>1464.2250976562</ele>
        <time>2012-06-10T11:59:03Z</time>
      </trkpt>
      <trkpt lat="42.71184" lon="1.55788">
        <ele>1462.783203125</ele>
        <time>2012-06-10T11:59:07Z</time>
      </trkpt>
      <trkpt lat="42.71194" lon="1.55782">
        <ele>1463.2639160156</ele>
        <time>2012-06-10T11:59:13Z</time>
      </trkpt>
      <trkpt lat="42.71195" lon="1.55781">
        <ele>1463.7443847656</ele>
        <time>2012-06-10T11:59:14Z</time>
      </trkpt>
      <trkpt lat="42.71198" lon="1.55772">
        <ele>1463.7443847656</ele>
        <time>2012-06-10T11:59:21Z</time>
      </trkpt>
      <trkpt lat="42.71202" lon="1.55772">
        <ele>1464.2250976562</ele>
        <time>2012-06-10T11:59:27Z</time>
      </trkpt>
      <trkpt lat="42.71207" lon="1.55773">
        <ele>1463.2639160156</ele>
        <time>2012-06-10T11:59:32Z</time>
      </trkpt>
      <trkpt lat="42.7121" lon="1.55771">
        <ele>1461.8220214844</ele>
        <time>2012-06-10T11:59:36Z</time>
      </trkpt>
      <trkpt lat="42.71218" lon="1.55766">
        <ele>1460.3798828125</ele>
        <time>2012-06-10T11:59:43Z</time>
      </trkpt>
      <trkpt lat="42.71222" lon="1.55762">
        <ele>1459.8991699219</ele>
        <time>2012-06-10T11:59:49Z</time>
      </trkpt>
      <trkpt lat="42.71228" lon="1.55759">
        <ele>1459.4187011719</ele>
        <time>2012-06-10T11:59:54Z</time>
      </trkpt>
      <trkpt lat="42.71229" lon="1.55758">
        <ele>1459.8991699219</ele>
        <time>2012-06-10T11:59:55Z</time>
      </trkpt>
      <trkpt lat="42.71234" lon="1.55756">
        <ele>1459.4187011719</ele>
        <time>2012-06-10T11:59:59Z</time>
      </trkpt>
      <trkpt lat="42.71241" lon="1.5575">
        <ele>1458.9379882812</ele>
        <time>2012-06-10T12:00:06Z</time>
      </trkpt>
      <trkpt lat="42.71245" lon="1.55748">
        <ele>1458.9379882812</ele>
        <time>2012-06-10T12:00:09Z</time>
      </trkpt>
      <trkpt lat="42.71252" lon="1.55741">
        <ele>1457.9768066406</ele>
        <time>2012-06-10T12:00:16Z</time>
      </trkpt>
      <trkpt lat="42.71254" lon="1.5574">
        <ele>1457.0153808594</ele>
        <time>2012-06-10T12:00:19Z</time>
      </trkpt>
      <trkpt lat="42.71258" lon="1.55734">
        <ele>1456.5346679688</ele>
        <time>2012-06-10T12:00:27Z</time>
      </trkpt>
      <trkpt lat="42.7126" lon="1.55732">
        <ele>1457.49609375</ele>
        <time>2012-06-10T12:00:31Z</time>
      </trkpt>
      <trkpt lat="42.71266" lon="1.55731">
        <ele>1456.5346679688</ele>
        <time>2012-06-10T12:00:36Z</time>
      </trkpt>
      <trkpt lat="42.71269" lon="1.5573">
        <ele>1455.5734863281</ele>
        <time>2012-06-10T12:00:39Z</time>
      </trkpt>
      <trkpt lat="42.71275" lon="1.55726">
        <ele>1456.5346679688</ele>
        <time>2012-06-10T12:00:45Z</time>
      </trkpt>
      <trkpt lat="42.71276" lon="1.55726">
        <ele>1457.0153808594</ele>
        <time>2012-06-10T12:00:46Z</time>
      </trkpt>
      <trkpt lat="42.71289" lon="1.55723">
        <ele>1457.9768066406</ele>
        <time>2012-06-10T12:00:54Z</time>
      </trkpt>
      <trkpt lat="42.71293" lon="1.55721">
        <ele>1457.9768066406</ele>
        <time>2012-06-10T12:00:58Z</time>
      </trkpt>
      <trkpt lat="42.71299" lon="1.5572">
        <ele>1456.5346679688</ele>
        <time>2012-06-10T12:01:03Z</time>
      </trkpt>
      <trkpt lat="42.71303" lon="1.5572">
        <ele>1452.689453125</ele>
        <time>2012-06-10T12:01:10Z</time>
      </trkpt>
      <trkpt lat="42.71309" lon="1.55717">
        <ele>1450.2861328125</ele>
        <time>2012-06-10T12:01:16Z</time>
      </trkpt>
      <trkpt lat="42.71313" lon="1.55718">
        <ele>1448.8439941406</ele>
        <time>2012-06-10T12:01:21Z</time>
      </trkpt>
      <trkpt lat="42.71315" lon="1.55718">
        <ele>1447.8828125</ele>
        <time>2012-06-10T12:01:23Z</time>
      </trkpt>
      <trkpt lat="42.71322" lon="1.55716">
        <ele>1445.9602050781</ele>
        <time>2012-06-10T12:01:30Z</time>
      </trkpt>
      <trkpt lat="42.71328" lon="1.55713">
        <ele>1445.9602050781</ele>
        <time>2012-06-10T12:01:37Z</time>
      </trkpt>
      <trkpt lat="42.71335" lon="1.55713">
        <ele>1444.9987792969</ele>
        <time>2012-06-10T12:01:43Z</time>
      </trkpt>
      <trkpt lat="42.71343" lon="1.55711">
        <ele>1444.5180664062</ele>
        <time>2012-06-10T12:01:50Z</time>
      </trkpt>
      <trkpt lat="42.71353" lon="1.55711">
        <ele>1443.076171875</ele>
        <time>2012-06-10T12:01:57Z</time>
      </trkpt>
      <trkpt lat="42.71357" lon="1.55704">
        <ele>1440.6728515625</ele>
        <time>2012-06-10T12:02:03Z</time>
      </trkpt>
      <trkpt lat="42.71362" lon="1.55698">
        <ele>1440.1923828125</ele>
        <time>2012-06-10T12:02:09Z</time>
      </trkpt>
      <trkpt lat="42.71369" lon="1.55694">
        <ele>1438.7504882812</ele>
        <time>2012-06-10T12:02:16Z</time>
      </trkpt>
      <trkpt lat="42.71373" lon="1.55691">
        <ele>1438.2697753906</ele>
        <time>2012-06-10T12:02:23Z</time>
      </trkpt>
      <trkpt lat="42.71377" lon="1.55688">
        <ele>1436.3471679688</ele>
        <time>2012-06-10T12:02:29Z</time>
      </trkpt>
      <trkpt lat="42.71379" lon="1.55689">
        <ele>1434.4243164062</ele>
        <time>2012-06-10T12:02:36Z</time>
      </trkpt>
      <trkpt lat="42.71384" lon="1.55689">
        <ele>1433.462890625</ele>
        <time>2012-06-10T12:02:41Z</time>
      </trkpt>
      <trkpt lat="42.7139" lon="1.55689">
        <ele>1432.0209960938</ele>
        <time>2012-06-10T12:02:47Z</time>
      </trkpt>
      <trkpt lat="42.71392" lon="1.55691">
        <ele>1431.0598144531</ele>
        <time>2012-06-10T12:02:52Z</time>
      </trkpt>
      <trkpt lat="42.71395" lon="1.55692">
        <ele>1429.1369628906</ele>
        <time>2012-06-10T12:02:58Z</time>
      </trkpt>
      <trkpt lat="42.71399" lon="1.55689">
        <ele>1430.0983886719</ele>
        <time>2012-06-10T12:03:02Z</time>
      </trkpt>
      <trkpt lat="42.71403" lon="1.55685">
        <ele>1430.0983886719</ele>
        <time>2012-06-10T12:03:06Z</time>
      </trkpt>
      <trkpt lat="42.71407" lon="1.55682">
        <ele>1427.6950683594</ele>
        <time>2012-06-10T12:03:10Z</time>
      </trkpt>
      <trkpt lat="42.71409" lon="1.55683">
        <ele>1426.7338867188</ele>
        <time>2012-06-10T12:03:13Z</time>
      </trkpt>
      <trkpt lat="42.71412" lon="1.55679">
        <ele>1428.6564941406</ele>
        <time>2012-06-10T12:03:15Z</time>
      </trkpt>
      <trkpt lat="42.71416" lon="1.55678">
        <ele>1429.6176757812</ele>
        <time>2012-06-10T12:03:18Z</time>
      </trkpt>
      <trkpt lat="42.7142" lon="1.55671">
        <ele>1427.2145996094</ele>
        <time>2012-06-10T12:03:25Z</time>
      </trkpt>
      <trkpt lat="42.71424" lon="1.55663">
        <ele>1424.3305664062</ele>
        <time>2012-06-10T12:03:32Z</time>
      </trkpt>
      <trkpt lat="42.71427" lon="1.55657">
        <ele>1422.888671875</ele>
        <time>2012-06-10T12:03:39Z</time>
      </trkpt>
      <trkpt lat="42.71428" lon="1.55653">
        <ele>1421.4465332031</ele>
        <time>2012-06-10T12:03:43Z</time>
      </trkpt>
      <trkpt lat="42.7143" lon="1.55649">
        <ele>1420.4853515625</ele>
        <time>2012-06-10T12:03:48Z</time>
      </trkpt>
      <trkpt lat="42.71433" lon="1.55643">
        <ele>1419.0432128906</ele>
        <time>2012-06-10T12:03:55Z</time>
      </trkpt>
      <trkpt lat="42.71436" lon="1.55639">
        <ele>1419.0432128906</ele>
        <time>2012-06-10T12:03:59Z</time>
      </trkpt>
      <trkpt lat="42.71438" lon="1.55632">
        <ele>1418.5625</ele>
        <time>2012-06-10T12:04:05Z</time>
      </trkpt>
      <trkpt lat="42.7144" lon="1.55628">
        <ele>1418.5625</ele>
        <time>2012-06-10T12:04:08Z</time>
      </trkpt>
      <trkpt lat="42.71442" lon="1.55625">
        <ele>1419.0432128906</ele>
        <time>2012-06-10T12:04:11Z</time>
      </trkpt>
      <trkpt lat="42.71447" lon="1.55617">
        <ele>1419.5239257812</ele>
        <time>2012-06-10T12:04:18Z</time>
      </trkpt>
      <trkpt lat="42.7145" lon="1.55612">
        <ele>1418.0817871094</ele>
        <time>2012-06-10T12:04:24Z</time>
      </trkpt>
      <trkpt lat="42.71453" lon="1.55608">
        <ele>1418.0817871094</ele>
        <time>2012-06-10T12:04:28Z</time>
      </trkpt>
      <trkpt lat="42.71455" lon="1.55603">
        <ele>1417.1206054688</ele>
        <time>2012-06-10T12:04:31Z</time>
      </trkpt>
      <trkpt lat="42.71458" lon="1.55599">
        <ele>1416.1591796875</ele>
        <time>2012-06-10T12:04:36Z</time>
      </trkpt>
      <trkpt lat="42.7146" lon="1.55597">
        <ele>1416.1591796875</ele>
        <time>2012-06-10T12:04:38Z</time>
      </trkpt>
      <trkpt lat="42.71463" lon="1.55593">
        <ele>1415.6787109375</ele>
        <time>2012-06-10T12:04:42Z</time>
      </trkpt>
      <trkpt lat="42.71468" lon="1.5559">
        <ele>1412.7946777344</ele>
        <time>2012-06-10T12:04:47Z</time>
      </trkpt>
      <trkpt lat="42.71472" lon="1.55587">
        <ele>1413.755859375</ele>
        <time>2012-06-10T12:04:51Z</time>
      </trkpt>
      <trkpt lat="42.71476" lon="1.55589">
        <ele>1418.5625</ele>
        <time>2012-06-10T12:04:57Z</time>
      </trkpt>
      <trkpt lat="42.7148" lon="1.55593">
        <ele>1419.5239257812</ele>
        <time>2012-06-10T12:05:02Z</time>
      </trkpt>
      <trkpt lat="42.71488" lon="1.55593">
        <ele>1424.3305664062</ele>
        <time>2012-06-10T12:05:13Z</time>
      </trkpt>
      <trkpt lat="42.71492" lon="1.55596">
        <ele>1423.3693847656</ele>
        <time>2012-06-10T12:05:17Z</time>
      </trkpt>
      <trkpt lat="42.71499" lon="1.55599">
        <ele>1420.9660644531</ele>
        <time>2012-06-10T12:05:23Z</time>
      </trkpt>
      <trkpt lat="42.71505" lon="1.55603">
        <ele>1418.5625</ele>
        <time>2012-06-10T12:05:29Z</time>
      </trkpt>
      <trkpt lat="42.71506" lon="1.55603">
        <ele>1418.0817871094</ele>
        <time>2012-06-10T12:05:30Z</time>
      </trkpt>
      <trkpt lat="42.71511" lon="1.55605">
        <ele>1418.0817871094</ele>
        <time>2012-06-10T12:05:37Z</time>
      </trkpt>
      <trkpt lat="42.71517" lon="1.55607">
        <ele>1416.6398925781</ele>
        <time>2012-06-10T12:05:43Z</time>
      </trkpt>
      <trkpt lat="42.71521" lon="1.55609">
        <ele>1420.4853515625</ele>
        <time>2012-06-10T12:05:47Z</time>
      </trkpt>
      <trkpt lat="42.71526" lon="1.55615">
        <ele>1425.2917480469</ele>
        <time>2012-06-10T12:05:52Z</time>
      </trkpt>
      <trkpt lat="42.71532" lon="1.55618">
        <ele>1428.17578125</ele>
        <time>2012-06-10T12:05:56Z</time>
      </trkpt>
      <trkpt lat="42.71537" lon="1.55618">
        <ele>1422.4079589844</ele>
        <time>2012-06-10T12:06:01Z</time>
      </trkpt>
      <trkpt lat="42.71539" lon="1.55616">
        <ele>1420.9660644531</ele>
        <time>2012-06-10T12:06:05Z</time>
      </trkpt>
      <trkpt lat="42.71558" lon="1.55628">
        <ele>1409.9106445312</ele>
        <time>2012-06-10T12:06:28Z</time>
      </trkpt>
      <trkpt lat="42.71566" lon="1.55629">
        <ele>1394.5295410156</ele>
        <time>2012-06-10T12:06:39Z</time>
      </trkpt>
      <trkpt lat="42.71574" lon="1.55632">
        <ele>1395.0102539062</ele>
        <time>2012-06-10T12:06:44Z</time>
      </trkpt>
      <trkpt lat="42.71575" lon="1.55624">
        <ele>1396.9328613281</ele>
        <time>2012-06-10T12:06:48Z</time>
      </trkpt>
      <trkpt lat="42.71577" lon="1.55615">
        <ele>1398.85546875</ele>
        <time>2012-06-10T12:06:55Z</time>
      </trkpt>
      <trkpt lat="42.71577" lon="1.55606">
        <ele>1397.8942871094</ele>
        <time>2012-06-10T12:07:00Z</time>
      </trkpt>
      <trkpt lat="42.71578" lon="1.55605">
        <ele>1397.4135742188</ele>
        <time>2012-06-10T12:07:01Z</time>
      </trkpt>
      <trkpt lat="42.71577" lon="1.55596">
        <ele>1394.0490722656</ele>
        <time>2012-06-10T12:07:07Z</time>
      </trkpt>
      <trkpt lat="42.71579" lon="1.55588">
        <ele>1392.1264648438</ele>
        <time>2012-06-10T12:07:12Z</time>
      </trkpt>
      <trkpt lat="42.71586" lon="1.55581">
        <ele>1391.1650390625</ele>
        <time>2012-06-10T12:07:19Z</time>
      </trkpt>
      <trkpt lat="42.71592" lon="1.55573">
        <ele>1390.2038574219</ele>
        <time>2012-06-10T12:07:25Z</time>
      </trkpt>
      <trkpt lat="42.71598" lon="1.55569">
        <ele>1392.1264648438</ele>
        <time>2012-06-10T12:07:32Z</time>
      </trkpt>
      <trkpt lat="42.71602" lon="1.55567">
        <ele>1392.1264648438</ele>
        <time>2012-06-10T12:07:38Z</time>
      </trkpt>
      <trkpt lat="42.71606" lon="1.55562">
        <ele>1385.8776855469</ele>
        <time>2012-06-10T12:07:48Z</time>
      </trkpt>
      <trkpt lat="42.71607" lon="1.55558">
        <ele>1383.4743652344</ele>
        <time>2012-06-10T12:07:52Z</time>
      </trkpt>
      <trkpt lat="42.71608" lon="1.55552">
        <ele>1380.5905761719</ele>
        <time>2012-06-10T12:07:58Z</time>
      </trkpt>
      <trkpt lat="42.71609" lon="1.55545">
        <ele>1377.7065429688</ele>
        <time>2012-06-10T12:08:05Z</time>
      </trkpt>
      <trkpt lat="42.7161" lon="1.5554">
        <ele>1375.7839355469</ele>
        <time>2012-06-10T12:08:10Z</time>
      </trkpt>
      <trkpt lat="42.71611" lon="1.55536">
        <ele>1374.3420410156</ele>
        <time>2012-06-10T12:08:14Z</time>
      </trkpt>
      <trkpt lat="42.71612" lon="1.5553">
        <ele>1372.9001464844</ele>
        <time>2012-06-10T12:08:20Z</time>
      </trkpt>
      <trkpt lat="42.71613" lon="1.55524">
        <ele>1371.4577636719</ele>
        <time>2012-06-10T12:08:25Z</time>
      </trkpt>
      <trkpt lat="42.71614" lon="1.55519">
        <ele>1369.5354003906</ele>
        <time>2012-06-10T12:08:30Z</time>
      </trkpt>
      <trkpt lat="42.71615" lon="1.55513">
        <ele>1367.6125488281</ele>
        <time>2012-06-10T12:08:36Z</time>
      </trkpt>
      <trkpt lat="42.71616" lon="1.55509">
        <ele>1366.6513671875</ele>
        <time>2012-06-10T12:08:41Z</time>
      </trkpt>
      <trkpt lat="42.71616" lon="1.55508">
        <ele>1364.7287597656</ele>
        <time>2012-06-10T12:08:46Z</time>
      </trkpt>
      <trkpt lat="42.71619" lon="1.55506">
        <ele>1363.2868652344</ele>
        <time>2012-06-10T12:08:51Z</time>
      </trkpt>
      <trkpt lat="42.7162" lon="1.55511">
        <ele>1362.3254394531</ele>
        <time>2012-06-10T12:08:59Z</time>
      </trkpt>
      <trkpt lat="42.7162" lon="1.55515">
        <ele>1361.3642578125</ele>
        <time>2012-06-10T12:09:06Z</time>
      </trkpt>
      <trkpt lat="42.71622" lon="1.55518">
        <ele>1362.3254394531</ele>
        <time>2012-06-10T12:09:14Z</time>
      </trkpt>
      <trkpt lat="42.71623" lon="1.55521">
        <ele>1364.248046875</ele>
        <time>2012-06-10T12:09:20Z</time>
      </trkpt>
      <trkpt lat="42.71626" lon="1.55524">
        <ele>1362.3254394531</ele>
        <time>2012-06-10T12:09:38Z</time>
      </trkpt>
      <trkpt lat="42.71623" lon="1.55513">
        <ele>1362.3254394531</ele>
        <time>2012-06-10T12:09:43Z</time>
      </trkpt>
      <trkpt lat="42.71624" lon="1.55503">
        <ele>1362.8061523438</ele>
        <time>2012-06-10T12:09:49Z</time>
      </trkpt>
      <trkpt lat="42.71624" lon="1.55493">
        <ele>1368.0932617188</ele>
        <time>2012-06-10T12:09:53Z</time>
      </trkpt>
      <trkpt lat="42.71622" lon="1.55487">
        <ele>1370.0158691406</ele>
        <time>2012-06-10T12:09:58Z</time>
      </trkpt>
      <trkpt lat="42.71621" lon="1.55485">
        <ele>1369.5354003906</ele>
        <time>2012-06-10T12:10:00Z</time>
      </trkpt>
      <trkpt lat="42.71622" lon="1.55474">
        <ele>1367.6125488281</ele>
        <time>2012-06-10T12:10:08Z</time>
      </trkpt>
      <trkpt lat="42.71623" lon="1.55469">
        <ele>1368.0932617188</ele>
        <time>2012-06-10T12:10:14Z</time>
      </trkpt>
      <trkpt lat="42.71627" lon="1.55466">
        <ele>1368.5739746094</ele>
        <time>2012-06-10T12:10:20Z</time>
      </trkpt>
      <trkpt lat="42.71638" lon="1.55464">
        <ele>1358.9609375</ele>
        <time>2012-06-10T12:10:52Z</time>
      </trkpt>
      <trkpt lat="42.71637" lon="1.55473">
        <ele>1350.3090820312</ele>
        <time>2012-06-10T12:10:59Z</time>
      </trkpt>
      <trkpt lat="42.71635" lon="1.55477">
        <ele>1353.1928710938</ele>
        <time>2012-06-10T12:11:04Z</time>
      </trkpt>
      <trkpt lat="42.71636" lon="1.5548">
        <ele>1357.9997558594</ele>
        <time>2012-06-10T12:11:08Z</time>
      </trkpt>
      <trkpt lat="42.71635" lon="1.55479">
        <ele>1358.4802246094</ele>
        <time>2012-06-10T12:11:12Z</time>
      </trkpt>
      <trkpt lat="42.71639" lon="1.55484">
        <ele>1380.5905761719</ele>
        <time>2012-06-10T12:11:18Z</time>
      </trkpt>
      <trkpt lat="42.71653" lon="1.55467">
        <ele>1345.9831542969</ele>
        <time>2012-06-10T12:12:55Z</time>
      </trkpt>
      <trkpt lat="42.71655" lon="1.55448">
        <ele>1365.6901855469</ele>
        <time>2012-06-10T12:13:10Z</time>
      </trkpt>
      <trkpt lat="42.71656" lon="1.55443">
        <ele>1365.2094726562</ele>
        <time>2012-06-10T12:13:19Z</time>
      </trkpt>
      <trkpt lat="42.71657" lon="1.55437">
        <ele>1359.9221191406</ele>
        <time>2012-06-10T12:13:27Z</time>
      </trkpt>
      <trkpt lat="42.71657" lon="1.55435">
        <ele>1360.8835449219</ele>
        <time>2012-06-10T12:13:28Z</time>
      </trkpt>
      <trkpt lat="42.71659" lon="1.55429">
        <ele>1363.2868652344</ele>
        <time>2012-06-10T12:13:32Z</time>
      </trkpt>
      <trkpt lat="42.71661" lon="1.55425">
        <ele>1363.2868652344</ele>
        <time>2012-06-10T12:13:36Z</time>
      </trkpt>
      <trkpt lat="42.71663" lon="1.55423">
        <ele>1343.0991210938</ele>
        <time>2012-06-10T12:13:43Z</time>
      </trkpt>
      <trkpt lat="42.71665" lon="1.55422">
        <ele>1330.6020507812</ele>
        <time>2012-06-10T12:13:48Z</time>
      </trkpt>
      <trkpt lat="42.71672" lon="1.55416">
        <ele>1314.2595214844</ele>
        <time>2012-06-10T12:13:59Z</time>
      </trkpt>
      <trkpt lat="42.71676" lon="1.55413">
        <ele>1310.4143066406</ele>
        <time>2012-06-10T12:14:04Z</time>
      </trkpt>
      <trkpt lat="42.7168" lon="1.5541">
        <ele>1308.4916992188</ele>
        <time>2012-06-10T12:14:08Z</time>
      </trkpt>
      <trkpt lat="42.71684" lon="1.55407">
        <ele>1308.4916992188</ele>
        <time>2012-06-10T12:14:14Z</time>
      </trkpt>
      <trkpt lat="42.71688" lon="1.55403">
        <ele>1307.5302734375</ele>
        <time>2012-06-10T12:14:20Z</time>
      </trkpt>
      <trkpt lat="42.71692" lon="1.55401">
        <ele>1307.0495605469</ele>
        <time>2012-06-10T12:14:25Z</time>
      </trkpt>
      <trkpt lat="42.71696" lon="1.55399">
        <ele>1306.0881347656</ele>
        <time>2012-06-10T12:14:30Z</time>
      </trkpt>
      <trkpt lat="42.717" lon="1.55397">
        <ele>1304.6462402344</ele>
        <time>2012-06-10T12:14:34Z</time>
      </trkpt>
      <trkpt lat="42.71706" lon="1.55396">
        <ele>1306.0881347656</ele>
        <time>2012-06-10T12:14:41Z</time>
      </trkpt>
      <trkpt lat="42.71709" lon="1.55402">
        <ele>1305.6076660156</ele>
        <time>2012-06-10T12:14:46Z</time>
      </trkpt>
      <trkpt lat="42.71711" lon="1.55413">
        <ele>1309.453125</ele>
        <time>2012-06-10T12:14:56Z</time>
      </trkpt>
      <trkpt lat="42.71714" lon="1.55413">
        <ele>1314.740234375</ele>
        <time>2012-06-10T12:15:00Z</time>
      </trkpt>
      <trkpt lat="42.71719" lon="1.55412">
        <ele>1326.2761230469</ele>
        <time>2012-06-10T12:15:05Z</time>
      </trkpt>
      <trkpt lat="42.71722" lon="1.55413">
        <ele>1330.1213378906</ele>
        <time>2012-06-10T12:15:07Z</time>
      </trkpt>
      <trkpt lat="42.71732" lon="1.55415">
        <ele>1334.447265625</ele>
        <time>2012-06-10T12:15:16Z</time>
      </trkpt>
      <trkpt lat="42.71736" lon="1.55416">
        <ele>1339.734375</ele>
        <time>2012-06-10T12:15:21Z</time>
      </trkpt>
      <trkpt lat="42.7174" lon="1.55416">
        <ele>1348.8669433594</ele>
        <time>2012-06-10T12:15:27Z</time>
      </trkpt>
      <trkpt lat="42.71745" lon="1.55414">
        <ele>1366.6513671875</ele>
        <time>2012-06-10T12:15:32Z</time>
      </trkpt>
      <trkpt lat="42.71751" lon="1.55413">
        <ele>1383.955078125</ele>
        <time>2012-06-10T12:15:39Z</time>
      </trkpt>
      <trkpt lat="42.71755" lon="1.55411">
        <ele>1393.568359375</ele>
        <time>2012-06-10T12:15:43Z</time>
      </trkpt>
      <trkpt lat="42.71759" lon="1.5541">
        <ele>1408.46875</ele>
        <time>2012-06-10T12:15:48Z</time>
      </trkpt>
      <trkpt lat="42.71762" lon="1.55409">
        <ele>1419.5239257812</ele>
        <time>2012-06-10T12:15:52Z</time>
      </trkpt>
      <trkpt lat="42.71768" lon="1.5541">
        <ele>1433.9436035156</ele>
        <time>2012-06-10T12:15:57Z</time>
      </trkpt>
      <trkpt lat="42.71775" lon="1.55409">
        <ele>1454.1315917969</ele>
        <time>2012-06-10T12:16:03Z</time>
      </trkpt>
      <trkpt lat="42.71782" lon="1.55409">
        <ele>1478.6450195312</ele>
        <time>2012-06-10T12:16:09Z</time>
      </trkpt>
      <trkpt lat="42.71787" lon="1.55408">
        <ele>1497.8713378906</ele>
        <time>2012-06-10T12:16:13Z</time>
      </trkpt>
      <trkpt lat="42.71794" lon="1.55398">
        <ele>1545.9372558594</ele>
        <time>2012-06-10T12:16:18Z</time>
      </trkpt>
      <trkpt lat="42.71798" lon="1.55394">
        <ele>1568.5283203125</ele>
        <time>2012-06-10T12:16:22Z</time>
      </trkpt>
      <trkpt lat="42.718" lon="1.55392">
        <ele>1576.6994628906</ele>
        <time>2012-06-10T12:16:26Z</time>
      </trkpt>
      <trkpt lat="42.71802" lon="1.55392">
        <ele>1585.83203125</ele>
        <time>2012-06-10T12:16:32Z</time>
      </trkpt>
      <trkpt lat="42.71807" lon="1.55396">
        <ele>1587.2739257812</ele>
        <time>2012-06-10T12:16:38Z</time>
      </trkpt>
      <trkpt lat="42.71811" lon="1.55399">
        <ele>1585.83203125</ele>
        <time>2012-06-10T12:16:42Z</time>
      </trkpt>
      <trkpt lat="42.71817" lon="1.55408">
        <ele>1570.4509277344</ele>
        <time>2012-06-10T12:16:50Z</time>
      </trkpt>
      <trkpt lat="42.7182" lon="1.55415">
        <ele>1552.6665039062</ele>
        <time>2012-06-10T12:16:54Z</time>
      </trkpt>
      <trkpt lat="42.71829" lon="1.55421">
        <ele>1546.8984375</ele>
        <time>2012-06-10T12:17:00Z</time>
      </trkpt>
      <trkpt lat="42.71835" lon="1.5542">
        <ele>1541.611328125</ele>
        <time>2012-06-10T12:17:05Z</time>
      </trkpt>
      <trkpt lat="42.71838" lon="1.55415">
        <ele>1535.8435058594</ele>
        <time>2012-06-10T12:17:10Z</time>
      </trkpt>
      <trkpt lat="42.71843" lon="1.55412">
        <ele>1531.0368652344</ele>
        <time>2012-06-10T12:17:15Z</time>
      </trkpt>
      <trkpt lat="42.7185" lon="1.5541">
        <ele>1524.7883300781</ele>
        <time>2012-06-10T12:17:20Z</time>
      </trkpt>
      <trkpt lat="42.71854" lon="1.55406">
        <ele>1517.0979003906</ele>
        <time>2012-06-10T12:17:24Z</time>
      </trkpt>
      <trkpt lat="42.71861" lon="1.55406">
        <ele>1508.9265136719</ele>
        <time>2012-06-10T12:17:29Z</time>
      </trkpt>
      <trkpt lat="42.71864" lon="1.55407">
        <ele>1502.6779785156</ele>
        <time>2012-06-10T12:17:33Z</time>
      </trkpt>
      <trkpt lat="42.71868" lon="1.55408">
        <ele>1494.9873046875</ele>
        <time>2012-06-10T12:17:38Z</time>
      </trkpt>
      <trkpt lat="42.71867" lon="1.55398">
        <ele>1480.0869140625</ele>
        <time>2012-06-10T12:17:43Z</time>
      </trkpt>
      <trkpt lat="42.71868" lon="1.55393">
        <ele>1469.9931640625</ele>
        <time>2012-06-10T12:17:45Z</time>
      </trkpt>
      <trkpt lat="42.71875" lon="1.55385">
        <ele>1455.5734863281</ele>
        <time>2012-06-10T12:17:51Z</time>
      </trkpt>
      <trkpt lat="42.71878" lon="1.55383">
        <ele>1449.8054199219</ele>
        <time>2012-06-10T12:17:56Z</time>
      </trkpt>
      <trkpt lat="42.71885" lon="1.55384">
        <ele>1439.7116699219</ele>
        <time>2012-06-10T12:18:02Z</time>
      </trkpt>
      <trkpt lat="42.71889" lon="1.55389">
        <ele>1428.6564941406</ele>
        <time>2012-06-10T12:18:06Z</time>
      </trkpt>
      <trkpt lat="42.71892" lon="1.5539">
        <ele>1422.888671875</ele>
        <time>2012-06-10T12:18:09Z</time>
      </trkpt>
      <trkpt lat="42.71893" lon="1.5539">
        <ele>1418.5625</ele>
        <time>2012-06-10T12:18:11Z</time>
      </trkpt>
      <trkpt lat="42.71898" lon="1.55391">
        <ele>1412.7946777344</ele>
        <time>2012-06-10T12:18:15Z</time>
      </trkpt>
      <trkpt lat="42.71905" lon="1.55392">
        <ele>1407.98828125</ele>
        <time>2012-06-10T12:18:21Z</time>
      </trkpt>
      <trkpt lat="42.71906" lon="1.55387">
        <ele>1405.5849609375</ele>
        <time>2012-06-10T12:18:26Z</time>
      </trkpt>
      <trkpt lat="42.71898" lon="1.55386">
        <ele>1397.4135742188</ele>
        <time>2012-06-10T12:18:32Z</time>
      </trkpt>
      <trkpt lat="42.71895" lon="1.55387">
        <ele>1391.6457519531</ele>
        <time>2012-06-10T12:18:38Z</time>
      </trkpt>
      <trkpt lat="42.71894" lon="1.55389">
        <ele>1391.1650390625</ele>
        <time>2012-06-10T12:18:39Z</time>
      </trkpt>
      <trkpt lat="42.7189" lon="1.55392">
        <ele>1385.3969726562</ele>
        <time>2012-06-10T12:18:44Z</time>
      </trkpt>
      <trkpt lat="42.71887" lon="1.55391">
        <ele>1377.7065429688</ele>
        <time>2012-06-10T12:18:49Z</time>
      </trkpt>
      <trkpt lat="42.71893" lon="1.55393">
        <ele>1366.1706542969</ele>
        <time>2012-06-10T12:18:57Z</time>
      </trkpt>
      <trkpt lat="42.71898" lon="1.55398">
        <ele>1365.2094726562</ele>
        <time>2012-06-10T12:19:02Z</time>
      </trkpt>
      <trkpt lat="42.71903" lon="1.55403">
        <ele>1362.3254394531</ele>
        <time>2012-06-10T12:19:07Z</time>
      </trkpt>
      <trkpt lat="42.71905" lon="1.55406">
        <ele>1362.3254394531</ele>
        <time>2012-06-10T12:19:09Z</time>
      </trkpt>
      <trkpt lat="42.71908" lon="1.55409">
        <ele>1358.9609375</ele>
        <time>2012-06-10T12:19:14Z</time>
      </trkpt>
      <trkpt lat="42.7191" lon="1.55409">
        <ele>1357.0383300781</ele>
        <time>2012-06-10T12:19:17Z</time>
      </trkpt>
      <trkpt lat="42.71914" lon="1.55409">
        <ele>1351.7509765625</ele>
        <time>2012-06-10T12:19:22Z</time>
      </trkpt>
      <trkpt lat="42.71923" lon="1.55402">
        <ele>1345.0217285156</ele>
        <time>2012-06-10T12:19:30Z</time>
      </trkpt>
      <trkpt lat="42.7193" lon="1.55402">
        <ele>1342.6186523438</ele>
        <time>2012-06-10T12:19:35Z</time>
      </trkpt>
      <trkpt lat="42.71935" lon="1.55405">
        <ele>1337.3310546875</ele>
        <time>2012-06-10T12:19:40Z</time>
      </trkpt>
      <trkpt lat="42.71938" lon="1.55405">
        <ele>1333.9665527344</ele>
        <time>2012-06-10T12:19:43Z</time>
      </trkpt>
      <trkpt lat="42.71944" lon="1.55406">
        <ele>1327.7180175781</ele>
        <time>2012-06-10T12:19:47Z</time>
      </trkpt>
      <trkpt lat="42.71952" lon="1.5541">
        <ele>1320.9887695312</ele>
        <time>2012-06-10T12:19:54Z</time>
      </trkpt>
      <trkpt lat="42.71956" lon="1.55413">
        <ele>1316.1821289062</ele>
        <time>2012-06-10T12:19:58Z</time>
      </trkpt>
      <trkpt lat="42.7196" lon="1.55414">
        <ele>1311.8564453125</ele>
        <time>2012-06-10T12:20:02Z</time>
      </trkpt>
      <trkpt lat="42.71967" lon="1.55417">
        <ele>1303.6850585938</ele>
        <time>2012-06-10T12:20:09Z</time>
      </trkpt>
      <trkpt lat="42.71972" lon="1.55419">
        <ele>1297.4365234375</ele>
        <time>2012-06-10T12:20:14Z</time>
      </trkpt>
      <trkpt lat="42.71977" lon="1.55418">
        <ele>1290.70703125</ele>
        <time>2012-06-10T12:20:19Z</time>
      </trkpt>
      <trkpt lat="42.71984" lon="1.55417">
        <ele>1283.9780273438</ele>
        <time>2012-06-10T12:20:26Z</time>
      </trkpt>
      <trkpt lat="42.71992" lon="1.55416">
        <ele>1275.806640625</ele>
        <time>2012-06-10T12:20:33Z</time>
      </trkpt>
      <trkpt lat="42.71998" lon="1.55418">
        <ele>1271.0002441406</ele>
        <time>2012-06-10T12:20:38Z</time>
      </trkpt>
      <trkpt lat="42.72002" lon="1.55419">
        <ele>1269.0776367188</ele>
        <time>2012-06-10T12:20:43Z</time>
      </trkpt>
      <trkpt lat="42.72003" lon="1.55419">
        <ele>1268.1162109375</ele>
        <time>2012-06-10T12:20:44Z</time>
      </trkpt>
      <trkpt lat="42.72011" lon="1.55422">
        <ele>1262.3483886719</ele>
        <time>2012-06-10T12:20:52Z</time>
      </trkpt>
      <trkpt lat="42.72018" lon="1.55423">
        <ele>1257.5417480469</ele>
        <time>2012-06-10T12:20:59Z</time>
      </trkpt>
      <trkpt lat="42.72021" lon="1.55424">
        <ele>1255.1384277344</ele>
        <time>2012-06-10T12:21:03Z</time>
      </trkpt>
      <trkpt lat="42.72025" lon="1.55423">
        <ele>1252.7351074219</ele>
        <time>2012-06-10T12:21:09Z</time>
      </trkpt>
      <trkpt lat="42.72029" lon="1.55423">
        <ele>1253.2158203125</ele>
        <time>2012-06-10T12:21:13Z</time>
      </trkpt>
      <trkpt lat="42.72033" lon="1.55423">
        <ele>1252.7351074219</ele>
        <time>2012-06-10T12:21:18Z</time>
      </trkpt>
      <trkpt lat="42.72036" lon="1.5542">
        <ele>1251.2932128906</ele>
        <time>2012-06-10T12:21:21Z</time>
      </trkpt>
      <trkpt lat="42.72039" lon="1.55413">
        <ele>1249.3706054688</ele>
        <time>2012-06-10T12:21:26Z</time>
      </trkpt>
      <trkpt lat="42.72043" lon="1.55413">
        <ele>1247.9287109375</ele>
        <time>2012-06-10T12:21:32Z</time>
      </trkpt>
      <trkpt lat="42.72048" lon="1.55413">
        <ele>1244.0834960938</ele>
        <time>2012-06-10T12:21:38Z</time>
      </trkpt>
      <trkpt lat="42.72051" lon="1.55412">
        <ele>1244.0834960938</ele>
        <time>2012-06-10T12:21:42Z</time>
      </trkpt>
      <trkpt lat="42.72055" lon="1.55411">
        <ele>1243.1218261719</ele>
        <time>2012-06-10T12:21:47Z</time>
      </trkpt>
      <trkpt lat="42.7206" lon="1.5541">
        <ele>1241.19921875</ele>
        <time>2012-06-10T12:21:51Z</time>
      </trkpt>
      <trkpt lat="42.72063" lon="1.55409">
        <ele>1238.7961425781</ele>
        <time>2012-06-10T12:21:54Z</time>
      </trkpt>
      <trkpt lat="42.72066" lon="1.55408">
        <ele>1237.3540039062</ele>
        <time>2012-06-10T12:21:57Z</time>
      </trkpt>
      <trkpt lat="42.72072" lon="1.55409">
        <ele>1237.8347167969</ele>
        <time>2012-06-10T12:22:04Z</time>
      </trkpt>
      <trkpt lat="42.72075" lon="1.55408">
        <ele>1236.8732910156</ele>
        <time>2012-06-10T12:22:08Z</time>
      </trkpt>
      <trkpt lat="42.72081" lon="1.55408">
        <ele>1236.3928222656</ele>
        <time>2012-06-10T12:22:15Z</time>
      </trkpt>
      <trkpt lat="42.72084" lon="1.55407">
        <ele>1236.3928222656</ele>
        <time>2012-06-10T12:22:18Z</time>
      </trkpt>
      <trkpt lat="42.72088" lon="1.55405">
        <ele>1234.9509277344</ele>
        <time>2012-06-10T12:22:21Z</time>
      </trkpt>
      <trkpt lat="42.72093" lon="1.55403">
        <ele>1231.1057128906</ele>
        <time>2012-06-10T12:22:27Z</time>
      </trkpt>
      <trkpt lat="42.72098" lon="1.55402">
        <ele>1229.6635742188</ele>
        <time>2012-06-10T12:22:32Z</time>
      </trkpt>
      <trkpt lat="42.72102" lon="1.554">
        <ele>1227.2602539062</ele>
        <time>2012-06-10T12:22:37Z</time>
      </trkpt>
      <trkpt lat="42.72108" lon="1.55398">
        <ele>1225.3374023438</ele>
        <time>2012-06-10T12:22:43Z</time>
      </trkpt>
      <trkpt lat="42.72114" lon="1.55397">
        <ele>1222.4536132812</ele>
        <time>2012-06-10T12:22:49Z</time>
      </trkpt>
      <trkpt lat="42.72118" lon="1.55395">
        <ele>1220.5310058594</ele>
        <time>2012-06-10T12:22:53Z</time>
      </trkpt>
      <trkpt lat="42.72122" lon="1.55394">
        <ele>1218.1276855469</ele>
        <time>2012-06-10T12:22:58Z</time>
      </trkpt>
      <trkpt lat="42.72125" lon="1.55392">
        <ele>1216.205078125</ele>
        <time>2012-06-10T12:23:01Z</time>
      </trkpt>
      <trkpt lat="42.72131" lon="1.55389">
        <ele>1214.2824707031</ele>
        <time>2012-06-10T12:23:07Z</time>
      </trkpt>
      <trkpt lat="42.72135" lon="1.55388">
        <ele>1213.3212890625</ele>
        <time>2012-06-10T12:23:11Z</time>
      </trkpt>
      <trkpt lat="42.72138" lon="1.55384">
        <ele>1212.3598632812</ele>
        <time>2012-06-10T12:23:15Z</time>
      </trkpt>
      <trkpt lat="42.72141" lon="1.55381">
        <ele>1210.9177246094</ele>
        <time>2012-06-10T12:23:20Z</time>
      </trkpt>
      <trkpt lat="42.72143" lon="1.55379">
        <ele>1209.9562988281</ele>
        <time>2012-06-10T12:23:22Z</time>
      </trkpt>
      <trkpt lat="42.72148" lon="1.55374">
        <ele>1208.5144042969</ele>
        <time>2012-06-10T12:23:27Z</time>
      </trkpt>
      <trkpt lat="42.72152" lon="1.55363">
        <ele>1204.1887207031</ele>
        <time>2012-06-10T12:23:35Z</time>
      </trkpt>
      <trkpt lat="42.72155" lon="1.55359">
        <ele>1199.8627929688</ele>
        <time>2012-06-10T12:23:41Z</time>
      </trkpt>
      <trkpt lat="42.72159" lon="1.55357">
        <ele>1196.017578125</ele>
        <time>2012-06-10T12:23:46Z</time>
      </trkpt>
      <trkpt lat="42.72162" lon="1.5536">
        <ele>1193.1333007812</ele>
        <time>2012-06-10T12:23:52Z</time>
      </trkpt>
      <trkpt lat="42.72164" lon="1.55362">
        <ele>1189.7687988281</ele>
        <time>2012-06-10T12:23:59Z</time>
      </trkpt>
      <trkpt lat="42.72166" lon="1.55361">
        <ele>1186.884765625</ele>
        <time>2012-06-10T12:24:05Z</time>
      </trkpt>
      <trkpt lat="42.72169" lon="1.55358">
        <ele>1184.4816894531</ele>
        <time>2012-06-10T12:24:11Z</time>
      </trkpt>
      <trkpt lat="42.72171" lon="1.55356">
        <ele>1184.0009765625</ele>
        <time>2012-06-10T12:24:16Z</time>
      </trkpt>
      <trkpt lat="42.72174" lon="1.55354">
        <ele>1183.5202636719</ele>
        <time>2012-06-10T12:24:22Z</time>
      </trkpt>
      <trkpt lat="42.72171" lon="1.55348">
        <ele>1187.3654785156</ele>
        <time>2012-06-10T12:24:28Z</time>
      </trkpt>
      <trkpt lat="42.72171" lon="1.55347">
        <ele>1183.5202636719</ele>
        <time>2012-06-10T12:24:36Z</time>
      </trkpt>
      <trkpt lat="42.72171" lon="1.55345">
        <ele>1180.6364746094</ele>
        <time>2012-06-10T12:24:41Z</time>
      </trkpt>
      <trkpt lat="42.72173" lon="1.55345">
        <ele>1177.7521972656</ele>
        <time>2012-06-10T12:24:48Z</time>
      </trkpt>
      <trkpt lat="42.72177" lon="1.55342">
        <ele>1174.3876953125</ele>
        <time>2012-06-10T12:24:55Z</time>
      </trkpt>
      <trkpt lat="42.72184" lon="1.55341">
        <ele>1170.5424804688</ele>
        <time>2012-06-10T12:25:04Z</time>
      </trkpt>
      <trkpt lat="42.72186" lon="1.55339">
        <ele>1172.4650878906</ele>
        <time>2012-06-10T12:25:08Z</time>
      </trkpt>
      <trkpt lat="42.7219" lon="1.55335">
        <ele>1172.9458007812</ele>
        <time>2012-06-10T12:25:13Z</time>
      </trkpt>
      <trkpt lat="42.72188" lon="1.55332">
        <ele>1171.0231933594</ele>
        <time>2012-06-10T12:25:18Z</time>
      </trkpt>
      <trkpt lat="42.72189" lon="1.55328">
        <ele>1168.6198730469</ele>
        <time>2012-06-10T12:25:25Z</time>
      </trkpt>
      <trkpt lat="42.72189" lon="1.55324">
        <ele>1167.6584472656</ele>
        <time>2012-06-10T12:25:32Z</time>
      </trkpt>
      <trkpt lat="42.72195" lon="1.55304">
        <ele>1179.1940917969</ele>
        <time>2012-06-10T12:25:51Z</time>
      </trkpt>
      <trkpt lat="42.72202" lon="1.55298">
        <ele>1176.791015625</ele>
        <time>2012-06-10T12:26:08Z</time>
      </trkpt>
      <trkpt lat="42.72205" lon="1.55281">
        <ele>1188.8076171875</ele>
        <time>2012-06-10T12:26:22Z</time>
      </trkpt>
      <trkpt lat="42.72209" lon="1.55278">
        <ele>1184.0009765625</ele>
        <time>2012-06-10T12:26:28Z</time>
      </trkpt>
      <trkpt lat="42.72213" lon="1.55275">
        <ele>1182.0783691406</ele>
        <time>2012-06-10T12:26:34Z</time>
      </trkpt>
      <trkpt lat="42.72215" lon="1.55267">
        <ele>1179.6748046875</ele>
        <time>2012-06-10T12:26:46Z</time>
      </trkpt>
      <trkpt lat="42.72222" lon="1.55261">
        <ele>1173.4265136719</ele>
        <time>2012-06-10T12:27:01Z</time>
      </trkpt>
      <trkpt lat="42.72232" lon="1.55255">
        <ele>1161.890625</ele>
        <time>2012-06-10T12:27:21Z</time>
      </trkpt>
      <trkpt lat="42.72234" lon="1.5525">
        <ele>1167.1779785156</ele>
        <time>2012-06-10T12:27:25Z</time>
      </trkpt>
      <trkpt lat="42.72239" lon="1.55245">
        <ele>1165.7360839844</ele>
        <time>2012-06-10T12:27:31Z</time>
      </trkpt>
      <trkpt lat="42.72242" lon="1.55241">
        <ele>1164.2939453125</ele>
        <time>2012-06-10T12:27:37Z</time>
      </trkpt>
      <trkpt lat="42.72247" lon="1.55237">
        <ele>1162.8518066406</ele>
        <time>2012-06-10T12:27:43Z</time>
      </trkpt>
      <trkpt lat="42.7225" lon="1.55234">
        <ele>1161.4099121094</ele>
        <time>2012-06-10T12:27:50Z</time>
      </trkpt>
      <trkpt lat="42.72256" lon="1.5523">
        <ele>1159.4873046875</ele>
        <time>2012-06-10T12:27:56Z</time>
      </trkpt>
      <trkpt lat="42.72261" lon="1.55218">
        <ele>1172.4650878906</ele>
        <time>2012-06-10T12:28:06Z</time>
      </trkpt>
      <trkpt lat="42.72264" lon="1.55214">
        <ele>1171.984375</ele>
        <time>2012-06-10T12:28:12Z</time>
      </trkpt>
      <trkpt lat="42.72271" lon="1.55214">
        <ele>1168.1391601562</ele>
        <time>2012-06-10T12:28:18Z</time>
      </trkpt>
      <trkpt lat="42.72272" lon="1.55212">
        <ele>1166.697265625</ele>
        <time>2012-06-10T12:28:21Z</time>
      </trkpt>
      <trkpt lat="42.72276" lon="1.55209">
        <ele>1164.7746582031</ele>
        <time>2012-06-10T12:28:26Z</time>
      </trkpt>
      <trkpt lat="42.72279" lon="1.55207">
        <ele>1161.4099121094</ele>
        <time>2012-06-10T12:28:31Z</time>
      </trkpt>
      <trkpt lat="42.72284" lon="1.55205">
        <ele>1158.0454101562</ele>
        <time>2012-06-10T12:28:37Z</time>
      </trkpt>
      <trkpt lat="42.7229" lon="1.55196">
        <ele>1163.3325195312</ele>
        <time>2012-06-10T12:28:44Z</time>
      </trkpt>
      <trkpt lat="42.72295" lon="1.55194">
        <ele>1161.4099121094</ele>
        <time>2012-06-10T12:28:49Z</time>
      </trkpt>
      <trkpt lat="42.72298" lon="1.55193">
        <ele>1159.4873046875</ele>
        <time>2012-06-10T12:28:55Z</time>
      </trkpt>
      <trkpt lat="42.72303" lon="1.55196">
        <ele>1149.3935546875</ele>
        <time>2012-06-10T12:29:01Z</time>
      </trkpt>
      <trkpt lat="42.72308" lon="1.55197">
        <ele>1140.7414550781</ele>
        <time>2012-06-10T12:29:07Z</time>
      </trkpt>
      <trkpt lat="42.72313" lon="1.55193">
        <ele>1137.376953125</ele>
        <time>2012-06-10T12:29:13Z</time>
      </trkpt>
      <trkpt lat="42.72318" lon="1.55191">
        <ele>1135.4543457031</ele>
        <time>2012-06-10T12:29:19Z</time>
      </trkpt>
      <trkpt lat="42.7232" lon="1.55188">
        <ele>1134.9738769531</ele>
        <time>2012-06-10T12:29:23Z</time>
      </trkpt>
      <trkpt lat="42.72324" lon="1.55188">
        <ele>1129.2055664062</ele>
        <time>2012-06-10T12:29:28Z</time>
      </trkpt>
      <trkpt lat="42.72326" lon="1.55184">
        <ele>1128.2443847656</ele>
        <time>2012-06-10T12:29:32Z</time>
      </trkpt>
      <trkpt lat="42.72327" lon="1.55177">
        <ele>1127.763671875</ele>
        <time>2012-06-10T12:29:37Z</time>
      </trkpt>
      <trkpt lat="42.7233" lon="1.55172">
        <ele>1126.8024902344</ele>
        <time>2012-06-10T12:29:41Z</time>
      </trkpt>
      <trkpt lat="42.72338" lon="1.55165">
        <ele>1127.763671875</ele>
        <time>2012-06-10T12:29:49Z</time>
      </trkpt>
      <trkpt lat="42.72342" lon="1.55159">
        <ele>1129.6862792969</ele>
        <time>2012-06-10T12:29:53Z</time>
      </trkpt>
      <trkpt lat="42.72343" lon="1.55158">
        <ele>1129.2055664062</ele>
        <time>2012-06-10T12:29:55Z</time>
      </trkpt>
      <trkpt lat="42.72346" lon="1.55157">
        <ele>1121.9958496094</ele>
        <time>2012-06-10T12:30:01Z</time>
      </trkpt>
      <trkpt lat="42.72349" lon="1.55152">
        <ele>1117.669921875</ele>
        <time>2012-06-10T12:30:07Z</time>
      </trkpt>
      <trkpt lat="42.72352" lon="1.55143">
        <ele>1114.3051757812</ele>
        <time>2012-06-10T12:30:14Z</time>
      </trkpt>
      <trkpt lat="42.72353" lon="1.55141">
        <ele>1112.86328125</ele>
        <time>2012-06-10T12:30:16Z</time>
      </trkpt>
      <trkpt lat="42.72354" lon="1.55136">
        <ele>1111.9020996094</ele>
        <time>2012-06-10T12:30:19Z</time>
      </trkpt>
      <trkpt lat="42.72358" lon="1.55128">
        <ele>1109.9792480469</ele>
        <time>2012-06-10T12:30:26Z</time>
      </trkpt>
      <trkpt lat="42.72359" lon="1.55127">
        <ele>1110.9406738281</ele>
        <time>2012-06-10T12:30:32Z</time>
      </trkpt>
      <trkpt lat="42.72359" lon="1.55125">
        <ele>1114.3051757812</ele>
        <time>2012-06-10T12:30:54Z</time>
      </trkpt>
      <trkpt lat="42.72358" lon="1.55123">
        <ele>1109.0180664062</ele>
        <time>2012-06-10T12:31:08Z</time>
      </trkpt>
      <trkpt lat="42.72362" lon="1.55118">
        <ele>1106.6147460938</ele>
        <time>2012-06-10T12:31:13Z</time>
      </trkpt>
      <trkpt lat="42.72364" lon="1.55109">
        <ele>1104.2116699219</ele>
        <time>2012-06-10T12:31:20Z</time>
      </trkpt>
      <trkpt lat="42.72367" lon="1.55105">
        <ele>1104.6921386719</ele>
        <time>2012-06-10T12:31:24Z</time>
      </trkpt>
      <trkpt lat="42.72368" lon="1.55099">
        <ele>1106.6147460938</ele>
        <time>2012-06-10T12:31:28Z</time>
      </trkpt>
      <trkpt lat="42.72369" lon="1.55096">
        <ele>1107.0954589844</ele>
        <time>2012-06-10T12:31:31Z</time>
      </trkpt>
      <trkpt lat="42.72371" lon="1.55092">
        <ele>1107.576171875</ele>
        <time>2012-06-10T12:31:34Z</time>
      </trkpt>
      <trkpt lat="42.72375" lon="1.55083">
        <ele>1107.576171875</ele>
        <time>2012-06-10T12:31:41Z</time>
      </trkpt>
      <trkpt lat="42.7238" lon="1.55076">
        <ele>1101.8083496094</ele>
        <time>2012-06-10T12:31:48Z</time>
      </trkpt>
      <trkpt lat="42.72385" lon="1.55069">
        <ele>1097.962890625</ele>
        <time>2012-06-10T12:31:56Z</time>
      </trkpt>
      <trkpt lat="42.72385" lon="1.55066">
        <ele>1096.0402832031</ele>
        <time>2012-06-10T12:32:01Z</time>
      </trkpt>
      <trkpt lat="42.7238" lon="1.55069">
        <ele>1095.0788574219</ele>
        <time>2012-06-10T12:32:05Z</time>
      </trkpt>
      <trkpt lat="42.72377" lon="1.55073">
        <ele>1094.1176757812</ele>
        <time>2012-06-10T12:32:09Z</time>
      </trkpt>
      <trkpt lat="42.72371" lon="1.55077">
        <ele>1092.1950683594</ele>
        <time>2012-06-10T12:32:15Z</time>
      </trkpt>
      <trkpt lat="42.72368" lon="1.55081">
        <ele>1090.2724609375</ele>
        <time>2012-06-10T12:32:19Z</time>
      </trkpt>
      <trkpt lat="42.72366" lon="1.55081">
        <ele>1089.7917480469</ele>
        <time>2012-06-10T12:32:21Z</time>
      </trkpt>
      <trkpt lat="42.72367" lon="1.55076">
        <ele>1089.3110351562</ele>
        <time>2012-06-10T12:32:24Z</time>
      </trkpt>
      <trkpt lat="42.7237" lon="1.55069">
        <ele>1090.2724609375</ele>
        <time>2012-06-10T12:32:31Z</time>
      </trkpt>
      <trkpt lat="42.72374" lon="1.55064">
        <ele>1088.3498535156</ele>
        <time>2012-06-10T12:32:37Z</time>
      </trkpt>
      <trkpt lat="42.72378" lon="1.5506">
        <ele>1087.869140625</ele>
        <time>2012-06-10T12:32:43Z</time>
      </trkpt>
      <trkpt lat="42.72382" lon="1.55056">
        <ele>1086.4272460938</ele>
        <time>2012-06-10T12:32:49Z</time>
      </trkpt>
      <trkpt lat="42.72385" lon="1.55051">
        <ele>1084.9853515625</ele>
        <time>2012-06-10T12:32:55Z</time>
      </trkpt>
      <trkpt lat="42.72388" lon="1.55046">
        <ele>1085.4658203125</ele>
        <time>2012-06-10T12:33:01Z</time>
      </trkpt>
      <trkpt lat="42.72391" lon="1.55038">
        <ele>1083.54296875</ele>
        <time>2012-06-10T12:33:07Z</time>
      </trkpt>
      <trkpt lat="42.7239" lon="1.55034">
        <ele>1082.1010742188</ele>
        <time>2012-06-10T12:33:12Z</time>
      </trkpt>
      <trkpt lat="42.72393" lon="1.55022">
        <ele>1079.6977539062</ele>
        <time>2012-06-10T12:33:20Z</time>
      </trkpt>
      <trkpt lat="42.72393" lon="1.5502">
        <ele>1079.2170410156</ele>
        <time>2012-06-10T12:33:22Z</time>
      </trkpt>
      <trkpt lat="42.72393" lon="1.55016">
        <ele>1078.7365722656</ele>
        <time>2012-06-10T12:33:25Z</time>
      </trkpt>
      <trkpt lat="42.72395" lon="1.55007">
        <ele>1078.255859375</ele>
        <time>2012-06-10T12:33:31Z</time>
      </trkpt>
      <trkpt lat="42.72398" lon="1.54999">
        <ele>1075.3718261719</ele>
        <time>2012-06-10T12:33:38Z</time>
      </trkpt>
      <trkpt lat="42.72402" lon="1.54993">
        <ele>1073.4494628906</ele>
        <time>2012-06-10T12:33:44Z</time>
      </trkpt>
      <trkpt lat="42.72405" lon="1.54987">
        <ele>1072.4880371094</ele>
        <time>2012-06-10T12:33:50Z</time>
      </trkpt>
      <trkpt lat="42.72408" lon="1.54982">
        <ele>1071.0461425781</ele>
        <time>2012-06-10T12:33:57Z</time>
      </trkpt>
      <trkpt lat="42.72411" lon="1.54977">
        <ele>1070.5654296875</ele>
        <time>2012-06-10T12:34:03Z</time>
      </trkpt>
      <trkpt lat="42.72415" lon="1.54973">
        <ele>1070.0847167969</ele>
        <time>2012-06-10T12:34:09Z</time>
      </trkpt>
      <trkpt lat="42.7242" lon="1.5497">
        <ele>1068.6428222656</ele>
        <time>2012-06-10T12:34:14Z</time>
      </trkpt>
      <trkpt lat="42.72425" lon="1.54967">
        <ele>1066.2392578125</ele>
        <time>2012-06-10T12:34:21Z</time>
      </trkpt>
      <trkpt lat="42.72429" lon="1.54963">
        <ele>1064.3166503906</ele>
        <time>2012-06-10T12:34:26Z</time>
      </trkpt>
      <trkpt lat="42.72435" lon="1.5496">
        <ele>1062.8747558594</ele>
        <time>2012-06-10T12:34:32Z</time>
      </trkpt>
      <trkpt lat="42.7244" lon="1.54957">
        <ele>1060.4714355469</ele>
        <time>2012-06-10T12:34:39Z</time>
      </trkpt>
      <trkpt lat="42.72444" lon="1.54953">
        <ele>1060.4714355469</ele>
        <time>2012-06-10T12:34:45Z</time>
      </trkpt>
      <trkpt lat="42.72449" lon="1.54952">
        <ele>1059.9907226562</ele>
        <time>2012-06-10T12:34:51Z</time>
      </trkpt>
      <trkpt lat="42.72454" lon="1.54948">
        <ele>1059.5102539062</ele>
        <time>2012-06-10T12:34:57Z</time>
      </trkpt>
      <trkpt lat="42.72457" lon="1.54947">
        <ele>1058.548828125</ele>
        <time>2012-06-10T12:35:02Z</time>
      </trkpt>
      <trkpt lat="42.72459" lon="1.54945">
        <ele>1058.548828125</ele>
        <time>2012-06-10T12:35:06Z</time>
      </trkpt>
      <trkpt lat="42.72461" lon="1.54942">
        <ele>1060.4714355469</ele>
        <time>2012-06-10T12:35:12Z</time>
      </trkpt>
      <trkpt lat="42.72463" lon="1.5494">
        <ele>1058.068359375</ele>
        <time>2012-06-10T12:35:16Z</time>
      </trkpt>
      <trkpt lat="42.72467" lon="1.54938">
        <ele>1059.5102539062</ele>
        <time>2012-06-10T12:35:20Z</time>
      </trkpt>
      <trkpt lat="42.7247" lon="1.54935">
        <ele>1060.9521484375</ele>
        <time>2012-06-10T12:35:25Z</time>
      </trkpt>
      <trkpt lat="42.72474" lon="1.54932">
        <ele>1066.2392578125</ele>
        <time>2012-06-10T12:35:30Z</time>
      </trkpt>
      <trkpt lat="42.7248" lon="1.5493">
        <ele>1069.1235351562</ele>
        <time>2012-06-10T12:35:36Z</time>
      </trkpt>
      <trkpt lat="42.72487" lon="1.54929">
        <ele>1072.0073242188</ele>
        <time>2012-06-10T12:35:41Z</time>
      </trkpt>
      <trkpt lat="42.72493" lon="1.54928">
        <ele>1074.4106445312</ele>
        <time>2012-06-10T12:35:47Z</time>
      </trkpt>
      <trkpt lat="42.72496" lon="1.54925">
        <ele>1078.255859375</ele>
        <time>2012-06-10T12:35:51Z</time>
      </trkpt>
      <trkpt lat="42.72503" lon="1.54926">
        <ele>1079.2170410156</ele>
        <time>2012-06-10T12:35:56Z</time>
      </trkpt>
      <trkpt lat="42.72505" lon="1.54928">
        <ele>1078.255859375</ele>
        <time>2012-06-10T12:35:58Z</time>
      </trkpt>
      <trkpt lat="42.72508" lon="1.54936">
        <ele>1076.8139648438</ele>
        <time>2012-06-10T12:36:04Z</time>
      </trkpt>
      <trkpt lat="42.72513" lon="1.54937">
        <ele>1076.3332519531</ele>
        <time>2012-06-10T12:36:09Z</time>
      </trkpt>
      <trkpt lat="42.7252" lon="1.54936">
        <ele>1073.9299316406</ele>
        <time>2012-06-10T12:36:13Z</time>
      </trkpt>
      <trkpt lat="42.72527" lon="1.54938">
        <ele>1069.6042480469</ele>
        <time>2012-06-10T12:36:18Z</time>
      </trkpt>
      <trkpt lat="42.72531" lon="1.5494">
        <ele>1067.6811523438</ele>
        <time>2012-06-10T12:36:22Z</time>
      </trkpt>
      <trkpt lat="42.72536" lon="1.54941">
        <ele>1064.7973632812</ele>
        <time>2012-06-10T12:36:26Z</time>
      </trkpt>
      <trkpt lat="42.72537" lon="1.54941">
        <ele>1063.35546875</ele>
        <time>2012-06-10T12:36:27Z</time>
      </trkpt>
      <trkpt lat="42.72545" lon="1.54942">
        <ele>1062.3940429688</ele>
        <time>2012-06-10T12:36:33Z</time>
      </trkpt>
      <trkpt lat="42.72549" lon="1.54945">
        <ele>1059.5102539062</ele>
        <time>2012-06-10T12:36:36Z</time>
      </trkpt>
      <trkpt lat="42.72556" lon="1.54944">
        <ele>1058.548828125</ele>
        <time>2012-06-10T12:36:42Z</time>
      </trkpt>
      <trkpt lat="42.72556" lon="1.54944">
        <ele>1058.068359375</ele>
        <time>2012-06-10T12:36:43Z</time>
      </trkpt>
      <trkpt lat="42.72561" lon="1.54944">
        <ele>1055.1843261719</ele>
        <time>2012-06-10T12:36:46Z</time>
      </trkpt>
      <trkpt lat="42.72572" lon="1.54939">
        <ele>1054.2231445312</ele>
        <time>2012-06-10T12:36:53Z</time>
      </trkpt>
      <trkpt lat="42.72579" lon="1.54937">
        <ele>1052.3002929688</ele>
        <time>2012-06-10T12:36:58Z</time>
      </trkpt>
      <trkpt lat="42.72582" lon="1.54936">
        <ele>1051.3388671875</ele>
        <time>2012-06-10T12:37:01Z</time>
      </trkpt>
      <trkpt lat="42.72589" lon="1.54939">
        <ele>1049.8969726562</ele>
        <time>2012-06-10T12:37:12Z</time>
      </trkpt>
      <trkpt lat="42.72594" lon="1.5494">
        <ele>1048.935546875</ele>
        <time>2012-06-10T12:37:19Z</time>
      </trkpt>
      <trkpt lat="42.72598" lon="1.54941">
        <ele>1047.4936523438</ele>
        <time>2012-06-10T12:37:23Z</time>
      </trkpt>
      <trkpt lat="42.726" lon="1.54942">
        <ele>1046.5324707031</ele>
        <time>2012-06-10T12:37:26Z</time>
      </trkpt>
      <trkpt lat="42.72603" lon="1.54943">
        <ele>1046.0517578125</ele>
        <time>2012-06-10T12:37:30Z</time>
      </trkpt>
      <trkpt lat="42.72605" lon="1.54943">
        <ele>1045.5710449219</ele>
        <time>2012-06-10T12:37:31Z</time>
      </trkpt>
      <trkpt lat="42.72613" lon="1.54942">
        <ele>1044.1291503906</ele>
        <time>2012-06-10T12:37:36Z</time>
      </trkpt>
      <trkpt lat="42.72617" lon="1.54941">
        <ele>1044.6096191406</ele>
        <time>2012-06-10T12:37:40Z</time>
      </trkpt>
      <trkpt lat="42.72623" lon="1.54942">
        <ele>1042.6872558594</ele>
        <time>2012-06-10T12:37:46Z</time>
      </trkpt>
      <trkpt lat="42.72625" lon="1.54943">
        <ele>1042.6872558594</ele>
        <time>2012-06-10T12:37:48Z</time>
      </trkpt>
      <trkpt lat="42.72633" lon="1.5494">
        <ele>1042.2065429688</ele>
        <time>2012-06-10T12:37:54Z</time>
      </trkpt>
      <trkpt lat="42.72636" lon="1.5494">
        <ele>1041.7258300781</ele>
        <time>2012-06-10T12:37:58Z</time>
      </trkpt>
      <trkpt lat="42.72641" lon="1.54939">
        <ele>1040.7644042969</ele>
        <time>2012-06-10T12:38:04Z</time>
      </trkpt>
      <trkpt lat="42.72646" lon="1.54937">
        <ele>1038.8420410156</ele>
        <time>2012-06-10T12:38:09Z</time>
      </trkpt>
      <trkpt lat="42.72647" lon="1.54937">
        <ele>1038.361328125</ele>
        <time>2012-06-10T12:38:10Z</time>
      </trkpt>
      <trkpt lat="42.72652" lon="1.54939">
        <ele>1037.8806152344</ele>
        <time>2012-06-10T12:38:14Z</time>
      </trkpt>
      <trkpt lat="42.72656" lon="1.54941">
        <ele>1035.9577636719</ele>
        <time>2012-06-10T12:38:18Z</time>
      </trkpt>
      <trkpt lat="42.72662" lon="1.54941">
        <ele>1034.03515625</ele>
        <time>2012-06-10T12:38:23Z</time>
      </trkpt>
      <trkpt lat="42.72669" lon="1.54941">
        <ele>1033.0737304688</ele>
        <time>2012-06-10T12:38:29Z</time>
      </trkpt>
      <trkpt lat="42.72673" lon="1.54941">
        <ele>1032.1125488281</ele>
        <time>2012-06-10T12:38:33Z</time>
      </trkpt>
      <trkpt lat="42.72678" lon="1.5494">
        <ele>1032.1125488281</ele>
        <time>2012-06-10T12:38:38Z</time>
      </trkpt>
      <trkpt lat="42.7268" lon="1.54939">
        <ele>1031.6318359375</ele>
        <time>2012-06-10T12:38:40Z</time>
      </trkpt>
      <trkpt lat="42.72684" lon="1.5494">
        <ele>1032.1125488281</ele>
        <time>2012-06-10T12:38:43Z</time>
      </trkpt>
      <trkpt lat="42.7269" lon="1.54938">
        <ele>1032.1125488281</ele>
        <time>2012-06-10T12:38:49Z</time>
      </trkpt>
      <trkpt lat="42.72694" lon="1.54933">
        <ele>1030.6706542969</ele>
        <time>2012-06-10T12:38:55Z</time>
      </trkpt>
      <trkpt lat="42.72697" lon="1.54932">
        <ele>1028.2673339844</ele>
        <time>2012-06-10T12:38:59Z</time>
      </trkpt>
      <trkpt lat="42.72704" lon="1.54929">
        <ele>1026.8254394531</ele>
        <time>2012-06-10T12:39:07Z</time>
      </trkpt>
      <trkpt lat="42.7271" lon="1.54927">
        <ele>1024.9028320312</ele>
        <time>2012-06-10T12:39:12Z</time>
      </trkpt>
      <trkpt lat="42.72714" lon="1.54928">
        <ele>1022.9802246094</ele>
        <time>2012-06-10T12:39:16Z</time>
      </trkpt>
      <trkpt lat="42.72718" lon="1.54928">
        <ele>1021.0576171875</ele>
        <time>2012-06-10T12:39:20Z</time>
      </trkpt>
      <trkpt lat="42.72722" lon="1.54927">
        <ele>1019.6154785156</ele>
        <time>2012-06-10T12:39:22Z</time>
      </trkpt>
      <trkpt lat="42.72729" lon="1.54927">
        <ele>1018.1733398438</ele>
        <time>2012-06-10T12:39:27Z</time>
      </trkpt>
      <trkpt lat="42.72735" lon="1.54927">
        <ele>1017.2121582031</ele>
        <time>2012-06-10T12:39:31Z</time>
      </trkpt>
      <trkpt lat="42.72742" lon="1.54925">
        <ele>1017.2121582031</ele>
        <time>2012-06-10T12:39:35Z</time>
      </trkpt>
      <trkpt lat="42.72747" lon="1.54924">
        <ele>1017.6926269531</ele>
        <time>2012-06-10T12:39:39Z</time>
      </trkpt>
      <trkpt lat="42.72753" lon="1.54926">
        <ele>1016.2507324219</ele>
        <time>2012-06-10T12:39:43Z</time>
      </trkpt>
      <trkpt lat="42.7276" lon="1.54932">
        <ele>1013.8474121094</ele>
        <time>2012-06-10T12:39:49Z</time>
      </trkpt>
      <trkpt lat="42.72763" lon="1.54934">
        <ele>1014.328125</ele>
        <time>2012-06-10T12:39:54Z</time>
      </trkpt>
      <trkpt lat="42.7277" lon="1.5493">
        <ele>1015.7702636719</ele>
        <time>2012-06-10T12:40:00Z</time>
      </trkpt>
      <trkpt lat="42.72775" lon="1.54927">
        <ele>1021.0576171875</ele>
        <time>2012-06-10T12:40:04Z</time>
      </trkpt>
      <trkpt lat="42.7278" lon="1.5493">
        <ele>1014.328125</ele>
        <time>2012-06-10T12:40:08Z</time>
      </trkpt>
      <trkpt lat="42.72786" lon="1.54932">
        <ele>1009.041015625</ele>
        <time>2012-06-10T12:40:13Z</time>
      </trkpt>
      <trkpt lat="42.72792" lon="1.54937">
        <ele>1001.8310546875</ele>
        <time>2012-06-10T12:40:17Z</time>
      </trkpt>
      <trkpt lat="42.72796" lon="1.54938">
        <ele>996.5439453125</ele>
        <time>2012-06-10T12:40:20Z</time>
      </trkpt>
      <trkpt lat="42.72805" lon="1.54939">
        <ele>994.140625</ele>
        <time>2012-06-10T12:40:26Z</time>
      </trkpt>
      <trkpt lat="42.72812" lon="1.54934">
        <ele>994.140625</ele>
        <time>2012-06-10T12:40:32Z</time>
      </trkpt>
      <trkpt lat="42.72817" lon="1.54933">
        <ele>995.10180664062</ele>
        <time>2012-06-10T12:40:37Z</time>
      </trkpt>
      <trkpt lat="42.7282" lon="1.54933">
        <ele>996.06323242188</ele>
        <time>2012-06-10T12:40:39Z</time>
      </trkpt>
      <trkpt lat="42.72826" lon="1.54931">
        <ele>994.140625</ele>
        <time>2012-06-10T12:40:44Z</time>
      </trkpt>
      <trkpt lat="42.72831" lon="1.5493">
        <ele>991.25659179688</ele>
        <time>2012-06-10T12:40:49Z</time>
      </trkpt>
      <trkpt lat="42.72839" lon="1.54927">
        <ele>987.89184570312</ele>
        <time>2012-06-10T12:41:00Z</time>
      </trkpt>
      <trkpt lat="42.72844" lon="1.54921">
        <ele>984.52734375</ele>
        <time>2012-06-10T12:41:06Z</time>
      </trkpt>
      <trkpt lat="42.7285" lon="1.54918">
        <ele>982.60473632812</ele>
        <time>2012-06-10T12:41:12Z</time>
      </trkpt>
      <trkpt lat="42.72856" lon="1.54916">
        <ele>981.64331054688</ele>
        <time>2012-06-10T12:41:17Z</time>
      </trkpt>
      <trkpt lat="42.72858" lon="1.54916">
        <ele>982.1240234375</ele>
        <time>2012-06-10T12:41:19Z</time>
      </trkpt>
      <trkpt lat="42.72863" lon="1.54912">
        <ele>981.64331054688</ele>
        <time>2012-06-10T12:41:24Z</time>
      </trkpt>
      <trkpt lat="42.72869" lon="1.5491">
        <ele>981.16284179688</ele>
        <time>2012-06-10T12:41:29Z</time>
      </trkpt>
      <trkpt lat="42.72873" lon="1.54911">
        <ele>979.720703125</ele>
        <time>2012-06-10T12:41:33Z</time>
      </trkpt>
      <trkpt lat="42.72877" lon="1.54907">
        <ele>978.27880859375</ele>
        <time>2012-06-10T12:41:37Z</time>
      </trkpt>
      <trkpt lat="42.72882" lon="1.54898">
        <ele>991.25659179688</ele>
        <time>2012-06-10T12:42:04Z</time>
      </trkpt>
      <trkpt lat="42.72887" lon="1.54897">
        <ele>988.37280273438</ele>
        <time>2012-06-10T12:42:09Z</time>
      </trkpt>
      <trkpt lat="42.72891" lon="1.54897">
        <ele>983.08520507812</ele>
        <time>2012-06-10T12:42:13Z</time>
      </trkpt>
      <trkpt lat="42.72897" lon="1.54897">
        <ele>977.31762695312</ele>
        <time>2012-06-10T12:42:18Z</time>
      </trkpt>
      <trkpt lat="42.72904" lon="1.54896">
        <ele>974.91430664062</ele>
        <time>2012-06-10T12:42:24Z</time>
      </trkpt>
      <trkpt lat="42.7291" lon="1.54895">
        <ele>972.51098632812</ele>
        <time>2012-06-10T12:42:30Z</time>
      </trkpt>
      <trkpt lat="42.72919" lon="1.54898">
        <ele>967.7041015625</ele>
        <time>2012-06-10T12:42:37Z</time>
      </trkpt>
      <trkpt lat="42.72926" lon="1.54903">
        <ele>965.78173828125</ele>
        <time>2012-06-10T12:42:41Z</time>
      </trkpt>
      <trkpt lat="42.72927" lon="1.54908">
        <ele>964.8203125</ele>
        <time>2012-06-10T12:42:43Z</time>
      </trkpt>
      <trkpt lat="42.72931" lon="1.54918">
        <ele>964.33959960938</ele>
        <time>2012-06-10T12:42:49Z</time>
      </trkpt>
      <trkpt lat="42.72934" lon="1.54921">
        <ele>963.85888671875</ele>
        <time>2012-06-10T12:42:53Z</time>
      </trkpt>
      <trkpt lat="42.7294" lon="1.54924">
        <ele>962.89770507812</ele>
        <time>2012-06-10T12:42:58Z</time>
      </trkpt>
      <trkpt lat="42.72947" lon="1.54927">
        <ele>960.49438476562</ele>
        <time>2012-06-10T12:43:03Z</time>
      </trkpt>
      <trkpt lat="42.7295" lon="1.54931">
        <ele>956.16845703125</ele>
        <time>2012-06-10T12:43:08Z</time>
      </trkpt>
      <trkpt lat="42.72955" lon="1.54936">
        <ele>953.28442382812</ele>
        <time>2012-06-10T12:43:13Z</time>
      </trkpt>
      <trkpt lat="42.72959" lon="1.54946">
        <ele>955.68774414062</ele>
        <time>2012-06-10T12:43:19Z</time>
      </trkpt>
      <trkpt lat="42.72959" lon="1.54953">
        <ele>959.533203125</ele>
        <time>2012-06-10T12:43:23Z</time>
      </trkpt>
      <trkpt lat="42.72963" lon="1.54957">
        <ele>959.05249023438</ele>
        <time>2012-06-10T12:43:28Z</time>
      </trkpt>
      <trkpt lat="42.72968" lon="1.54954">
        <ele>956.16845703125</ele>
        <time>2012-06-10T12:43:36Z</time>
      </trkpt>
      <trkpt lat="42.72971" lon="1.54958">
        <ele>953.76513671875</ele>
        <time>2012-06-10T12:43:40Z</time>
      </trkpt>
      <trkpt lat="42.72975" lon="1.54966">
        <ele>952.32299804688</ele>
        <time>2012-06-10T12:43:45Z</time>
      </trkpt>
      <trkpt lat="42.72978" lon="1.54972">
        <ele>953.28442382812</ele>
        <time>2012-06-10T12:43:48Z</time>
      </trkpt>
      <trkpt lat="42.72981" lon="1.54983">
        <ele>954.72631835938</ele>
        <time>2012-06-10T12:43:53Z</time>
      </trkpt>
      <trkpt lat="42.72984" lon="1.54989">
        <ele>951.36181640625</ele>
        <time>2012-06-10T12:43:59Z</time>
      </trkpt>
      <trkpt lat="42.72987" lon="1.54991">
        <ele>950.40063476562</ele>
        <time>2012-06-10T12:44:02Z</time>
      </trkpt>
      <trkpt lat="42.72991" lon="1.54992">
        <ele>950.88110351562</ele>
        <time>2012-06-10T12:44:06Z</time>
      </trkpt>
      <trkpt lat="42.72994" lon="1.54987">
        <ele>945.59399414062</ele>
        <time>2012-06-10T12:44:13Z</time>
      </trkpt>
      <trkpt lat="42.72994" lon="1.54977">
        <ele>940.78735351562</ele>
        <time>2012-06-10T12:44:20Z</time>
      </trkpt>
      <trkpt lat="42.72995" lon="1.54974">
        <ele>940.30688476562</ele>
        <time>2012-06-10T12:44:22Z</time>
      </trkpt>
      <trkpt lat="42.72998" lon="1.54972">
        <ele>940.78735351562</ele>
        <time>2012-06-10T12:44:28Z</time>
      </trkpt>
      <trkpt lat="42.73003" lon="1.54965">
        <ele>944.15209960938</ele>
        <time>2012-06-10T12:44:33Z</time>
      </trkpt>
      <trkpt lat="42.73006" lon="1.54963">
        <ele>943.19067382812</ele>
        <time>2012-06-10T12:44:37Z</time>
      </trkpt>
      <trkpt lat="42.73008" lon="1.54957">
        <ele>940.30688476562</ele>
        <time>2012-06-10T12:44:42Z</time>
      </trkpt>
      <trkpt lat="42.73009" lon="1.5495">
        <ele>938.38403320312</ele>
        <time>2012-06-10T12:44:46Z</time>
      </trkpt>
      <trkpt lat="42.73009" lon="1.54943">
        <ele>938.38403320312</ele>
        <time>2012-06-10T12:44:50Z</time>
      </trkpt>
      <trkpt lat="42.73012" lon="1.54929">
        <ele>939.34521484375</ele>
        <time>2012-06-10T12:44:58Z</time>
      </trkpt>
      <trkpt lat="42.73014" lon="1.54923">
        <ele>941.74877929688</ele>
        <time>2012-06-10T12:45:02Z</time>
      </trkpt>
      <trkpt lat="42.73023" lon="1.54926">
        <ele>937.9033203125</ele>
        <time>2012-06-10T12:45:09Z</time>
      </trkpt>
      <trkpt lat="42.73024" lon="1.54927">
        <ele>937.42260742188</ele>
        <time>2012-06-10T12:45:10Z</time>
      </trkpt>
      <trkpt lat="42.7303" lon="1.54933">
        <ele>935.01953125</ele>
        <time>2012-06-10T12:45:15Z</time>
      </trkpt>
      <trkpt lat="42.73036" lon="1.54934">
        <ele>934.05810546875</ele>
        <time>2012-06-10T12:45:19Z</time>
      </trkpt>
      <trkpt lat="42.73042" lon="1.54939">
        <ele>931.17431640625</ele>
        <time>2012-06-10T12:45:24Z</time>
      </trkpt>
      <trkpt lat="42.73044" lon="1.54941">
        <ele>929.25146484375</ele>
        <time>2012-06-10T12:45:27Z</time>
      </trkpt>
      <trkpt lat="42.73048" lon="1.54953">
        <ele>926.84838867188</ele>
        <time>2012-06-10T12:45:35Z</time>
      </trkpt>
    </trkseg>
  </trk>
</gpx>